<?xml version='1.0' encoding='UTF-8'?><gpx version="1.1" creator="JPX - https://github.com/jenetics/jpx" xmlns="http://www.topografix.com/GPX/1/1"><trk><trkseg><trkpt lat="42.08756225520393" lon="11.875558728545151"><ele>171.0</ele><time>2026-04-18T09:19:34.002Z</time></trkpt><trkpt lat="42.087539598658736" lon="11.87568825000619"><ele>171.0</ele><time>2026-04-18T09:19:36.002Z</time></trkpt><trkpt lat="42.08751322934033" lon="11.875839913175508"><ele>171.0</ele><time>2026-04-18T09:19:38.002Z</time></trkpt><trkpt lat="42.087441819467266" lon="11.87597033661631"><ele>171.0</ele><time>2026-04-18T09:19:40.002Z</time></trkpt><trkpt lat="42.087356882323974" lon="11.876083236030391"><ele>169.16666666666666</ele><time>2026-04-18T09:19:42.002Z</time></trkpt><trkpt lat="42.087313996153796" lon="11.876229106728731"><ele>167.33333333333334</ele><time>2026-04-18T09:19:44.002Z</time></trkpt><trkpt lat="42.087276934074666" lon="11.876304308232285"><ele>165.5</ele><time>2026-04-18T09:19:45.002Z</time></trkpt><trkpt lat="42.087224747285624" lon="11.876376475535897"><ele>163.66666666666669</ele><time>2026-04-18T09:19:46.002Z</time></trkpt><trkpt lat="42.08717779190788" lon="11.87643835831464"><ele>161.83333333333334</ele><time>2026-04-18T09:19:47.002Z</time></trkpt><trkpt lat="42.08711638633048" lon="11.87657712701014"><ele>160.0</ele><time>2026-04-18T09:19:49.002Z</time></trkpt><trkpt lat="42.087078964823036" lon="11.876652152425981"><ele>160.0</ele><time>2026-04-18T09:19:50.002Z</time></trkpt><trkpt lat="42.08705514759781" lon="11.876741614641789"><ele>160.0</ele><time>2026-04-18T09:19:51.002Z</time></trkpt><trkpt lat="42.08704432840125" lon="11.876918009059183"><ele>160.0</ele><time>2026-04-18T09:19:53.002Z</time></trkpt><trkpt lat="42.0870165291985" lon="11.877010101528349"><ele>160.0</ele><time>2026-04-18T09:19:54.002Z</time></trkpt><trkpt lat="42.08697618338001" lon="11.877088061427644"><ele>160.0</ele><time>2026-04-18T09:19:55.002Z</time></trkpt><trkpt lat="42.08693847750036" lon="11.877157542114345"><ele>160.0</ele><time>2026-04-18T09:19:56.002Z</time></trkpt><trkpt lat="42.08687276577197" lon="11.877273490488214"><ele>158.5</ele><time>2026-04-18T09:19:58.002Z</time></trkpt><trkpt lat="42.08677226962174" lon="11.877349322175972"><ele>157.0</ele><time>2026-04-18T09:20:00.003Z</time></trkpt><trkpt lat="42.086713043329155" lon="11.877399924724008"><ele>155.5</ele><time>2026-04-18T09:20:01.003Z</time></trkpt><trkpt lat="42.086648686448925" lon="11.87748050872144"><ele>154.0</ele><time>2026-04-18T09:20:02.003Z</time></trkpt><trkpt lat="42.08659925325807" lon="11.877558278518888"><ele>152.5</ele><time>2026-04-18T09:20:03.003Z</time></trkpt><trkpt lat="42.08653318143628" lon="11.877649538078746"><ele>151.0</ele><time>2026-04-18T09:20:05.003Z</time></trkpt><trkpt lat="42.086429271843905" lon="11.87773461997507"><ele>148.5</ele><time>2026-04-18T09:20:07.003Z</time></trkpt><trkpt lat="42.08637300416286" lon="11.87779087262823"><ele>146.0</ele><time>2026-04-18T09:20:08.003Z</time></trkpt><trkpt lat="42.0863221818988" lon="11.877858585843285"><ele>143.5</ele><time>2026-04-18T09:20:09.003Z</time></trkpt><trkpt lat="42.08627341301638" lon="11.877943981648164"><ele>141.0</ele><time>2026-04-18T09:20:10.003Z</time></trkpt><trkpt lat="42.0862268598006" lon="11.8780247126233"><ele>138.5</ele><time>2026-04-18T09:20:11.003Z</time></trkpt><trkpt lat="42.08618587346668" lon="11.878099499825634"><ele>136.0</ele><time>2026-04-18T09:20:12.003Z</time></trkpt><trkpt lat="42.08611309213067" lon="11.87822250482831"><ele>136.0</ele><time>2026-04-18T09:20:14.003Z</time></trkpt><trkpt lat="42.08607461629289" lon="11.878302914604397"><ele>136.0</ele><time>2026-04-18T09:20:15.003Z</time></trkpt><trkpt lat="42.08604504734662" lon="11.87838293322495"><ele>136.0</ele><time>2026-04-18T09:20:16.003Z</time></trkpt><trkpt lat="42.08598652955933" lon="11.878533883591048"><ele>136.0</ele><time>2026-04-18T09:20:18.003Z</time></trkpt><trkpt lat="42.085957559527614" lon="11.87861166414661"><ele>136.0</ele><time>2026-04-18T09:20:19.001Z</time></trkpt><trkpt lat="42.08593050728734" lon="11.878689427211041"><ele>136.0</ele><time>2026-04-18T09:20:20.001Z</time></trkpt><trkpt lat="42.08588026715205" lon="11.8788513948321"><ele>134.2</ele><time>2026-04-18T09:20:22.001Z</time></trkpt><trkpt lat="42.08585721679949" lon="11.87893124639176"><ele>132.39999999999998</ele><time>2026-04-18T09:20:23.001Z</time></trkpt><trkpt lat="42.085825577770045" lon="11.879082479460093"><ele>130.6</ele><time>2026-04-18T09:20:25.001Z</time></trkpt><trkpt lat="42.085817542071474" lon="11.879243471423262"><ele>128.79999999999998</ele><time>2026-04-18T09:20:27.001Z</time></trkpt><trkpt lat="42.08582333682931" lon="11.879392963131632"><ele>127.0</ele><time>2026-04-18T09:20:29.001Z</time></trkpt><trkpt lat="42.085851634575526" lon="11.879555396422816"><ele>125.16666666666667</ele><time>2026-04-18T09:20:31.001Z</time></trkpt><trkpt lat="42.08586256401251" lon="11.879648751548515"><ele>123.33333333333334</ele><time>2026-04-18T09:20:32.001Z</time></trkpt><trkpt lat="42.08585725838545" lon="11.879735036823051"><ele>121.5</ele><time>2026-04-18T09:20:33.001Z</time></trkpt><trkpt lat="42.0858338736301" lon="11.879879646614878"><ele>119.66666666666666</ele><time>2026-04-18T09:20:35.001Z</time></trkpt><trkpt lat="42.085775126933655" lon="11.880014755257712"><ele>117.83333333333333</ele><time>2026-04-18T09:20:37.001Z</time></trkpt><trkpt lat="42.08572410049" lon="11.880084280684837"><ele>116.0</ele><time>2026-04-18T09:20:38.001Z</time></trkpt><trkpt lat="42.085655919318874" lon="11.88015357211725"><ele>113.16666666666666</ele><time>2026-04-18T09:20:39.001Z</time></trkpt><trkpt lat="42.08559224340767" lon="11.880218629002107"><ele>110.33333333333333</ele><time>2026-04-18T09:20:40.001Z</time></trkpt><trkpt lat="42.08552611766425" lon="11.880292161782409"><ele>107.5</ele><time>2026-04-18T09:20:41.001Z</time></trkpt><trkpt lat="42.085476229857505" lon="11.88035963849311"><ele>104.66666666666666</ele><time>2026-04-18T09:20:42.001Z</time></trkpt><trkpt lat="42.08542947085091" lon="11.880422326213065"><ele>101.83333333333333</ele><time>2026-04-18T09:20:43.001Z</time></trkpt><trkpt lat="42.08538297324004" lon="11.880498297465858"><ele>99.0</ele><time>2026-04-18T09:20:44.001Z</time></trkpt><trkpt lat="42.08534274955663" lon="11.88065908565592"><ele>99.0</ele><time>2026-04-18T09:20:46.001Z</time></trkpt><trkpt lat="42.0853347614177" lon="11.880747524783652"><ele>99.0</ele><time>2026-04-18T09:20:47.001Z</time></trkpt><trkpt lat="42.08530646206348" lon="11.880831704750621"><ele>99.0</ele><time>2026-04-18T09:20:48.001Z</time></trkpt><trkpt lat="42.08526111080572" lon="11.880913256945947"><ele>99.0</ele><time>2026-04-18T09:20:49.001Z</time></trkpt><trkpt lat="42.08521096737363" lon="11.880995483096745"><ele>99.0</ele><time>2026-04-18T09:20:50.001Z</time></trkpt><trkpt lat="42.0851718054595" lon="11.881063522029148"><ele>99.0</ele><time>2026-04-18T09:20:51.001Z</time></trkpt><trkpt lat="42.085148360106224" lon="11.881196681437496"><ele>97.83333333333333</ele><time>2026-04-18T09:20:53.001Z</time></trkpt><trkpt lat="42.08516028722112" lon="11.881379429550536"><ele>96.66666666666667</ele><time>2026-04-18T09:20:55.001Z</time></trkpt><trkpt lat="42.08516691002159" lon="11.88148808799335"><ele>95.5</ele><time>2026-04-18T09:20:56.001Z</time></trkpt><trkpt lat="42.08516487903115" lon="11.88157971349132"><ele>94.33333333333334</ele><time>2026-04-18T09:20:57.001Z</time></trkpt><trkpt lat="42.085149945403764" lon="11.881686186107727"><ele>93.16666666666667</ele><time>2026-04-18T09:20:58.001Z</time></trkpt><trkpt lat="42.08512691451962" lon="11.881776950830863"><ele>92.0</ele><time>2026-04-18T09:20:59.001Z</time></trkpt><trkpt lat="42.085095989207346" lon="11.88186151751851"><ele>91.83333333333334</ele><time>2026-04-18T09:21:00.001Z</time></trkpt><trkpt lat="42.085058167510695" lon="11.881945569054004"><ele>91.66666666666667</ele><time>2026-04-18T09:21:01.001Z</time></trkpt><trkpt lat="42.08502784921122" lon="11.882039981704269"><ele>91.5</ele><time>2026-04-18T09:21:02.001Z</time></trkpt><trkpt lat="42.085003625089264" lon="11.8821330000981"><ele>91.33333333333333</ele><time>2026-04-18T09:21:03.001Z</time></trkpt><trkpt lat="42.08497659280424" lon="11.882227546718353"><ele>91.16666666666666</ele><time>2026-04-18T09:21:04.001Z</time></trkpt><trkpt lat="42.08494794442773" lon="11.882313818701679"><ele>91.0</ele><time>2026-04-18T09:21:05.001Z</time></trkpt><trkpt lat="42.08489914681583" lon="11.882442213632013"><ele>90.83333333333333</ele><time>2026-04-18T09:21:07.001Z</time></trkpt><trkpt lat="42.08485977823007" lon="11.882514737639575"><ele>90.66666666666666</ele><time>2026-04-18T09:21:09.001Z</time></trkpt><trkpt lat="42.08477752343203" lon="11.88260756961251"><ele>90.5</ele><time>2026-04-18T09:21:11.001Z</time></trkpt><trkpt lat="42.08471516074934" lon="11.882645587295336"><ele>90.33333333333333</ele><time>2026-04-18T09:21:13.001Z</time></trkpt><trkpt lat="42.08477400163275" lon="11.882676352105817"><ele>90.16666666666667</ele><time>2026-04-18T09:21:41.002Z</time></trkpt><trkpt lat="42.08482179197198" lon="11.88276702498172"><ele>90.0</ele><time>2026-04-18T09:21:56.002Z</time></trkpt><trkpt lat="42.08483184024397" lon="11.882863449241462"><ele>90.0</ele><time>2026-04-18T09:21:58.002Z</time></trkpt><trkpt lat="42.084824120793925" lon="11.882950106283026"><ele>90.0</ele><time>2026-04-18T09:22:00.002Z</time></trkpt><trkpt lat="42.084770249122506" lon="11.883012906460564"><ele>90.0</ele><time>2026-04-18T09:22:03.002Z</time></trkpt><trkpt lat="42.08472626119299" lon="11.88309047738504"><ele>90.0</ele><time>2026-04-18T09:22:14.003Z</time></trkpt><trkpt lat="42.08469900411243" lon="11.883212390361152"><ele>90.0</ele><time>2026-04-18T09:22:17.003Z</time></trkpt><trkpt lat="42.084623617493" lon="11.88322362645117"><ele>90.0</ele><time>2026-04-18T09:24:59.001Z</time></trkpt><trkpt lat="42.08455144510379" lon="11.883207806402638"><ele>90.0</ele><time>2026-04-18T09:25:02.001Z</time></trkpt><trkpt lat="42.084470819151925" lon="11.883190844172914"><ele>90.0</ele><time>2026-04-18T09:25:05.001Z</time></trkpt><trkpt lat="42.084429871373914" lon="11.883288638977042"><ele>90.0</ele><time>2026-04-18T09:25:07.001Z</time></trkpt><trkpt lat="42.08435757052879" lon="11.88335710852665"><ele>90.0</ele><time>2026-04-18T09:25:10.001Z</time></trkpt><trkpt lat="42.084285960105476" lon="11.883471784909453"><ele>90.0</ele><time>2026-04-18T09:25:12.001Z</time></trkpt><trkpt lat="42.08423379647394" lon="11.883541627308519"><ele>90.0</ele><time>2026-04-18T09:25:13.001Z</time></trkpt><trkpt lat="42.0841820442545" lon="11.883614653667802"><ele>89.8</ele><time>2026-04-18T09:25:14.001Z</time></trkpt><trkpt lat="42.084132596326704" lon="11.883695056668218"><ele>89.6</ele><time>2026-04-18T09:25:15.001Z</time></trkpt><trkpt lat="42.08407889644732" lon="11.883783756818069"><ele>89.4</ele><time>2026-04-18T09:25:16.001Z</time></trkpt><trkpt lat="42.08399859071393" lon="11.883887717727571"><ele>89.2</ele><time>2026-04-18T09:25:17.001Z</time></trkpt><trkpt lat="42.08389801326135" lon="11.883978852291257"><ele>89.0</ele><time>2026-04-18T09:25:18.001Z</time></trkpt><trkpt lat="42.0837817316009" lon="11.88404653571695"><ele>89.0</ele><time>2026-04-18T09:25:19.001Z</time></trkpt><trkpt lat="42.08363116948093" lon="11.884157793097547"><ele>89.0</ele><time>2026-04-18T09:25:20.001Z</time></trkpt><trkpt lat="42.08347059401495" lon="11.884282798242754"><ele>89.0</ele><time>2026-04-18T09:25:21.001Z</time></trkpt><trkpt lat="42.0832944975346" lon="11.884385796659917"><ele>88.0</ele><time>2026-04-18T09:25:22.001Z</time></trkpt><trkpt lat="42.08310411108314" lon="11.884511467093134"><ele>87.0</ele><time>2026-04-18T09:25:23.001Z</time></trkpt><trkpt lat="42.082930178224686" lon="11.884629867219019"><ele>86.0</ele><time>2026-04-18T09:25:24.001Z</time></trkpt><trkpt lat="42.082809546203464" lon="11.884716325774429"><ele>86.0</ele><time>2026-04-18T09:25:25.001Z</time></trkpt><trkpt lat="42.08271751333864" lon="11.88479533068644"><ele>86.0</ele><time>2026-04-18T09:25:26.001Z</time></trkpt><trkpt lat="42.08264718746737" lon="11.884856123799736"><ele>86.0</ele><time>2026-04-18T09:25:27.001Z</time></trkpt><trkpt lat="42.08258604012149" lon="11.884905766532698"><ele>86.0</ele><time>2026-04-18T09:25:28.001Z</time></trkpt><trkpt lat="42.08251676664561" lon="11.885039742101677"><ele>86.0</ele><time>2026-04-18T09:25:30.001Z</time></trkpt><trkpt lat="42.08248275821318" lon="11.885152741609922"><ele>85.6</ele><time>2026-04-18T09:25:32.001Z</time></trkpt><trkpt lat="42.082386275494535" lon="11.885186551815721"><ele>85.19999999999999</ele><time>2026-04-18T09:25:34.001Z</time></trkpt><trkpt lat="42.082252253622656" lon="11.885152705367165"><ele>84.80000000000001</ele><time>2026-04-18T09:25:36.001Z</time></trkpt><trkpt lat="42.082169247727315" lon="11.885170095747377"><ele>84.4</ele><time>2026-04-18T09:25:37.001Z</time></trkpt><trkpt lat="42.08204554835864" lon="11.885216769635424"><ele>84.0</ele><time>2026-04-18T09:25:38.001Z</time></trkpt><trkpt lat="42.08193010295436" lon="11.88526799272265"><ele>84.0</ele><time>2026-04-18T09:25:39.001Z</time></trkpt><trkpt lat="42.081828696429035" lon="11.885316690837941"><ele>84.0</ele><time>2026-04-18T09:25:41.002Z</time></trkpt><trkpt lat="42.081724560244005" lon="11.885386026904259"><ele>84.0</ele><time>2026-04-18T09:25:43.002Z</time></trkpt><trkpt lat="42.08165082874648" lon="11.885429377550409"><ele>84.0</ele><time>2026-04-18T09:25:44.002Z</time></trkpt><trkpt lat="42.08157003413552" lon="11.885486798077642"><ele>84.0</ele><time>2026-04-18T09:25:45.002Z</time></trkpt><trkpt lat="42.08149459439845" lon="11.88555298632152"><ele>84.2</ele><time>2026-04-18T09:25:46.002Z</time></trkpt><trkpt lat="42.081418421462146" lon="11.885630245133171"><ele>84.4</ele><time>2026-04-18T09:25:47.002Z</time></trkpt><trkpt lat="42.081344062356244" lon="11.885712615844422"><ele>84.6</ele><time>2026-04-18T09:25:48.002Z</time></trkpt><trkpt lat="42.08128911442276" lon="11.885783739290575"><ele>84.8</ele><time>2026-04-18T09:25:49.002Z</time></trkpt><trkpt lat="42.081227053519484" lon="11.885865572463693"><ele>85.0</ele><time>2026-04-18T09:25:50.002Z</time></trkpt><trkpt lat="42.08115130071996" lon="11.885950478802595"><ele>84.2</ele><time>2026-04-18T09:25:51.002Z</time></trkpt><trkpt lat="42.08107898440831" lon="11.886020096124696"><ele>83.4</ele><time>2026-04-18T09:25:52.002Z</time></trkpt><trkpt lat="42.08101708237449" lon="11.886067809178057"><ele>82.6</ele><time>2026-04-18T09:25:53.002Z</time></trkpt><trkpt lat="42.08094112677544" lon="11.886227467704174"><ele>81.8</ele><time>2026-04-18T09:25:55.002Z</time></trkpt><trkpt lat="42.08091264617471" lon="11.886319405199401"><ele>81.0</ele><time>2026-04-18T09:25:56.002Z</time></trkpt><trkpt lat="42.08088649205939" lon="11.88641849113109"><ele>81.0</ele><time>2026-04-18T09:25:57.002Z</time></trkpt><trkpt lat="42.08083450681651" lon="11.886538609793623"><ele>81.0</ele><time>2026-04-18T09:25:59.002Z</time></trkpt><trkpt lat="42.080754819746794" lon="11.886613265152372"><ele>81.0</ele><time>2026-04-18T09:26:02.002Z</time></trkpt><trkpt lat="42.08066040027029" lon="11.886636985895494"><ele>81.0</ele><time>2026-04-18T09:26:04.002Z</time></trkpt><trkpt lat="42.08054907688428" lon="11.886736186097215"><ele>81.0</ele><time>2026-04-18T09:26:06.002Z</time></trkpt><trkpt lat="42.080500043850556" lon="11.886795107747734"><ele>80.6</ele><time>2026-04-18T09:26:07.002Z</time></trkpt><trkpt lat="42.08039284930691" lon="11.886858462301"><ele>80.19999999999999</ele><time>2026-04-18T09:26:09.002Z</time></trkpt><trkpt lat="42.08030804379812" lon="11.886864724950678"><ele>79.80000000000001</ele><time>2026-04-18T09:26:10.002Z</time></trkpt><trkpt lat="42.08019987864892" lon="11.886847069119012"><ele>79.4</ele><time>2026-04-18T09:26:11.002Z</time></trkpt><trkpt lat="42.080088795096735" lon="11.886844729712655"><ele>79.0</ele><time>2026-04-18T09:26:12.002Z</time></trkpt><trkpt lat="42.07996183021246" lon="11.886877847354413"><ele>78.4</ele><time>2026-04-18T09:26:13.002Z</time></trkpt><trkpt lat="42.07986842573212" lon="11.88687795703006"><ele>77.80000000000001</ele><time>2026-04-18T09:26:14.002Z</time></trkpt><trkpt lat="42.07979727681602" lon="11.886812275310305"><ele>77.19999999999999</ele><time>2026-04-18T09:26:15.002Z</time></trkpt><trkpt lat="42.07971599894945" lon="11.886709670188466"><ele>76.6</ele><time>2026-04-18T09:26:16.002Z</time></trkpt><trkpt lat="42.079638065077916" lon="11.88661407225855"><ele>76.0</ele><time>2026-04-18T09:26:17.002Z</time></trkpt><trkpt lat="42.07956812112193" lon="11.886581219765274"><ele>76.0</ele><time>2026-04-18T09:26:18.002Z</time></trkpt><trkpt lat="42.07949325950815" lon="11.886595172863665"><ele>76.0</ele><time>2026-04-18T09:26:19.002Z</time></trkpt><trkpt lat="42.07940949497962" lon="11.886608915890065"><ele>76.0</ele><time>2026-04-18T09:26:20.002Z</time></trkpt><trkpt lat="42.079307362060156" lon="11.886579166325971"><ele>76.0</ele><time>2026-04-18T09:26:21.002Z</time></trkpt><trkpt lat="42.07918527289269" lon="11.886532676249754"><ele>76.0</ele><time>2026-04-18T09:26:22.002Z</time></trkpt><trkpt lat="42.07908019627941" lon="11.886482621686005"><ele>76.39999999999999</ele><time>2026-04-18T09:26:23.002Z</time></trkpt><trkpt lat="42.07900263577006" lon="11.886410731793834"><ele>76.8</ele><time>2026-04-18T09:26:24.002Z</time></trkpt><trkpt lat="42.07893406124217" lon="11.886318115182915"><ele>77.19999999999999</ele><time>2026-04-18T09:26:25.002Z</time></trkpt><trkpt lat="42.0788723649489" lon="11.886214405324099"><ele>77.6</ele><time>2026-04-18T09:26:26.002Z</time></trkpt><trkpt lat="42.07881532043255" lon="11.886105218502228"><ele>78.0</ele><time>2026-04-18T09:26:27.002Z</time></trkpt><trkpt lat="42.07874822101494" lon="11.885995340570124"><ele>76.75</ele><time>2026-04-18T09:26:28.002Z</time></trkpt><trkpt lat="42.07866176147444" lon="11.885883739246301"><ele>75.5</ele><time>2026-04-18T09:26:29.002Z</time></trkpt><trkpt lat="42.07856774527399" lon="11.885757941763735"><ele>74.25</ele><time>2026-04-18T09:26:30.002Z</time></trkpt><trkpt lat="42.078478011147844" lon="11.885640248050926"><ele>73.0</ele><time>2026-04-18T09:26:31.002Z</time></trkpt><trkpt lat="42.07838239920041" lon="11.885547794621823"><ele>73.0</ele><time>2026-04-18T09:26:32.002Z</time></trkpt><trkpt lat="42.07827904671161" lon="11.885474323647067"><ele>73.0</ele><time>2026-04-18T09:26:33.002Z</time></trkpt><trkpt lat="42.078199456511925" lon="11.885391962599922"><ele>73.0</ele><time>2026-04-18T09:26:34.002Z</time></trkpt><trkpt lat="42.078122204641225" lon="11.88529046154249"><ele>73.0</ele><time>2026-04-18T09:26:35.002Z</time></trkpt><trkpt lat="42.07803557781558" lon="11.885192767099436"><ele>73.0</ele><time>2026-04-18T09:26:36.002Z</time></trkpt><trkpt lat="42.07794047689377" lon="11.8851137923218"><ele>74.0</ele><time>2026-04-18T09:26:37.001Z</time></trkpt><trkpt lat="42.07784386060091" lon="11.885039823946043"><ele>75.0</ele><time>2026-04-18T09:26:38.001Z</time></trkpt><trkpt lat="42.077737782071615" lon="11.884968585159868"><ele>76.0</ele><time>2026-04-18T09:26:39.001Z</time></trkpt><trkpt lat="42.07761992439537" lon="11.884910459870811"><ele>77.0</ele><time>2026-04-18T09:26:40.001Z</time></trkpt><trkpt lat="42.077502081003956" lon="11.884863806436293"><ele>77.0</ele><time>2026-04-18T09:26:41.001Z</time></trkpt><trkpt lat="42.07738787070824" lon="11.884803296982227"><ele>77.0</ele><time>2026-04-18T09:26:42.001Z</time></trkpt><trkpt lat="42.07727896828722" lon="11.884746762659901"><ele>77.0</ele><time>2026-04-18T09:26:43.001Z</time></trkpt><trkpt lat="42.07719364601637" lon="11.884737993098668"><ele>77.0</ele><time>2026-04-18T09:26:44.001Z</time></trkpt><trkpt lat="42.07709498597582" lon="11.884773805701316"><ele>77.0</ele><time>2026-04-18T09:26:45.001Z</time></trkpt><trkpt lat="42.0769928869089" lon="11.88481485514888"><ele>77.0</ele><time>2026-04-18T09:26:46.001Z</time></trkpt><trkpt lat="42.07688671426874" lon="11.884849107706378"><ele>77.0</ele><time>2026-04-18T09:26:47.001Z</time></trkpt><trkpt lat="42.076783894994406" lon="11.884866417402634"><ele>77.0</ele><time>2026-04-18T09:26:48.001Z</time></trkpt><trkpt lat="42.07669097099155" lon="11.8848462210647"><ele>77.0</ele><time>2026-04-18T09:26:49.001Z</time></trkpt><trkpt lat="42.07658635622024" lon="11.884792589638211"><ele>77.0</ele><time>2026-04-18T09:26:50.001Z</time></trkpt><trkpt lat="42.0764797058761" lon="11.884746284094575"><ele>76.8</ele><time>2026-04-18T09:26:51.001Z</time></trkpt><trkpt lat="42.07638467176501" lon="11.884710125572928"><ele>76.6</ele><time>2026-04-18T09:26:52.001Z</time></trkpt><trkpt lat="42.07628482816799" lon="11.88467290908747"><ele>76.39999999999999</ele><time>2026-04-18T09:26:53.001Z</time></trkpt><trkpt lat="42.07617601885772" lon="11.884640640138931"><ele>76.2</ele><time>2026-04-18T09:26:54.001Z</time></trkpt><trkpt lat="42.076044810332014" lon="11.884605557830872"><ele>76.0</ele><time>2026-04-18T09:26:55.001Z</time></trkpt><trkpt lat="42.07589817278856" lon="11.884569191161223"><ele>76.0</ele><time>2026-04-18T09:26:56.001Z</time></trkpt><trkpt lat="42.075771738399496" lon="11.88454678242774"><ele>76.0</ele><time>2026-04-18T09:26:57.001Z</time></trkpt><trkpt lat="42.075625453179214" lon="11.884545176826999"><ele>76.0</ele><time>2026-04-18T09:26:58.001Z</time></trkpt><trkpt lat="42.07545984991357" lon="11.884524949064877"><ele>76.0</ele><time>2026-04-18T09:26:59.001Z</time></trkpt><trkpt lat="42.07532166410742" lon="11.884492407096573"><ele>76.75</ele><time>2026-04-18T09:27:00.001Z</time></trkpt><trkpt lat="42.07521916523372" lon="11.884487215433365"><ele>77.5</ele><time>2026-04-18T09:27:01.001Z</time></trkpt><trkpt lat="42.07511901161595" lon="11.884506492533083"><ele>78.25</ele><time>2026-04-18T09:27:02.001Z</time></trkpt><trkpt lat="42.074998257465985" lon="11.88451387627452"><ele>79.0</ele><time>2026-04-18T09:27:03.001Z</time></trkpt><trkpt lat="42.074864057112144" lon="11.884506064539414"><ele>79.25</ele><time>2026-04-18T09:27:04.001Z</time></trkpt><trkpt lat="42.0747267858433" lon="11.884476052432937"><ele>79.5</ele><time>2026-04-18T09:27:05.001Z</time></trkpt><trkpt lat="42.074591440319395" lon="11.884420288802925"><ele>79.75</ele><time>2026-04-18T09:27:06.001Z</time></trkpt><trkpt lat="42.07446594311579" lon="11.884348837788282"><ele>80.0</ele><time>2026-04-18T09:27:07.001Z</time></trkpt><trkpt lat="42.07430747226398" lon="11.884285794731875"><ele>78.66666666666667</ele><time>2026-04-18T09:27:08.001Z</time></trkpt><trkpt lat="42.07413542546264" lon="11.884255323166999"><ele>77.33333333333333</ele><time>2026-04-18T09:27:09.001Z</time></trkpt><trkpt lat="42.07397338325079" lon="11.884215324108325"><ele>76.0</ele><time>2026-04-18T09:27:10.001Z</time></trkpt><trkpt lat="42.07384002471322" lon="11.884168205285638"><ele>75.2</ele><time>2026-04-18T09:27:11.001Z</time></trkpt><trkpt lat="42.07372264089622" lon="11.884146492483174"><ele>74.39999999999999</ele><time>2026-04-18T09:27:12.001Z</time></trkpt><trkpt lat="42.07361289375527" lon="11.884181444448169"><ele>73.6</ele><time>2026-04-18T09:27:13.001Z</time></trkpt><trkpt lat="42.073516894034114" lon="11.884203694911154"><ele>72.8</ele><time>2026-04-18T09:27:14.001Z</time></trkpt><trkpt lat="42.07343036062417" lon="11.884176257507182"><ele>72.0</ele><time>2026-04-18T09:27:15.001Z</time></trkpt><trkpt lat="42.07333088648971" lon="11.884165340221841"><ele>72.2</ele><time>2026-04-18T09:27:16.001Z</time></trkpt><trkpt lat="42.07321711838229" lon="11.884205709233239"><ele>72.4</ele><time>2026-04-18T09:27:17.001Z</time></trkpt><trkpt lat="42.0731133371359" lon="11.884262122473206"><ele>72.6</ele><time>2026-04-18T09:27:18.001Z</time></trkpt><trkpt lat="42.07301496478657" lon="11.884313749518531"><ele>72.8</ele><time>2026-04-18T09:27:19.001Z</time></trkpt><trkpt lat="42.07291568035307" lon="11.884334030199376"><ele>73.0</ele><time>2026-04-18T09:27:20.001Z</time></trkpt><trkpt lat="42.07281432785943" lon="11.884311962940613"><ele>73.0</ele><time>2026-04-18T09:27:21.001Z</time></trkpt><trkpt lat="42.072748222500685" lon="11.884289963275267"><ele>73.0</ele><time>2026-04-18T09:27:22.001Z</time></trkpt><trkpt lat="42.07268505674154" lon="11.884292187754122"><ele>73.0</ele><time>2026-04-18T09:28:39.002Z</time></trkpt><trkpt lat="42.072622819620264" lon="11.884236684302614"><ele>73.0</ele><time>2026-04-18T09:30:39.001Z</time></trkpt><trkpt lat="42.07256309732626" lon="11.88427936227872"><ele>73.0</ele><time>2026-04-18T09:31:05Z</time></trkpt><trkpt lat="42.07242407412186" lon="11.884287488051498"><ele>73.0</ele><time>2026-04-18T09:31:07Z</time></trkpt><trkpt lat="42.072349594543404" lon="11.884282127247921"><ele>73.5</ele><time>2026-04-18T09:31:08Z</time></trkpt><trkpt lat="42.07227440287263" lon="11.884279482956332"><ele>74.0</ele><time>2026-04-18T09:31:10Z</time></trkpt><trkpt lat="42.072340180138255" lon="11.884254648570726"><ele>74.5</ele><time>2026-04-18T09:31:19Z</time></trkpt><trkpt lat="42.0724237969963" lon="11.884281966526228"><ele>75.0</ele><time>2026-04-18T09:31:21Z</time></trkpt><trkpt lat="42.07251994180465" lon="11.884290710785832"><ele>75.5</ele><time>2026-04-18T09:31:23Z</time></trkpt><trkpt lat="42.072609459703216" lon="11.884277039469497"><ele>76.0</ele><time>2026-04-18T09:31:25Z</time></trkpt><trkpt lat="42.07268099081047" lon="11.884330883707364"><ele>74.8</ele><time>2026-04-18T09:31:28Z</time></trkpt><trkpt lat="42.07265127634305" lon="11.884515548108071"><ele>73.6</ele><time>2026-04-18T09:31:30Z</time></trkpt><trkpt lat="42.07264932574328" lon="11.88462518512055"><ele>72.4</ele><time>2026-04-18T09:31:31Z</time></trkpt><trkpt lat="42.072637843653936" lon="11.88479752668113"><ele>71.2</ele><time>2026-04-18T09:31:33Z</time></trkpt><trkpt lat="42.072631246782244" lon="11.8849073420054"><ele>70.0</ele><time>2026-04-18T09:31:34Z</time></trkpt><trkpt lat="42.07262311731294" lon="11.885025242577504"><ele>73.25</ele><time>2026-04-18T09:31:35Z</time></trkpt><trkpt lat="42.072623562206296" lon="11.885145730913843"><ele>76.5</ele><time>2026-04-18T09:31:36Z</time></trkpt><trkpt lat="42.07261737617783" lon="11.88528727191943"><ele>79.75</ele><time>2026-04-18T09:31:37Z</time></trkpt><trkpt lat="42.072613552060766" lon="11.885469236464747"><ele>83.0</ele><time>2026-04-18T09:31:38Z</time></trkpt><trkpt lat="42.07261350444384" lon="11.885641723979228"><ele>83.0</ele><time>2026-04-18T09:31:39Z</time></trkpt><trkpt lat="42.07259172726444" lon="11.885795192273862"><ele>83.0</ele><time>2026-04-18T09:31:40Z</time></trkpt><trkpt lat="42.07254208314004" lon="11.885980471795952"><ele>83.0</ele><time>2026-04-18T09:31:41Z</time></trkpt><trkpt lat="42.0724923622359" lon="11.88616737059834"><ele>83.0</ele><time>2026-04-18T09:31:42Z</time></trkpt><trkpt lat="42.07246840657109" lon="11.886260904351479"><ele>83.0</ele><time>2026-04-18T09:31:43Z</time></trkpt><trkpt lat="42.07239964997789" lon="11.886267893790112"><ele>83.0</ele><time>2026-04-18T09:31:47Z</time></trkpt><trkpt lat="42.07242005744938" lon="11.886172309336722"><ele>83.0</ele><time>2026-04-18T09:31:49Z</time></trkpt><trkpt lat="42.07248645849758" lon="11.886079946896132"><ele>83.0</ele><time>2026-04-18T09:31:51.001Z</time></trkpt><trkpt lat="42.07249585834287" lon="11.885920737714937"><ele>83.0</ele><time>2026-04-18T09:31:53.001Z</time></trkpt><trkpt lat="42.07251718846223" lon="11.885771966779467"><ele>83.0</ele><time>2026-04-18T09:31:55.001Z</time></trkpt><trkpt lat="42.07253921688592" lon="11.88562411075768"><ele>83.0</ele><time>2026-04-18T09:31:57.001Z</time></trkpt><trkpt lat="42.072562373783384" lon="11.885483884734079"><ele>83.0</ele><time>2026-04-18T09:31:59.001Z</time></trkpt><trkpt lat="42.07255076459434" lon="11.885397083856809"><ele>83.0</ele><time>2026-04-18T09:32:01.001Z</time></trkpt><trkpt lat="42.07249096515433" lon="11.885365962678486"><ele>83.0</ele><time>2026-04-18T09:33:02.999Z</time></trkpt><trkpt lat="42.0725477735339" lon="11.885296318251036"><ele>83.0</ele><time>2026-04-18T09:33:06.999Z</time></trkpt><trkpt lat="42.07263272297934" lon="11.885227367005918"><ele>83.0</ele><time>2026-04-18T09:33:08.999Z</time></trkpt><trkpt lat="42.07262158066233" lon="11.885123693817425"><ele>83.0</ele><time>2026-04-18T09:33:10.999Z</time></trkpt><trkpt lat="42.07262129477463" lon="11.885019628842318"><ele>83.0</ele><time>2026-04-18T09:33:13Z</time></trkpt><trkpt lat="42.07261614371941" lon="11.884901659749685"><ele>83.0</ele><time>2026-04-18T09:33:15Z</time></trkpt><trkpt lat="42.072614539522895" lon="11.884783772003503"><ele>83.0</ele><time>2026-04-18T09:33:17Z</time></trkpt><trkpt lat="42.07262833965579" lon="11.884686699388634"><ele>83.0</ele><time>2026-04-18T09:33:19Z</time></trkpt><trkpt lat="42.07263905528043" lon="11.88456887314643"><ele>81.33333333333334</ele><time>2026-04-18T09:33:22Z</time></trkpt><trkpt lat="42.07264450816383" lon="11.88447139442956"><ele>79.66666666666667</ele><time>2026-04-18T09:33:24Z</time></trkpt><trkpt lat="42.072657082908655" lon="11.884370025841994"><ele>78.0</ele><time>2026-04-18T09:33:26Z</time></trkpt><trkpt lat="42.07263705090614" lon="11.88423265470702"><ele>76.33333333333333</ele><time>2026-04-18T09:33:28Z</time></trkpt><trkpt lat="42.07257569059644" lon="11.884271003572401"><ele>74.66666666666666</ele><time>2026-04-18T09:33:30Z</time></trkpt><trkpt lat="42.072510420318395" lon="11.884288548420539"><ele>73.0</ele><time>2026-04-18T09:34:00Z</time></trkpt><trkpt lat="42.0724312962072" lon="11.884290162654903"><ele>73.0</ele><time>2026-04-18T09:34:02.001Z</time></trkpt><trkpt lat="42.07233645280267" lon="11.884291499531312"><ele>73.0</ele><time>2026-04-18T09:34:03.001Z</time></trkpt><trkpt lat="42.072259378719124" lon="11.884284229771971"><ele>73.0</ele><time>2026-04-18T09:34:05.001Z</time></trkpt><trkpt lat="42.07233887890945" lon="11.88429241273965"><ele>73.0</ele><time>2026-04-18T09:34:15.001Z</time></trkpt><trkpt lat="42.07245254039854" lon="11.88429565900649"><ele>73.0</ele><time>2026-04-18T09:34:17.001Z</time></trkpt><trkpt lat="42.07252226278047" lon="11.884275087519105"><ele>73.0</ele><time>2026-04-18T09:39:09.002Z</time></trkpt><trkpt lat="42.072588775428635" lon="11.884257477953579"><ele>72.5</ele><time>2026-04-18T09:39:11.002Z</time></trkpt><trkpt lat="42.07266703000027" lon="11.88433079077766"><ele>72.0</ele><time>2026-04-18T09:39:52.001Z</time></trkpt><trkpt lat="42.07266433396424" lon="11.884471602414239"><ele>71.5</ele><time>2026-04-18T09:39:54.001Z</time></trkpt><trkpt lat="42.072652060494946" lon="11.884578441396295"><ele>71.0</ele><time>2026-04-18T09:39:55.001Z</time></trkpt><trkpt lat="42.072641294589836" lon="11.884681662419824"><ele>70.5</ele><time>2026-04-18T09:39:56.001Z</time></trkpt><trkpt lat="42.072628636339864" lon="11.88477421855262"><ele>70.0</ele><time>2026-04-18T09:39:57.001Z</time></trkpt><trkpt lat="42.07262004479329" lon="11.884886741058487"><ele>70.0</ele><time>2026-04-18T09:39:58.001Z</time></trkpt><trkpt lat="42.07262761719167" lon="11.885014476768024"><ele>70.0</ele><time>2026-04-18T09:39:59.001Z</time></trkpt><trkpt lat="42.07263086442208" lon="11.885142525096816"><ele>70.0</ele><time>2026-04-18T09:40:00.001Z</time></trkpt><trkpt lat="42.07262341821161" lon="11.885273448348542"><ele>70.0</ele><time>2026-04-18T09:40:01.001Z</time></trkpt><trkpt lat="42.07261980411942" lon="11.885436050796113"><ele>70.0</ele><time>2026-04-18T09:40:02.001Z</time></trkpt><trkpt lat="42.072615956163304" lon="11.885602088366964"><ele>72.6</ele><time>2026-04-18T09:40:03.001Z</time></trkpt><trkpt lat="42.072589497687304" lon="11.885741095415232"><ele>75.2</ele><time>2026-04-18T09:40:04.001Z</time></trkpt><trkpt lat="42.07254910798634" lon="11.885861074371697"><ele>77.80000000000001</ele><time>2026-04-18T09:40:05.001Z</time></trkpt><trkpt lat="42.072514845038825" lon="11.886005299466245"><ele>80.4</ele><time>2026-04-18T09:40:06.001Z</time></trkpt><trkpt lat="42.07249338255485" lon="11.886130773235207"><ele>83.0</ele><time>2026-04-18T09:40:07.001Z</time></trkpt><trkpt lat="42.07246858281889" lon="11.886222831878438"><ele>83.0</ele><time>2026-04-18T09:40:08.001Z</time></trkpt><trkpt lat="42.07244681889357" lon="11.886313885863277"><ele>83.0</ele><time>2026-04-18T09:40:09.001Z</time></trkpt><trkpt lat="42.07247085723812" lon="11.886442379645757"><ele>83.0</ele><time>2026-04-18T09:40:12.001Z</time></trkpt><trkpt lat="42.072456384517864" lon="11.88659249878133"><ele>83.0</ele><time>2026-04-18T09:40:14.001Z</time></trkpt><trkpt lat="42.072420568948054" lon="11.886756936655313"><ele>83.0</ele><time>2026-04-18T09:40:16.001Z</time></trkpt><trkpt lat="42.07240195281594" lon="11.88686326688138"><ele>85.75</ele><time>2026-04-18T09:40:17.001Z</time></trkpt><trkpt lat="42.072389406705916" lon="11.88697868302468"><ele>88.5</ele><time>2026-04-18T09:40:18.001Z</time></trkpt><trkpt lat="42.07236164967545" lon="11.88713863126804"><ele>91.25</ele><time>2026-04-18T09:40:19.001Z</time></trkpt><trkpt lat="42.07232733473342" lon="11.887317594985658"><ele>94.0</ele><time>2026-04-18T09:40:20.001Z</time></trkpt><trkpt lat="42.07228251211881" lon="11.887521080210572"><ele>95.5</ele><time>2026-04-18T09:40:21.001Z</time></trkpt><trkpt lat="42.072237694754484" lon="11.8877196510992"><ele>97.0</ele><time>2026-04-18T09:40:22.001Z</time></trkpt><trkpt lat="42.07220018462032" lon="11.887896819967711"><ele>98.5</ele><time>2026-04-18T09:40:23.001Z</time></trkpt><trkpt lat="42.0721573036852" lon="11.888056401502025"><ele>100.0</ele><time>2026-04-18T09:40:24.001Z</time></trkpt><trkpt lat="42.072126527812905" lon="11.888225788074818"><ele>100.0</ele><time>2026-04-18T09:40:25.001Z</time></trkpt><trkpt lat="42.07209781176652" lon="11.888403572226453"><ele>100.0</ele><time>2026-04-18T09:40:26.001Z</time></trkpt><trkpt lat="42.07207644303092" lon="11.888567025266513"><ele>100.0</ele><time>2026-04-18T09:40:27.001Z</time></trkpt><trkpt lat="42.072059977903116" lon="11.888734564707375"><ele>100.0</ele><time>2026-04-18T09:40:28.001Z</time></trkpt><trkpt lat="42.07202662841435" lon="11.888901394977667"><ele>101.5</ele><time>2026-04-18T09:40:29.001Z</time></trkpt><trkpt lat="42.07198908754261" lon="11.889059421863651"><ele>103.0</ele><time>2026-04-18T09:40:30.001Z</time></trkpt><trkpt lat="42.07197325538921" lon="11.889211879058067"><ele>104.5</ele><time>2026-04-18T09:40:31.001Z</time></trkpt><trkpt lat="42.07196163632341" lon="11.889355153573435"><ele>106.0</ele><time>2026-04-18T09:40:32.001Z</time></trkpt><trkpt lat="42.07193089617075" lon="11.889493781381669"><ele>106.8</ele><time>2026-04-18T09:40:33.001Z</time></trkpt><trkpt lat="42.07188963918548" lon="11.889642011836214"><ele>107.6</ele><time>2026-04-18T09:40:34.001Z</time></trkpt><trkpt lat="42.071855451975075" lon="11.889797978891812"><ele>108.4</ele><time>2026-04-18T09:40:35.001Z</time></trkpt><trkpt lat="42.07183798695602" lon="11.889913315140598"><ele>109.2</ele><time>2026-04-18T09:40:36.001Z</time></trkpt><trkpt lat="42.07181753519836" lon="11.890049840892594"><ele>110.0</ele><time>2026-04-18T09:40:38.001Z</time></trkpt><trkpt lat="42.07178329486005" lon="11.890132592004935"><ele>109.99999999999999</ele><time>2026-04-18T09:40:41.001Z</time></trkpt><trkpt lat="42.071715263504466" lon="11.890090075921085"><ele>110.0</ele><time>2026-04-18T09:40:44.001Z</time></trkpt><trkpt lat="42.07163848394116" lon="11.890024839599272"><ele>110.0</ele><time>2026-04-18T09:40:46.001Z</time></trkpt><trkpt lat="42.07155953113323" lon="11.889956949892968"><ele>110.0</ele><time>2026-04-18T09:40:48.001Z</time></trkpt><trkpt lat="42.07148696854994" lon="11.889967740337049"><ele>109.99999999999999</ele><time>2026-04-18T09:40:50.001Z</time></trkpt><trkpt lat="42.071418666983405" lon="11.889988556729982"><ele>110.0</ele><time>2026-04-18T09:40:53.002Z</time></trkpt><trkpt lat="42.0714133449053" lon="11.890107457672581"><ele>109.99999999999999</ele><time>2026-04-18T09:40:56.002Z</time></trkpt><trkpt lat="42.0714588226474" lon="11.890193800580334"><ele>110.0</ele><time>2026-04-18T09:40:58.002Z</time></trkpt><trkpt lat="42.071493390477215" lon="11.890265955646932"><ele>110.0</ele><time>2026-04-18T09:41:25Z</time></trkpt><trkpt lat="42.071574021399144" lon="11.890229659824737"><ele>110.0</ele><time>2026-04-18T09:41:27Z</time></trkpt><trkpt lat="42.07163341663498" lon="11.890073286434726"><ele>109.99999999999999</ele><time>2026-04-18T09:41:29Z</time></trkpt><trkpt lat="42.07165535969988" lon="11.889976158361167"><ele>110.0</ele><time>2026-04-18T09:41:30Z</time></trkpt><trkpt lat="42.07167919570157" lon="11.889887536106741"><ele>110.0</ele><time>2026-04-18T09:41:31Z</time></trkpt><trkpt lat="42.07172213944151" lon="11.889757967841163"><ele>110.0</ele><time>2026-04-18T09:41:33Z</time></trkpt><trkpt lat="42.071805783928156" lon="11.889675224238177"><ele>110.0</ele><time>2026-04-18T09:41:35Z</time></trkpt><trkpt lat="42.07185342771612" lon="11.889614367943944"><ele>110.0</ele><time>2026-04-18T09:41:37Z</time></trkpt><trkpt lat="42.07191394437585" lon="11.889513044824893"><ele>110.0</ele><time>2026-04-18T09:41:40Z</time></trkpt><trkpt lat="42.07195335476427" lon="11.889338279092671"><ele>109.2</ele><time>2026-04-18T09:41:42Z</time></trkpt><trkpt lat="42.07196635292573" lon="11.889239312568114"><ele>108.4</ele><time>2026-04-18T09:41:43Z</time></trkpt><trkpt lat="42.071992794574406" lon="11.88908528532428"><ele>107.6</ele><time>2026-04-18T09:41:45Z</time></trkpt><trkpt lat="42.07201066907292" lon="11.888940307112776"><ele>106.8</ele><time>2026-04-18T09:41:47Z</time></trkpt><trkpt lat="42.072006981068704" lon="11.888843309133323"><ele>106.0</ele><time>2026-04-18T09:41:49Z</time></trkpt><trkpt lat="42.07203641607655" lon="11.888735146448475"><ele>106.0</ele><time>2026-04-18T09:41:51Z</time></trkpt><trkpt lat="42.07207229008936" lon="11.888605964200552"><ele>106.0</ele><time>2026-04-18T09:41:52Z</time></trkpt><trkpt lat="42.07209794164684" lon="11.888469970385996"><ele>106.0</ele><time>2026-04-18T09:41:53Z</time></trkpt><trkpt lat="42.072109185936405" lon="11.888383327631528"><ele>106.0</ele><time>2026-04-18T09:41:54Z</time></trkpt><trkpt lat="42.0721310796328" lon="11.88823228036858"><ele>106.0</ele><time>2026-04-18T09:41:56Z</time></trkpt><trkpt lat="42.07214141097868" lon="11.888114035696269"><ele>104.8</ele><time>2026-04-18T09:41:58Z</time></trkpt><trkpt lat="42.07217173264842" lon="11.887943354685813"><ele>103.6</ele><time>2026-04-18T09:42:00Z</time></trkpt><trkpt lat="42.072194989991644" lon="11.887808211545652"><ele>102.4</ele><time>2026-04-18T09:42:01.001Z</time></trkpt><trkpt lat="42.07221571852446" lon="11.887710616957703"><ele>101.2</ele><time>2026-04-18T09:42:02.001Z</time></trkpt><trkpt lat="42.07225594876758" lon="11.887600296864385"><ele>100.0</ele><time>2026-04-18T09:42:04.001Z</time></trkpt><trkpt lat="42.07220584535275" lon="11.887484944866138"><ele>100.00000000000001</ele><time>2026-04-18T09:42:07.001Z</time></trkpt><trkpt lat="42.07212314011719" lon="11.887537375710938"><ele>100.0</ele><time>2026-04-18T09:42:10.001Z</time></trkpt><trkpt lat="42.07208480474783" lon="11.88760980363677"><ele>100.0</ele><time>2026-04-18T09:42:11.001Z</time></trkpt><trkpt lat="42.07202955991475" lon="11.887658939614134"><ele>100.0</ele><time>2026-04-18T09:42:12.001Z</time></trkpt><trkpt lat="42.07194357564515" lon="11.887700853361734"><ele>100.00000000000001</ele><time>2026-04-18T09:42:14.001Z</time></trkpt><trkpt lat="42.07188654163472" lon="11.887799111193683"><ele>100.0</ele><time>2026-04-18T09:42:16.001Z</time></trkpt><trkpt lat="42.0717889832194" lon="11.8878522705565"><ele>100.0</ele><time>2026-04-18T09:42:18.001Z</time></trkpt><trkpt lat="42.071707265434604" lon="11.887831770043265"><ele>100.0</ele><time>2026-04-18T09:42:19.001Z</time></trkpt><trkpt lat="42.0716290040505" lon="11.887818449842424"><ele>100.0</ele><time>2026-04-18T09:42:20.001Z</time></trkpt><trkpt lat="42.07155565681531" lon="11.887946366595985"><ele>100.0</ele><time>2026-04-18T09:42:22.001Z</time></trkpt><trkpt lat="42.07159762249768" lon="11.888053040373753"><ele>100.0</ele><time>2026-04-18T09:42:24.001Z</time></trkpt><trkpt lat="42.071733147777564" lon="11.888070175598148"><ele>100.0</ele><time>2026-04-18T09:42:26.001Z</time></trkpt><trkpt lat="42.071834717228484" lon="11.88803047441743"><ele>100.0</ele><time>2026-04-18T09:42:27.001Z</time></trkpt><trkpt lat="42.071898723772215" lon="11.888012700437473"><ele>100.0</ele><time>2026-04-18T09:42:28.001Z</time></trkpt><trkpt lat="42.071990147952185" lon="11.888076292036507"><ele>100.0</ele><time>2026-04-18T09:42:30.001Z</time></trkpt><trkpt lat="42.07201578110427" lon="11.888221062211624"><ele>100.0</ele><time>2026-04-18T09:42:32.001Z</time></trkpt><trkpt lat="42.07198488419605" lon="11.888362457737157"><ele>101.2</ele><time>2026-04-18T09:42:34.001Z</time></trkpt><trkpt lat="42.07190690389048" lon="11.888489633429886"><ele>102.4</ele><time>2026-04-18T09:42:36.001Z</time></trkpt><trkpt lat="42.07188221331234" lon="11.88864593682966"><ele>103.6</ele><time>2026-04-18T09:42:38.001Z</time></trkpt><trkpt lat="42.071903180485094" lon="11.888776020232028"><ele>104.8</ele><time>2026-04-18T09:42:40.001Z</time></trkpt><trkpt lat="42.07184746527101" lon="11.888883690675701"><ele>106.0</ele><time>2026-04-18T09:42:42.001Z</time></trkpt><trkpt lat="42.07174162927592" lon="11.888893328497383"><ele>106.00000000000001</ele><time>2026-04-18T09:42:44.001Z</time></trkpt><trkpt lat="42.07168121812646" lon="11.888868905479816"><ele>106.0</ele><time>2026-04-18T09:42:45.001Z</time></trkpt><trkpt lat="42.07161770265527" lon="11.888855363014626"><ele>106.0</ele><time>2026-04-18T09:42:46.001Z</time></trkpt><trkpt lat="42.071538823091906" lon="11.888837937371033"><ele>106.0</ele><time>2026-04-18T09:42:47.001Z</time></trkpt><trkpt lat="42.07145354119707" lon="11.888822636804852"><ele>106.00000000000001</ele><time>2026-04-18T09:42:48.001Z</time></trkpt><trkpt lat="42.0713575188249" lon="11.888800201195835"><ele>106.0</ele><time>2026-04-18T09:42:49.001Z</time></trkpt><trkpt lat="42.071268807071554" lon="11.888778585904529"><ele>105.14285714285715</ele><time>2026-04-18T09:42:50.001Z</time></trkpt><trkpt lat="42.071196840527485" lon="11.88874774603759"><ele>104.28571428571428</ele><time>2026-04-18T09:42:51.001Z</time></trkpt><trkpt lat="42.071144622154414" lon="11.888700162452041"><ele>103.42857142857143</ele><time>2026-04-18T09:42:52.001Z</time></trkpt><trkpt lat="42.07110463023442" lon="11.888571063445703"><ele>102.57142857142858</ele><time>2026-04-18T09:42:54.001Z</time></trkpt><trkpt lat="42.07111011399697" lon="11.888484737915094"><ele>101.71428571428572</ele><time>2026-04-18T09:42:55.001Z</time></trkpt><trkpt lat="42.071068229999305" lon="11.888405780517248"><ele>100.85714285714286</ele><time>2026-04-18T09:42:57.001Z</time></trkpt><trkpt lat="42.07100606753842" lon="11.888438737753617"><ele>100.0</ele><time>2026-04-18T09:42:58.001Z</time></trkpt><trkpt lat="42.07095403019125" lon="11.888509172824815"><ele>100.0</ele><time>2026-04-18T09:42:59.001Z</time></trkpt><trkpt lat="42.07088428233663" lon="11.888622979784701"><ele>100.0</ele><time>2026-04-18T09:43:00.001Z</time></trkpt><trkpt lat="42.07080914599668" lon="11.88870123530835"><ele>100.0</ele><time>2026-04-18T09:43:01.001Z</time></trkpt><trkpt lat="42.07076372000337" lon="11.888785428832415"><ele>100.0</ele><time>2026-04-18T09:43:04.001Z</time></trkpt><trkpt lat="42.07073719352677" lon="11.888950391894978"><ele>100.0</ele><time>2026-04-18T09:43:08.001Z</time></trkpt><trkpt lat="42.07071516567551" lon="11.889061964266888"><ele>99.2</ele><time>2026-04-18T09:43:10.001Z</time></trkpt><trkpt lat="42.07074115273857" lon="11.889215922777687"><ele>98.4</ele><time>2026-04-18T09:50:43.001Z</time></trkpt><trkpt lat="42.070746459077256" lon="11.889369928530222"><ele>97.6</ele><time>2026-04-18T09:50:45.001Z</time></trkpt><trkpt lat="42.07075562874566" lon="11.88945712009348"><ele>96.8</ele><time>2026-04-18T09:50:46.001Z</time></trkpt><trkpt lat="42.07080643360588" lon="11.889595839132475"><ele>96.0</ele><time>2026-04-18T09:50:48.001Z</time></trkpt><trkpt lat="42.0708375428487" lon="11.88969331124773"><ele>97.66666666666667</ele><time>2026-04-18T09:50:49.001Z</time></trkpt><trkpt lat="42.0708698134969" lon="11.889799215093669"><ele>99.33333333333334</ele><time>2026-04-18T09:50:50.001Z</time></trkpt><trkpt lat="42.07090848186896" lon="11.889891527430224"><ele>101.0</ele><time>2026-04-18T09:50:51.001Z</time></trkpt><trkpt lat="42.070961815554845" lon="11.889964546027981"><ele>102.66666666666667</ele><time>2026-04-18T09:50:52.001Z</time></trkpt><trkpt lat="42.07101556086912" lon="11.890012434387558"><ele>104.33333333333334</ele><time>2026-04-18T09:50:53.001Z</time></trkpt><trkpt lat="42.07097461401108" lon="11.890105116626778"><ele>106.0</ele><time>2026-04-18T09:50:55.001Z</time></trkpt><trkpt lat="42.07090030606446" lon="11.890164021388099"><ele>106.83333333333334</ele><time>2026-04-18T09:50:56.001Z</time></trkpt><trkpt lat="42.07085859394924" lon="11.89023146940702"><ele>107.66666666666667</ele><time>2026-04-18T09:50:57.001Z</time></trkpt><trkpt lat="42.07085070255239" lon="11.890318997505751"><ele>108.5</ele><time>2026-04-18T09:51:06.001Z</time></trkpt><trkpt lat="42.070915302323165" lon="11.890328303400501"><ele>109.33333333333334</ele><time>2026-04-18T09:51:21.001Z</time></trkpt><trkpt lat="42.071018788183" lon="11.890369134519206"><ele>110.16666666666667</ele><time>2026-04-18T09:51:28.002Z</time></trkpt><trkpt lat="42.071070351621195" lon="11.890435981412853"><ele>111.0</ele><time>2026-04-18T09:51:29.002Z</time></trkpt><trkpt lat="42.071056139692516" lon="11.890601941659666"><ele>111.0</ele><time>2026-04-18T09:51:31.002Z</time></trkpt><trkpt lat="42.07106796400575" lon="11.890708169451578"><ele>111.0</ele><time>2026-04-18T09:51:34.002Z</time></trkpt><trkpt lat="42.07112415477115" lon="11.890777718323564"><ele>111.0</ele><time>2026-04-18T09:51:37.002Z</time></trkpt><trkpt lat="42.07116407111118" lon="11.890847159672216"><ele>111.0</ele><time>2026-04-18T09:51:54Z</time></trkpt><trkpt lat="42.07121998556896" lon="11.890933511508948"><ele>111.0</ele><time>2026-04-18T09:52:32Z</time></trkpt><trkpt lat="42.071264470781976" lon="11.890995354028666"><ele>111.0</ele><time>2026-04-18T09:52:34Z</time></trkpt><trkpt lat="42.071324297664546" lon="11.891084282315298"><ele>111.0</ele><time>2026-04-18T09:53:40.002Z</time></trkpt><trkpt lat="42.07140941310549" lon="11.89105434652975"><ele>111.0</ele><time>2026-04-18T09:55:46.002Z</time></trkpt><trkpt lat="42.07149273391006" lon="11.891030373064876"><ele>111.0</ele><time>2026-04-18T09:55:48.002Z</time></trkpt><trkpt lat="42.07150659857117" lon="11.89089197814718"><ele>111.0</ele><time>2026-04-18T09:55:50.002Z</time></trkpt><trkpt lat="42.07149581295887" lon="11.890800037282743"><ele>111.0</ele><time>2026-04-18T09:55:51.002Z</time></trkpt><trkpt lat="42.07148849109745" lon="11.89066519349878"><ele>111.0</ele><time>2026-04-18T09:55:53.002Z</time></trkpt><trkpt lat="42.07151863768423" lon="11.890582908267085"><ele>111.0</ele><time>2026-04-18T09:56:10Z</time></trkpt><trkpt lat="42.07156691027393" lon="11.890712007131487"><ele>111.0</ele><time>2026-04-18T09:56:13Z</time></trkpt><trkpt lat="42.07158866250964" lon="11.890797425005855"><ele>111.0</ele><time>2026-04-18T09:56:14Z</time></trkpt><trkpt lat="42.07162296318752" lon="11.890877700247158"><ele>111.0</ele><time>2026-04-18T09:56:15Z</time></trkpt><trkpt lat="42.071643985850166" lon="11.89102631262744"><ele>111.0</ele><time>2026-04-18T09:56:17Z</time></trkpt><trkpt lat="42.07162671213152" lon="11.891116327541269"><ele>111.0</ele><time>2026-04-18T09:56:18Z</time></trkpt><trkpt lat="42.071603076190655" lon="11.891221022396453"><ele>112.8</ele><time>2026-04-18T09:56:19Z</time></trkpt><trkpt lat="42.07158081154106" lon="11.891337051456466"><ele>114.6</ele><time>2026-04-18T09:56:20Z</time></trkpt><trkpt lat="42.07155742897859" lon="11.891440929857064"><ele>116.4</ele><time>2026-04-18T09:56:21Z</time></trkpt><trkpt lat="42.071507072592" lon="11.891564065330858"><ele>118.2</ele><time>2026-04-18T09:56:23Z</time></trkpt><trkpt lat="42.071426099287706" lon="11.891656743817917"><ele>120.0</ele><time>2026-04-18T09:56:25Z</time></trkpt><trkpt lat="42.07137503389824" lon="11.891724046111154"><ele>121.5</ele><time>2026-04-18T09:56:26Z</time></trkpt><trkpt lat="42.0712805305834" lon="11.89185606180588"><ele>123.0</ele><time>2026-04-18T09:56:28Z</time></trkpt><trkpt lat="42.0712129152763" lon="11.891946303628503"><ele>124.5</ele><time>2026-04-18T09:56:29Z</time></trkpt><trkpt lat="42.071129233762626" lon="11.892075613168169"><ele>126.0</ele><time>2026-04-18T09:56:30Z</time></trkpt><trkpt lat="42.07102143640206" lon="11.892208487679769"><ele>126.0</ele><time>2026-04-18T09:56:31Z</time></trkpt><trkpt lat="42.07089533345369" lon="11.892373745819993"><ele>126.0</ele><time>2026-04-18T09:56:32Z</time></trkpt><trkpt lat="42.070760244578466" lon="11.892579052222809"><ele>126.0</ele><time>2026-04-18T09:56:33.001Z</time></trkpt><trkpt lat="42.07061997499692" lon="11.892768053881811"><ele>130.33333333333334</ele><time>2026-04-18T09:56:34.001Z</time></trkpt><trkpt lat="42.07046325183549" lon="11.89296798504268"><ele>134.66666666666669</ele><time>2026-04-18T09:56:35.001Z</time></trkpt><trkpt lat="42.070332485709315" lon="11.893140214706493"><ele>139.0</ele><time>2026-04-18T09:56:36.001Z</time></trkpt><trkpt lat="42.07021291046023" lon="11.893316662062135"><ele>140.66666666666669</ele><time>2026-04-18T09:56:37.001Z</time></trkpt><trkpt lat="42.07009515806362" lon="11.893484150407874"><ele>142.33333333333334</ele><time>2026-04-18T09:56:38.001Z</time></trkpt><trkpt lat="42.069978934906906" lon="11.893642783497354"><ele>144.0</ele><time>2026-04-18T09:56:39.001Z</time></trkpt><trkpt lat="42.069859311019286" lon="11.893812110677578"><ele>144.6</ele><time>2026-04-18T09:56:40.001Z</time></trkpt><trkpt lat="42.06975062355418" lon="11.893968075858737"><ele>145.2</ele><time>2026-04-18T09:56:41.001Z</time></trkpt><trkpt lat="42.06967311662665" lon="11.894070920733608"><ele>145.79999999999998</ele><time>2026-04-18T09:56:42.001Z</time></trkpt><trkpt lat="42.069626365959174" lon="11.894129076483424"><ele>146.4</ele><time>2026-04-18T09:56:43.001Z</time></trkpt><trkpt lat="42.069554740063566" lon="11.894190342777804"><ele>147.0</ele><time>2026-04-18T09:56:45.001Z</time></trkpt><trkpt lat="42.069446336424754" lon="11.894124125777788"><ele>147.0</ele><time>2026-04-18T09:56:47.001Z</time></trkpt><trkpt lat="42.06937005978555" lon="11.89406166934464"><ele>147.0</ele><time>2026-04-18T09:56:48.001Z</time></trkpt><trkpt lat="42.06927525426152" lon="11.893991992496384"><ele>147.0</ele><time>2026-04-18T09:56:49.001Z</time></trkpt><trkpt lat="42.06918862411536" lon="11.893928601616691"><ele>147.0</ele><time>2026-04-18T09:56:50.001Z</time></trkpt><trkpt lat="42.06911558809201" lon="11.893861943710512"><ele>147.0</ele><time>2026-04-18T09:56:51.001Z</time></trkpt><trkpt lat="42.06905448164172" lon="11.893816326413733"><ele>147.0</ele><time>2026-04-18T09:56:52.001Z</time></trkpt><trkpt lat="42.06898128397853" lon="11.893760559061521"><ele>147.0</ele><time>2026-04-18T09:56:54.001Z</time></trkpt><trkpt lat="42.06902127105469" lon="11.893659719818233"><ele>147.0</ele><time>2026-04-18T09:56:58.001Z</time></trkpt><trkpt lat="42.06907548047593" lon="11.893609819394399"><ele>147.0</ele><time>2026-04-18T09:57:02.001Z</time></trkpt><trkpt lat="42.069142756283895" lon="11.893608246749247"><ele>147.0</ele><time>2026-04-18T09:57:07.001Z</time></trkpt><trkpt lat="42.06925993281372" lon="11.893711070622727"><ele>147.0</ele><time>2026-04-18T09:57:09.001Z</time></trkpt><trkpt lat="42.0693174441925" lon="11.893783039870442"><ele>147.0</ele><time>2026-04-18T09:57:11.001Z</time></trkpt><trkpt lat="42.06938282573119" lon="11.893849369887715"><ele>147.0</ele><time>2026-04-18T09:57:26.002Z</time></trkpt><trkpt lat="42.06944190833067" lon="11.893896390034644"><ele>147.0</ele><time>2026-04-18T09:57:28.002Z</time></trkpt><trkpt lat="42.06951529908409" lon="11.89387614210226"><ele>147.0</ele><time>2026-04-18T09:57:32.002Z</time></trkpt><trkpt lat="42.0694940786478" lon="11.893766217117088"><ele>147.0</ele><time>2026-04-18T09:59:03.001Z</time></trkpt><trkpt lat="42.06946290773136" lon="11.89367469407569"><ele>147.0</ele><time>2026-04-18T09:59:04.001Z</time></trkpt><trkpt lat="42.069382848602146" lon="11.893602920666698"><ele>147.0</ele><time>2026-04-18T09:59:06.001Z</time></trkpt><trkpt lat="42.069269769992985" lon="11.893580331160884"><ele>147.0</ele><time>2026-04-18T09:59:08.001Z</time></trkpt><trkpt lat="42.06920573168159" lon="11.893545984690304"><ele>147.0</ele><time>2026-04-18T09:59:09.001Z</time></trkpt><trkpt lat="42.06911120649639" lon="11.893468634743703"><ele>147.0</ele><time>2026-04-18T09:59:10.001Z</time></trkpt><trkpt lat="42.06902757638678" lon="11.893392341369129"><ele>147.0</ele><time>2026-04-18T09:59:11.001Z</time></trkpt><trkpt lat="42.06904616799699" lon="11.893250666199457"><ele>147.33333333333334</ele><time>2026-04-18T09:59:13.001Z</time></trkpt><trkpt lat="42.06909825137818" lon="11.893143066196991"><ele>147.66666666666666</ele><time>2026-04-18T09:59:14.001Z</time></trkpt><trkpt lat="42.069153543743255" lon="11.893037719501976"><ele>148.0</ele><time>2026-04-18T09:59:15.001Z</time></trkpt><trkpt lat="42.06919005779632" lon="11.892948083200189"><ele>148.33333333333331</ele><time>2026-04-18T09:59:16.001Z</time></trkpt><trkpt lat="42.06923005424232" lon="11.892854930041363"><ele>148.66666666666666</ele><time>2026-04-18T09:59:17.001Z</time></trkpt><trkpt lat="42.06927064223236" lon="11.892736822049574"><ele>149.0</ele><time>2026-04-18T09:59:18.001Z</time></trkpt><trkpt lat="42.06930432105509" lon="11.89262677389401"><ele>145.4</ele><time>2026-04-18T09:59:19.001Z</time></trkpt><trkpt lat="42.06938805042759" lon="11.892491548344013"><ele>141.8</ele><time>2026-04-18T09:59:21.001Z</time></trkpt><trkpt lat="42.069438553552196" lon="11.892438300761881"><ele>138.2</ele><time>2026-04-18T09:59:22.001Z</time></trkpt><trkpt lat="42.06948291715475" lon="11.89231564509093"><ele>134.6</ele><time>2026-04-18T09:59:24.001Z</time></trkpt><trkpt lat="42.06954663497995" lon="11.892307435145792"><ele>131.0</ele><time>2026-04-18T09:59:27.001Z</time></trkpt><trkpt lat="42.06950192551872" lon="11.89249150698686"><ele>133.4</ele><time>2026-04-18T09:59:29.001Z</time></trkpt><trkpt lat="42.069433754850046" lon="11.892608479666611"><ele>135.8</ele><time>2026-04-18T09:59:30.001Z</time></trkpt><trkpt lat="42.0693843760799" lon="11.892716004116709"><ele>138.20000000000002</ele><time>2026-04-18T09:59:31.001Z</time></trkpt><trkpt lat="42.06934843761743" lon="11.892832492924114"><ele>140.6</ele><time>2026-04-18T09:59:32.001Z</time></trkpt><trkpt lat="42.069314311833004" lon="11.892937339124936"><ele>143.0</ele><time>2026-04-18T09:59:33.001Z</time></trkpt><trkpt lat="42.069274896239804" lon="11.893017408373575"><ele>143.0</ele><time>2026-04-18T09:59:34.001Z</time></trkpt><trkpt lat="42.0692422657315" lon="11.893105457894873"><ele>143.0</ele><time>2026-04-18T09:59:35.001Z</time></trkpt><trkpt lat="42.06922453862786" lon="11.893197981607242"><ele>143.0</ele><time>2026-04-18T09:59:36.001Z</time></trkpt><trkpt lat="42.069199620801115" lon="11.89331549156356"><ele>143.0</ele><time>2026-04-18T09:59:38.002Z</time></trkpt><trkpt lat="42.0692639669519" lon="11.893454264191899"><ele>143.0</ele><time>2026-04-18T09:59:40.002Z</time></trkpt><trkpt lat="42.06934817601807" lon="11.893509842912907"><ele>143.66666666666666</ele><time>2026-04-18T09:59:41.002Z</time></trkpt><trkpt lat="42.06942416276027" lon="11.89355216457535"><ele>144.33333333333331</ele><time>2026-04-18T09:59:42.002Z</time></trkpt><trkpt lat="42.06950576284715" lon="11.893603393648139"><ele>145.0</ele><time>2026-04-18T09:59:43.002Z</time></trkpt><trkpt lat="42.06959762099842" lon="11.893631296844497"><ele>145.66666666666666</ele><time>2026-04-18T09:59:44.002Z</time></trkpt><trkpt lat="42.0696760512501" lon="11.893645705786225"><ele>146.33333333333334</ele><time>2026-04-18T09:59:45.002Z</time></trkpt><trkpt lat="42.06974074503684" lon="11.893637467942403"><ele>147.0</ele><time>2026-04-18T09:59:46.002Z</time></trkpt><trkpt lat="42.069809140163784" lon="11.893591562831524"><ele>147.0</ele><time>2026-04-18T09:59:47.002Z</time></trkpt><trkpt lat="42.069861240238765" lon="11.893495771686544"><ele>147.0</ele><time>2026-04-18T09:59:48.002Z</time></trkpt><trkpt lat="42.069897588673065" lon="11.893389391953283"><ele>147.0</ele><time>2026-04-18T09:59:49.002Z</time></trkpt><trkpt lat="42.06993292588152" lon="11.893305504359406"><ele>147.0</ele><time>2026-04-18T09:59:50.002Z</time></trkpt><trkpt lat="42.06996572645237" lon="11.89321730656073"><ele>147.0</ele><time>2026-04-18T09:59:51.002Z</time></trkpt><trkpt lat="42.06997790737249" lon="11.893032747475024"><ele>146.2</ele><time>2026-04-18T09:59:53.002Z</time></trkpt><trkpt lat="42.06995826632223" lon="11.892898923110211"><ele>145.39999999999998</ele><time>2026-04-18T09:59:54.002Z</time></trkpt><trkpt lat="42.06988657987383" lon="11.892754228648462"><ele>144.60000000000002</ele><time>2026-04-18T09:59:55.002Z</time></trkpt><trkpt lat="42.06980691765986" lon="11.892629643295551"><ele>143.8</ele><time>2026-04-18T09:59:56.002Z</time></trkpt><trkpt lat="42.06974665675472" lon="11.892573258391575"><ele>143.0</ele><time>2026-04-18T09:59:57.002Z</time></trkpt><trkpt lat="42.069663648833036" lon="11.89259255304462"><ele>143.0</ele><time>2026-04-18T09:59:59.002Z</time></trkpt><trkpt lat="42.069594574500556" lon="11.892741788310945"><ele>143.0</ele><time>2026-04-18T10:00:01.002Z</time></trkpt><trkpt lat="42.06957512163862" lon="11.892840028707479"><ele>143.0</ele><time>2026-04-18T10:00:02.002Z</time></trkpt><trkpt lat="42.06954597074362" lon="11.892956290851053"><ele>143.0</ele><time>2026-04-18T10:00:03.002Z</time></trkpt><trkpt lat="42.0695195292744" lon="11.893058600798437"><ele>143.0</ele><time>2026-04-18T10:00:04.002Z</time></trkpt><trkpt lat="42.06948181364648" lon="11.893161183679235"><ele>143.0</ele><time>2026-04-18T10:00:05.002Z</time></trkpt><trkpt lat="42.06945769084873" lon="11.893247113299982"><ele>143.0</ele><time>2026-04-18T10:00:06.002Z</time></trkpt><trkpt lat="42.06950287584771" lon="11.893335257011415"><ele>143.0</ele><time>2026-04-18T10:00:08.002Z</time></trkpt><trkpt lat="42.06961682695473" lon="11.893223075531711"><ele>143.0</ele><time>2026-04-18T10:00:11.002Z</time></trkpt><trkpt lat="42.06962632937743" lon="11.893124120093107"><ele>143.0</ele><time>2026-04-18T10:00:12.002Z</time></trkpt><trkpt lat="42.06964020173608" lon="11.8930108549458"><ele>143.0</ele><time>2026-04-18T10:00:13Z</time></trkpt><trkpt lat="42.06964943467922" lon="11.892922253943848"><ele>143.0</ele><time>2026-04-18T10:00:14Z</time></trkpt><trkpt lat="42.06969410742711" lon="11.892819267887608"><ele>143.0</ele><time>2026-04-18T10:00:16Z</time></trkpt><trkpt lat="42.06976772251868" lon="11.892808293165562"><ele>143.0</ele><time>2026-04-18T10:00:18Z</time></trkpt><trkpt lat="42.06981699320749" lon="11.892897308009932"><ele>143.0</ele><time>2026-04-18T10:00:20Z</time></trkpt><trkpt lat="42.06984364279646" lon="11.8930709337057"><ele>143.0</ele><time>2026-04-18T10:00:22Z</time></trkpt><trkpt lat="42.0698288834003" lon="11.893160256802144"><ele>143.0</ele><time>2026-04-18T10:00:23Z</time></trkpt><trkpt lat="42.06979218994027" lon="11.893246303739872"><ele>143.0</ele><time>2026-04-18T10:00:24Z</time></trkpt><trkpt lat="42.06973468766251" lon="11.893320311543427"><ele>143.0</ele><time>2026-04-18T10:00:25Z</time></trkpt><trkpt lat="42.06965208324825" lon="11.893404038983125"><ele>143.0</ele><time>2026-04-18T10:00:27Z</time></trkpt><trkpt lat="42.06953182656929" lon="11.893490069011637"><ele>143.0</ele><time>2026-04-18T10:00:29Z</time></trkpt><trkpt lat="42.06946174995249" lon="11.893478999710098"><ele>143.0</ele><time>2026-04-18T10:00:30Z</time></trkpt><trkpt lat="42.06940608814792" lon="11.893416052459925"><ele>143.0</ele><time>2026-04-18T10:00:31Z</time></trkpt><trkpt lat="42.06937175017893" lon="11.893327029048901"><ele>143.0</ele><time>2026-04-18T10:00:32Z</time></trkpt><trkpt lat="42.06938178953297" lon="11.893155771578076"><ele>143.0</ele><time>2026-04-18T10:00:34Z</time></trkpt><trkpt lat="42.06940116956104" lon="11.893064423032689"><ele>143.0</ele><time>2026-04-18T10:00:35Z</time></trkpt><trkpt lat="42.06943214588874" lon="11.892975624065233"><ele>143.0</ele><time>2026-04-18T10:00:36Z</time></trkpt><trkpt lat="42.06946989454034" lon="11.892889162614495"><ele>143.0</ele><time>2026-04-18T10:00:37Z</time></trkpt><trkpt lat="42.06950852873016" lon="11.892782648194526"><ele>143.0</ele><time>2026-04-18T10:00:38Z</time></trkpt><trkpt lat="42.069565766581995" lon="11.892629977796776"><ele>143.0</ele><time>2026-04-18T10:00:39Z</time></trkpt><trkpt lat="42.069621382705485" lon="11.892503537925844"><ele>143.0</ele><time>2026-04-18T10:00:40Z</time></trkpt><trkpt lat="42.069655528103695" lon="11.892390498638333"><ele>143.0</ele><time>2026-04-18T10:00:41Z</time></trkpt><trkpt lat="42.06966697936047" lon="11.892287490159628"><ele>143.0</ele><time>2026-04-18T10:00:42Z</time></trkpt><trkpt lat="42.06965138836174" lon="11.892192644579628"><ele>141.0</ele><time>2026-04-18T10:00:43Z</time></trkpt><trkpt lat="42.06959155399285" lon="11.892115560791384"><ele>139.0</ele><time>2026-04-18T10:00:44Z</time></trkpt><trkpt lat="42.06951791567941" lon="11.892055850352499"><ele>137.0</ele><time>2026-04-18T10:00:45Z</time></trkpt><trkpt lat="42.069455117237936" lon="11.892013882050973"><ele>135.0</ele><time>2026-04-18T10:00:46Z</time></trkpt><trkpt lat="42.06937500545611" lon="11.892041234400244"><ele>133.0</ele><time>2026-04-18T10:00:48Z</time></trkpt><trkpt lat="42.06932476792934" lon="11.892151488637936"><ele>131.0</ele><time>2026-04-18T10:00:50.001Z</time></trkpt><trkpt lat="42.06931060452844" lon="11.892240082462019"><ele>131.0</ele><time>2026-04-18T10:00:51.001Z</time></trkpt><trkpt lat="42.06929296187187" lon="11.892332541944075"><ele>131.0</ele><time>2026-04-18T10:00:52.001Z</time></trkpt><trkpt lat="42.06927683722672" lon="11.892423151790283"><ele>131.0</ele><time>2026-04-18T10:00:53.001Z</time></trkpt><trkpt lat="42.06925154450665" lon="11.89254287702207"><ele>131.0</ele><time>2026-04-18T10:00:54.001Z</time></trkpt><trkpt lat="42.069201753579335" lon="11.89267844257708"><ele>131.0</ele><time>2026-04-18T10:00:55.001Z</time></trkpt><trkpt lat="42.069154543153225" lon="11.892814603596038"><ele>133.4</ele><time>2026-04-18T10:00:56.001Z</time></trkpt><trkpt lat="42.06911146782442" lon="11.892927792679979"><ele>135.8</ele><time>2026-04-18T10:00:57.001Z</time></trkpt><trkpt lat="42.06905779115279" lon="11.893066257508444"><ele>138.20000000000002</ele><time>2026-04-18T10:00:58.001Z</time></trkpt><trkpt lat="42.06901456026597" lon="11.893179018961662"><ele>140.6</ele><time>2026-04-18T10:00:59.001Z</time></trkpt><trkpt lat="42.068968032272586" lon="11.893266693607613"><ele>143.0</ele><time>2026-04-18T10:01:00.001Z</time></trkpt><trkpt lat="42.068904013019264" lon="11.893290025064834"><ele>144.0</ele><time>2026-04-18T10:01:02.001Z</time></trkpt><trkpt lat="42.068875005535276" lon="11.893158179045406"><ele>145.0</ele><time>2026-04-18T10:01:04.001Z</time></trkpt><trkpt lat="42.06889528826451" lon="11.893062860114089"><ele>146.0</ele><time>2026-04-18T10:01:05.001Z</time></trkpt><trkpt lat="42.06895615163858" lon="11.893004506816753"><ele>147.0</ele><time>2026-04-18T10:01:07.001Z</time></trkpt><trkpt lat="42.06901363611084" lon="11.892889993591814"><ele>148.0</ele><time>2026-04-18T10:01:11.001Z</time></trkpt><trkpt lat="42.06905687186246" lon="11.892817886731043"><ele>149.0</ele><time>2026-04-18T10:01:12.001Z</time></trkpt><trkpt lat="42.06908372039437" lon="11.892736017566756"><ele>148.0</ele><time>2026-04-18T10:01:13.001Z</time></trkpt><trkpt lat="42.069117877997414" lon="11.89266307897744"><ele>147.0</ele><time>2026-04-18T10:01:14.001Z</time></trkpt><trkpt lat="42.06914487193516" lon="11.892550582162658"><ele>146.0</ele><time>2026-04-18T10:01:16.001Z</time></trkpt><trkpt lat="42.06914942721565" lon="11.892398553671642"><ele>145.0</ele><time>2026-04-18T10:01:18.001Z</time></trkpt><trkpt lat="42.06916889402408" lon="11.892299612907728"><ele>144.0</ele><time>2026-04-18T10:01:19.001Z</time></trkpt><trkpt lat="42.06919999047873" lon="11.892183478658675"><ele>143.0</ele><time>2026-04-18T10:01:20.001Z</time></trkpt><trkpt lat="42.06924250230888" lon="11.892065118760119"><ele>141.0</ele><time>2026-04-18T10:01:21.001Z</time></trkpt><trkpt lat="42.06927790808661" lon="11.891979486292934"><ele>139.0</ele><time>2026-04-18T10:01:22.001Z</time></trkpt><trkpt lat="42.0693096896819" lon="11.89189574886073"><ele>137.0</ele><time>2026-04-18T10:01:23.001Z</time></trkpt><trkpt lat="42.06933832943538" lon="11.891811543783305"><ele>135.0</ele><time>2026-04-18T10:01:24.001Z</time></trkpt><trkpt lat="42.069373605963975" lon="11.891734772301515"><ele>133.0</ele><time>2026-04-18T10:01:25.001Z</time></trkpt><trkpt lat="42.069469053531584" lon="11.891675394920307"><ele>131.0</ele><time>2026-04-18T10:01:27.001Z</time></trkpt><trkpt lat="42.069555136525445" lon="11.891719622707242"><ele>131.0</ele><time>2026-04-18T10:01:29.001Z</time></trkpt><trkpt lat="42.06961440159656" lon="11.891859523411972"><ele>131.0</ele><time>2026-04-18T10:01:31.001Z</time></trkpt><trkpt lat="42.06964424298059" lon="11.891972477255974"><ele>131.0</ele><time>2026-04-18T10:01:32.001Z</time></trkpt><trkpt lat="42.069674091902584" lon="11.892063362362473"><ele>131.0</ele><time>2026-04-18T10:01:33.001Z</time></trkpt><trkpt lat="42.069710308580845" lon="11.89217675810589"><ele>131.0</ele><time>2026-04-18T10:01:35.002Z</time></trkpt><trkpt lat="42.06977560861634" lon="11.89231275025079"><ele>131.0</ele><time>2026-04-18T10:01:37.002Z</time></trkpt><trkpt lat="42.069823036215716" lon="11.892446106669416"><ele>131.0</ele><time>2026-04-18T10:01:39.002Z</time></trkpt><trkpt lat="42.06987013665571" lon="11.892532397929324"><ele>131.0</ele><time>2026-04-18T10:01:40.002Z</time></trkpt><trkpt lat="42.06991132537818" lon="11.89260185694274"><ele>131.0</ele><time>2026-04-18T10:01:41.002Z</time></trkpt><trkpt lat="42.06994787683631" lon="11.89267772529033"><ele>131.0</ele><time>2026-04-18T10:01:42.002Z</time></trkpt><trkpt lat="42.06998357453971" lon="11.892752074462601"><ele>131.0</ele><time>2026-04-18T10:01:43.002Z</time></trkpt><trkpt lat="42.070023451388394" lon="11.892859029758977"><ele>132.33333333333331</ele><time>2026-04-18T10:01:45.002Z</time></trkpt><trkpt lat="42.07007045016048" lon="11.892983067894171"><ele>133.66666666666666</ele><time>2026-04-18T10:01:47.002Z</time></trkpt><trkpt lat="42.070102855918" lon="11.893082488791816"><ele>135.0</ele><time>2026-04-18T10:01:49.002Z</time></trkpt><trkpt lat="42.07011452742881" lon="11.893188855255575"><ele>136.33333333333334</ele><time>2026-04-18T10:01:51.002Z</time></trkpt><trkpt lat="42.07009568514939" lon="11.893311458071054"><ele>137.66666666666669</ele><time>2026-04-18T10:01:53.002Z</time></trkpt><trkpt lat="42.070033348683594" lon="11.893393432507322"><ele>139.0</ele><time>2026-04-18T10:01:55.002Z</time></trkpt><trkpt lat="42.069941930912485" lon="11.893517107446455"><ele>140.6</ele><time>2026-04-18T10:01:57.002Z</time></trkpt><trkpt lat="42.06988659940184" lon="11.893594570585979"><ele>142.2</ele><time>2026-04-18T10:01:58.002Z</time></trkpt><trkpt lat="42.06983150740856" lon="11.89363735010149"><ele>143.79999999999998</ele><time>2026-04-18T10:01:59.002Z</time></trkpt><trkpt lat="42.069747609644274" lon="11.893823108066249"><ele>145.4</ele><time>2026-04-18T10:02:01.002Z</time></trkpt><trkpt lat="42.0696644510587" lon="11.893969936664613"><ele>147.0</ele><time>2026-04-18T10:02:02.002Z</time></trkpt><trkpt lat="42.06958654330411" lon="11.89404655277193"><ele>147.0</ele><time>2026-04-18T10:02:03.002Z</time></trkpt><trkpt lat="42.069487353576584" lon="11.893975794598878"><ele>147.0</ele><time>2026-04-18T10:02:05.002Z</time></trkpt><trkpt lat="42.06940855585302" lon="11.893939106854978"><ele>147.0</ele><time>2026-04-18T10:02:06.002Z</time></trkpt><trkpt lat="42.06934662266929" lon="11.893880003583117"><ele>147.0</ele><time>2026-04-18T10:02:07.002Z</time></trkpt><trkpt lat="42.069271643441226" lon="11.893772571909139"><ele>147.0</ele><time>2026-04-18T10:02:08.002Z</time></trkpt><trkpt lat="42.06919389631257" lon="11.893657061978443"><ele>147.0</ele><time>2026-04-18T10:02:09.002Z</time></trkpt><trkpt lat="42.069148636935495" lon="11.893595343641786"><ele>147.0</ele><time>2026-04-18T10:02:10.002Z</time></trkpt><trkpt lat="42.06912283907601" lon="11.893682668725207"><ele>147.0</ele><time>2026-04-18T10:03:07.001Z</time></trkpt><trkpt lat="42.06918433131606" lon="11.893716252417075"><ele>147.0</ele><time>2026-04-18T10:03:08.001Z</time></trkpt><trkpt lat="42.069261069444934" lon="11.893738067473981"><ele>147.0</ele><time>2026-04-18T10:03:09.001Z</time></trkpt><trkpt lat="42.06933575891292" lon="11.89378429460142"><ele>147.0</ele><time>2026-04-18T10:03:10.001Z</time></trkpt><trkpt lat="42.06939691341047" lon="11.893843975711942"><ele>147.0</ele><time>2026-04-18T10:03:11.001Z</time></trkpt><trkpt lat="42.06945179429877" lon="11.893906912776481"><ele>147.0</ele><time>2026-04-18T10:03:12.001Z</time></trkpt><trkpt lat="42.069505367257754" lon="11.893862213361857"><ele>147.0</ele><time>2026-04-18T10:03:16.001Z</time></trkpt><trkpt lat="42.069471821974226" lon="11.893714472868883"><ele>147.0</ele><time>2026-04-18T10:05:04.001Z</time></trkpt><trkpt lat="42.06943295242612" lon="11.893631891451243"><ele>147.0</ele><time>2026-04-18T10:05:05.001Z</time></trkpt><trkpt lat="42.06932940312177" lon="11.89359510912283"><ele>147.0</ele><time>2026-04-18T10:05:07.001Z</time></trkpt><trkpt lat="42.06919315417905" lon="11.89354593072922"><ele>146.79999999999998</ele><time>2026-04-18T10:05:09.001Z</time></trkpt><trkpt lat="42.069099452152834" lon="11.89347157608181"><ele>146.6</ele><time>2026-04-18T10:05:10.001Z</time></trkpt><trkpt lat="42.0690279054775" lon="11.89339680055168"><ele>146.39999999999998</ele><time>2026-04-18T10:05:11.001Z</time></trkpt><trkpt lat="42.069026539902886" lon="11.893270054211511"><ele>146.2</ele><time>2026-04-18T10:05:13.001Z</time></trkpt><trkpt lat="42.06908241558765" lon="11.893170203191568"><ele>146.0</ele><time>2026-04-18T10:05:14.001Z</time></trkpt><trkpt lat="42.06914948256956" lon="11.893048765693925"><ele>145.5</ele><time>2026-04-18T10:05:15.001Z</time></trkpt><trkpt lat="42.069202761314465" lon="11.892934678279282"><ele>145.0</ele><time>2026-04-18T10:05:16.001Z</time></trkpt><trkpt lat="42.069246487053334" lon="11.892819219937108"><ele>144.5</ele><time>2026-04-18T10:05:17.001Z</time></trkpt><trkpt lat="42.069284155298085" lon="11.892711361785059"><ele>144.0</ele><time>2026-04-18T10:05:18.001Z</time></trkpt><trkpt lat="42.069319377717136" lon="11.892629718724036"><ele>143.5</ele><time>2026-04-18T10:05:19.001Z</time></trkpt><trkpt lat="42.06935724869783" lon="11.892557878191038"><ele>143.0</ele><time>2026-04-18T10:05:20.001Z</time></trkpt><trkpt lat="42.069401254175" lon="11.892490429195416"><ele>143.0</ele><time>2026-04-18T10:05:21.001Z</time></trkpt><trkpt lat="42.06947293185537" lon="11.892359628723892"><ele>143.0</ele><time>2026-04-18T10:05:23.001Z</time></trkpt><trkpt lat="42.06951492236087" lon="11.892270039371368"><ele>143.0</ele><time>2026-04-18T10:05:25.001Z</time></trkpt><trkpt lat="42.069563611546116" lon="11.89235367811394"><ele>143.0</ele><time>2026-04-18T10:05:27.001Z</time></trkpt><trkpt lat="42.06952809028507" lon="11.892445184935722"><ele>143.0</ele><time>2026-04-18T10:05:28.001Z</time></trkpt><trkpt lat="42.06946257332223" lon="11.892536348730797"><ele>143.0</ele><time>2026-04-18T10:05:29.001Z</time></trkpt><trkpt lat="42.06939470842716" lon="11.892654436690234"><ele>143.0</ele><time>2026-04-18T10:05:30.001Z</time></trkpt><trkpt lat="42.06934531386121" lon="11.892793978467543"><ele>143.0</ele><time>2026-04-18T10:05:31.001Z</time></trkpt><trkpt lat="42.06930881767568" lon="11.892917645124315"><ele>143.0</ele><time>2026-04-18T10:05:32.001Z</time></trkpt><trkpt lat="42.06927235878941" lon="11.893046311928703"><ele>143.0</ele><time>2026-04-18T10:05:33.001Z</time></trkpt><trkpt lat="42.069237074151836" lon="11.893174853519742"><ele>143.0</ele><time>2026-04-18T10:05:34.001Z</time></trkpt><trkpt lat="42.069207665476796" lon="11.893273196115816"><ele>143.0</ele><time>2026-04-18T10:05:35.002Z</time></trkpt><trkpt lat="42.06922155052309" lon="11.89338438392448"><ele>143.0</ele><time>2026-04-18T10:05:37.002Z</time></trkpt><trkpt lat="42.06927442937697" lon="11.893454292133118"><ele>143.0</ele><time>2026-04-18T10:05:38.002Z</time></trkpt><trkpt lat="42.06935278384341" lon="11.893514652520626"><ele>143.0</ele><time>2026-04-18T10:05:39.002Z</time></trkpt><trkpt lat="42.06941335225951" lon="11.893552349319675"><ele>143.0</ele><time>2026-04-18T10:05:40.002Z</time></trkpt><trkpt lat="42.069473581629964" lon="11.893585862168774"><ele>143.0</ele><time>2026-04-18T10:05:41.002Z</time></trkpt><trkpt lat="42.06954909401445" lon="11.893612974168335"><ele>143.0</ele><time>2026-04-18T10:05:42.002Z</time></trkpt><trkpt lat="42.06962782666929" lon="11.893636702532293"><ele>143.0</ele><time>2026-04-18T10:05:43.002Z</time></trkpt><trkpt lat="42.069699503735805" lon="11.893645165008698"><ele>143.0</ele><time>2026-04-18T10:05:44.002Z</time></trkpt><trkpt lat="42.06977678569582" lon="11.893622370668336"><ele>143.0</ele><time>2026-04-18T10:05:45.002Z</time></trkpt><trkpt lat="42.06983233174123" lon="11.893562006883212"><ele>143.0</ele><time>2026-04-18T10:05:46.002Z</time></trkpt><trkpt lat="42.0698851531733" lon="11.893444998789434"><ele>143.0</ele><time>2026-04-18T10:05:47.002Z</time></trkpt><trkpt lat="42.06993644314098" lon="11.893312807023007"><ele>143.0</ele><time>2026-04-18T10:05:48.002Z</time></trkpt><trkpt lat="42.069969558439595" lon="11.893225327464206"><ele>143.0</ele><time>2026-04-18T10:05:49.002Z</time></trkpt><trkpt lat="42.06998920981463" lon="11.89313991423407"><ele>143.0</ele><time>2026-04-18T10:05:50.002Z</time></trkpt><trkpt lat="42.06998560067749" lon="11.893020966885922"><ele>143.0</ele><time>2026-04-18T10:05:51.002Z</time></trkpt><trkpt lat="42.06995203620951" lon="11.89289631347252"><ele>143.0</ele><time>2026-04-18T10:05:52.002Z</time></trkpt><trkpt lat="42.069888856667184" lon="11.8927721159298"><ele>143.0</ele><time>2026-04-18T10:05:53.002Z</time></trkpt><trkpt lat="42.06981952234784" lon="11.892658211572098"><ele>143.0</ele><time>2026-04-18T10:05:54.002Z</time></trkpt><trkpt lat="42.06975992583047" lon="11.892583243833785"><ele>143.0</ele><time>2026-04-18T10:05:55.002Z</time></trkpt><trkpt lat="42.069665181037216" lon="11.892557376656004"><ele>143.0</ele><time>2026-04-18T10:05:57.002Z</time></trkpt><trkpt lat="42.069632665812975" lon="11.89266317196913"><ele>143.0</ele><time>2026-04-18T10:05:59.002Z</time></trkpt><trkpt lat="42.06960821597954" lon="11.8927588066778"><ele>143.0</ele><time>2026-04-18T10:06:00.002Z</time></trkpt><trkpt lat="42.06957333526442" lon="11.892876498786897"><ele>143.0</ele><time>2026-04-18T10:06:01.002Z</time></trkpt><trkpt lat="42.06952673593051" lon="11.893015591336237"><ele>143.0</ele><time>2026-04-18T10:06:02.002Z</time></trkpt><trkpt lat="42.06946633247404" lon="11.893193665967058"><ele>143.0</ele><time>2026-04-18T10:06:03.002Z</time></trkpt><trkpt lat="42.069450161941596" lon="11.893290663363874"><ele>143.0</ele><time>2026-04-18T10:06:04.002Z</time></trkpt><trkpt lat="42.06953892402862" lon="11.893343334808671"><ele>143.0</ele><time>2026-04-18T10:06:06.002Z</time></trkpt><trkpt lat="42.069614675311016" lon="11.89323997227738"><ele>143.0</ele><time>2026-04-18T10:06:08.002Z</time></trkpt><trkpt lat="42.069631711758944" lon="11.893135315566134"><ele>143.0</ele><time>2026-04-18T10:06:09.002Z</time></trkpt><trkpt lat="42.06964800773068" lon="11.893017948921957"><ele>143.0</ele><time>2026-04-18T10:06:10.002Z</time></trkpt><trkpt lat="42.06966760355312" lon="11.892861305508978"><ele>143.0</ele><time>2026-04-18T10:06:12.002Z</time></trkpt><trkpt lat="42.06974125272795" lon="11.89279223350521"><ele>143.0</ele><time>2026-04-18T10:06:14.002Z</time></trkpt><trkpt lat="42.069813926138586" lon="11.892853960562052"><ele>143.0</ele><time>2026-04-18T10:06:16.002Z</time></trkpt><trkpt lat="42.069841005100905" lon="11.892931846990374"><ele>143.0</ele><time>2026-04-18T10:06:17.002Z</time></trkpt><trkpt lat="42.06985519706513" lon="11.89302542236264"><ele>143.0</ele><time>2026-04-18T10:06:18.002Z</time></trkpt><trkpt lat="42.069850918232156" lon="11.893124161270139"><ele>143.0</ele><time>2026-04-18T10:06:19.002Z</time></trkpt><trkpt lat="42.06980771515321" lon="11.89321903187544"><ele>143.0</ele><time>2026-04-18T10:06:20.002Z</time></trkpt><trkpt lat="42.06973804645926" lon="11.893300092745912"><ele>143.0</ele><time>2026-04-18T10:06:21.002Z</time></trkpt><trkpt lat="42.069681851020015" lon="11.893357161760933"><ele>143.0</ele><time>2026-04-18T10:06:22.002Z</time></trkpt><trkpt lat="42.06963750798761" lon="11.893419462413025"><ele>143.0</ele><time>2026-04-18T10:06:23.002Z</time></trkpt><trkpt lat="42.069580273938605" lon="11.893480389986024"><ele>143.0</ele><time>2026-04-18T10:06:24.002Z</time></trkpt><trkpt lat="42.06949377103972" lon="11.89350664456001"><ele>143.0</ele><time>2026-04-18T10:06:25.002Z</time></trkpt><trkpt lat="42.0694127928924" lon="11.893448196200914"><ele>143.0</ele><time>2026-04-18T10:06:26.002Z</time></trkpt><trkpt lat="42.069365285251735" lon="11.893352574270988"><ele>143.0</ele><time>2026-04-18T10:06:27.002Z</time></trkpt><trkpt lat="42.06935523099953" lon="11.89325742192496"><ele>143.0</ele><time>2026-04-18T10:06:28.002Z</time></trkpt><trkpt lat="42.06937301071246" lon="11.89315524688764"><ele>143.0</ele><time>2026-04-18T10:06:29.002Z</time></trkpt><trkpt lat="42.069402224932304" lon="11.893042065284902"><ele>143.0</ele><time>2026-04-18T10:06:30.002Z</time></trkpt><trkpt lat="42.069440315335314" lon="11.892941709067815"><ele>143.0</ele><time>2026-04-18T10:06:31.001Z</time></trkpt><trkpt lat="42.06947459767191" lon="11.89286405800786"><ele>143.0</ele><time>2026-04-18T10:06:32.001Z</time></trkpt><trkpt lat="42.0695087344957" lon="11.892777282069455"><ele>143.0</ele><time>2026-04-18T10:06:33.001Z</time></trkpt><trkpt lat="42.06954962063311" lon="11.892666759393425"><ele>143.0</ele><time>2026-04-18T10:06:34.001Z</time></trkpt><trkpt lat="42.06959932582978" lon="11.892544275571044"><ele>143.0</ele><time>2026-04-18T10:06:35.001Z</time></trkpt><trkpt lat="42.06964623490566" lon="11.892423653546443"><ele>141.0</ele><time>2026-04-18T10:06:36.001Z</time></trkpt><trkpt lat="42.069671569423996" lon="11.892310312581856"><ele>139.0</ele><time>2026-04-18T10:06:37.001Z</time></trkpt><trkpt lat="42.069661880915916" lon="11.892208683291159"><ele>137.0</ele><time>2026-04-18T10:06:38.001Z</time></trkpt><trkpt lat="42.06961185451653" lon="11.892132983936202"><ele>135.0</ele><time>2026-04-18T10:06:39.001Z</time></trkpt><trkpt lat="42.06953757655977" lon="11.892060567173148"><ele>133.0</ele><time>2026-04-18T10:06:40.001Z</time></trkpt><trkpt lat="42.0694779226694" lon="11.892012169208101"><ele>131.0</ele><time>2026-04-18T10:06:41.001Z</time></trkpt><trkpt lat="42.06937259233711" lon="11.89202086481823"><ele>131.0</ele><time>2026-04-18T10:06:43.001Z</time></trkpt><trkpt lat="42.069322490952196" lon="11.892156958995617"><ele>131.0</ele><time>2026-04-18T10:06:45.001Z</time></trkpt><trkpt lat="42.06933167624035" lon="11.8922616980931"><ele>131.0</ele><time>2026-04-18T10:06:46.001Z</time></trkpt><trkpt lat="42.06932288277032" lon="11.892348481829497"><ele>131.0</ele><time>2026-04-18T10:06:47.001Z</time></trkpt><trkpt lat="42.069286180537624" lon="11.892442343460887"><ele>131.0</ele><time>2026-04-18T10:06:48.001Z</time></trkpt><trkpt lat="42.069239446023445" lon="11.892554836272199"><ele>131.0</ele><time>2026-04-18T10:06:49.001Z</time></trkpt><trkpt lat="42.069186194385395" lon="11.89270868877143"><ele>133.4</ele><time>2026-04-18T10:06:50.001Z</time></trkpt><trkpt lat="42.069139854908656" lon="11.89284099152067"><ele>135.8</ele><time>2026-04-18T10:06:51.001Z</time></trkpt><trkpt lat="42.069098627767254" lon="11.892965274686066"><ele>138.20000000000002</ele><time>2026-04-18T10:06:52.001Z</time></trkpt><trkpt lat="42.069054783672925" lon="11.893081017874618"><ele>140.6</ele><time>2026-04-18T10:06:53.001Z</time></trkpt><trkpt lat="42.069015400940465" lon="11.893176895760826"><ele>143.0</ele><time>2026-04-18T10:06:54.001Z</time></trkpt><trkpt lat="42.068979546130706" lon="11.893249952390057"><ele>144.20000000000002</ele><time>2026-04-18T10:06:55.001Z</time></trkpt><trkpt lat="42.06889931560719" lon="11.893341985870066"><ele>145.4</ele><time>2026-04-18T10:06:57.001Z</time></trkpt><trkpt lat="42.06883156221024" lon="11.89325085158501"><ele>146.60000000000002</ele><time>2026-04-18T10:06:59.001Z</time></trkpt><trkpt lat="42.06886281389538" lon="11.893164477572933"><ele>147.8</ele><time>2026-04-18T10:07:00.001Z</time></trkpt><trkpt lat="42.068929861049035" lon="11.893024937767594"><ele>149.0</ele><time>2026-04-18T10:07:02.001Z</time></trkpt><trkpt lat="42.069019414019714" lon="11.892902073776732"><ele>149.0</ele><time>2026-04-18T10:07:04.001Z</time></trkpt><trkpt lat="42.069063882405366" lon="11.892823121843026"><ele>149.0</ele><time>2026-04-18T10:07:05.001Z</time></trkpt><trkpt lat="42.0690963940423" lon="11.892746233090422"><ele>149.0</ele><time>2026-04-18T10:07:06.001Z</time></trkpt><trkpt lat="42.06912761503293" lon="11.892667142140143"><ele>149.0</ele><time>2026-04-18T10:07:07.001Z</time></trkpt><trkpt lat="42.06915603048723" lon="11.89256033287376"><ele>149.0</ele><time>2026-04-18T10:07:09.001Z</time></trkpt><trkpt lat="42.06913567479402" lon="11.892452519194608"><ele>149.0</ele><time>2026-04-18T10:07:11.001Z</time></trkpt><trkpt lat="42.06914908989805" lon="11.892358476503574"><ele>149.0</ele><time>2026-04-18T10:07:12.001Z</time></trkpt><trkpt lat="42.06918369191347" lon="11.892252937920725"><ele>146.0</ele><time>2026-04-18T10:07:13.001Z</time></trkpt><trkpt lat="42.069216070754386" lon="11.892129909945782"><ele>143.0</ele><time>2026-04-18T10:07:14.001Z</time></trkpt><trkpt lat="42.069255523521534" lon="11.89203518389177"><ele>140.0</ele><time>2026-04-18T10:07:15.001Z</time></trkpt><trkpt lat="42.06928802095492" lon="11.891943635506829"><ele>137.0</ele><time>2026-04-18T10:07:16.001Z</time></trkpt><trkpt lat="42.069322952435705" lon="11.891853663164062"><ele>134.0</ele><time>2026-04-18T10:07:17.001Z</time></trkpt><trkpt lat="42.069385843679996" lon="11.891734650739703"><ele>131.0</ele><time>2026-04-18T10:07:19.001Z</time></trkpt><trkpt lat="42.06948769930508" lon="11.89168601500024"><ele>131.0</ele><time>2026-04-18T10:07:21.001Z</time></trkpt><trkpt lat="42.06956809051436" lon="11.891742779380923"><ele>131.0</ele><time>2026-04-18T10:07:23.001Z</time></trkpt><trkpt lat="42.069627988623054" lon="11.891918513202299"><ele>131.0</ele><time>2026-04-18T10:07:25.001Z</time></trkpt><trkpt lat="42.06966133713387" lon="11.892036841510732"><ele>131.0</ele><time>2026-04-18T10:07:26.001Z</time></trkpt><trkpt lat="42.06969321465295" lon="11.892136194209932"><ele>131.0</ele><time>2026-04-18T10:07:27.001Z</time></trkpt><trkpt lat="42.069733815864126" lon="11.892254804775998"><ele>131.0</ele><time>2026-04-18T10:07:28.001Z</time></trkpt><trkpt lat="42.06977849545808" lon="11.892350004589442"><ele>131.0</ele><time>2026-04-18T10:07:29.001Z</time></trkpt><trkpt lat="42.06982048470327" lon="11.89246574080774"><ele>131.0</ele><time>2026-04-18T10:07:31.001Z</time></trkpt><trkpt lat="42.069865083090924" lon="11.892536721796926"><ele>131.0</ele><time>2026-04-18T10:07:32.001Z</time></trkpt><trkpt lat="42.06993657613458" lon="11.892644238920237"><ele>131.0</ele><time>2026-04-18T10:07:34.001Z</time></trkpt><trkpt lat="42.06996543394668" lon="11.892725803023199"><ele>131.0</ele><time>2026-04-18T10:07:36.001Z</time></trkpt><trkpt lat="42.07001505052503" lon="11.892824991654711"><ele>132.6</ele><time>2026-04-18T10:07:38.001Z</time></trkpt><trkpt lat="42.070072597113594" lon="11.892963926012662"><ele>134.2</ele><time>2026-04-18T10:07:40.001Z</time></trkpt><trkpt lat="42.070100186958" lon="11.893044611814558"><ele>135.8</ele><time>2026-04-18T10:07:41.001Z</time></trkpt><trkpt lat="42.07011545862841" lon="11.893183644308689"><ele>137.4</ele><time>2026-04-18T10:07:43.001Z</time></trkpt><trkpt lat="42.07010534990397" lon="11.893293466326764"><ele>139.0</ele><time>2026-04-18T10:07:45.001Z</time></trkpt><trkpt lat="42.07005895961109" lon="11.89338579262322"><ele>139.83333333333334</ele><time>2026-04-18T10:07:47.001Z</time></trkpt><trkpt lat="42.07000061153267" lon="11.893457954860454"><ele>140.66666666666669</ele><time>2026-04-18T10:07:50.001Z</time></trkpt><trkpt lat="42.069948605161024" lon="11.893526397432337"><ele>141.5</ele><time>2026-04-18T10:07:52.001Z</time></trkpt><trkpt lat="42.069895032481064" lon="11.89359509455489"><ele>142.33333333333334</ele><time>2026-04-18T10:07:54.001Z</time></trkpt><trkpt lat="42.069834812361364" lon="11.893642655825866"><ele>143.16666666666666</ele><time>2026-04-18T10:07:57.001Z</time></trkpt><trkpt lat="42.06980275743796" lon="11.893717654182538"><ele>144.0</ele><time>2026-04-18T10:08:00.001Z</time></trkpt><trkpt lat="42.06976046541214" lon="11.89382640026406"><ele>144.6</ele><time>2026-04-18T10:08:03.002Z</time></trkpt><trkpt lat="42.06970032217642" lon="11.893913129054202"><ele>145.2</ele><time>2026-04-18T10:08:04.002Z</time></trkpt><trkpt lat="42.06959591555001" lon="11.894008028040643"><ele>145.79999999999998</ele><time>2026-04-18T10:08:05.002Z</time></trkpt><trkpt lat="42.069487246625506" lon="11.894031148322307"><ele>146.4</ele><time>2026-04-18T10:08:06.002Z</time></trkpt><trkpt lat="42.069390668261065" lon="11.89397967214661"><ele>147.0</ele><time>2026-04-18T10:08:07.002Z</time></trkpt><trkpt lat="42.06930688814489" lon="11.893859637958"><ele>147.0</ele><time>2026-04-18T10:08:08.002Z</time></trkpt><trkpt lat="42.06922643179517" lon="11.893705471636418"><ele>147.0</ele><time>2026-04-18T10:08:09.002Z</time></trkpt><trkpt lat="42.06916897851803" lon="11.893609941456862"><ele>147.0</ele><time>2026-04-18T10:08:10.002Z</time></trkpt><trkpt lat="42.06909788055783" lon="11.893562918689303"><ele>147.0</ele><time>2026-04-18T10:08:12.002Z</time></trkpt><trkpt lat="42.0694128293709" lon="11.894141904108444"><ele>147.0</ele><time>2026-04-18T10:16:40Z</time></trkpt><trkpt lat="42.069465594042256" lon="11.894196295028337"><ele>147.0</ele><time>2026-04-18T10:16:41Z</time></trkpt><trkpt lat="42.069482068746275" lon="11.894279006745982"><ele>147.0</ele><time>2026-04-18T10:16:42Z</time></trkpt><trkpt lat="42.06951169203928" lon="11.894380815300638"><ele>147.0</ele><time>2026-04-18T10:16:43Z</time></trkpt><trkpt lat="42.06954644222042" lon="11.894508878161227"><ele>147.0</ele><time>2026-04-18T10:16:44Z</time></trkpt><trkpt lat="42.069615529370196" lon="11.89462864942206"><ele>147.0</ele><time>2026-04-18T10:16:45Z</time></trkpt><trkpt lat="42.06968657926197" lon="11.894781965029539"><ele>146.0</ele><time>2026-04-18T10:16:46Z</time></trkpt><trkpt lat="42.06977311572837" lon="11.894869777677371"><ele>145.0</ele><time>2026-04-18T10:16:47Z</time></trkpt><trkpt lat="42.069834915172166" lon="11.894962216775822"><ele>144.0</ele><time>2026-04-18T10:16:48Z</time></trkpt><trkpt lat="42.06987481789444" lon="11.895030762049212"><ele>143.0</ele><time>2026-04-18T10:16:49Z</time></trkpt><trkpt lat="42.06995655816791" lon="11.895167377313788"><ele>142.0</ele><time>2026-04-18T10:16:51Z</time></trkpt><trkpt lat="42.06999357404845" lon="11.895253394212707"><ele>142.0</ele><time>2026-04-18T10:16:52Z</time></trkpt><trkpt lat="42.07003491385563" lon="11.895398656498667"><ele>142.0</ele><time>2026-04-18T10:16:54Z</time></trkpt><trkpt lat="42.0700351098323" lon="11.895486527556194"><ele>142.0</ele><time>2026-04-18T10:16:57Z</time></trkpt><trkpt lat="42.07002358300293" lon="11.89557447296984"><ele>142.0</ele><time>2026-04-18T10:17:00Z</time></trkpt><trkpt lat="42.070048263820865" lon="11.895460752089015"><ele>142.0</ele><time>2026-04-18T10:17:09Z</time></trkpt><trkpt lat="42.07011944171103" lon="11.89552101126998"><ele>142.0</ele><time>2026-04-18T10:17:12Z</time></trkpt><trkpt lat="42.07013210089382" lon="11.895655600702348"><ele>142.0</ele><time>2026-04-18T10:17:14Z</time></trkpt><trkpt lat="42.07011915090819" lon="11.895769753729649"><ele>142.0</ele><time>2026-04-18T10:17:16Z</time></trkpt><trkpt lat="42.070111186915874" lon="11.895855663910549"><ele>142.0</ele><time>2026-04-18T10:17:17Z</time></trkpt><trkpt lat="42.07011650272853" lon="11.895948525117507"><ele>142.0</ele><time>2026-04-18T10:17:18Z</time></trkpt><trkpt lat="42.070109282815714" lon="11.89604873011404"><ele>142.0</ele><time>2026-04-18T10:17:19Z</time></trkpt><trkpt lat="42.07011090740964" lon="11.896140046650938"><ele>142.0</ele><time>2026-04-18T10:17:20Z</time></trkpt><trkpt lat="42.07010507610952" lon="11.896234411448262"><ele>142.0</ele><time>2026-04-18T10:17:21Z</time></trkpt><trkpt lat="42.07008842116896" lon="11.896323709655917"><ele>141.83333333333334</ele><time>2026-04-18T10:17:22Z</time></trkpt><trkpt lat="42.07009053070992" lon="11.89641156779533"><ele>141.66666666666669</ele><time>2026-04-18T10:17:23Z</time></trkpt><trkpt lat="42.07009052699501" lon="11.896500728497909"><ele>141.5</ele><time>2026-04-18T10:17:24Z</time></trkpt><trkpt lat="42.07008842119988" lon="11.896607327673959"><ele>141.33333333333334</ele><time>2026-04-18T10:17:25Z</time></trkpt><trkpt lat="42.070116682801334" lon="11.896708619221224"><ele>141.16666666666666</ele><time>2026-04-18T10:17:26Z</time></trkpt><trkpt lat="42.070147530466" lon="11.896820968986168"><ele>141.0</ele><time>2026-04-18T10:17:27Z</time></trkpt><trkpt lat="42.07018388395956" lon="11.89692286336891"><ele>140.0</ele><time>2026-04-18T10:17:28Z</time></trkpt><trkpt lat="42.070217995186205" lon="11.897024313276365"><ele>139.0</ele><time>2026-04-18T10:17:29Z</time></trkpt><trkpt lat="42.07025494135044" lon="11.897114324176318"><ele>138.0</ele><time>2026-04-18T10:17:30Z</time></trkpt><trkpt lat="42.070299237286285" lon="11.897202990931316"><ele>137.0</ele><time>2026-04-18T10:17:31Z</time></trkpt><trkpt lat="42.07035042232945" lon="11.897294692898736"><ele>136.0</ele><time>2026-04-18T10:17:32Z</time></trkpt><trkpt lat="42.070427001730955" lon="11.897361940921666"><ele>135.0</ele><time>2026-04-18T10:17:33Z</time></trkpt><trkpt lat="42.070518166717065" lon="11.897407453739044"><ele>135.0</ele><time>2026-04-18T10:17:34Z</time></trkpt><trkpt lat="42.07061571496718" lon="11.8974459841766"><ele>135.0</ele><time>2026-04-18T10:17:35Z</time></trkpt><trkpt lat="42.070709533367435" lon="11.897478243571332"><ele>135.0</ele><time>2026-04-18T10:17:36Z</time></trkpt><trkpt lat="42.07080590140209" lon="11.897518572838333"><ele>135.0</ele><time>2026-04-18T10:17:37Z</time></trkpt><trkpt lat="42.07090935934347" lon="11.89756592789925"><ele>135.0</ele><time>2026-04-18T10:17:38Z</time></trkpt><trkpt lat="42.07101938553448" lon="11.897611109261385"><ele>135.2</ele><time>2026-04-18T10:17:39Z</time></trkpt><trkpt lat="42.0711216503744" lon="11.897645677437323"><ele>135.4</ele><time>2026-04-18T10:17:40Z</time></trkpt><trkpt lat="42.07121963855771" lon="11.897683607829077"><ele>135.6</ele><time>2026-04-18T10:17:41.001Z</time></trkpt><trkpt lat="42.07132075217487" lon="11.897735862226973"><ele>135.8</ele><time>2026-04-18T10:17:42.001Z</time></trkpt><trkpt lat="42.0714289034646" lon="11.897803614047788"><ele>136.0</ele><time>2026-04-18T10:17:43.001Z</time></trkpt><trkpt lat="42.07154189746179" lon="11.8978696004104"><ele>137.0</ele><time>2026-04-18T10:17:44.001Z</time></trkpt><trkpt lat="42.0716473742198" lon="11.897941359067238"><ele>138.0</ele><time>2026-04-18T10:17:45.001Z</time></trkpt><trkpt lat="42.07172851179617" lon="11.898015061948705"><ele>139.0</ele><time>2026-04-18T10:17:46.001Z</time></trkpt><trkpt lat="42.07180895930658" lon="11.898098540111707"><ele>140.0</ele><time>2026-04-18T10:17:47.001Z</time></trkpt><trkpt lat="42.071889193784926" lon="11.898179783695056"><ele>141.0</ele><time>2026-04-18T10:17:48.001Z</time></trkpt><trkpt lat="42.071981885143124" lon="11.898255396329972"><ele>141.0</ele><time>2026-04-18T10:17:49.001Z</time></trkpt><trkpt lat="42.07210158830332" lon="11.898329688914316"><ele>141.0</ele><time>2026-04-18T10:17:50.001Z</time></trkpt><trkpt lat="42.07220683133044" lon="11.898378023061417"><ele>141.0</ele><time>2026-04-18T10:17:51.001Z</time></trkpt><trkpt lat="42.0723094252152" lon="11.898407900588424"><ele>141.0</ele><time>2026-04-18T10:17:52.001Z</time></trkpt><trkpt lat="42.07242198969546" lon="11.89843301451681"><ele>141.0</ele><time>2026-04-18T10:17:53.001Z</time></trkpt><trkpt lat="42.07256429379199" lon="11.898461041302584"><ele>141.0</ele><time>2026-04-18T10:17:54.001Z</time></trkpt><trkpt lat="42.07271197476674" lon="11.898475674969646"><ele>141.0</ele><time>2026-04-18T10:17:55.001Z</time></trkpt><trkpt lat="42.07284565450839" lon="11.898484936225286"><ele>141.0</ele><time>2026-04-18T10:17:56.001Z</time></trkpt><trkpt lat="42.07296866008574" lon="11.898509713519397"><ele>141.0</ele><time>2026-04-18T10:17:57.001Z</time></trkpt><trkpt lat="42.0730731431222" lon="11.898541995549111"><ele>141.0</ele><time>2026-04-18T10:17:58.001Z</time></trkpt><trkpt lat="42.073169214923496" lon="11.898559807170589"><ele>141.0</ele><time>2026-04-18T10:17:59.001Z</time></trkpt><trkpt lat="42.07323687322829" lon="11.898566504571033"><ele>141.0</ele><time>2026-04-18T10:18:00.001Z</time></trkpt><trkpt lat="42.0733442235959" lon="11.898681495216671"><ele>141.0</ele><time>2026-04-18T10:18:01.999Z</time></trkpt><trkpt lat="42.07341181026509" lon="11.898777878744568"><ele>143.8</ele><time>2026-04-18T10:18:02.999Z</time></trkpt><trkpt lat="42.073480755648234" lon="11.898862063545488"><ele>146.6</ele><time>2026-04-18T10:18:03.999Z</time></trkpt><trkpt lat="42.073563212961105" lon="11.898899526706685"><ele>149.4</ele><time>2026-04-18T10:18:04.999Z</time></trkpt><trkpt lat="42.07365100928378" lon="11.89892637560441"><ele>152.2</ele><time>2026-04-18T10:18:05.999Z</time></trkpt><trkpt lat="42.07373864099315" lon="11.89893125560092"><ele>155.0</ele><time>2026-04-18T10:18:06.999Z</time></trkpt><trkpt lat="42.07383194853895" lon="11.898937560565091"><ele>155.0</ele><time>2026-04-18T10:18:07.999Z</time></trkpt><trkpt lat="42.07392809649597" lon="11.898957624984767"><ele>155.0</ele><time>2026-04-18T10:18:08.999Z</time></trkpt><trkpt lat="42.07399780389037" lon="11.898957095485907"><ele>155.0</ele><time>2026-04-18T10:18:09.999Z</time></trkpt><trkpt lat="42.07409015061129" lon="11.898923376703403"><ele>155.0</ele><time>2026-04-18T10:18:10.999Z</time></trkpt><trkpt lat="42.07417938226609" lon="11.898892507300436"><ele>155.0</ele><time>2026-04-18T10:18:11.999Z</time></trkpt><trkpt lat="42.07427251485204" lon="11.89887223054041"><ele>155.0</ele><time>2026-04-18T10:18:12.999Z</time></trkpt><trkpt lat="42.074361727183344" lon="11.898868657561536"><ele>156.4</ele><time>2026-04-18T10:18:13.999Z</time></trkpt><trkpt lat="42.07445599591298" lon="11.89885506474407"><ele>157.8</ele><time>2026-04-18T10:18:14.999Z</time></trkpt><trkpt lat="42.07455134995791" lon="11.898825711871122"><ele>159.2</ele><time>2026-04-18T10:18:15.999Z</time></trkpt><trkpt lat="42.074643605558684" lon="11.898779143359913"><ele>160.6</ele><time>2026-04-18T10:18:16.999Z</time></trkpt><trkpt lat="42.07473959928279" lon="11.898711683401224"><ele>162.0</ele><time>2026-04-18T10:18:17.999Z</time></trkpt><trkpt lat="42.0748504407076" lon="11.89864319535787"><ele>161.25</ele><time>2026-04-18T10:18:18.999Z</time></trkpt><trkpt lat="42.074960304673446" lon="11.89858684578755"><ele>160.5</ele><time>2026-04-18T10:18:19.999Z</time></trkpt><trkpt lat="42.075074933872784" lon="11.898561547372415"><ele>159.75</ele><time>2026-04-18T10:18:20.999Z</time></trkpt><trkpt lat="42.07518509959794" lon="11.898558747103284"><ele>159.0</ele><time>2026-04-18T10:18:21.999Z</time></trkpt><trkpt lat="42.075298712409804" lon="11.898541742339464"><ele>159.0</ele><time>2026-04-18T10:18:22.999Z</time></trkpt><trkpt lat="42.07539534125841" lon="11.8984951889342"><ele>159.0</ele><time>2026-04-18T10:18:23.999Z</time></trkpt><trkpt lat="42.07547846807865" lon="11.898431393284625"><ele>159.0</ele><time>2026-04-18T10:18:24.999Z</time></trkpt><trkpt lat="42.07555619139246" lon="11.898365171572097"><ele>159.0</ele><time>2026-04-18T10:18:25.999Z</time></trkpt><trkpt lat="42.07562134959893" lon="11.898292939135377"><ele>159.0</ele><time>2026-04-18T10:18:26.999Z</time></trkpt><trkpt lat="42.075681115398766" lon="11.898246259497716"><ele>159.0</ele><time>2026-04-18T10:18:27.999Z</time></trkpt><trkpt lat="42.07575629260469" lon="11.89823671817604"><ele>161.0</ele><time>2026-04-18T10:18:28.999Z</time></trkpt><trkpt lat="42.075853851163046" lon="11.898243980221515"><ele>163.0</ele><time>2026-04-18T10:18:29.999Z</time></trkpt><trkpt lat="42.07595637280875" lon="11.898241980455872"><ele>165.0</ele><time>2026-04-18T10:18:30.999Z</time></trkpt><trkpt lat="42.07604471526088" lon="11.898212561204966"><ele>167.0</ele><time>2026-04-18T10:18:32Z</time></trkpt><trkpt lat="42.07612608693635" lon="11.8981679267665"><ele>169.0</ele><time>2026-04-18T10:18:33Z</time></trkpt><trkpt lat="42.07621637355932" lon="11.898104880284363"><ele>169.0</ele><time>2026-04-18T10:18:34Z</time></trkpt><trkpt lat="42.07629427805171" lon="11.898018521799438"><ele>169.0</ele><time>2026-04-18T10:18:35Z</time></trkpt><trkpt lat="42.07636747652948" lon="11.897925039566214"><ele>169.0</ele><time>2026-04-18T10:18:36Z</time></trkpt><trkpt lat="42.076440629348276" lon="11.897850185933223"><ele>169.0</ele><time>2026-04-18T10:18:37Z</time></trkpt><trkpt lat="42.07653544364605" lon="11.897770946628269"><ele>169.0</ele><time>2026-04-18T10:18:38Z</time></trkpt><trkpt lat="42.07663339907382" lon="11.897696385336237"><ele>167.79999999999998</ele><time>2026-04-18T10:18:39Z</time></trkpt><trkpt lat="42.076718064605366" lon="11.897639873791451"><ele>166.6</ele><time>2026-04-18T10:18:40Z</time></trkpt><trkpt lat="42.07679529105793" lon="11.897554009821043"><ele>165.4</ele><time>2026-04-18T10:18:41Z</time></trkpt><trkpt lat="42.0768492521624" lon="11.89746180819981"><ele>164.2</ele><time>2026-04-18T10:18:42Z</time></trkpt><trkpt lat="42.07691618231666" lon="11.89737438077487"><ele>163.0</ele><time>2026-04-18T10:18:43Z</time></trkpt><trkpt lat="42.077009522216194" lon="11.89729088082272"><ele>164.2</ele><time>2026-04-18T10:18:44Z</time></trkpt><trkpt lat="42.07710671528706" lon="11.897224121745783"><ele>165.4</ele><time>2026-04-18T10:18:45Z</time></trkpt><trkpt lat="42.07720938849413" lon="11.897170754606538"><ele>166.6</ele><time>2026-04-18T10:18:46Z</time></trkpt><trkpt lat="42.077313764613585" lon="11.897136166431272"><ele>167.79999999999998</ele><time>2026-04-18T10:18:47Z</time></trkpt><trkpt lat="42.077413783520534" lon="11.897130450276931"><ele>169.0</ele><time>2026-04-18T10:18:48Z</time></trkpt><trkpt lat="42.07750722526743" lon="11.89715546839382"><ele>169.0</ele><time>2026-04-18T10:18:49Z</time></trkpt><trkpt lat="42.07759307887119" lon="11.897201980081318"><ele>169.0</ele><time>2026-04-18T10:18:50Z</time></trkpt><trkpt lat="42.07765416027812" lon="11.897260592467594"><ele>169.0</ele><time>2026-04-18T10:18:51Z</time></trkpt><trkpt lat="42.077741609717364" lon="11.897369538157855"><ele>169.0</ele><time>2026-04-18T10:18:53Z</time></trkpt><trkpt lat="42.07778914014115" lon="11.897455295326326"><ele>169.0</ele><time>2026-04-18T10:18:55Z</time></trkpt><trkpt lat="42.07784033878275" lon="11.897516082025298"><ele>169.0</ele><time>2026-04-18T10:19:07Z</time></trkpt><trkpt lat="42.07788631993438" lon="11.897598993498844"><ele>169.0</ele><time>2026-04-18T10:19:09Z</time></trkpt><trkpt lat="42.07789743448416" lon="11.89769719908941"><ele>169.0</ele><time>2026-04-18T10:19:55.001Z</time></trkpt><trkpt lat="42.07793749038234" lon="11.89785991680073"><ele>169.0</ele><time>2026-04-18T10:19:57.001Z</time></trkpt><trkpt lat="42.07798632409685" lon="11.897932565003016"><ele>169.0</ele><time>2026-04-18T10:19:58.001Z</time></trkpt><trkpt lat="42.07805064605679" lon="11.89799854328793"><ele>169.0</ele><time>2026-04-18T10:19:59.001Z</time></trkpt><trkpt lat="42.07812329117479" lon="11.89803305229982"><ele>169.0</ele><time>2026-04-18T10:20:00.001Z</time></trkpt><trkpt lat="42.07821436675035" lon="11.898042774122503"><ele>171.0</ele><time>2026-04-18T10:20:01.001Z</time></trkpt><trkpt lat="42.0782916322471" lon="11.898025116143113"><ele>173.0</ele><time>2026-04-18T10:20:02.001Z</time></trkpt><trkpt lat="42.0783626159166" lon="11.89798193097796"><ele>175.0</ele><time>2026-04-18T10:20:03.001Z</time></trkpt><trkpt lat="42.07849090584656" lon="11.89792718034024"><ele>177.0</ele><time>2026-04-18T10:20:05.001Z</time></trkpt><trkpt lat="42.078573697064755" lon="11.897906038494446"><ele>179.0</ele><time>2026-04-18T10:20:06.001Z</time></trkpt><trkpt lat="42.07864803829664" lon="11.897924663386542"><ele>179.00000000000003</ele><time>2026-04-18T10:20:07.001Z</time></trkpt><trkpt lat="42.07871255382657" lon="11.897961924251904"><ele>179.0</ele><time>2026-04-18T10:20:07.999Z</time></trkpt><trkpt lat="42.07876157000033" lon="11.898019816928123"><ele>179.0</ele><time>2026-04-18T10:20:08.999Z</time></trkpt><trkpt lat="42.07880884385217" lon="11.898079482158689"><ele>179.0</ele><time>2026-04-18T10:20:09.999Z</time></trkpt><trkpt lat="42.07885628680691" lon="11.898152820292944"><ele>179.0</ele><time>2026-04-18T10:20:10.999Z</time></trkpt><trkpt lat="42.07888785610062" lon="11.898231496118777"><ele>179.00000000000003</ele><time>2026-04-18T10:20:11.999Z</time></trkpt><trkpt lat="42.07892434521347" lon="11.89831930153061"><ele>179.0</ele><time>2026-04-18T10:20:12.999Z</time></trkpt><trkpt lat="42.07896442278476" lon="11.898400540099791"><ele>178.83333333333331</ele><time>2026-04-18T10:20:13.999Z</time></trkpt><trkpt lat="42.079000418481776" lon="11.898482617788797"><ele>178.66666666666666</ele><time>2026-04-18T10:20:14.999Z</time></trkpt><trkpt lat="42.079066776333555" lon="11.898644515500376"><ele>178.5</ele><time>2026-04-18T10:20:16.999Z</time></trkpt><trkpt lat="42.07909901024364" lon="11.898737254923931"><ele>178.33333333333334</ele><time>2026-04-18T10:20:17.999Z</time></trkpt><trkpt lat="42.079134032749735" lon="11.898821288102136"><ele>178.16666666666669</ele><time>2026-04-18T10:20:18.999Z</time></trkpt><trkpt lat="42.079185441449965" lon="11.89891314676658"><ele>178.0</ele><time>2026-04-18T10:20:19.999Z</time></trkpt><trkpt lat="42.07924007061371" lon="11.899003168457478"><ele>180.0</ele><time>2026-04-18T10:20:20.999Z</time></trkpt><trkpt lat="42.07928731955825" lon="11.899105554105589"><ele>182.0</ele><time>2026-04-18T10:20:21.999Z</time></trkpt><trkpt lat="42.07933935218762" lon="11.899201049717277"><ele>184.0</ele><time>2026-04-18T10:20:22.999Z</time></trkpt><trkpt lat="42.07938946970264" lon="11.899287850125418"><ele>186.0</ele><time>2026-04-18T10:20:23.999Z</time></trkpt><trkpt lat="42.079440757121745" lon="11.899352791646447"><ele>188.0</ele><time>2026-04-18T10:20:25Z</time></trkpt><trkpt lat="42.07949776063037" lon="11.899399530218727"><ele>190.0</ele><time>2026-04-18T10:20:26Z</time></trkpt><trkpt lat="42.079612086006705" lon="11.899423387208405"><ele>190.0</ele><time>2026-04-18T10:20:28Z</time></trkpt><trkpt lat="42.07968095835202" lon="11.89938897490938"><ele>190.0</ele><time>2026-04-18T10:20:29Z</time></trkpt><trkpt lat="42.07974516773332" lon="11.89932655205213"><ele>190.0</ele><time>2026-04-18T10:20:30Z</time></trkpt><trkpt lat="42.079801335925936" lon="11.899262358234175"><ele>190.0</ele><time>2026-04-18T10:20:31Z</time></trkpt><trkpt lat="42.07984979478113" lon="11.899200627077132"><ele>190.0</ele><time>2026-04-18T10:20:32Z</time></trkpt><trkpt lat="42.079896728726354" lon="11.899126884489661"><ele>190.0</ele><time>2026-04-18T10:20:33Z</time></trkpt><trkpt lat="42.079940707371776" lon="11.899052489314634"><ele>190.0</ele><time>2026-04-18T10:20:34Z</time></trkpt><trkpt lat="42.07998741588342" lon="11.898988607942117"><ele>192.33333333333334</ele><time>2026-04-18T10:20:35Z</time></trkpt><trkpt lat="42.080045925197574" lon="11.898914447272888"><ele>194.66666666666669</ele><time>2026-04-18T10:20:36Z</time></trkpt><trkpt lat="42.08010667794574" lon="11.898842435306257"><ele>197.0</ele><time>2026-04-18T10:20:37Z</time></trkpt><trkpt lat="42.080162282615284" lon="11.898778854448093"><ele>199.33333333333334</ele><time>2026-04-18T10:20:38Z</time></trkpt><trkpt lat="42.08021785952073" lon="11.89871545701282"><ele>201.66666666666666</ele><time>2026-04-18T10:20:39Z</time></trkpt><trkpt lat="42.080273782915825" lon="11.898658448189488"><ele>204.0</ele><time>2026-04-18T10:20:40Z</time></trkpt><trkpt lat="42.080335642280374" lon="11.89860267252726"><ele>204.0</ele><time>2026-04-18T10:20:41Z</time></trkpt><trkpt lat="42.08040912777066" lon="11.898554694048558"><ele>204.0</ele><time>2026-04-18T10:20:42Z</time></trkpt><trkpt lat="42.080463653819535" lon="11.898510009549323"><ele>204.0</ele><time>2026-04-18T10:20:43Z</time></trkpt><trkpt lat="42.08056681063685" lon="11.898413837511493"><ele>204.0</ele><time>2026-04-18T10:20:45Z</time></trkpt><trkpt lat="42.080678082160055" lon="11.898436443827235"><ele>204.0</ele><time>2026-04-18T10:20:47Z</time></trkpt><trkpt lat="42.0807262361883" lon="11.898541185092194"><ele>206.0</ele><time>2026-04-18T10:20:48Z</time></trkpt><trkpt lat="42.08077943630854" lon="11.898607479804218"><ele>208.0</ele><time>2026-04-18T10:20:49Z</time></trkpt><trkpt lat="42.080820731761484" lon="11.898687440886606"><ele>210.0</ele><time>2026-04-18T10:20:50Z</time></trkpt><trkpt lat="42.08085802271152" lon="11.898772362143998"><ele>212.0</ele><time>2026-04-18T10:20:51Z</time></trkpt><trkpt lat="42.08090424634527" lon="11.898872786025235"><ele>214.0</ele><time>2026-04-18T10:20:52Z</time></trkpt><trkpt lat="42.08094190635454" lon="11.898967179963687"><ele>216.0</ele><time>2026-04-18T10:20:53Z</time></trkpt><trkpt lat="42.08099620987417" lon="11.89905491493909"><ele>216.0</ele><time>2026-04-18T10:20:54Z</time></trkpt><trkpt lat="42.08103269904885" lon="11.89915973252241"><ele>216.0</ele><time>2026-04-18T10:20:55Z</time></trkpt><trkpt lat="42.081070340502436" lon="11.89925522403664"><ele>216.0</ele><time>2026-04-18T10:20:56Z</time></trkpt><trkpt lat="42.08111393833841" lon="11.89935768958228"><ele>216.0</ele><time>2026-04-18T10:20:57Z</time></trkpt><trkpt lat="42.08116803211257" lon="11.899448891288351"><ele>216.0</ele><time>2026-04-18T10:20:58Z</time></trkpt><trkpt lat="42.0812331230363" lon="11.899536079975258"><ele>216.0</ele><time>2026-04-18T10:20:59Z</time></trkpt><trkpt lat="42.0813176545143" lon="11.899607430988894"><ele>216.5</ele><time>2026-04-18T10:21:00Z</time></trkpt><trkpt lat="42.08141981569115" lon="11.899667427636436"><ele>217.0</ele><time>2026-04-18T10:21:01Z</time></trkpt><trkpt lat="42.08152118872707" lon="11.899719018916512"><ele>217.5</ele><time>2026-04-18T10:21:02Z</time></trkpt><trkpt lat="42.081602710943955" lon="11.899748221695098"><ele>218.0</ele><time>2026-04-18T10:21:03Z</time></trkpt><trkpt lat="42.081676987961444" lon="11.899776290058792"><ele>218.5</ele><time>2026-04-18T10:21:04Z</time></trkpt><trkpt lat="42.08173766263334" lon="11.899811392686852"><ele>219.0</ele><time>2026-04-18T10:21:05Z</time></trkpt><trkpt lat="42.08180094450761" lon="11.899917951671442"><ele>221.83333333333334</ele><time>2026-04-18T10:21:07Z</time></trkpt><trkpt lat="42.08178800600201" lon="11.900105287720995"><ele>224.66666666666669</ele><time>2026-04-18T10:21:09Z</time></trkpt><trkpt lat="42.081762479509685" lon="11.900189801961261"><ele>227.5</ele><time>2026-04-18T10:21:10Z</time></trkpt><trkpt lat="42.08172205339117" lon="11.900283950678546"><ele>230.33333333333334</ele><time>2026-04-18T10:21:11.001Z</time></trkpt><trkpt lat="42.08169285196219" lon="11.9003689687829"><ele>233.16666666666669</ele><time>2026-04-18T10:21:12.001Z</time></trkpt><trkpt lat="42.08169061855668" lon="11.900465783440179"><ele>236.0</ele><time>2026-04-18T10:21:13.001Z</time></trkpt><trkpt lat="42.08170306268082" lon="11.900557078442315"><ele>236.00000000000003</ele><time>2026-04-18T10:21:14.001Z</time></trkpt><trkpt lat="42.08171407484247" lon="11.900650858157684"><ele>236.0</ele><time>2026-04-18T10:21:15.001Z</time></trkpt><trkpt lat="42.08171563898302" lon="11.90074421884314"><ele>236.0</ele><time>2026-04-18T10:21:16.001Z</time></trkpt><trkpt lat="42.081718076250866" lon="11.900851114781037"><ele>236.0</ele><time>2026-04-18T10:21:17.001Z</time></trkpt><trkpt lat="42.08171529155275" lon="11.900969035301879"><ele>236.00000000000003</ele><time>2026-04-18T10:21:18.001Z</time></trkpt><trkpt lat="42.08171525122614" lon="11.90109480611043"><ele>236.0</ele><time>2026-04-18T10:21:19.001Z</time></trkpt><trkpt lat="42.08171033628678" lon="11.901217680177483"><ele>236.20000000000002</ele><time>2026-04-18T10:21:20.001Z</time></trkpt><trkpt lat="42.08170153573208" lon="11.901332973663502"><ele>236.40000000000003</ele><time>2026-04-18T10:21:21.001Z</time></trkpt><trkpt lat="42.08172403430092" lon="11.901460177875498"><ele>236.6</ele><time>2026-04-18T10:21:22.001Z</time></trkpt><trkpt lat="42.08177403444891" lon="11.901571253817233"><ele>236.8</ele><time>2026-04-18T10:21:23.001Z</time></trkpt><trkpt lat="42.08184107334105" lon="11.901676368960098"><ele>237.0</ele><time>2026-04-18T10:21:24.001Z</time></trkpt><trkpt lat="42.081910557738325" lon="11.901759909635334"><ele>236.33333333333334</ele><time>2026-04-18T10:21:25.001Z</time></trkpt><trkpt lat="42.08198094864106" lon="11.901832115967885"><ele>235.66666666666669</ele><time>2026-04-18T10:21:26.001Z</time></trkpt><trkpt lat="42.0820611225397" lon="11.90189451257981"><ele>235.0</ele><time>2026-04-18T10:21:27.001Z</time></trkpt><trkpt lat="42.082150310798674" lon="11.901939377553543"><ele>234.33333333333334</ele><time>2026-04-18T10:21:28.001Z</time></trkpt><trkpt lat="42.08222740811472" lon="11.901987938811462"><ele>233.66666666666669</ele><time>2026-04-18T10:21:29.001Z</time></trkpt><trkpt lat="42.082287123106646" lon="11.902048892778982"><ele>233.0</ele><time>2026-04-18T10:21:30.001Z</time></trkpt><trkpt lat="42.08234765743933" lon="11.902122870943057"><ele>233.00000000000003</ele><time>2026-04-18T10:21:31.001Z</time></trkpt><trkpt lat="42.08240538954467" lon="11.9021878635978"><ele>233.0</ele><time>2026-04-18T10:21:32.001Z</time></trkpt><trkpt lat="42.08246934838237" lon="11.90226152176715"><ele>233.0</ele><time>2026-04-18T10:21:33.001Z</time></trkpt><trkpt lat="42.08252962010977" lon="11.902341375645777"><ele>233.0</ele><time>2026-04-18T10:21:34.001Z</time></trkpt><trkpt lat="42.0825751592039" lon="11.902439598002744"><ele>233.00000000000003</ele><time>2026-04-18T10:21:35.001Z</time></trkpt><trkpt lat="42.08261156317491" lon="11.902546161084139"><ele>233.0</ele><time>2026-04-18T10:21:36.001Z</time></trkpt><trkpt lat="42.082637133972604" lon="11.902644098023025"><ele>235.50000000000003</ele><time>2026-04-18T10:21:37.001Z</time></trkpt><trkpt lat="42.08266206273605" lon="11.90274243172194"><ele>238.0</ele><time>2026-04-18T10:21:38.001Z</time></trkpt><trkpt lat="42.08268788909773" lon="11.902825452523773"><ele>240.5</ele><time>2026-04-18T10:21:39.001Z</time></trkpt><trkpt lat="42.08273171745051" lon="11.902896580260634"><ele>243.0</ele><time>2026-04-18T10:21:40.001Z</time></trkpt><trkpt lat="42.082795888357694" lon="11.90294285344584"><ele>245.50000000000003</ele><time>2026-04-18T10:21:41.001Z</time></trkpt><trkpt lat="42.08286093274582" lon="11.902966224868202"><ele>248.0</ele><time>2026-04-18T10:21:42.001Z</time></trkpt><trkpt lat="42.08296979431566" lon="11.902976101542617"><ele>248.00000000000003</ele><time>2026-04-18T10:21:44.001Z</time></trkpt><trkpt lat="42.083050435340596" lon="11.90284102901933"><ele>248.0</ele><time>2026-04-18T10:21:46.001Z</time></trkpt><trkpt lat="42.08308009036537" lon="11.902753074442991"><ele>248.0</ele><time>2026-04-18T10:21:47.001Z</time></trkpt><trkpt lat="42.08310587254609" lon="11.902646858270066"><ele>248.0</ele><time>2026-04-18T10:21:48.001Z</time></trkpt><trkpt lat="42.08312632453494" lon="11.90255230098392"><ele>248.00000000000003</ele><time>2026-04-18T10:21:49.001Z</time></trkpt><trkpt lat="42.08314663431206" lon="11.902462987562297"><ele>248.0</ele><time>2026-04-18T10:21:50.001Z</time></trkpt><trkpt lat="42.083162732562926" lon="11.902362607833755"><ele>248.66666666666669</ele><time>2026-04-18T10:21:51.001Z</time></trkpt><trkpt lat="42.08318552070522" lon="11.902254795760964"><ele>249.33333333333334</ele><time>2026-04-18T10:21:52.001Z</time></trkpt><trkpt lat="42.08320942627558" lon="11.902149890281136"><ele>250.0</ele><time>2026-04-18T10:21:53.001Z</time></trkpt><trkpt lat="42.08321746971063" lon="11.90205246955122"><ele>250.66666666666669</ele><time>2026-04-18T10:21:54.001Z</time></trkpt><trkpt lat="42.083227972217266" lon="11.901941442014841"><ele>251.33333333333334</ele><time>2026-04-18T10:21:55.001Z</time></trkpt><trkpt lat="42.08324085779329" lon="11.901846267771154"><ele>252.0</ele><time>2026-04-18T10:21:56.001Z</time></trkpt><trkpt lat="42.0832516203583" lon="11.901745497117421"><ele>252.0</ele><time>2026-04-18T10:21:57.001Z</time></trkpt><trkpt lat="42.08325896675053" lon="11.90163707132492"><ele>252.0</ele><time>2026-04-18T10:21:58.001Z</time></trkpt><trkpt lat="42.08328092756833" lon="11.90153641462174"><ele>252.0</ele><time>2026-04-18T10:21:59.001Z</time></trkpt><trkpt lat="42.08331712769474" lon="11.901448795243825"><ele>252.0</ele><time>2026-04-18T10:22:00.001Z</time></trkpt><trkpt lat="42.083368506269764" lon="11.901361552179882"><ele>252.0</ele><time>2026-04-18T10:22:01.001Z</time></trkpt><trkpt lat="42.08340184831761" lon="11.901268679502982"><ele>252.0</ele><time>2026-04-18T10:22:02.001Z</time></trkpt><trkpt lat="42.08342345920205" lon="11.901185726914493"><ele>254.83333333333334</ele><time>2026-04-18T10:22:03.001Z</time></trkpt><trkpt lat="42.083471661639926" lon="11.901107811834573"><ele>257.6666666666667</ele><time>2026-04-18T10:22:04.001Z</time></trkpt><trkpt lat="42.083527175784155" lon="11.901035016122066"><ele>260.5</ele><time>2026-04-18T10:22:05.001Z</time></trkpt><trkpt lat="42.083590023452494" lon="11.900968699931926"><ele>263.33333333333337</ele><time>2026-04-18T10:22:06.001Z</time></trkpt><trkpt lat="42.08366116089205" lon="11.900923833074815"><ele>266.1666666666667</ele><time>2026-04-18T10:22:07.001Z</time></trkpt><trkpt lat="42.08372641836443" lon="11.900890318286123"><ele>269.0</ele><time>2026-04-18T10:22:08.001Z</time></trkpt><trkpt lat="42.08379384648354" lon="11.900839252277208"><ele>269.0</ele><time>2026-04-18T10:22:09.001Z</time></trkpt><trkpt lat="42.08386002259053" lon="11.900801365145883"><ele>269.0</ele><time>2026-04-18T10:22:10.001Z</time></trkpt><trkpt lat="42.08392297020267" lon="11.900773791474881"><ele>269.0</ele><time>2026-04-18T10:22:11.001Z</time></trkpt><trkpt lat="42.08398744319457" lon="11.900755866134906"><ele>269.0</ele><time>2026-04-18T10:22:12.001Z</time></trkpt><trkpt lat="42.084099259895794" lon="11.900682888469362"><ele>269.0</ele><time>2026-04-18T10:22:13.999Z</time></trkpt><trkpt lat="42.08416220436767" lon="11.900670610939908"><ele>269.0</ele><time>2026-04-18T10:22:14.999Z</time></trkpt><trkpt lat="42.08423218147511" lon="11.900697783532358"><ele>271.4</ele><time>2026-04-18T10:22:15.999Z</time></trkpt><trkpt lat="42.08430550625191" lon="11.900761916662043"><ele>273.79999999999995</ele><time>2026-04-18T10:22:16.999Z</time></trkpt><trkpt lat="42.08437035732572" lon="11.900859036646153"><ele>276.20000000000005</ele><time>2026-04-18T10:22:17.999Z</time></trkpt><trkpt lat="42.08441848888751" lon="11.900971751707994"><ele>278.6</ele><time>2026-04-18T10:22:18.999Z</time></trkpt><trkpt lat="42.084438897619464" lon="11.901079760293875"><ele>281.0</ele><time>2026-04-18T10:22:19.999Z</time></trkpt><trkpt lat="42.08445203050902" lon="11.90120687635756"><ele>283.2</ele><time>2026-04-18T10:22:20.999Z</time></trkpt><trkpt lat="42.084496890253156" lon="11.901316388614042"><ele>285.40000000000003</ele><time>2026-04-18T10:22:21.999Z</time></trkpt><trkpt lat="42.084561245759744" lon="11.901424673892574"><ele>287.6</ele><time>2026-04-18T10:22:22.999Z</time></trkpt><trkpt lat="42.084649383071124" lon="11.90150258009095"><ele>289.8</ele><time>2026-04-18T10:22:23.999Z</time></trkpt><trkpt lat="42.084737419748635" lon="11.901524394455695"><ele>292.0</ele><time>2026-04-18T10:22:24.999Z</time></trkpt><trkpt lat="42.08484254576077" lon="11.901536360117015"><ele>292.8</ele><time>2026-04-18T10:22:25.999Z</time></trkpt><trkpt lat="42.08494564131778" lon="11.901534758099496"><ele>293.6</ele><time>2026-04-18T10:22:26.999Z</time></trkpt><trkpt lat="42.085039583014144" lon="11.90151578529533"><ele>294.40000000000003</ele><time>2026-04-18T10:22:27.999Z</time></trkpt><trkpt lat="42.08512612335965" lon="11.901493159779582"><ele>295.2</ele><time>2026-04-18T10:22:28.999Z</time></trkpt><trkpt lat="42.085206702280864" lon="11.901452019995794"><ele>296.0</ele><time>2026-04-18T10:22:29.999Z</time></trkpt><trkpt lat="42.08529583156321" lon="11.90141151876856"><ele>296.0</ele><time>2026-04-18T10:22:30.999Z</time></trkpt><trkpt lat="42.08540124361449" lon="11.901355502764861"><ele>296.0</ele><time>2026-04-18T10:22:31.999Z</time></trkpt><trkpt lat="42.085522942514174" lon="11.901302975890102"><ele>296.0</ele><time>2026-04-18T10:22:33Z</time></trkpt><trkpt lat="42.085664651305514" lon="11.901255786462237"><ele>296.0</ele><time>2026-04-18T10:22:34Z</time></trkpt><trkpt lat="42.08579517348672" lon="11.90120529406247"><ele>297.2</ele><time>2026-04-18T10:22:35Z</time></trkpt><trkpt lat="42.08589376501947" lon="11.901174830870493"><ele>298.40000000000003</ele><time>2026-04-18T10:22:36Z</time></trkpt><trkpt lat="42.085982036643045" lon="11.901150386703119"><ele>299.6</ele><time>2026-04-18T10:22:37Z</time></trkpt><trkpt lat="42.08607235167851" lon="11.901166808707242"><ele>300.8</ele><time>2026-04-18T10:22:38Z</time></trkpt><trkpt lat="42.08616488603764" lon="11.901225362860771"><ele>302.0</ele><time>2026-04-18T10:22:39Z</time></trkpt><trkpt lat="42.08626202851293" lon="11.901316957735029"><ele>302.0</ele><time>2026-04-18T10:22:40Z</time></trkpt><trkpt lat="42.086359100347856" lon="11.90142971900333"><ele>302.0</ele><time>2026-04-18T10:22:41Z</time></trkpt><trkpt lat="42.08644541441579" lon="11.901550628657995"><ele>302.0</ele><time>2026-04-18T10:22:42Z</time></trkpt><trkpt lat="42.08653737342438" lon="11.90166558562596"><ele>302.0</ele><time>2026-04-18T10:22:43Z</time></trkpt><trkpt lat="42.08662981311643" lon="11.901773567346824"><ele>301.6</ele><time>2026-04-18T10:22:44Z</time></trkpt><trkpt lat="42.08672104600588" lon="11.901872157652376"><ele>301.2</ele><time>2026-04-18T10:22:45Z</time></trkpt><trkpt lat="42.08681300375454" lon="11.901955889888198"><ele>300.8</ele><time>2026-04-18T10:22:46Z</time></trkpt><trkpt lat="42.08690296826595" lon="11.902008438885636"><ele>300.4</ele><time>2026-04-18T10:22:47Z</time></trkpt><trkpt lat="42.08698318611092" lon="11.902032297160673"><ele>300.0</ele><time>2026-04-18T10:22:48Z</time></trkpt><trkpt lat="42.08706048271025" lon="11.902031645767961"><ele>300.0</ele><time>2026-04-18T10:22:49Z</time></trkpt><trkpt lat="42.087173840545226" lon="11.902013630271897"><ele>300.0</ele><time>2026-04-18T10:22:50Z</time></trkpt><trkpt lat="42.0873082265523" lon="11.902004576398527"><ele>300.0</ele><time>2026-04-18T10:22:51Z</time></trkpt><trkpt lat="42.087435722905894" lon="11.90200898859476"><ele>300.0</ele><time>2026-04-18T10:22:52Z</time></trkpt><trkpt lat="42.08754172240132" lon="11.902020096547595"><ele>300.8</ele><time>2026-04-18T10:22:53Z</time></trkpt><trkpt lat="42.087631108529486" lon="11.902056667489243"><ele>301.6</ele><time>2026-04-18T10:22:54Z</time></trkpt><trkpt lat="42.08770228644741" lon="11.902087682280385"><ele>302.4</ele><time>2026-04-18T10:22:55Z</time></trkpt><trkpt lat="42.08777171928018" lon="11.902135519346213"><ele>303.2</ele><time>2026-04-18T10:22:56Z</time></trkpt><trkpt lat="42.08786939331102" lon="11.902216554784847"><ele>304.0</ele><time>2026-04-18T10:22:57Z</time></trkpt><trkpt lat="42.08798326517667" lon="11.902332809760438"><ele>304.0</ele><time>2026-04-18T10:22:58Z</time></trkpt><trkpt lat="42.088063522048515" lon="11.902413169224952"><ele>304.0</ele><time>2026-04-18T10:22:59Z</time></trkpt><trkpt lat="42.08813016037404" lon="11.902477943198013"><ele>304.0</ele><time>2026-04-18T10:23:00Z</time></trkpt><trkpt lat="42.088188011635246" lon="11.90253622093444"><ele>304.0</ele><time>2026-04-18T10:23:01Z</time></trkpt><trkpt lat="42.08825398549897" lon="11.902612447470913"><ele>304.0</ele><time>2026-04-18T10:23:02Z</time></trkpt><trkpt lat="42.08832171337541" lon="11.902677819739269"><ele>304.0</ele><time>2026-04-18T10:23:03Z</time></trkpt><trkpt lat="42.08837720143911" lon="11.9027213978485"><ele>304.2</ele><time>2026-04-18T10:23:04Z</time></trkpt><trkpt lat="42.08844448274945" lon="11.902775846800461"><ele>304.4</ele><time>2026-04-18T10:23:06Z</time></trkpt><trkpt lat="42.08852398376768" lon="11.902836733842856"><ele>304.6</ele><time>2026-04-18T10:23:21.001Z</time></trkpt><trkpt lat="42.08863461066189" lon="11.902928865089496"><ele>304.8</ele><time>2026-04-18T10:23:23.001Z</time></trkpt><trkpt lat="42.088717505197515" lon="11.902978451454477"><ele>305.0</ele><time>2026-04-18T10:23:24.001Z</time></trkpt><trkpt lat="42.08878891654156" lon="11.903061837162799"><ele>305.0</ele><time>2026-04-18T10:23:25.001Z</time></trkpt><trkpt lat="42.08887919165719" lon="11.903136537614662"><ele>305.0</ele><time>2026-04-18T10:23:26.001Z</time></trkpt><trkpt lat="42.08898220112657" lon="11.903180340288312"><ele>305.0</ele><time>2026-04-18T10:23:27.001Z</time></trkpt><trkpt lat="42.08908787621917" lon="11.903221388439816"><ele>305.0</ele><time>2026-04-18T10:23:28.001Z</time></trkpt><trkpt lat="42.08920291642512" lon="11.903259236689246"><ele>305.0</ele><time>2026-04-18T10:23:29.001Z</time></trkpt><trkpt lat="42.08932642059837" lon="11.903265949251223"><ele>307.25</ele><time>2026-04-18T10:23:30.001Z</time></trkpt><trkpt lat="42.08943709575364" lon="11.903251410746105"><ele>309.5</ele><time>2026-04-18T10:23:31.001Z</time></trkpt><trkpt lat="42.089557848686056" lon="11.903211882503236"><ele>311.75</ele><time>2026-04-18T10:23:32.001Z</time></trkpt><trkpt lat="42.08967321071764" lon="11.903156139728155"><ele>314.0</ele><time>2026-04-18T10:23:33.001Z</time></trkpt><trkpt lat="42.08977602811535" lon="11.903094308803226"><ele>314.0</ele><time>2026-04-18T10:23:34.001Z</time></trkpt><trkpt lat="42.08988390494479" lon="11.903048825736029"><ele>314.0</ele><time>2026-04-18T10:23:35.001Z</time></trkpt><trkpt lat="42.089980598738805" lon="11.90303871159743"><ele>314.0</ele><time>2026-04-18T10:23:36.001Z</time></trkpt><trkpt lat="42.090059322872314" lon="11.903070988641147"><ele>314.0</ele><time>2026-04-18T10:23:37.001Z</time></trkpt><trkpt lat="42.09013985963452" lon="11.903087430568721"><ele>314.0</ele><time>2026-04-18T10:23:38.001Z</time></trkpt><trkpt lat="42.09023375276514" lon="11.903119891415944"><ele>313.33333333333337</ele><time>2026-04-18T10:23:39.001Z</time></trkpt><trkpt lat="42.09036773937243" lon="11.903154489502874"><ele>312.6666666666667</ele><time>2026-04-18T10:23:40.001Z</time></trkpt><trkpt lat="42.09053397802793" lon="11.903203951271287"><ele>312.0</ele><time>2026-04-18T10:23:41.001Z</time></trkpt><trkpt lat="42.09070606917661" lon="11.903289190531243"><ele>313.0</ele><time>2026-04-18T10:23:42.001Z</time></trkpt><trkpt lat="42.09089719910231" lon="11.903358486281448"><ele>314.0</ele><time>2026-04-18T10:23:43.001Z</time></trkpt><trkpt lat="42.0910597662974" lon="11.90341108572357"><ele>315.0</ele><time>2026-04-18T10:23:44.001Z</time></trkpt><trkpt lat="42.091176073453695" lon="11.903467658738913"><ele>312.25</ele><time>2026-04-18T10:23:45.001Z</time></trkpt><trkpt lat="42.091267185308276" lon="11.903551443442781"><ele>309.5</ele><time>2026-04-18T10:23:46.001Z</time></trkpt><trkpt lat="42.091349989251526" lon="11.903661700682171"><ele>306.75</ele><time>2026-04-18T10:23:47.001Z</time></trkpt><trkpt lat="42.09144939260396" lon="11.903813368255456"><ele>304.0</ele><time>2026-04-18T10:23:48.001Z</time></trkpt><trkpt lat="42.09155309177093" lon="11.90395350499148"><ele>303.75</ele><time>2026-04-18T10:23:49.001Z</time></trkpt><trkpt lat="42.09164519883836" lon="11.9040891795297"><ele>303.5</ele><time>2026-04-18T10:23:50.001Z</time></trkpt><trkpt lat="42.09176844682637" lon="11.904224402729515"><ele>303.25</ele><time>2026-04-18T10:23:51.001Z</time></trkpt><trkpt lat="42.09187289576527" lon="11.904351111304592"><ele>303.0</ele><time>2026-04-18T10:23:52.001Z</time></trkpt><trkpt lat="42.091932698876334" lon="11.904455692514722"><ele>303.0</ele><time>2026-04-18T10:23:53.001Z</time></trkpt><trkpt lat="42.09200000657447" lon="11.904546089570431"><ele>303.0</ele><time>2026-04-18T10:23:54.001Z</time></trkpt><trkpt lat="42.092100789723276" lon="11.904676105595982"><ele>303.0</ele><time>2026-04-18T10:23:55.001Z</time></trkpt><trkpt lat="42.092224373781725" lon="11.90483445059352"><ele>303.0</ele><time>2026-04-18T10:23:56.001Z</time></trkpt><trkpt lat="42.092345911704804" lon="11.904988650522023"><ele>303.4</ele><time>2026-04-18T10:23:57.001Z</time></trkpt><trkpt lat="42.09243137981027" lon="11.905105545510793"><ele>303.8</ele><time>2026-04-18T10:23:58.001Z</time></trkpt><trkpt lat="42.09250190320384" lon="11.905190449282253"><ele>304.2</ele><time>2026-04-18T10:23:59.001Z</time></trkpt><trkpt lat="42.092592913236714" lon="11.905252140404711"><ele>304.6</ele><time>2026-04-18T10:24:00.001Z</time></trkpt><trkpt lat="42.092708824441516" lon="11.90530308803505"><ele>305.0</ele><time>2026-04-18T10:24:01.001Z</time></trkpt><trkpt lat="42.09284477691081" lon="11.905341807829991"><ele>305.0</ele><time>2026-04-18T10:24:02.001Z</time></trkpt><trkpt lat="42.09301145764172" lon="11.905380744850413"><ele>305.0</ele><time>2026-04-18T10:24:03.001Z</time></trkpt><trkpt lat="42.09316565570743" lon="11.905455143518033"><ele>305.0</ele><time>2026-04-18T10:24:04.001Z</time></trkpt><trkpt lat="42.093314787708316" lon="11.905518472318496"><ele>306.0</ele><time>2026-04-18T10:24:05.001Z</time></trkpt><trkpt lat="42.093463547611556" lon="11.905600170350603"><ele>307.0</ele><time>2026-04-18T10:24:06.001Z</time></trkpt><trkpt lat="42.09361668082504" lon="11.905660741963889"><ele>308.0</ele><time>2026-04-18T10:24:07.001Z</time></trkpt><trkpt lat="42.09375470182929" lon="11.90571582556"><ele>308.0</ele><time>2026-04-18T10:24:08.001Z</time></trkpt><trkpt lat="42.09387494469882" lon="11.90574761101382"><ele>308.0</ele><time>2026-04-18T10:24:09.001Z</time></trkpt><trkpt lat="42.09396952596469" lon="11.905808349586874"><ele>308.0</ele><time>2026-04-18T10:24:10.001Z</time></trkpt><trkpt lat="42.094064516867014" lon="11.905867031625156"><ele>308.0</ele><time>2026-04-18T10:24:11.001Z</time></trkpt><trkpt lat="42.09416316827438" lon="11.905938491163571"><ele>308.0</ele><time>2026-04-18T10:24:12.002Z</time></trkpt><trkpt lat="42.09426287828398" lon="11.906017216207127"><ele>308.5</ele><time>2026-04-18T10:24:13.002Z</time></trkpt><trkpt lat="42.094349669693344" lon="11.906088595259833"><ele>309.0</ele><time>2026-04-18T10:24:14.002Z</time></trkpt><trkpt lat="42.09442827950391" lon="11.906157592233503"><ele>309.5</ele><time>2026-04-18T10:24:15.002Z</time></trkpt><trkpt lat="42.094491882025714" lon="11.906226398059903"><ele>310.0</ele><time>2026-04-18T10:24:16.002Z</time></trkpt><trkpt lat="42.09454389395604" lon="11.906301107049805"><ele>310.5</ele><time>2026-04-18T10:24:17.002Z</time></trkpt><trkpt lat="42.09458323342211" lon="11.906377554276308"><ele>311.0</ele><time>2026-04-18T10:24:18.002Z</time></trkpt><trkpt lat="42.09461972622692" lon="11.906459476507388"><ele>311.0</ele><time>2026-04-18T10:24:19.002Z</time></trkpt><trkpt lat="42.094674511373526" lon="11.906612416019664"><ele>311.0</ele><time>2026-04-18T10:24:21Z</time></trkpt><trkpt lat="42.09470126184398" lon="11.906695090761556"><ele>311.0</ele><time>2026-04-18T10:24:22Z</time></trkpt><trkpt lat="42.094728850026975" lon="11.906805786365"><ele>311.0</ele><time>2026-04-18T10:24:23Z</time></trkpt><trkpt lat="42.09476761276693" lon="11.906891474695533"><ele>311.0</ele><time>2026-04-18T10:24:24Z</time></trkpt><trkpt lat="42.09479449778874" lon="11.907017383379852"><ele>311.0</ele><time>2026-04-18T10:24:25Z</time></trkpt><trkpt lat="42.0948375884585" lon="11.907120062719931"><ele>311.0</ele><time>2026-04-18T10:24:26Z</time></trkpt><trkpt lat="42.09486377618344" lon="11.90721218201011"><ele>311.0</ele><time>2026-04-18T10:24:27Z</time></trkpt><trkpt lat="42.09488278261654" lon="11.907295036603651"><ele>311.0</ele><time>2026-04-18T10:24:28Z</time></trkpt><trkpt lat="42.0949101282975" lon="11.907372979030287"><ele>311.0</ele><time>2026-04-18T10:24:29Z</time></trkpt><trkpt lat="42.094946796442414" lon="11.907444009493478"><ele>311.0</ele><time>2026-04-18T10:24:30Z</time></trkpt><trkpt lat="42.094987533330624" lon="11.907522090329316"><ele>311.0</ele><time>2026-04-18T10:24:31Z</time></trkpt><trkpt lat="42.0950702698307" lon="11.907648049245363"><ele>313.1666666666667</ele><time>2026-04-18T10:24:33Z</time></trkpt><trkpt lat="42.09513136798895" lon="11.907721036901933"><ele>315.33333333333337</ele><time>2026-04-18T10:24:34Z</time></trkpt><trkpt lat="42.095191035253514" lon="11.907787904480884"><ele>317.5</ele><time>2026-04-18T10:24:35Z</time></trkpt><trkpt lat="42.09525512802423" lon="11.907852493642713"><ele>319.6666666666667</ele><time>2026-04-18T10:24:36Z</time></trkpt><trkpt lat="42.095320192550105" lon="11.907914793758644"><ele>321.8333333333333</ele><time>2026-04-18T10:24:37Z</time></trkpt><trkpt lat="42.09538471546203" lon="11.907989892682341"><ele>324.0</ele><time>2026-04-18T10:24:38Z</time></trkpt><trkpt lat="42.09544726822886" lon="11.908069507048824"><ele>324.0</ele><time>2026-04-18T10:24:39Z</time></trkpt><trkpt lat="42.09551045559004" lon="11.908150985416988"><ele>324.0</ele><time>2026-04-18T10:24:40Z</time></trkpt><trkpt lat="42.09556816292217" lon="11.908235888080238"><ele>324.0</ele><time>2026-04-18T10:24:41Z</time></trkpt><trkpt lat="42.09563762055128" lon="11.908324787211804"><ele>324.0</ele><time>2026-04-18T10:24:42Z</time></trkpt><trkpt lat="42.09570417362875" lon="11.908411982531037"><ele>324.0</ele><time>2026-04-18T10:24:43Z</time></trkpt><trkpt lat="42.09577976007545" lon="11.908504503879609"><ele>326.4</ele><time>2026-04-18T10:24:44Z</time></trkpt><trkpt lat="42.09584991438097" lon="11.908587782308542"><ele>328.79999999999995</ele><time>2026-04-18T10:24:45Z</time></trkpt><trkpt lat="42.09592699715176" lon="11.908675077153053"><ele>331.20000000000005</ele><time>2026-04-18T10:24:46Z</time></trkpt><trkpt lat="42.09599853084511" lon="11.908765750452762"><ele>333.6</ele><time>2026-04-18T10:24:47Z</time></trkpt><trkpt lat="42.09606416500573" lon="11.908870651276612"><ele>336.0</ele><time>2026-04-18T10:24:48Z</time></trkpt><trkpt lat="42.096110558629455" lon="11.9089827161755"><ele>336.0</ele><time>2026-04-18T10:24:49Z</time></trkpt><trkpt lat="42.09615789724348" lon="11.909063038726789"><ele>336.0</ele><time>2026-04-18T10:24:50Z</time></trkpt><trkpt lat="42.09621282228915" lon="11.909185582463994"><ele>336.0</ele><time>2026-04-18T10:24:51Z</time></trkpt><trkpt lat="42.096280001556586" lon="11.909316127959462"><ele>336.0</ele><time>2026-04-18T10:24:52Z</time></trkpt><trkpt lat="42.096354070577966" lon="11.90943542535621"><ele>336.0</ele><time>2026-04-18T10:24:53Z</time></trkpt><trkpt lat="42.096432251315164" lon="11.909526465617649"><ele>335.75</ele><time>2026-04-18T10:24:54Z</time></trkpt><trkpt lat="42.09650619622636" lon="11.909646191645878"><ele>335.5</ele><time>2026-04-18T10:24:55Z</time></trkpt><trkpt lat="42.09656312108741" lon="11.909777243711371"><ele>335.25</ele><time>2026-04-18T10:24:56Z</time></trkpt><trkpt lat="42.09661365160422" lon="11.909914071357878"><ele>335.0</ele><time>2026-04-18T10:24:57Z</time></trkpt><trkpt lat="42.09666468110302" lon="11.910047463428398"><ele>337.4</ele><time>2026-04-18T10:24:58Z</time></trkpt><trkpt lat="42.09670913521548" lon="11.910186849399524"><ele>339.8</ele><time>2026-04-18T10:24:59Z</time></trkpt><trkpt lat="42.096746955259874" lon="11.910322071942545"><ele>342.20000000000005</ele><time>2026-04-18T10:25:00Z</time></trkpt><trkpt lat="42.09677064133669" lon="11.910453381378725"><ele>344.6</ele><time>2026-04-18T10:25:01Z</time></trkpt><trkpt lat="42.09679190143592" lon="11.910578265081226"><ele>347.0</ele><time>2026-04-18T10:25:02Z</time></trkpt><trkpt lat="42.0968064727859" lon="11.910708669664801"><ele>347.0</ele><time>2026-04-18T10:25:03Z</time></trkpt><trkpt lat="42.09681978386524" lon="11.910834605057197"><ele>347.0</ele><time>2026-04-18T10:25:04Z</time></trkpt><trkpt lat="42.0968331879141" lon="11.910958952898675"><ele>347.0</ele><time>2026-04-18T10:25:05Z</time></trkpt><trkpt lat="42.096846753494795" lon="11.911070699694765"><ele>347.0</ele><time>2026-04-18T10:25:06.001Z</time></trkpt><trkpt lat="42.09685884499694" lon="11.911192101917113"><ele>347.0</ele><time>2026-04-18T10:25:07.001Z</time></trkpt><trkpt lat="42.096876593769004" lon="11.911290917442626"><ele>347.0</ele><time>2026-04-18T10:25:08.001Z</time></trkpt><trkpt lat="42.09689882473222" lon="11.911372719570462"><ele>349.0</ele><time>2026-04-18T10:25:09.001Z</time></trkpt><trkpt lat="42.09693099094499" lon="11.911455815677371"><ele>351.0</ele><time>2026-04-18T10:25:10.001Z</time></trkpt><trkpt lat="42.09699712603888" lon="11.911551591487045"><ele>353.0</ele><time>2026-04-18T10:25:11.001Z</time></trkpt><trkpt lat="42.09706915826712" lon="11.911628746786688"><ele>355.0</ele><time>2026-04-18T10:25:12.001Z</time></trkpt><trkpt lat="42.09713340217976" lon="11.91168973040776"><ele>357.0</ele><time>2026-04-18T10:25:13.001Z</time></trkpt><trkpt lat="42.09718924897013" lon="11.911784259562689"><ele>359.0</ele><time>2026-04-18T10:25:14.001Z</time></trkpt><trkpt lat="42.09722751264182" lon="11.911903730002313"><ele>360.0</ele><time>2026-04-18T10:25:15.001Z</time></trkpt><trkpt lat="42.097248035014275" lon="11.91204013183006"><ele>361.0</ele><time>2026-04-18T10:25:16.001Z</time></trkpt><trkpt lat="42.097239271301596" lon="11.912140773957372"><ele>362.0</ele><time>2026-04-18T10:25:17.001Z</time></trkpt><trkpt lat="42.09723416425816" lon="11.912249047798543"><ele>363.0</ele><time>2026-04-18T10:25:18.001Z</time></trkpt><trkpt lat="42.09723311126185" lon="11.912362983154416"><ele>364.0</ele><time>2026-04-18T10:25:20.001Z</time></trkpt><trkpt lat="42.097251804578086" lon="11.912481656881802"><ele>365.0</ele><time>2026-04-18T10:25:30.001Z</time></trkpt><trkpt lat="42.097279610228036" lon="11.912601191618936"><ele>365.0</ele><time>2026-04-18T10:25:32.001Z</time></trkpt><trkpt lat="42.09733026808494" lon="11.912717409266204"><ele>365.0</ele><time>2026-04-18T10:25:34.001Z</time></trkpt><trkpt lat="42.097367483461305" lon="11.91279149896989"><ele>365.0</ele><time>2026-04-18T10:25:35.001Z</time></trkpt><trkpt lat="42.09745108932922" lon="11.91290920140524"><ele>365.0</ele><time>2026-04-18T10:25:37.001Z</time></trkpt><trkpt lat="42.09749191136728" lon="11.912974070330355"><ele>365.0</ele><time>2026-04-18T10:25:38.001Z</time></trkpt><trkpt lat="42.09753498291007" lon="11.913093068749243"><ele>365.0</ele><time>2026-04-18T10:25:40.001Z</time></trkpt><trkpt lat="42.09753876077806" lon="11.91321861603757"><ele>365.5</ele><time>2026-04-18T10:25:42.001Z</time></trkpt><trkpt lat="42.09759887455297" lon="11.913338481207502"><ele>366.0</ele><time>2026-04-18T10:25:56.001Z</time></trkpt><trkpt lat="42.097612908120226" lon="11.913475773212598"><ele>366.5</ele><time>2026-04-18T10:25:57.001Z</time></trkpt><trkpt lat="42.09765122128651" lon="11.913618209596537"><ele>367.0</ele><time>2026-04-18T10:25:58.001Z</time></trkpt><trkpt lat="42.09771650074265" lon="11.913786092315332"><ele>367.0</ele><time>2026-04-18T10:25:59.001Z</time></trkpt><trkpt lat="42.097774783440805" lon="11.913961004402287"><ele>367.0</ele><time>2026-04-18T10:26:00.001Z</time></trkpt><trkpt lat="42.09780519912415" lon="11.914098729392544"><ele>367.0</ele><time>2026-04-18T10:26:01.001Z</time></trkpt><trkpt lat="42.09784694687279" lon="11.914181470323056"><ele>367.0</ele><time>2026-04-18T10:26:02.002Z</time></trkpt><trkpt lat="42.09794056369064" lon="11.914334672546671"><ele>367.25</ele><time>2026-04-18T10:26:04.002Z</time></trkpt><trkpt lat="42.098008790966944" lon="11.914450558993543"><ele>367.5</ele><time>2026-04-18T10:26:05.002Z</time></trkpt><trkpt lat="42.0981036463563" lon="11.914552334370489"><ele>367.75</ele><time>2026-04-18T10:26:06.002Z</time></trkpt><trkpt lat="42.09819266950746" lon="11.914655969364382"><ele>368.0</ele><time>2026-04-18T10:26:07.002Z</time></trkpt><trkpt lat="42.09829301807341" lon="11.914748048465418"><ele>366.4</ele><time>2026-04-18T10:26:08.002Z</time></trkpt><trkpt lat="42.098364772139725" lon="11.914871942988235"><ele>364.79999999999995</ele><time>2026-04-18T10:26:09.002Z</time></trkpt><trkpt lat="42.098419273300614" lon="11.914977689327518"><ele>363.2</ele><time>2026-04-18T10:26:10.002Z</time></trkpt><trkpt lat="42.098468967446536" lon="11.915090760477161"><ele>361.6</ele><time>2026-04-18T10:26:11.002Z</time></trkpt><trkpt lat="42.09853291021397" lon="11.915207269517927"><ele>360.0</ele><time>2026-04-18T10:26:12.002Z</time></trkpt><trkpt lat="42.09861002542608" lon="11.915314372048616"><ele>359.0</ele><time>2026-04-18T10:26:13.002Z</time></trkpt><trkpt lat="42.098692628125306" lon="11.915376938141256"><ele>358.0</ele><time>2026-04-18T10:26:14.002Z</time></trkpt><trkpt lat="42.098801718127916" lon="11.91542699904281"><ele>357.0</ele><time>2026-04-18T10:26:15.002Z</time></trkpt><trkpt lat="42.09896345135713" lon="11.91545973643154"><ele>356.0</ele><time>2026-04-18T10:26:16.002Z</time></trkpt><trkpt lat="42.09914214789456" lon="11.91548592614028"><ele>354.75</ele><time>2026-04-18T10:26:17.002Z</time></trkpt><trkpt lat="42.09928538072784" lon="11.915526329258876"><ele>353.5</ele><time>2026-04-18T10:26:18.002Z</time></trkpt><trkpt lat="42.099410862430055" lon="11.91554893351021"><ele>352.25</ele><time>2026-04-18T10:26:19.002Z</time></trkpt><trkpt lat="42.09953051732448" lon="11.91557176623955"><ele>351.0</ele><time>2026-04-18T10:26:20.002Z</time></trkpt><trkpt lat="42.099661899245596" lon="11.91558929642894"><ele>351.0</ele><time>2026-04-18T10:26:21.002Z</time></trkpt><trkpt lat="42.099793405579696" lon="11.91560739878017"><ele>351.0</ele><time>2026-04-18T10:26:22.002Z</time></trkpt><trkpt lat="42.09992300718674" lon="11.915652211007002"><ele>351.0</ele><time>2026-04-18T10:26:23.002Z</time></trkpt><trkpt lat="42.100051603884005" lon="11.915711222785147"><ele>351.0</ele><time>2026-04-18T10:26:24.002Z</time></trkpt><trkpt lat="42.100215688869206" lon="11.91577978500431"><ele>351.6666666666667</ele><time>2026-04-18T10:26:25.002Z</time></trkpt><trkpt lat="42.100365674189526" lon="11.915882916084499"><ele>352.33333333333337</ele><time>2026-04-18T10:26:26Z</time></trkpt><trkpt lat="42.10053069222883" lon="11.915989673969962"><ele>353.0</ele><time>2026-04-18T10:26:27Z</time></trkpt><trkpt lat="42.100708205120895" lon="11.91609556969722"><ele>350.33333333333337</ele><time>2026-04-18T10:26:28Z</time></trkpt><trkpt lat="42.10088222771656" lon="11.91619312953571"><ele>347.6666666666667</ele><time>2026-04-18T10:26:29Z</time></trkpt><trkpt lat="42.10104530466624" lon="11.916267958553032"><ele>345.0</ele><time>2026-04-18T10:26:30Z</time></trkpt><trkpt lat="42.101184080118685" lon="11.91633435546867"><ele>345.0</ele><time>2026-04-18T10:26:31Z</time></trkpt><trkpt lat="42.10132386433264" lon="11.916407209453599"><ele>345.0</ele><time>2026-04-18T10:26:32Z</time></trkpt><trkpt lat="42.1014982818885" lon="11.91651708290874"><ele>345.0</ele><time>2026-04-18T10:26:33Z</time></trkpt><trkpt lat="42.10166576122696" lon="11.91664767121892"><ele>342.6666666666667</ele><time>2026-04-18T10:26:34Z</time></trkpt><trkpt lat="42.10182738280847" lon="11.916780894241121"><ele>340.33333333333337</ele><time>2026-04-18T10:26:35Z</time></trkpt><trkpt lat="42.10198413657421" lon="11.916917459169392"><ele>338.0</ele><time>2026-04-18T10:26:36Z</time></trkpt><trkpt lat="42.102129341468405" lon="11.917065978741585"><ele>338.0</ele><time>2026-04-18T10:26:37Z</time></trkpt><trkpt lat="42.10225601586254" lon="11.917244953312048"><ele>338.0</ele><time>2026-04-18T10:26:38Z</time></trkpt><trkpt lat="42.10238579517884" lon="11.917440674575632"><ele>338.0</ele><time>2026-04-18T10:26:39Z</time></trkpt><trkpt lat="42.10256300731985" lon="11.917642680384484"><ele>338.6666666666667</ele><time>2026-04-18T10:26:40Z</time></trkpt><trkpt lat="42.102729254137465" lon="11.917788450133463"><ele>339.3333333333333</ele><time>2026-04-18T10:26:41Z</time></trkpt><trkpt lat="42.1028454238639" lon="11.917946926672265"><ele>340.0</ele><time>2026-04-18T10:26:42Z</time></trkpt><trkpt lat="42.10294678960283" lon="11.918079890103224"><ele>340.0</ele><time>2026-04-18T10:26:43Z</time></trkpt><trkpt lat="42.10302625045468" lon="11.91819796900704"><ele>340.0</ele><time>2026-04-18T10:26:44Z</time></trkpt><trkpt lat="42.103111309169726" lon="11.91833178458616"><ele>340.0</ele><time>2026-04-18T10:26:45Z</time></trkpt><trkpt lat="42.10320151005906" lon="11.918476035851818"><ele>340.0</ele><time>2026-04-18T10:26:46Z</time></trkpt><trkpt lat="42.10328639196825" lon="11.918596942509506"><ele>339.25</ele><time>2026-04-18T10:26:47Z</time></trkpt><trkpt lat="42.10337385298318" lon="11.918711018319124"><ele>338.5</ele><time>2026-04-18T10:26:48Z</time></trkpt><trkpt lat="42.10346018258205" lon="11.918847056372877"><ele>337.75</ele><time>2026-04-18T10:26:49Z</time></trkpt><trkpt lat="42.10354492397978" lon="11.918989279242698"><ele>337.0</ele><time>2026-04-18T10:26:50Z</time></trkpt><trkpt lat="42.1036053021508" lon="11.919153215285919"><ele>336.75</ele><time>2026-04-18T10:26:51Z</time></trkpt><trkpt lat="42.10364188793362" lon="11.919326951760059"><ele>336.5</ele><time>2026-04-18T10:26:52Z</time></trkpt><trkpt lat="42.1036496966268" lon="11.91950143469341"><ele>336.25</ele><time>2026-04-18T10:26:53.001Z</time></trkpt><trkpt lat="42.103666454013876" lon="11.919642113696474"><ele>336.0</ele><time>2026-04-18T10:26:54.001Z</time></trkpt><trkpt lat="42.103678862607396" lon="11.91976364668871"><ele>336.0</ele><time>2026-04-18T10:26:55.001Z</time></trkpt><trkpt lat="42.10367924553934" lon="11.919892708300958"><ele>336.0</ele><time>2026-04-18T10:26:56.001Z</time></trkpt><trkpt lat="42.103676851686764" lon="11.920041452362993"><ele>336.0</ele><time>2026-04-18T10:26:57.001Z</time></trkpt><trkpt lat="42.10368598832546" lon="11.920189265287478"><ele>336.0</ele><time>2026-04-18T10:26:58.001Z</time></trkpt><trkpt lat="42.10367443374577" lon="11.920334172732831"><ele>336.0</ele><time>2026-04-18T10:26:59.001Z</time></trkpt><trkpt lat="42.10366526691711" lon="11.920490155438548"><ele>336.5</ele><time>2026-04-18T10:27:00.001Z</time></trkpt><trkpt lat="42.103649293495614" lon="11.920651072242656"><ele>337.0</ele><time>2026-04-18T10:27:01.001Z</time></trkpt><trkpt lat="42.103649520814585" lon="11.920829519918906"><ele>337.5</ele><time>2026-04-18T10:27:02.001Z</time></trkpt><trkpt lat="42.10367377447377" lon="11.92104990887318"><ele>338.0</ele><time>2026-04-18T10:27:03.001Z</time></trkpt><trkpt lat="42.103705789031075" lon="11.921296792536177"><ele>338.75</ele><time>2026-04-18T10:27:04.001Z</time></trkpt><trkpt lat="42.10372122190142" lon="11.921500724496717"><ele>339.5</ele><time>2026-04-18T10:27:05.001Z</time></trkpt><trkpt lat="42.10372731897377" lon="11.921653673055832"><ele>340.25</ele><time>2026-04-18T10:27:06.001Z</time></trkpt><trkpt lat="42.1037400130473" lon="11.921808206423263"><ele>341.0</ele><time>2026-04-18T10:27:07.001Z</time></trkpt><trkpt lat="42.10377425350258" lon="11.921974849907539"><ele>341.75</ele><time>2026-04-18T10:27:08.001Z</time></trkpt><trkpt lat="42.10378287938968" lon="11.92214899340771"><ele>342.5</ele><time>2026-04-18T10:27:09.001Z</time></trkpt><trkpt lat="42.103801115408814" lon="11.922308116354964"><ele>343.25</ele><time>2026-04-18T10:27:10.001Z</time></trkpt><trkpt lat="42.103821944501775" lon="11.92247121165127"><ele>344.0</ele><time>2026-04-18T10:27:11.001Z</time></trkpt><trkpt lat="42.1038479853205" lon="11.922645850398933"><ele>344.0</ele><time>2026-04-18T10:27:12.001Z</time></trkpt><trkpt lat="42.10387352636568" lon="11.922826621377473"><ele>344.0</ele><time>2026-04-18T10:27:13.001Z</time></trkpt><trkpt lat="42.1038941818548" lon="11.923010242993051"><ele>344.0</ele><time>2026-04-18T10:27:14.001Z</time></trkpt><trkpt lat="42.103931769058754" lon="11.923189426701544"><ele>344.0</ele><time>2026-04-18T10:27:15.001Z</time></trkpt><trkpt lat="42.10394718398686" lon="11.923415746160261"><ele>344.25</ele><time>2026-04-18T10:27:16.001Z</time></trkpt><trkpt lat="42.10398396209644" lon="11.923586902377036"><ele>344.5</ele><time>2026-04-18T10:27:17.001Z</time></trkpt><trkpt lat="42.1039827054283" lon="11.923769639979573"><ele>344.75</ele><time>2026-04-18T10:27:18.001Z</time></trkpt><trkpt lat="42.10399231437538" lon="11.923940959156988"><ele>345.0</ele><time>2026-04-18T10:27:19.001Z</time></trkpt><trkpt lat="42.10399533098983" lon="11.924125205751599"><ele>345.4</ele><time>2026-04-18T10:27:20.001Z</time></trkpt><trkpt lat="42.10398159316441" lon="11.924299022323774"><ele>345.8</ele><time>2026-04-18T10:27:21.001Z</time></trkpt><trkpt lat="42.103976955480405" lon="11.92444810379401"><ele>346.20000000000005</ele><time>2026-04-18T10:27:22.001Z</time></trkpt><trkpt lat="42.10398386065855" lon="11.924573906045644"><ele>346.6</ele><time>2026-04-18T10:27:23.001Z</time></trkpt><trkpt lat="42.10398983558458" lon="11.92469702538913"><ele>347.0</ele><time>2026-04-18T10:27:24.001Z</time></trkpt><trkpt lat="42.10399497594744" lon="11.924801386800098"><ele>347.0</ele><time>2026-04-18T10:27:25.001Z</time></trkpt><trkpt lat="42.104012748400855" lon="11.92490914618774"><ele>347.0</ele><time>2026-04-18T10:27:26.001Z</time></trkpt><trkpt lat="42.10401428607814" lon="11.924996924863061"><ele>347.0</ele><time>2026-04-18T10:27:27.001Z</time></trkpt><trkpt lat="42.10401727660369" lon="11.925091210441883"><ele>347.0</ele><time>2026-04-18T10:27:29.001Z</time></trkpt><trkpt lat="42.10404183051971" lon="11.925190953656367"><ele>347.0</ele><time>2026-04-18T10:27:55.001Z</time></trkpt><trkpt lat="42.10402858077862" lon="11.925276248018605"><ele>347.0</ele><time>2026-04-18T10:27:57.002Z</time></trkpt><trkpt lat="42.104032763053354" lon="11.925384949868931"><ele>347.0</ele><time>2026-04-18T10:28:00.002Z</time></trkpt><trkpt lat="42.104036743690166" lon="11.92548841113676"><ele>347.1666666666667</ele><time>2026-04-18T10:28:04.002Z</time></trkpt><trkpt lat="42.10404024952894" lon="11.925579531851287"><ele>347.33333333333337</ele><time>2026-04-18T10:28:09.002Z</time></trkpt><trkpt lat="42.10404395867582" lon="11.925675936755592"><ele>347.5</ele><time>2026-04-18T10:28:19.002Z</time></trkpt><trkpt lat="42.10404814758905" lon="11.925784811167755"><ele>347.6666666666667</ele><time>2026-04-18T10:28:22.002Z</time></trkpt><trkpt lat="42.10405273425196" lon="11.92590402380355"><ele>347.8333333333333</ele><time>2026-04-18T10:28:25.002Z</time></trkpt><trkpt lat="42.10407401573863" lon="11.92602422722599"><ele>348.0</ele><time>2026-04-18T10:28:28.002Z</time></trkpt><trkpt lat="42.1040717385467" lon="11.926110452928931"><ele>348.0</ele><time>2026-04-18T10:28:31.002Z</time></trkpt><trkpt lat="42.104062917371394" lon="11.926196648549851"><ele>348.0</ele><time>2026-04-18T10:28:35.001Z</time></trkpt><trkpt lat="42.10406756192441" lon="11.92632164564423"><ele>348.0</ele><time>2026-04-18T10:28:38.001Z</time></trkpt><trkpt lat="42.104073811743504" lon="11.926479248839328"><ele>348.0</ele><time>2026-04-18T10:28:40.001Z</time></trkpt><trkpt lat="42.10408314668255" lon="11.926600382660178"><ele>348.0</ele><time>2026-04-18T10:28:41.001Z</time></trkpt><trkpt lat="42.10409806902706" lon="11.926762534028892"><ele>350.59999999999997</ele><time>2026-04-18T10:28:42Z</time></trkpt><trkpt lat="42.1041132085565" lon="11.926889937430737"><ele>353.2</ele><time>2026-04-18T10:28:43Z</time></trkpt><trkpt lat="42.10413042052999" lon="11.927034258175413"><ele>355.8</ele><time>2026-04-18T10:28:44Z</time></trkpt><trkpt lat="42.10413653066699" lon="11.927220606873982"><ele>358.4</ele><time>2026-04-18T10:28:45Z</time></trkpt><trkpt lat="42.10416420676547" lon="11.927354839242152"><ele>361.0</ele><time>2026-04-18T10:28:46Z</time></trkpt><trkpt lat="42.104189586474675" lon="11.927464118903469"><ele>360.25</ele><time>2026-04-18T10:28:47Z</time></trkpt><trkpt lat="42.104233426097956" lon="11.927576896531496"><ele>359.5</ele><time>2026-04-18T10:28:48Z</time></trkpt><trkpt lat="42.10426384938663" lon="11.92773357450565"><ele>358.75</ele><time>2026-04-18T10:28:49Z</time></trkpt><trkpt lat="42.104316164835346" lon="11.927897170844327"><ele>358.0</ele><time>2026-04-18T10:28:50Z</time></trkpt><trkpt lat="42.10436478488363" lon="11.928046478609703"><ele>358.0</ele><time>2026-04-18T10:28:51Z</time></trkpt><trkpt lat="42.104414351275835" lon="11.928194444386795"><ele>358.0</ele><time>2026-04-18T10:28:52Z</time></trkpt><trkpt lat="42.10447816584106" lon="11.928346974193225"><ele>358.0</ele><time>2026-04-18T10:28:53Z</time></trkpt><trkpt lat="42.104512847130486" lon="11.928506328733423"><ele>358.0</ele><time>2026-04-18T10:28:54Z</time></trkpt><trkpt lat="42.10454235683734" lon="11.92865570986468"><ele>358.79999999999995</ele><time>2026-04-18T10:28:55Z</time></trkpt><trkpt lat="42.10460092808262" lon="11.928799647996167"><ele>359.6</ele><time>2026-04-18T10:28:56Z</time></trkpt><trkpt lat="42.10464801621789" lon="11.928944811501525"><ele>360.4</ele><time>2026-04-18T10:28:57Z</time></trkpt><trkpt lat="42.104665882339326" lon="11.92908038316008"><ele>361.20000000000005</ele><time>2026-04-18T10:28:58Z</time></trkpt><trkpt lat="42.10468870330593" lon="11.929196407637738"><ele>362.0</ele><time>2026-04-18T10:28:59Z</time></trkpt><trkpt lat="42.10468555590104" lon="11.929304537525486"><ele>363.8</ele><time>2026-04-18T10:29:00Z</time></trkpt><trkpt lat="42.104663494121375" lon="11.929429587475044"><ele>365.6</ele><time>2026-04-18T10:29:01Z</time></trkpt><trkpt lat="42.10462738446022" lon="11.929559665815015"><ele>367.40000000000003</ele><time>2026-04-18T10:29:02Z</time></trkpt><trkpt lat="42.1045901731451" lon="11.929686662618336"><ele>369.20000000000005</ele><time>2026-04-18T10:29:03Z</time></trkpt><trkpt lat="42.10454735522782" lon="11.929801971409205"><ele>371.0</ele><time>2026-04-18T10:29:04Z</time></trkpt><trkpt lat="42.10446726220443" lon="11.929902307705706"><ele>371.0</ele><time>2026-04-18T10:29:05Z</time></trkpt><trkpt lat="42.10439312529724" lon="11.930031496907564"><ele>371.0</ele><time>2026-04-18T10:29:06Z</time></trkpt><trkpt lat="42.10429370093378" lon="11.930170645796832"><ele>371.0</ele><time>2026-04-18T10:29:07Z</time></trkpt><trkpt lat="42.104204343478784" lon="11.930307802116591"><ele>371.0</ele><time>2026-04-18T10:29:08Z</time></trkpt><trkpt lat="42.10412564569506" lon="11.93043808388779"><ele>370.4</ele><time>2026-04-18T10:29:09Z</time></trkpt><trkpt lat="42.10407732329265" lon="11.93056223668838"><ele>369.8</ele><time>2026-04-18T10:29:10Z</time></trkpt><trkpt lat="42.10406333928397" lon="11.930674337571153"><ele>369.2</ele><time>2026-04-18T10:29:11.001Z</time></trkpt><trkpt lat="42.104075648617965" lon="11.93078556249466"><ele>368.59999999999997</ele><time>2026-04-18T10:29:12.001Z</time></trkpt><trkpt lat="42.104106396943614" lon="11.930898326554281"><ele>368.0</ele><time>2026-04-18T10:29:13.001Z</time></trkpt><trkpt lat="42.10415446705481" lon="11.931001118654434"><ele>368.0</ele><time>2026-04-18T10:29:14.001Z</time></trkpt><trkpt lat="42.10422376316343" lon="11.931112210121473"><ele>368.0</ele><time>2026-04-18T10:29:15.001Z</time></trkpt><trkpt lat="42.10430978432942" lon="11.931236655660939"><ele>368.0</ele><time>2026-04-18T10:29:16.001Z</time></trkpt><trkpt lat="42.104404248109596" lon="11.931359041467894"><ele>368.0</ele><time>2026-04-18T10:29:17.001Z</time></trkpt><trkpt lat="42.10448258099045" lon="11.931461461890228"><ele>368.0</ele><time>2026-04-18T10:29:18.001Z</time></trkpt><trkpt lat="42.104549357537316" lon="11.931558867387182"><ele>368.0</ele><time>2026-04-18T10:29:19.001Z</time></trkpt><trkpt lat="42.10461549834306" lon="11.93164394396587"><ele>368.0</ele><time>2026-04-18T10:29:20.001Z</time></trkpt><trkpt lat="42.104687235258176" lon="11.931718147618044"><ele>368.0</ele><time>2026-04-18T10:29:21.001Z</time></trkpt><trkpt lat="42.10477065929347" lon="11.93180239881196"><ele>368.0</ele><time>2026-04-18T10:29:22.001Z</time></trkpt><trkpt lat="42.10484672167907" lon="11.931885382601298"><ele>366.5</ele><time>2026-04-18T10:29:23.001Z</time></trkpt><trkpt lat="42.10493375315875" lon="11.931973376166868"><ele>365.0</ele><time>2026-04-18T10:29:24.001Z</time></trkpt><trkpt lat="42.1050357101718" lon="11.932038246619793"><ele>363.5</ele><time>2026-04-18T10:29:25.001Z</time></trkpt><trkpt lat="42.10515339153685" lon="11.932071945634323"><ele>362.0</ele><time>2026-04-18T10:29:26.001Z</time></trkpt><trkpt lat="42.10528266217368" lon="11.93209132508697"><ele>362.0</ele><time>2026-04-18T10:29:27.001Z</time></trkpt><trkpt lat="42.1054299028237" lon="11.932117951475234"><ele>362.0</ele><time>2026-04-18T10:29:28.001Z</time></trkpt><trkpt lat="42.105612284203694" lon="11.93212296412831"><ele>362.0</ele><time>2026-04-18T10:29:29.001Z</time></trkpt><trkpt lat="42.10580487973369" lon="11.932099272084512"><ele>359.6666666666667</ele><time>2026-04-18T10:29:30.001Z</time></trkpt><trkpt lat="42.10598760383093" lon="11.932103201265777"><ele>357.3333333333333</ele><time>2026-04-18T10:29:31.001Z</time></trkpt><trkpt lat="42.10616513901129" lon="11.932096692597911"><ele>355.0</ele><time>2026-04-18T10:29:32.001Z</time></trkpt><trkpt lat="42.106323276381964" lon="11.932108537680364"><ele>355.0</ele><time>2026-04-18T10:29:33.001Z</time></trkpt><trkpt lat="42.106482364431706" lon="11.932115313469875"><ele>355.0</ele><time>2026-04-18T10:29:34.001Z</time></trkpt><trkpt lat="42.10664111681699" lon="11.93213172807274"><ele>355.0</ele><time>2026-04-18T10:29:35.001Z</time></trkpt><trkpt lat="42.106799118532365" lon="11.932157229370416"><ele>354.25</ele><time>2026-04-18T10:29:36.001Z</time></trkpt><trkpt lat="42.10695266371624" lon="11.932203517086169"><ele>353.5</ele><time>2026-04-18T10:29:37.001Z</time></trkpt><trkpt lat="42.10709429272775" lon="11.932269812226684"><ele>352.75</ele><time>2026-04-18T10:29:38.001Z</time></trkpt><trkpt lat="42.10722062186542" lon="11.932349087821118"><ele>352.0</ele><time>2026-04-18T10:29:39.001Z</time></trkpt><trkpt lat="42.10735826234377" lon="11.932458010128082"><ele>354.0</ele><time>2026-04-18T10:29:40.001Z</time></trkpt><trkpt lat="42.10751202821946" lon="11.932561498537524"><ele>356.0</ele><time>2026-04-18T10:29:41.001Z</time></trkpt><trkpt lat="42.10769083818188" lon="11.932679462779605"><ele>358.0</ele><time>2026-04-18T10:29:42.001Z</time></trkpt><trkpt lat="42.10783414250497" lon="11.932778871779815"><ele>358.0</ele><time>2026-04-18T10:29:43.001Z</time></trkpt><trkpt lat="42.107961403460294" lon="11.932864632312116"><ele>358.0</ele><time>2026-04-18T10:29:44.001Z</time></trkpt><trkpt lat="42.108082887193675" lon="11.932916778366218"><ele>358.0</ele><time>2026-04-18T10:29:45.001Z</time></trkpt><trkpt lat="42.10816458477785" lon="11.932935984600745"><ele>358.0</ele><time>2026-04-18T10:29:46.001Z</time></trkpt><trkpt lat="42.10826438342583" lon="11.932945600317852"><ele>360.4</ele><time>2026-04-18T10:29:47.001Z</time></trkpt><trkpt lat="42.10836573174951" lon="11.932934604604931"><ele>362.79999999999995</ele><time>2026-04-18T10:29:48.001Z</time></trkpt><trkpt lat="42.10847049414453" lon="11.932889701562098"><ele>365.2</ele><time>2026-04-18T10:29:49.001Z</time></trkpt><trkpt lat="42.10856693054316" lon="11.9328691347916"><ele>367.6</ele><time>2026-04-18T10:29:50.001Z</time></trkpt><trkpt lat="42.108666395725926" lon="11.932800400251908"><ele>370.0</ele><time>2026-04-18T10:29:51.001Z</time></trkpt><trkpt lat="42.108777734899505" lon="11.93269517572943"><ele>370.0</ele><time>2026-04-18T10:29:52.001Z</time></trkpt><trkpt lat="42.1088772620446" lon="11.932602929188118"><ele>370.0</ele><time>2026-04-18T10:29:53.001Z</time></trkpt><trkpt lat="42.10899524941807" lon="11.932510144104489"><ele>370.0</ele><time>2026-04-18T10:29:54.001Z</time></trkpt><trkpt lat="42.10914737679296" lon="11.93243183314923"><ele>370.0</ele><time>2026-04-18T10:29:55.001Z</time></trkpt><trkpt lat="42.109305117151" lon="11.93232912551507"><ele>374.66666666666663</ele><time>2026-04-18T10:29:56.001Z</time></trkpt><trkpt lat="42.10944652064291" lon="11.932235567214935"><ele>379.3333333333333</ele><time>2026-04-18T10:29:57.001Z</time></trkpt><trkpt lat="42.10958455090694" lon="11.932137786257977"><ele>384.0</ele><time>2026-04-18T10:29:58.001Z</time></trkpt><trkpt lat="42.10971266072554" lon="11.93204010690686"><ele>384.0</ele><time>2026-04-18T10:29:59.001Z</time></trkpt><trkpt lat="42.10983222655567" lon="11.931960088879835"><ele>384.0</ele><time>2026-04-18T10:30:00.001Z</time></trkpt><trkpt lat="42.10995320117647" lon="11.93188163674579"><ele>384.0</ele><time>2026-04-18T10:30:01.001Z</time></trkpt><trkpt lat="42.11005831316538" lon="11.931823753877744"><ele>384.0</ele><time>2026-04-18T10:30:02.001Z</time></trkpt><trkpt lat="42.110176593353" lon="11.93178018933588"><ele>386.0</ele><time>2026-04-18T10:30:03.001Z</time></trkpt><trkpt lat="42.1103024121707" lon="11.931730730266443"><ele>388.0</ele><time>2026-04-18T10:30:04.001Z</time></trkpt><trkpt lat="42.11045428523805" lon="11.931720688669694"><ele>390.0</ele><time>2026-04-18T10:30:05.001Z</time></trkpt><trkpt lat="42.11062015350478" lon="11.93168564388524"><ele>393.0</ele><time>2026-04-18T10:30:06.001Z</time></trkpt><trkpt lat="42.11076648985964" lon="11.931656654049823"><ele>396.0</ele><time>2026-04-18T10:30:07.001Z</time></trkpt><trkpt lat="42.11088938581773" lon="11.931630337765577"><ele>399.0</ele><time>2026-04-18T10:30:08.001Z</time></trkpt><trkpt lat="42.11097912619542" lon="11.931618410184415"><ele>402.0</ele><time>2026-04-18T10:30:09.001Z</time></trkpt><trkpt lat="42.111045644314416" lon="11.931620422055705"><ele>405.0</ele><time>2026-04-18T10:30:10.001Z</time></trkpt><trkpt lat="42.111103648460414" lon="11.931656040765576"><ele>405.0</ele><time>2026-04-18T10:30:11.001Z</time></trkpt><trkpt lat="42.11116385746291" lon="11.931718678603735"><ele>405.0</ele><time>2026-04-18T10:30:12.001Z</time></trkpt><trkpt lat="42.11119028637658" lon="11.93182356202864"><ele>405.0</ele><time>2026-04-18T10:30:13.001Z</time></trkpt><trkpt lat="42.111251636856025" lon="11.93193133955523"><ele>405.0</ele><time>2026-04-18T10:30:14.001Z</time></trkpt><trkpt lat="42.11131831397039" lon="11.932053229576455"><ele>405.0</ele><time>2026-04-18T10:30:15.001Z</time></trkpt><trkpt lat="42.111391666944506" lon="11.932148035659301"><ele>404.2</ele><time>2026-04-18T10:30:16.001Z</time></trkpt><trkpt lat="42.11144198521239" lon="11.93227015350593"><ele>403.4</ele><time>2026-04-18T10:30:17.001Z</time></trkpt><trkpt lat="42.111506067917695" lon="11.932374257122818"><ele>402.6</ele><time>2026-04-18T10:30:18.001Z</time></trkpt><trkpt lat="42.11157522611668" lon="11.932447062283988"><ele>401.8</ele><time>2026-04-18T10:30:19.001Z</time></trkpt><trkpt lat="42.11165656450982" lon="11.932501325954428"><ele>401.0</ele><time>2026-04-18T10:30:20.002Z</time></trkpt><trkpt lat="42.111731376392925" lon="11.932524591233697"><ele>403.8</ele><time>2026-04-18T10:30:21.002Z</time></trkpt><trkpt lat="42.111824356047" lon="11.932500952497866"><ele>406.6</ele><time>2026-04-18T10:30:22.002Z</time></trkpt><trkpt lat="42.111909338036305" lon="11.932449647492422"><ele>409.4</ele><time>2026-04-18T10:30:23.002Z</time></trkpt><trkpt lat="42.112012119907924" lon="11.932367778764963"><ele>412.2</ele><time>2026-04-18T10:30:24.002Z</time></trkpt><trkpt lat="42.112130541544616" lon="11.932273272831532"><ele>415.0</ele><time>2026-04-18T10:30:25.002Z</time></trkpt><trkpt lat="42.11227176582986" lon="11.932202466714758"><ele>415.0</ele><time>2026-04-18T10:30:26.002Z</time></trkpt><trkpt lat="42.11237853211773" lon="11.932146842848507"><ele>415.0</ele><time>2026-04-18T10:30:27.002Z</time></trkpt><trkpt lat="42.11246213899221" lon="11.932119182878997"><ele>415.0</ele><time>2026-04-18T10:30:28.002Z</time></trkpt><trkpt lat="42.11252243727762" lon="11.932162213408443"><ele>415.0</ele><time>2026-04-18T10:30:29.002Z</time></trkpt><trkpt lat="42.11261017272777" lon="11.93220605247293"><ele>415.0</ele><time>2026-04-18T10:30:30.002Z</time></trkpt><trkpt lat="42.11271489975131" lon="11.932288947148528"><ele>416.6</ele><time>2026-04-18T10:30:31.002Z</time></trkpt><trkpt lat="42.11283130822963" lon="11.932370923190964"><ele>418.2</ele><time>2026-04-18T10:30:32.002Z</time></trkpt><trkpt lat="42.11292234451926" lon="11.932425020954314"><ele>419.79999999999995</ele><time>2026-04-18T10:30:33.002Z</time></trkpt><trkpt lat="42.11299906882502" lon="11.932458909557395"><ele>421.4</ele><time>2026-04-18T10:30:35.002Z</time></trkpt><trkpt lat="42.11294757841429" lon="11.932616338760676"><ele>423.0</ele><time>2026-04-18T10:30:46Z</time></trkpt><trkpt lat="42.11291945396564" lon="11.93277098383644"><ele>423.0</ele><time>2026-04-18T10:30:48Z</time></trkpt><trkpt lat="42.11291343392899" lon="11.932890700043767"><ele>423.0</ele><time>2026-04-18T10:30:49Z</time></trkpt><trkpt lat="42.11288752325543" lon="11.933022604574722"><ele>423.0</ele><time>2026-04-18T10:30:50Z</time></trkpt><trkpt lat="42.1128665095378" lon="11.933124657602828"><ele>423.0</ele><time>2026-04-18T10:30:51Z</time></trkpt><trkpt lat="42.11284990198845" lon="11.933208323452758"><ele>423.0</ele><time>2026-04-18T10:30:52Z</time></trkpt><trkpt lat="42.112828045201944" lon="11.93332224237995"><ele>423.0</ele><time>2026-04-18T10:30:53Z</time></trkpt><trkpt lat="42.11280518370386" lon="11.933454751970105"><ele>423.2</ele><time>2026-04-18T10:30:54Z</time></trkpt><trkpt lat="42.112774922672294" lon="11.933592076608166"><ele>423.4</ele><time>2026-04-18T10:30:55Z</time></trkpt><trkpt lat="42.11274642188526" lon="11.933726813614586"><ele>423.59999999999997</ele><time>2026-04-18T10:30:56Z</time></trkpt><trkpt lat="42.11271751783708" lon="11.933866884646331"><ele>423.79999999999995</ele><time>2026-04-18T10:30:57Z</time></trkpt><trkpt lat="42.11269142246189" lon="11.933999698154583"><ele>424.0</ele><time>2026-04-18T10:30:58Z</time></trkpt><trkpt lat="42.11266755488497" lon="11.934140610416714"><ele>423.0</ele><time>2026-04-18T10:30:59Z</time></trkpt><trkpt lat="42.112625983339676" lon="11.934273384554784"><ele>422.0</ele><time>2026-04-18T10:31:00Z</time></trkpt><trkpt lat="42.1126009893651" lon="11.93438859890391"><ele>421.0</ele><time>2026-04-18T10:31:01Z</time></trkpt><trkpt lat="42.11257719540133" lon="11.934498281628064"><ele>420.0</ele><time>2026-04-18T10:31:02Z</time></trkpt><trkpt lat="42.11255016061726" lon="11.934622903701088"><ele>419.0</ele><time>2026-04-18T10:31:03Z</time></trkpt><trkpt lat="42.11253524935362" lon="11.934774922704234"><ele>419.0</ele><time>2026-04-18T10:31:04Z</time></trkpt><trkpt lat="42.112508374081585" lon="11.934933505741812"><ele>419.0</ele><time>2026-04-18T10:31:05Z</time></trkpt><trkpt lat="42.112468144348576" lon="11.93510107243202"><ele>419.0</ele><time>2026-04-18T10:31:06Z</time></trkpt><trkpt lat="42.11245699377886" lon="11.93529439595863"><ele>419.0</ele><time>2026-04-18T10:31:07Z</time></trkpt><trkpt lat="42.112423256367606" lon="11.935498431430448"><ele>413.66666666666663</ele><time>2026-04-18T10:31:08Z</time></trkpt><trkpt lat="42.112384933908565" lon="11.935705150356739"><ele>408.33333333333337</ele><time>2026-04-18T10:31:09Z</time></trkpt><trkpt lat="42.11235087359419" lon="11.93591557335424"><ele>403.0</ele><time>2026-04-18T10:31:10Z</time></trkpt><trkpt lat="42.11230535606289" lon="11.936135039579488"><ele>402.0</ele><time>2026-04-18T10:31:11Z</time></trkpt><trkpt lat="42.11226985289755" lon="11.936346625360606"><ele>401.0</ele><time>2026-04-18T10:31:12Z</time></trkpt><trkpt lat="42.1122368214635" lon="11.936548558508319"><ele>400.0</ele><time>2026-04-18T10:31:13Z</time></trkpt><trkpt lat="42.112205274537324" lon="11.93675095866845"><ele>399.75</ele><time>2026-04-18T10:31:14Z</time></trkpt><trkpt lat="42.112171109033596" lon="11.936940439261388"><ele>399.5</ele><time>2026-04-18T10:31:15Z</time></trkpt><trkpt lat="42.112142947688525" lon="11.937107635643628"><ele>399.25</ele><time>2026-04-18T10:31:16Z</time></trkpt><trkpt lat="42.11212069371298" lon="11.937307388128545"><ele>399.0</ele><time>2026-04-18T10:31:17Z</time></trkpt><trkpt lat="42.112122946995186" lon="11.937512813219284"><ele>398.33333333333337</ele><time>2026-04-18T10:31:18Z</time></trkpt><trkpt lat="42.11217175143053" lon="11.937743736196355"><ele>397.6666666666667</ele><time>2026-04-18T10:31:19Z</time></trkpt><trkpt lat="42.11220097722172" lon="11.937977837049297"><ele>397.0</ele><time>2026-04-18T10:31:20Z</time></trkpt><trkpt lat="42.11224240177084" lon="11.938205167269391"><ele>396.8</ele><time>2026-04-18T10:31:21Z</time></trkpt><trkpt lat="42.112262725680814" lon="11.938389108004879"><ele>396.6</ele><time>2026-04-18T10:31:22Z</time></trkpt><trkpt lat="42.11227971593756" lon="11.938506344841452"><ele>396.40000000000003</ele><time>2026-04-18T10:31:23.001Z</time></trkpt><trkpt lat="42.112296923108076" lon="11.938625079448453"><ele>396.20000000000005</ele><time>2026-04-18T10:31:24.001Z</time></trkpt><trkpt lat="42.11231297063467" lon="11.938735812150043"><ele>396.0</ele><time>2026-04-18T10:31:25.001Z</time></trkpt><trkpt lat="42.11255272383579" lon="11.938797604134445"><ele>397.33333333333337</ele><time>2026-04-18T10:31:26.001Z</time></trkpt><trkpt lat="42.112703686416076" lon="11.93890275056134"><ele>398.6666666666667</ele><time>2026-04-18T10:31:27.001Z</time></trkpt><trkpt lat="42.112885926404886" lon="11.93901959596002"><ele>400.0</ele><time>2026-04-18T10:31:28.001Z</time></trkpt><trkpt lat="42.11303116033225" lon="11.939108512926387"><ele>400.0</ele><time>2026-04-18T10:31:29.001Z</time></trkpt><trkpt lat="42.113144277394106" lon="11.939203902996002"><ele>400.0</ele><time>2026-04-18T10:31:30.001Z</time></trkpt><trkpt lat="42.11325916784687" lon="11.939305597399143"><ele>400.0</ele><time>2026-04-18T10:31:31.001Z</time></trkpt><trkpt lat="42.11336090888786" lon="11.939386783313422"><ele>400.0</ele><time>2026-04-18T10:31:32.001Z</time></trkpt><trkpt lat="42.11345666853037" lon="11.939443751366065"><ele>399.2</ele><time>2026-04-18T10:31:33.001Z</time></trkpt><trkpt lat="42.11355942843133" lon="11.939478899538681"><ele>398.4</ele><time>2026-04-18T10:31:34.001Z</time></trkpt><trkpt lat="42.113654004114444" lon="11.939473676323196"><ele>397.6</ele><time>2026-04-18T10:31:35.001Z</time></trkpt><trkpt lat="42.11375669856675" lon="11.939453273402714"><ele>396.8</ele><time>2026-04-18T10:31:36.001Z</time></trkpt><trkpt lat="42.11384862703605" lon="11.939459592824047"><ele>396.0</ele><time>2026-04-18T10:31:37.001Z</time></trkpt><trkpt lat="42.11390469354978" lon="11.939501689001625"><ele>396.0</ele><time>2026-04-18T10:31:38.001Z</time></trkpt><trkpt lat="42.11394307997927" lon="11.939578994369631"><ele>396.0</ele><time>2026-04-18T10:31:39.001Z</time></trkpt><trkpt lat="42.113975689228724" lon="11.939706949967054"><ele>396.0</ele><time>2026-04-18T10:31:40.001Z</time></trkpt><trkpt lat="42.1140083233797" lon="11.939892309586838"><ele>396.0</ele><time>2026-04-18T10:31:41.001Z</time></trkpt><trkpt lat="42.114045870718385" lon="11.94005567980743"><ele>396.0</ele><time>2026-04-18T10:31:42.001Z</time></trkpt><trkpt lat="42.11407724152651" lon="11.94019182033883"><ele>397.5</ele><time>2026-04-18T10:31:43.001Z</time></trkpt><trkpt lat="42.1140818642178" lon="11.940311116934582"><ele>399.0</ele><time>2026-04-18T10:31:44.001Z</time></trkpt><trkpt lat="42.11410897470225" lon="11.940394963607732"><ele>400.5</ele><time>2026-04-18T10:31:45.001Z</time></trkpt><trkpt lat="42.11416320809369" lon="11.940482119449676"><ele>402.0</ele><time>2026-04-18T10:31:46.001Z</time></trkpt><trkpt lat="42.11422141946529" lon="11.940577024516415"><ele>403.5</ele><time>2026-04-18T10:31:47.001Z</time></trkpt><trkpt lat="42.114256300317614" lon="11.940690693802601"><ele>405.0</ele><time>2026-04-18T10:31:48.001Z</time></trkpt><trkpt lat="42.11428869064827" lon="11.94079015987672"><ele>404.8</ele><time>2026-04-18T10:31:49.001Z</time></trkpt><trkpt lat="42.114333250337985" lon="11.940887761352577"><ele>404.6</ele><time>2026-04-18T10:31:50.001Z</time></trkpt><trkpt lat="42.11436657485792" lon="11.940999840121172"><ele>404.4</ele><time>2026-04-18T10:31:51.001Z</time></trkpt><trkpt lat="42.114386754495264" lon="11.941149285125503"><ele>404.2</ele><time>2026-04-18T10:31:52.001Z</time></trkpt><trkpt lat="42.11440251360415" lon="11.94130516650437"><ele>404.0</ele><time>2026-04-18T10:31:53.001Z</time></trkpt><trkpt lat="42.11441048405666" lon="11.941455416401597"><ele>404.0</ele><time>2026-04-18T10:31:54.001Z</time></trkpt><trkpt lat="42.1144092076414" lon="11.9415899460065"><ele>404.0</ele><time>2026-04-18T10:31:55.001Z</time></trkpt><trkpt lat="42.11439930892588" lon="11.941741038493383"><ele>404.0</ele><time>2026-04-18T10:31:56.001Z</time></trkpt><trkpt lat="42.114380016897854" lon="11.941859957988571"><ele>404.0</ele><time>2026-04-18T10:31:57.001Z</time></trkpt><trkpt lat="42.114341030367484" lon="11.941965098270053"><ele>404.0</ele><time>2026-04-18T10:31:58.001Z</time></trkpt><trkpt lat="42.11429613273317" lon="11.942065205077515"><ele>404.3333333333333</ele><time>2026-04-18T10:31:59.001Z</time></trkpt><trkpt lat="42.11425723582689" lon="11.942166301954746"><ele>404.66666666666663</ele><time>2026-04-18T10:32:01.001Z</time></trkpt><trkpt lat="42.11423608199866" lon="11.942271701184527"><ele>405.0</ele><time>2026-04-18T10:32:03.001Z</time></trkpt><trkpt lat="42.11430198823397" lon="11.942361833653145"><ele>405.33333333333337</ele><time>2026-04-18T10:32:05.001Z</time></trkpt><trkpt lat="42.11435905443215" lon="11.942460683455636"><ele>405.6666666666667</ele><time>2026-04-18T10:32:29.002Z</time></trkpt><trkpt lat="42.11443082030057" lon="11.942539718011151"><ele>406.0</ele><time>2026-04-18T10:32:31.002Z</time></trkpt><trkpt lat="42.1144827411588" lon="11.942619893013058"><ele>405.0</ele><time>2026-04-18T10:32:39.002Z</time></trkpt><trkpt lat="42.114484783251946" lon="11.94271339666379"><ele>404.0</ele><time>2026-04-18T10:32:42.002Z</time></trkpt><trkpt lat="42.11447128137474" lon="11.9428016971171"><ele>403.0</ele><time>2026-04-18T10:32:45Z</time></trkpt><trkpt lat="42.114431167127435" lon="11.942880455923948"><ele>402.0</ele><time>2026-04-18T10:32:58Z</time></trkpt><trkpt lat="42.114410973384764" lon="11.942971431860498"><ele>401.0</ele><time>2026-04-18T10:33:32.001Z</time></trkpt><trkpt lat="42.11443674465278" lon="11.942880523682103"><ele>400.0</ele><time>2026-04-18T10:37:42Z</time></trkpt><trkpt lat="42.11446831564143" lon="11.942804265037825"><ele>399.0</ele><time>2026-04-18T10:37:43Z</time></trkpt><trkpt lat="42.114497893445346" lon="11.942709066404921"><ele>399.0</ele><time>2026-04-18T10:37:44Z</time></trkpt><trkpt lat="42.11449478238744" lon="11.942584530575305"><ele>399.0</ele><time>2026-04-18T10:37:46.001Z</time></trkpt><trkpt lat="42.11444977833923" lon="11.942509463889246"><ele>399.0</ele><time>2026-04-18T10:37:48.001Z</time></trkpt><trkpt lat="42.11437123039198" lon="11.942457397377956"><ele>399.0</ele><time>2026-04-18T10:37:50.001Z</time></trkpt><trkpt lat="42.11432136685381" lon="11.942397165430648"><ele>399.0</ele><time>2026-04-18T10:37:51.001Z</time></trkpt><trkpt lat="42.114354597467496" lon="11.942306922552785"><ele>399.0</ele><time>2026-04-18T10:37:54.001Z</time></trkpt><trkpt lat="42.11440917951087" lon="11.942251203599895"><ele>399.0</ele><time>2026-04-18T10:37:57.001Z</time></trkpt><trkpt lat="42.11435902288746" lon="11.942336273903347"><ele>399.0</ele><time>2026-04-18T10:38:07.001Z</time></trkpt><trkpt lat="42.11435035909417" lon="11.942454066784244"><ele>399.0</ele><time>2026-04-18T10:38:11.001Z</time></trkpt><trkpt lat="42.114399786235374" lon="11.94251717235031"><ele>399.0</ele><time>2026-04-18T10:38:13.001Z</time></trkpt><trkpt lat="42.11446372779186" lon="11.942573036467572"><ele>399.0</ele><time>2026-04-18T10:38:16.001Z</time></trkpt><trkpt lat="42.1145181323197" lon="11.942630792500287"><ele>399.0</ele><time>2026-04-18T10:38:19.001Z</time></trkpt><trkpt lat="42.11458844868172" lon="11.942673866679941"><ele>399.0</ele><time>2026-04-18T10:38:23.001Z</time></trkpt><trkpt lat="42.11465747060722" lon="11.94270185177688"><ele>399.0</ele><time>2026-04-18T10:38:26.001Z</time></trkpt><trkpt lat="42.11473237127429" lon="11.942722251215008"><ele>399.0</ele><time>2026-04-18T10:38:30.001Z</time></trkpt><trkpt lat="42.11479762132168" lon="11.942771662311543"><ele>399.0</ele><time>2026-04-18T10:38:34.001Z</time></trkpt><trkpt lat="42.11483753023335" lon="11.942866604822038"><ele>399.0</ele><time>2026-04-18T10:38:38.001Z</time></trkpt><trkpt lat="42.11481106639334" lon="11.942956084588204"><ele>399.0</ele><time>2026-04-18T10:38:41.001Z</time></trkpt><trkpt lat="42.114778288110735" lon="11.943046798819086"><ele>399.0</ele><time>2026-04-18T10:38:44.001Z</time></trkpt><trkpt lat="42.114740138283665" lon="11.943117809381492"><ele>399.0</ele><time>2026-04-18T10:39:18.999Z</time></trkpt><trkpt lat="42.11473190132348" lon="11.943213924750061"><ele>399.0</ele><time>2026-04-18T10:39:21.999Z</time></trkpt><trkpt lat="42.114725585286415" lon="11.943303520589668"><ele>399.0</ele><time>2026-04-18T10:39:23.999Z</time></trkpt><trkpt lat="42.1147181607815" lon="11.943391983441947"><ele>399.0</ele><time>2026-04-18T10:39:25.999Z</time></trkpt><trkpt lat="42.114695593849746" lon="11.94349163840592"><ele>399.0</ele><time>2026-04-18T10:39:29Z</time></trkpt><trkpt lat="42.11465518646509" lon="11.94361773964802"><ele>399.0</ele><time>2026-04-18T10:39:32Z</time></trkpt><trkpt lat="42.11461996442536" lon="11.943703729289629"><ele>397.0</ele><time>2026-04-18T10:39:34Z</time></trkpt><trkpt lat="42.11457993069475" lon="11.943781327735541"><ele>395.0</ele><time>2026-04-18T10:39:37Z</time></trkpt><trkpt lat="42.11454659116441" lon="11.943896556859606"><ele>393.0</ele><time>2026-04-18T10:39:39Z</time></trkpt><trkpt lat="42.114540150264425" lon="11.944018356695675"><ele>391.0</ele><time>2026-04-18T10:39:41Z</time></trkpt><trkpt lat="42.11456215360313" lon="11.944134036314146"><ele>389.0</ele><time>2026-04-18T10:39:43Z</time></trkpt><trkpt lat="42.11455177517416" lon="11.944256664177692"><ele>387.0</ele><time>2026-04-18T10:39:45Z</time></trkpt><trkpt lat="42.11453619363292" lon="11.94436338917155"><ele>384.40000000000003</ele><time>2026-04-18T10:39:47Z</time></trkpt><trkpt lat="42.11453832776433" lon="11.944473786566457"><ele>381.8</ele><time>2026-04-18T10:39:49Z</time></trkpt><trkpt lat="42.114544223292036" lon="11.944603947114182"><ele>379.2</ele><time>2026-04-18T10:39:51Z</time></trkpt><trkpt lat="42.114525282891975" lon="11.944732372846408"><ele>376.6</ele><time>2026-04-18T10:39:53Z</time></trkpt><trkpt lat="42.11450327657265" lon="11.944860256041752"><ele>374.0</ele><time>2026-04-18T10:39:55Z</time></trkpt><trkpt lat="42.11453273021709" lon="11.944964458820769"><ele>374.0</ele><time>2026-04-18T10:39:57Z</time></trkpt><trkpt lat="42.11460826353389" lon="11.94498855072472"><ele>374.0</ele><time>2026-04-18T10:39:59Z</time></trkpt><trkpt lat="42.11468868277838" lon="11.94486070769644"><ele>374.0</ele><time>2026-04-18T10:40:01Z</time></trkpt><trkpt lat="42.11476228632556" lon="11.944896616883458"><ele>374.0</ele><time>2026-04-18T10:40:04Z</time></trkpt><trkpt lat="42.114780076956514" lon="11.945009168198323"><ele>374.0</ele><time>2026-04-18T10:40:06Z</time></trkpt><trkpt lat="42.11474578721598" lon="11.94512795492439"><ele>371.79999999999995</ele><time>2026-04-18T10:40:08Z</time></trkpt><trkpt lat="42.11469605781553" lon="11.945258722125597"><ele>369.59999999999997</ele><time>2026-04-18T10:40:10Z</time></trkpt><trkpt lat="42.11468573336909" lon="11.945429999764624"><ele>367.4</ele><time>2026-04-18T10:40:12.001Z</time></trkpt><trkpt lat="42.11469261611889" lon="11.945534313320751"><ele>365.2</ele><time>2026-04-18T10:40:13.001Z</time></trkpt><trkpt lat="42.114704755374845" lon="11.945643221554946"><ele>363.0</ele><time>2026-04-18T10:40:14.001Z</time></trkpt><trkpt lat="42.11468532331846" lon="11.945730304785531"><ele>363.0</ele><time>2026-04-18T10:40:15.001Z</time></trkpt><trkpt lat="42.11467070490937" lon="11.94583919663346"><ele>363.0</ele><time>2026-04-18T10:40:17.001Z</time></trkpt><trkpt lat="42.1146255439316" lon="11.94596487363884"><ele>363.0</ele><time>2026-04-18T10:44:50.002Z</time></trkpt><trkpt lat="42.114617835399834" lon="11.94609153377575"><ele>363.0</ele><time>2026-04-18T10:44:52.002Z</time></trkpt><trkpt lat="42.11464878328125" lon="11.946228270338068"><ele>363.0</ele><time>2026-04-18T10:44:54.002Z</time></trkpt><trkpt lat="42.114664539767766" lon="11.94632441849323"><ele>362.1666666666667</ele><time>2026-04-18T10:44:55.002Z</time></trkpt><trkpt lat="42.114682690154844" lon="11.946406279005949"><ele>361.3333333333333</ele><time>2026-04-18T10:44:56.002Z</time></trkpt><trkpt lat="42.11471782168953" lon="11.946486919325277"><ele>360.5</ele><time>2026-04-18T10:44:57.002Z</time></trkpt><trkpt lat="42.11476265067935" lon="11.94661664295543"><ele>359.66666666666663</ele><time>2026-04-18T10:44:59.002Z</time></trkpt><trkpt lat="42.11480785313863" lon="11.946726344325493"><ele>358.8333333333333</ele><time>2026-04-18T10:45:00.002Z</time></trkpt><trkpt lat="42.11484488528572" lon="11.946807839907605"><ele>358.0</ele><time>2026-04-18T10:45:01.002Z</time></trkpt><trkpt lat="42.1149246406681" lon="11.946920690093037"><ele>360.59999999999997</ele><time>2026-04-18T10:45:03.002Z</time></trkpt><trkpt lat="42.11497535723005" lon="11.947033189542896"><ele>363.2</ele><time>2026-04-18T10:45:05.002Z</time></trkpt><trkpt lat="42.115008726680124" lon="11.947178226722343"><ele>365.8</ele><time>2026-04-18T10:45:07.002Z</time></trkpt><trkpt lat="42.11503129390147" lon="11.94732061996461"><ele>368.4</ele><time>2026-04-18T10:45:09.002Z</time></trkpt><trkpt lat="42.11505280481404" lon="11.947412024334259"><ele>371.0</ele><time>2026-04-18T10:45:11.002Z</time></trkpt><trkpt lat="42.115092898194405" lon="11.947479559450388"><ele>370.6</ele><time>2026-04-18T10:45:13.002Z</time></trkpt><trkpt lat="42.11514088251645" lon="11.947578683144116"><ele>370.20000000000005</ele><time>2026-04-18T10:45:15.002Z</time></trkpt><trkpt lat="42.11521232289479" lon="11.947656610242213"><ele>369.79999999999995</ele><time>2026-04-18T10:45:17.002Z</time></trkpt><trkpt lat="42.11527166940168" lon="11.947787368297119"><ele>369.4</ele><time>2026-04-18T10:45:19.002Z</time></trkpt><trkpt lat="42.11528860370566" lon="11.947878987289931"><ele>369.0</ele><time>2026-04-18T10:45:20.001Z</time></trkpt><trkpt lat="42.11532084812567" lon="11.948041145518516"><ele>369.0</ele><time>2026-04-18T10:45:22.001Z</time></trkpt><trkpt lat="42.115356370366385" lon="11.948138505585634"><ele>369.0</ele><time>2026-04-18T10:45:23.001Z</time></trkpt><trkpt lat="42.1153905612272" lon="11.948226940982293"><ele>369.0</ele><time>2026-04-18T10:45:24.001Z</time></trkpt><trkpt lat="42.115428885956966" lon="11.948308764891816"><ele>369.0</ele><time>2026-04-18T10:45:25.001Z</time></trkpt><trkpt lat="42.11546537493639" lon="11.948383221572591"><ele>369.0</ele><time>2026-04-18T10:45:26.001Z</time></trkpt><trkpt lat="42.11550100552339" lon="11.948455688653254"><ele>369.0</ele><time>2026-04-18T10:45:27.001Z</time></trkpt><trkpt lat="42.115540203511394" lon="11.948571075814298"><ele>368.0</ele><time>2026-04-18T10:45:29.001Z</time></trkpt><trkpt lat="42.115588165680265" lon="11.948698096941802"><ele>367.0</ele><time>2026-04-18T10:45:31.001Z</time></trkpt><trkpt lat="42.11561747403992" lon="11.948830038432508"><ele>366.0</ele><time>2026-04-18T10:45:33.001Z</time></trkpt><trkpt lat="42.11563974724709" lon="11.94897026520513"><ele>365.0</ele><time>2026-04-18T10:45:35.001Z</time></trkpt><trkpt lat="42.115648857418314" lon="11.949062576705641"><ele>364.0</ele><time>2026-04-18T10:45:36.001Z</time></trkpt><trkpt lat="42.1156522575008" lon="11.949161053574095"><ele>362.0</ele><time>2026-04-18T10:45:37.001Z</time></trkpt><trkpt lat="42.11565280002806" lon="11.949257096963503"><ele>360.0</ele><time>2026-04-18T10:45:38.001Z</time></trkpt><trkpt lat="42.11563568098967" lon="11.949411373460705"><ele>358.0</ele><time>2026-04-18T10:45:40.001Z</time></trkpt><trkpt lat="42.11562677359689" lon="11.949496267177961"><ele>356.0</ele><time>2026-04-18T10:45:41.001Z</time></trkpt><trkpt lat="42.11559527536461" lon="11.949682122631991"><ele>354.0</ele><time>2026-04-18T10:45:43.001Z</time></trkpt><trkpt lat="42.11558495148485" lon="11.949786022287993"><ele>354.0</ele><time>2026-04-18T10:45:44.001Z</time></trkpt><trkpt lat="42.11557306317287" lon="11.949879087832544"><ele>354.0</ele><time>2026-04-18T10:45:45.001Z</time></trkpt><trkpt lat="42.11554373571909" lon="11.949980480549447"><ele>354.0</ele><time>2026-04-18T10:45:46.001Z</time></trkpt><trkpt lat="42.115517960608926" lon="11.950069543231352"><ele>354.0</ele><time>2026-04-18T10:45:47.001Z</time></trkpt><trkpt lat="42.11551098761214" lon="11.950221654597243"><ele>354.0</ele><time>2026-04-18T10:45:49.001Z</time></trkpt><trkpt lat="42.11555643871317" lon="11.950280849604372"><ele>354.0</ele><time>2026-04-18T10:45:50.001Z</time></trkpt><trkpt lat="42.11562170479647" lon="11.950317318553555"><ele>353.3333333333333</ele><time>2026-04-18T10:45:51.001Z</time></trkpt><trkpt lat="42.11571902884265" lon="11.950337288324262"><ele>352.6666666666667</ele><time>2026-04-18T10:45:52.001Z</time></trkpt><trkpt lat="42.115806728157" lon="11.95035188672207"><ele>352.0</ele><time>2026-04-18T10:45:53.001Z</time></trkpt><trkpt lat="42.11589259948702" lon="11.95039372438914"><ele>351.33333333333337</ele><time>2026-04-18T10:45:54.001Z</time></trkpt><trkpt lat="42.11595942795088" lon="11.950427583575209"><ele>350.6666666666667</ele><time>2026-04-18T10:45:55.001Z</time></trkpt><trkpt lat="42.116046408120546" lon="11.95047774900187"><ele>350.0</ele><time>2026-04-18T10:45:56.001Z</time></trkpt><trkpt lat="42.116123750803766" lon="11.950495395811199"><ele>351.5</ele><time>2026-04-18T10:45:57.001Z</time></trkpt><trkpt lat="42.11620028717436" lon="11.950505337509814"><ele>353.0</ele><time>2026-04-18T10:45:58.001Z</time></trkpt><trkpt lat="42.1162736985261" lon="11.950506568997122"><ele>354.5</ele><time>2026-04-18T10:45:59.001Z</time></trkpt><trkpt lat="42.11634050274798" lon="11.950504413570426"><ele>356.0</ele><time>2026-04-18T10:46:00.001Z</time></trkpt><trkpt lat="42.11641640828201" lon="11.950494101139723"><ele>357.5</ele><time>2026-04-18T10:46:01.001Z</time></trkpt><trkpt lat="42.116496897077226" lon="11.950500790632676"><ele>359.0</ele><time>2026-04-18T10:46:02.001Z</time></trkpt><trkpt lat="42.11660234682352" lon="11.950523439107313"><ele>359.1666666666667</ele><time>2026-04-18T10:46:03.001Z</time></trkpt><trkpt lat="42.116691878987716" lon="11.950539062808588"><ele>359.33333333333337</ele><time>2026-04-18T10:46:04.001Z</time></trkpt><trkpt lat="42.11677873332315" lon="11.95055348599186"><ele>359.5</ele><time>2026-04-18T10:46:05.001Z</time></trkpt><trkpt lat="42.116846026341705" lon="11.950583927914144"><ele>359.6666666666667</ele><time>2026-04-18T10:46:06.001Z</time></trkpt><trkpt lat="42.116921639045025" lon="11.950624772517319"><ele>359.8333333333333</ele><time>2026-04-18T10:46:07.001Z</time></trkpt><trkpt lat="42.11700805889242" lon="11.95064643860098"><ele>360.0</ele><time>2026-04-18T10:46:08.001Z</time></trkpt><trkpt lat="42.11710266130973" lon="11.95063847554014"><ele>360.0</ele><time>2026-04-18T10:46:09.001Z</time></trkpt><trkpt lat="42.11719089542273" lon="11.95063540476121"><ele>360.0</ele><time>2026-04-18T10:46:10.001Z</time></trkpt><trkpt lat="42.11726189103375" lon="11.950672894302276"><ele>360.0</ele><time>2026-04-18T10:46:11.001Z</time></trkpt><trkpt lat="42.11737691334083" lon="11.9507243237168"><ele>360.0</ele><time>2026-04-18T10:46:13.001Z</time></trkpt><trkpt lat="42.117493239102394" lon="11.950729270235295"><ele>360.0</ele><time>2026-04-18T10:46:15.001Z</time></trkpt><trkpt lat="42.11757004306328" lon="11.950811197905178"><ele>359.75</ele><time>2026-04-18T10:46:17.001Z</time></trkpt><trkpt lat="42.11760012156751" lon="11.950954305062599"><ele>359.5</ele><time>2026-04-18T10:46:19.001Z</time></trkpt><trkpt lat="42.11757062652773" lon="11.951108542054762"><ele>359.25</ele><time>2026-04-18T10:46:21.001Z</time></trkpt><trkpt lat="42.117554936770915" lon="11.95125558330435"><ele>359.0</ele><time>2026-04-18T10:46:23.001Z</time></trkpt><trkpt lat="42.117561247669656" lon="11.951416261410449"><ele>359.0</ele><time>2026-04-18T10:46:25.001Z</time></trkpt><trkpt lat="42.11762636736134" lon="11.951553351501751"><ele>359.0</ele><time>2026-04-18T10:46:27.001Z</time></trkpt><trkpt lat="42.117689029448044" lon="11.951582264879736"><ele>359.0</ele><time>2026-04-18T10:46:28.001Z</time></trkpt><trkpt lat="42.11776181333576" lon="11.951614265890106"><ele>359.0</ele><time>2026-04-18T10:46:29.001Z</time></trkpt><trkpt lat="42.11783239479671" lon="11.95165575762397"><ele>359.0</ele><time>2026-04-18T10:46:30.002Z</time></trkpt><trkpt lat="42.11791053407195" lon="11.951665921295346"><ele>359.0</ele><time>2026-04-18T10:46:31.002Z</time></trkpt><trkpt lat="42.11799150495184" lon="11.951692178482624"><ele>359.1666666666667</ele><time>2026-04-18T10:46:32.002Z</time></trkpt><trkpt lat="42.11806579109292" lon="11.951713453463364"><ele>359.33333333333337</ele><time>2026-04-18T10:46:33.002Z</time></trkpt><trkpt lat="42.11813987177052" lon="11.951719841162973"><ele>359.5</ele><time>2026-04-18T10:46:34.002Z</time></trkpt><trkpt lat="42.11822218596252" lon="11.951730449151846"><ele>359.6666666666667</ele><time>2026-04-18T10:46:35.002Z</time></trkpt><trkpt lat="42.11832331223612" lon="11.95175317026789"><ele>359.8333333333333</ele><time>2026-04-18T10:46:36.002Z</time></trkpt><trkpt lat="42.1183777726867" lon="11.95181902830302"><ele>360.0</ele><time>2026-04-18T10:46:37.002Z</time></trkpt><trkpt lat="42.11844615465405" lon="11.951851771850999"><ele>360.0</ele><time>2026-04-18T10:46:38.002Z</time></trkpt><trkpt lat="42.11850923864726" lon="11.951887973016532"><ele>360.0</ele><time>2026-04-18T10:46:39.002Z</time></trkpt><trkpt lat="42.1185684463843" lon="11.951940722130882"><ele>360.0</ele><time>2026-04-18T10:46:40.002Z</time></trkpt><trkpt lat="42.11863635875738" lon="11.95200757392343"><ele>360.0</ele><time>2026-04-18T10:46:41.002Z</time></trkpt><trkpt lat="42.118712785935045" lon="11.952062788199154"><ele>360.0</ele><time>2026-04-18T10:46:42.002Z</time></trkpt><trkpt lat="42.11878632098342" lon="11.952139819048103"><ele>360.0</ele><time>2026-04-18T10:46:43.002Z</time></trkpt><trkpt lat="42.118842887575425" lon="11.952190220386784"><ele>360.0</ele><time>2026-04-18T10:46:44.002Z</time></trkpt><trkpt lat="42.11888194420739" lon="11.95227369485104"><ele>360.0</ele><time>2026-04-18T10:46:45.002Z</time></trkpt><trkpt lat="42.1189322767051" lon="11.952381297502317"><ele>360.0</ele><time>2026-04-18T10:46:46.002Z</time></trkpt><trkpt lat="42.1189767664306" lon="11.952479960371695"><ele>360.0</ele><time>2026-04-18T10:46:47.002Z</time></trkpt><trkpt lat="42.119013270697465" lon="11.952573543976579"><ele>360.0</ele><time>2026-04-18T10:46:48.002Z</time></trkpt><trkpt lat="42.11906031684398" lon="11.952671971247394"><ele>360.0</ele><time>2026-04-18T10:46:49.002Z</time></trkpt><trkpt lat="42.11909699711922" lon="11.952758468866865"><ele>360.0</ele><time>2026-04-18T10:46:50.002Z</time></trkpt><trkpt lat="42.11912243465504" lon="11.95291060336641"><ele>360.0</ele><time>2026-04-18T10:46:52.002Z</time></trkpt><trkpt lat="42.11907937054297" lon="11.953057987815537"><ele>360.0</ele><time>2026-04-18T10:46:54.002Z</time></trkpt><trkpt lat="42.11900050256801" lon="11.95311642243382"><ele>360.0</ele><time>2026-04-18T10:46:55.002Z</time></trkpt><trkpt lat="42.11892870788814" lon="11.953164308028695"><ele>360.0</ele><time>2026-04-18T10:46:56.002Z</time></trkpt><trkpt lat="42.11886069990277" lon="11.953180405809938"><ele>360.0</ele><time>2026-04-18T10:46:57.002Z</time></trkpt><trkpt lat="42.11877899434626" lon="11.95324123921511"><ele>360.0</ele><time>2026-04-18T10:46:58.002Z</time></trkpt><trkpt lat="42.11866147633659" lon="11.953278117234671"><ele>360.0</ele><time>2026-04-18T10:47:00.002Z</time></trkpt><trkpt lat="42.11859420343583" lon="11.953256888309593"><ele>360.0</ele><time>2026-04-18T10:47:01.002Z</time></trkpt><trkpt lat="42.118522895036044" lon="11.953271388415018"><ele>360.0</ele><time>2026-04-18T10:47:02.002Z</time></trkpt><trkpt lat="42.11846093610127" lon="11.953317646560146"><ele>360.0</ele><time>2026-04-18T10:47:03.002Z</time></trkpt><trkpt lat="42.118406214768505" lon="11.953363223500608"><ele>360.5</ele><time>2026-04-18T10:47:04.002Z</time></trkpt><trkpt lat="42.11834287002012" lon="11.953407413670439"><ele>361.0</ele><time>2026-04-18T10:47:05.002Z</time></trkpt><trkpt lat="42.118248511909435" lon="11.953507248903456"><ele>361.5</ele><time>2026-04-18T10:47:07.002Z</time></trkpt><trkpt lat="42.11820090433473" lon="11.953577396957058"><ele>362.0</ele><time>2026-04-18T10:47:08.002Z</time></trkpt><trkpt lat="42.11815901390721" lon="11.953672707798654"><ele>362.5</ele><time>2026-04-18T10:47:09.002Z</time></trkpt><trkpt lat="42.11815476848475" lon="11.953774296407245"><ele>363.0</ele><time>2026-04-18T10:47:10.002Z</time></trkpt><trkpt lat="42.11816943364174" lon="11.953876788304195"><ele>363.0</ele><time>2026-04-18T10:47:11.002Z</time></trkpt><trkpt lat="42.11816602793427" lon="11.953979580646033"><ele>363.0</ele><time>2026-04-18T10:47:12.002Z</time></trkpt><trkpt lat="42.11814255859629" lon="11.954062275330207"><ele>363.0</ele><time>2026-04-18T10:47:13.002Z</time></trkpt><trkpt lat="42.11813391387811" lon="11.954153164739592"><ele>363.0</ele><time>2026-04-18T10:47:14.002Z</time></trkpt><trkpt lat="42.11813770236911" lon="11.95428168309024"><ele>363.0</ele><time>2026-04-18T10:47:15.002Z</time></trkpt><trkpt lat="42.1181458911268" lon="11.954407352961779"><ele>363.0</ele><time>2026-04-18T10:47:16.002Z</time></trkpt><trkpt lat="42.118151908808535" lon="11.954535589578503"><ele>363.4</ele><time>2026-04-18T10:47:17.002Z</time></trkpt><trkpt lat="42.11816591961828" lon="11.954673687669004"><ele>363.79999999999995</ele><time>2026-04-18T10:47:18.002Z</time></trkpt><trkpt lat="42.118182568840886" lon="11.954799294172457"><ele>364.2</ele><time>2026-04-18T10:47:19.002Z</time></trkpt><trkpt lat="42.11820208188124" lon="11.954891573116146"><ele>364.6</ele><time>2026-04-18T10:47:20.002Z</time></trkpt><trkpt lat="42.11823437867709" lon="11.955032150845012"><ele>365.0</ele><time>2026-04-18T10:47:22.002Z</time></trkpt><trkpt lat="42.118276590840004" lon="11.955151155667028"><ele>364.14285714285717</ele><time>2026-04-18T10:47:24.002Z</time></trkpt><trkpt lat="42.11834679617015" lon="11.955215237523436"><ele>363.2857142857143</ele><time>2026-04-18T10:47:26.001Z</time></trkpt><trkpt lat="42.118427644855366" lon="11.95527112807805"><ele>362.42857142857144</ele><time>2026-04-18T10:47:28.001Z</time></trkpt><trkpt lat="42.11848020391764" lon="11.955327768618517"><ele>361.57142857142856</ele><time>2026-04-18T10:47:30.001Z</time></trkpt><trkpt lat="42.11853479081025" lon="11.955376250134943"><ele>360.7142857142857</ele><time>2026-04-18T10:47:34.001Z</time></trkpt><trkpt lat="42.11860012223163" lon="11.955409775711127"><ele>359.8571428571429</ele><time>2026-04-18T10:48:34.001Z</time></trkpt><trkpt lat="42.11864240336525" lon="11.955474415856004"><ele>359.0</ele><time>2026-04-18T10:49:42Z</time></trkpt><trkpt lat="42.118703736262134" lon="11.955514263813024"><ele>359.0</ele><time>2026-04-18T10:49:45Z</time></trkpt><trkpt lat="42.118780532618466" lon="11.955574097250246"><ele>359.0</ele><time>2026-04-18T10:49:48Z</time></trkpt><trkpt lat="42.1188574419248" lon="11.95561263757159"><ele>359.0</ele><time>2026-04-18T10:49:51Z</time></trkpt><trkpt lat="42.11893451784657" lon="11.955671943939134"><ele>359.0</ele><time>2026-04-18T10:49:54Z</time></trkpt><trkpt lat="42.11900020439776" lon="11.955747415291123"><ele>359.0</ele><time>2026-04-18T10:49:57Z</time></trkpt><trkpt lat="42.11907911100349" lon="11.955807593182794"><ele>359.0</ele><time>2026-04-18T10:50:00Z</time></trkpt><trkpt lat="42.11912956756005" lon="11.955884538164858"><ele>357.7142857142857</ele><time>2026-04-18T10:50:02Z</time></trkpt><trkpt lat="42.119187742097395" lon="11.955925344017842"><ele>356.42857142857144</ele><time>2026-04-18T10:50:04Z</time></trkpt><trkpt lat="42.1192491751484" lon="11.955976666357575"><ele>355.1428571428571</ele><time>2026-04-18T10:50:06Z</time></trkpt><trkpt lat="42.11931717095494" lon="11.956019454840714"><ele>353.8571428571429</ele><time>2026-04-18T10:50:08Z</time></trkpt><trkpt lat="42.11938172250071" lon="11.956061495650134"><ele>352.57142857142856</ele><time>2026-04-18T10:50:10Z</time></trkpt><trkpt lat="42.11944581620003" lon="11.95608394797933"><ele>351.2857142857143</ele><time>2026-04-18T10:50:12Z</time></trkpt><trkpt lat="42.11950974510715" lon="11.956112704272945"><ele>350.0</ele><time>2026-04-18T10:50:14Z</time></trkpt><trkpt lat="42.11957027248286" lon="11.956140053439675"><ele>350.0</ele><time>2026-04-18T10:50:16.001Z</time></trkpt><trkpt lat="42.11962951047537" lon="11.956226848830484"><ele>350.0</ele><time>2026-04-18T10:50:19.001Z</time></trkpt><trkpt lat="42.11970492572524" lon="11.9562654883636"><ele>350.0</ele><time>2026-04-18T10:50:21.001Z</time></trkpt><trkpt lat="42.11977144309199" lon="11.956318984956697"><ele>350.0</ele><time>2026-04-18T10:50:23.001Z</time></trkpt><trkpt lat="42.11984666287785" lon="11.956376836324429"><ele>350.0</ele><time>2026-04-18T10:50:25.001Z</time></trkpt><trkpt lat="42.11992997333363" lon="11.956424906282157"><ele>350.0</ele><time>2026-04-18T10:50:27.001Z</time></trkpt><trkpt lat="42.120018498563404" lon="11.956491683580271"><ele>347.6</ele><time>2026-04-18T10:50:29.001Z</time></trkpt><trkpt lat="42.120106600977266" lon="11.956553444835262"><ele>345.2</ele><time>2026-04-18T10:50:31.001Z</time></trkpt><trkpt lat="42.12019411283657" lon="11.956585586615837"><ele>342.79999999999995</ele><time>2026-04-18T10:50:33.001Z</time></trkpt><trkpt lat="42.12028637457565" lon="11.95662052700476"><ele>340.4</ele><time>2026-04-18T10:50:35.001Z</time></trkpt><trkpt lat="42.12037634084711" lon="11.956636599915326"><ele>338.0</ele><time>2026-04-18T10:50:37.001Z</time></trkpt><trkpt lat="42.12047599307188" lon="11.956655896817386"><ele>337.5</ele><time>2026-04-18T10:50:39.001Z</time></trkpt><trkpt lat="42.12055835374464" lon="11.956739348407192"><ele>337.0</ele><time>2026-04-18T10:50:41.001Z</time></trkpt><trkpt lat="42.12057940150509" lon="11.95682198662673"><ele>336.5</ele><time>2026-04-18T10:50:43.001Z</time></trkpt><trkpt lat="42.12056845379095" lon="11.95693242295947"><ele>336.0</ele><time>2026-04-18T10:50:45.001Z</time></trkpt><trkpt lat="42.12050945578186" lon="11.957018833476113"><ele>335.5</ele><time>2026-04-18T10:50:47.001Z</time></trkpt><trkpt lat="42.12047143167708" lon="11.957122072613783"><ele>335.0</ele><time>2026-04-18T10:50:49.001Z</time></trkpt><trkpt lat="42.12045830206931" lon="11.957207078738959"><ele>335.0</ele><time>2026-04-18T10:50:50.001Z</time></trkpt><trkpt lat="42.12045203252977" lon="11.957364329530508"><ele>335.0</ele><time>2026-04-18T10:50:52.001Z</time></trkpt><trkpt lat="42.12045289542404" lon="11.957449364947152"><ele>335.0</ele><time>2026-04-18T10:50:53.001Z</time></trkpt><trkpt lat="42.12044231207985" lon="11.95754145373902"><ele>335.0</ele><time>2026-04-18T10:50:54.001Z</time></trkpt><trkpt lat="42.12043058992815" lon="11.957646503228357"><ele>335.0</ele><time>2026-04-18T10:50:55.001Z</time></trkpt><trkpt lat="42.120420850365846" lon="11.95775649554987"><ele>335.0</ele><time>2026-04-18T10:50:56.001Z</time></trkpt><trkpt lat="42.12041348006104" lon="11.957872083870527"><ele>335.0</ele><time>2026-04-18T10:50:57.001Z</time></trkpt><trkpt lat="42.12040631169302" lon="11.957986846129007"><ele>335.0</ele><time>2026-04-18T10:50:58.001Z</time></trkpt><trkpt lat="42.12039641025471" lon="11.958109361741288"><ele>335.0</ele><time>2026-04-18T10:50:59.001Z</time></trkpt><trkpt lat="42.120385848548494" lon="11.958241039970762"><ele>335.0</ele><time>2026-04-18T10:51:00.001Z</time></trkpt><trkpt lat="42.12038108279755" lon="11.958378164206069"><ele>335.0</ele><time>2026-04-18T10:51:01.001Z</time></trkpt><trkpt lat="42.120390422289894" lon="11.958509020311084"><ele>336.2</ele><time>2026-04-18T10:51:02.001Z</time></trkpt><trkpt lat="42.12041664131047" lon="11.958625537610045"><ele>337.4</ele><time>2026-04-18T10:51:03.001Z</time></trkpt><trkpt lat="42.12045347869032" lon="11.958743619937524"><ele>338.6</ele><time>2026-04-18T10:51:04.001Z</time></trkpt><trkpt lat="42.12050799688247" lon="11.958853108646988"><ele>339.8</ele><time>2026-04-18T10:51:05.001Z</time></trkpt><trkpt lat="42.12056051480818" lon="11.958946805286683"><ele>341.0</ele><time>2026-04-18T10:51:06.001Z</time></trkpt><trkpt lat="42.12060380593141" lon="11.959037066991984"><ele>341.0</ele><time>2026-04-18T10:51:07.001Z</time></trkpt><trkpt lat="42.12064374682847" lon="11.959132601232046"><ele>341.0</ele><time>2026-04-18T10:51:08.001Z</time></trkpt><trkpt lat="42.120677254253" lon="11.959236545537234"><ele>341.0</ele><time>2026-04-18T10:51:09.001Z</time></trkpt><trkpt lat="42.12068960872933" lon="11.959355589503943"><ele>341.0</ele><time>2026-04-18T10:51:10.001Z</time></trkpt><trkpt lat="42.120658929965245" lon="11.959488342122631"><ele>341.0</ele><time>2026-04-18T10:51:11.001Z</time></trkpt><trkpt lat="42.120629955813065" lon="11.959609514649232"><ele>341.4</ele><time>2026-04-18T10:51:12.001Z</time></trkpt><trkpt lat="42.12058234380324" lon="11.959727244844428"><ele>341.8</ele><time>2026-04-18T10:51:13.001Z</time></trkpt><trkpt lat="42.120534463135684" lon="11.959842471716959"><ele>342.2</ele><time>2026-04-18T10:51:14.001Z</time></trkpt><trkpt lat="42.12049422240014" lon="11.959953658423874"><ele>342.59999999999997</ele><time>2026-04-18T10:51:15.001Z</time></trkpt><trkpt lat="42.12045935027114" lon="11.960069541011253"><ele>343.0</ele><time>2026-04-18T10:51:16.001Z</time></trkpt><trkpt lat="42.12045901195747" lon="11.96019746506573"><ele>341.2</ele><time>2026-04-18T10:51:17.001Z</time></trkpt><trkpt lat="42.12049096155773" lon="11.960326563830597"><ele>339.4</ele><time>2026-04-18T10:51:18.001Z</time></trkpt><trkpt lat="42.12053163525716" lon="11.960449371366746"><ele>337.59999999999997</ele><time>2026-04-18T10:51:19.001Z</time></trkpt><trkpt lat="42.12057292062362" lon="11.960572458434712"><ele>335.79999999999995</ele><time>2026-04-18T10:51:20.001Z</time></trkpt><trkpt lat="42.12059571225565" lon="11.960689123226441"><ele>334.0</ele><time>2026-04-18T10:51:21.001Z</time></trkpt><trkpt lat="42.12058617664213" lon="11.960809538386357"><ele>332.6</ele><time>2026-04-18T10:51:22.001Z</time></trkpt><trkpt lat="42.12055679284173" lon="11.960930531720859"><ele>331.2</ele><time>2026-04-18T10:51:23.001Z</time></trkpt><trkpt lat="42.12049206856178" lon="11.961026118486108"><ele>329.8</ele><time>2026-04-18T10:51:24.001Z</time></trkpt><trkpt lat="42.12040761712202" lon="11.961084523437698"><ele>328.40000000000003</ele><time>2026-04-18T10:51:25.001Z</time></trkpt><trkpt lat="42.12031651157186" lon="11.961120551705505"><ele>327.0</ele><time>2026-04-18T10:51:26.001Z</time></trkpt><trkpt lat="42.12023148693691" lon="11.961154813923503"><ele>327.0</ele><time>2026-04-18T10:51:27.001Z</time></trkpt><trkpt lat="42.12015127672825" lon="11.96118284847037"><ele>327.0</ele><time>2026-04-18T10:51:28.001Z</time></trkpt><trkpt lat="42.120074466764876" lon="11.961226601675795"><ele>327.0</ele><time>2026-04-18T10:51:29.001Z</time></trkpt><trkpt lat="42.12000113218313" lon="11.961332247647112"><ele>327.0</ele><time>2026-04-18T10:51:30.001Z</time></trkpt><trkpt lat="42.11994363218305" lon="11.961425126630745"><ele>327.0</ele><time>2026-04-18T10:51:31.001Z</time></trkpt><trkpt lat="42.11992477082163" lon="11.961549562702954"><ele>327.0</ele><time>2026-04-18T10:51:32.001Z</time></trkpt><trkpt lat="42.11994942030268" lon="11.961691158497457"><ele>327.0</ele><time>2026-04-18T10:51:33.001Z</time></trkpt><trkpt lat="42.119990508688836" lon="11.961830671499154"><ele>327.0</ele><time>2026-04-18T10:51:34.001Z</time></trkpt><trkpt lat="42.1200358965269" lon="11.961971368527196"><ele>327.0</ele><time>2026-04-18T10:51:35.001Z</time></trkpt><trkpt lat="42.12007257836507" lon="11.962117059238361"><ele>327.0</ele><time>2026-04-18T10:51:36.001Z</time></trkpt><trkpt lat="42.12006609345649" lon="11.96225410335319"><ele>326.40000000000003</ele><time>2026-04-18T10:51:37.001Z</time></trkpt><trkpt lat="42.119993933390866" lon="11.96235326727501"><ele>325.8</ele><time>2026-04-18T10:51:38Z</time></trkpt><trkpt lat="42.11992223503955" lon="11.962430526059244"><ele>325.2</ele><time>2026-04-18T10:51:39Z</time></trkpt><trkpt lat="42.11983958719592" lon="11.962492666625236"><ele>324.6</ele><time>2026-04-18T10:51:40Z</time></trkpt><trkpt lat="42.11974855460163" lon="11.962566615262912"><ele>324.0</ele><time>2026-04-18T10:51:41Z</time></trkpt><trkpt lat="42.11965760478205" lon="11.96265541931323"><ele>328.25</ele><time>2026-04-18T10:51:42Z</time></trkpt><trkpt lat="42.11958686921412" lon="11.96278011888781"><ele>332.5</ele><time>2026-04-18T10:51:43Z</time></trkpt><trkpt lat="42.11953280117797" lon="11.96291781254858"><ele>336.75</ele><time>2026-04-18T10:51:44Z</time></trkpt><trkpt lat="42.11948890833858" lon="11.96307684379396"><ele>341.0</ele><time>2026-04-18T10:51:45Z</time></trkpt><trkpt lat="42.11946539085717" lon="11.963273229520258"><ele>343.33333333333337</ele><time>2026-04-18T10:51:46Z</time></trkpt><trkpt lat="42.11948653335075" lon="11.963481141755059"><ele>345.6666666666667</ele><time>2026-04-18T10:51:47Z</time></trkpt><trkpt lat="42.11953562376387" lon="11.963669052287052"><ele>348.0</ele><time>2026-04-18T10:51:48Z</time></trkpt><trkpt lat="42.119601369922655" lon="11.963858295979374"><ele>348.0</ele><time>2026-04-18T10:51:49Z</time></trkpt><trkpt lat="42.11966196106308" lon="11.964049571811984"><ele>348.0</ele><time>2026-04-18T10:51:50Z</time></trkpt><trkpt lat="42.119716498940136" lon="11.964235987019382"><ele>348.0</ele><time>2026-04-18T10:51:51Z</time></trkpt><trkpt lat="42.11977546905253" lon="11.964419004662096"><ele>346.75</ele><time>2026-04-18T10:51:52Z</time></trkpt><trkpt lat="42.11984025372231" lon="11.96458466615871"><ele>345.5</ele><time>2026-04-18T10:51:53Z</time></trkpt><trkpt lat="42.11992451716728" lon="11.964736618289445"><ele>344.25</ele><time>2026-04-18T10:51:54Z</time></trkpt><trkpt lat="42.120015476393235" lon="11.96488042673522"><ele>343.0</ele><time>2026-04-18T10:51:55Z</time></trkpt><trkpt lat="42.12010052953066" lon="11.965015877709432"><ele>346.0</ele><time>2026-04-18T10:51:56Z</time></trkpt><trkpt lat="42.12016136677334" lon="11.965149706183482"><ele>349.0</ele><time>2026-04-18T10:51:57Z</time></trkpt><trkpt lat="42.12017623026234" lon="11.965309051679675"><ele>352.0</ele><time>2026-04-18T10:51:58Z</time></trkpt><trkpt lat="42.12016515672319" lon="11.965457718585299"><ele>355.0</ele><time>2026-04-18T10:51:59Z</time></trkpt><trkpt lat="42.120143070948686" lon="11.965609815274185"><ele>355.0</ele><time>2026-04-18T10:52:00Z</time></trkpt><trkpt lat="42.12013678430706" lon="11.96576902803166"><ele>355.0</ele><time>2026-04-18T10:52:01Z</time></trkpt><trkpt lat="42.12016766026578" lon="11.965911990423615"><ele>355.0</ele><time>2026-04-18T10:52:02Z</time></trkpt><trkpt lat="42.120231357382835" lon="11.966042427971216"><ele>355.0</ele><time>2026-04-18T10:52:03Z</time></trkpt><trkpt lat="42.12032255841202" lon="11.966162424249248"><ele>358.0</ele><time>2026-04-18T10:52:04Z</time></trkpt><trkpt lat="42.12042641109931" lon="11.9662967131588"><ele>361.0</ele><time>2026-04-18T10:52:05Z</time></trkpt><trkpt lat="42.120506900378665" lon="11.966456359888616"><ele>364.0</ele><time>2026-04-18T10:52:06Z</time></trkpt><trkpt lat="42.120583045045805" lon="11.966623984999954"><ele>367.0</ele><time>2026-04-18T10:52:07Z</time></trkpt><trkpt lat="42.120665354306965" lon="11.966787250724002"><ele>362.25</ele><time>2026-04-18T10:52:08Z</time></trkpt><trkpt lat="42.120739672781575" lon="11.966951568319073"><ele>357.5</ele><time>2026-04-18T10:52:09Z</time></trkpt><trkpt lat="42.12079321342849" lon="11.96711857437857"><ele>352.75</ele><time>2026-04-18T10:52:10Z</time></trkpt><trkpt lat="42.12078805552077" lon="11.967291360364491"><ele>348.0</ele><time>2026-04-18T10:52:11Z</time></trkpt><trkpt lat="42.12080040649914" lon="11.967464781389618"><ele>347.5</ele><time>2026-04-18T10:52:12Z</time></trkpt><trkpt lat="42.12078498429224" lon="11.967643030532122"><ele>347.0</ele><time>2026-04-18T10:52:13Z</time></trkpt><trkpt lat="42.1207974962299" lon="11.96783367161996"><ele>346.5</ele><time>2026-04-18T10:52:14Z</time></trkpt><trkpt lat="42.12079988165449" lon="11.968017153612829"><ele>346.0</ele><time>2026-04-18T10:52:15Z</time></trkpt><trkpt lat="42.120812454791626" lon="11.968182439008329"><ele>346.0</ele><time>2026-04-18T10:52:16Z</time></trkpt><trkpt lat="42.12079956944376" lon="11.968341347213316"><ele>346.0</ele><time>2026-04-18T10:52:17Z</time></trkpt><trkpt lat="42.120742101601074" lon="11.968496844441498"><ele>346.0</ele><time>2026-04-18T10:52:18Z</time></trkpt><trkpt lat="42.12062316272358" lon="11.968618601475736"><ele>346.0</ele><time>2026-04-18T10:52:19Z</time></trkpt><trkpt lat="42.120500461358795" lon="11.968764758095336"><ele>347.3333333333333</ele><time>2026-04-18T10:52:20Z</time></trkpt><trkpt lat="42.120372188452905" lon="11.968921067132527"><ele>348.6666666666667</ele><time>2026-04-18T10:52:21Z</time></trkpt><trkpt lat="42.12023229277058" lon="11.969061567545085"><ele>350.0</ele><time>2026-04-18T10:52:22Z</time></trkpt><trkpt lat="42.120095999245564" lon="11.969199825638475"><ele>349.5</ele><time>2026-04-18T10:52:23Z</time></trkpt><trkpt lat="42.11995910324634" lon="11.969329933985998"><ele>349.0</ele><time>2026-04-18T10:52:24Z</time></trkpt><trkpt lat="42.11984923356277" lon="11.96944719008204"><ele>348.5</ele><time>2026-04-18T10:52:25Z</time></trkpt><trkpt lat="42.11974944764896" lon="11.9695750222047"><ele>348.0</ele><time>2026-04-18T10:52:26Z</time></trkpt><trkpt lat="42.11965969820595" lon="11.969706345037618"><ele>348.0</ele><time>2026-04-18T10:52:27Z</time></trkpt><trkpt lat="42.11957855366702" lon="11.9698416884312"><ele>348.0</ele><time>2026-04-18T10:52:28Z</time></trkpt><trkpt lat="42.1195006991027" lon="11.969993707812813"><ele>348.0</ele><time>2026-04-18T10:52:29Z</time></trkpt><trkpt lat="42.1194261108936" lon="11.970151852628263"><ele>348.0</ele><time>2026-04-18T10:52:30Z</time></trkpt><trkpt lat="42.11937091015783" lon="11.97033528625026"><ele>346.0</ele><time>2026-04-18T10:52:31Z</time></trkpt><trkpt lat="42.119303528247535" lon="11.970506094891618"><ele>344.0</ele><time>2026-04-18T10:52:32Z</time></trkpt><trkpt lat="42.11922617257172" lon="11.970680928118007"><ele>342.0</ele><time>2026-04-18T10:52:33Z</time></trkpt><trkpt lat="42.11914655886713" lon="11.970825934903765"><ele>340.0</ele><time>2026-04-18T10:52:34Z</time></trkpt><trkpt lat="42.11905970440896" lon="11.970955090438169"><ele>339.75</ele><time>2026-04-18T10:52:35Z</time></trkpt><trkpt lat="42.11895036775526" lon="11.971070912332634"><ele>339.5</ele><time>2026-04-18T10:52:36Z</time></trkpt><trkpt lat="42.11882987549436" lon="11.971158157167823"><ele>339.25</ele><time>2026-04-18T10:52:37Z</time></trkpt><trkpt lat="42.11869931757189" lon="11.971227489172334"><ele>339.0</ele><time>2026-04-18T10:52:38Z</time></trkpt><trkpt lat="42.11856411824286" lon="11.971281607233514"><ele>339.0</ele><time>2026-04-18T10:52:39Z</time></trkpt><trkpt lat="42.11841738884146" lon="11.971329116114315"><ele>339.0</ele><time>2026-04-18T10:52:40Z</time></trkpt><trkpt lat="42.11827083054148" lon="11.971365593537643"><ele>339.0</ele><time>2026-04-18T10:52:41Z</time></trkpt><trkpt lat="42.118131127889754" lon="11.971412599502825"><ele>339.0</ele><time>2026-04-18T10:52:42Z</time></trkpt><trkpt lat="42.11800772282089" lon="11.971480859722138"><ele>339.25</ele><time>2026-04-18T10:52:43Z</time></trkpt><trkpt lat="42.11789733050639" lon="11.97158420758544"><ele>339.5</ele><time>2026-04-18T10:52:44Z</time></trkpt><trkpt lat="42.117818638173134" lon="11.971708982663595"><ele>339.75</ele><time>2026-04-18T10:52:45Z</time></trkpt><trkpt lat="42.117711508183284" lon="11.971824871127927"><ele>340.0</ele><time>2026-04-18T10:52:46Z</time></trkpt><trkpt lat="42.11760082568346" lon="11.97192096211621"><ele>340.0</ele><time>2026-04-18T10:52:47.001Z</time></trkpt><trkpt lat="42.11749492695441" lon="11.972002859616058"><ele>340.0</ele><time>2026-04-18T10:52:48.001Z</time></trkpt><trkpt lat="42.11739206624999" lon="11.972090165401092"><ele>340.0</ele><time>2026-04-18T10:52:49.001Z</time></trkpt><trkpt lat="42.11728491111976" lon="11.97218491576959"><ele>340.0</ele><time>2026-04-18T10:52:50.001Z</time></trkpt><trkpt lat="42.117172702312786" lon="11.97228279154938"><ele>340.0</ele><time>2026-04-18T10:52:51.001Z</time></trkpt><trkpt lat="42.117055796227426" lon="11.972390890002567"><ele>340.0</ele><time>2026-04-18T10:52:52.001Z</time></trkpt><trkpt lat="42.11692634123706" lon="11.972502389496068"><ele>340.0</ele><time>2026-04-18T10:52:53.001Z</time></trkpt><trkpt lat="42.11679015733706" lon="11.972616504695123"><ele>340.0</ele><time>2026-04-18T10:52:54.001Z</time></trkpt><trkpt lat="42.11665154303127" lon="11.972746335179234"><ele>340.0</ele><time>2026-04-18T10:52:55.001Z</time></trkpt><trkpt lat="42.11650878484616" lon="11.972880080066345"><ele>340.0</ele><time>2026-04-18T10:52:56.001Z</time></trkpt><trkpt lat="42.1163763745449" lon="11.973024376036784"><ele>342.3333333333333</ele><time>2026-04-18T10:52:57.001Z</time></trkpt><trkpt lat="42.11628119667113" lon="11.97319743493711"><ele>344.6666666666667</ele><time>2026-04-18T10:52:58.001Z</time></trkpt><trkpt lat="42.11620733319744" lon="11.973403657133339"><ele>347.0</ele><time>2026-04-18T10:52:59.001Z</time></trkpt><trkpt lat="42.116142120634215" lon="11.973612731558317"><ele>347.0</ele><time>2026-04-18T10:53:00.001Z</time></trkpt><trkpt lat="42.11607308962184" lon="11.973779628178502"><ele>347.0</ele><time>2026-04-18T10:53:01.001Z</time></trkpt><trkpt lat="42.11599745192776" lon="11.973914085653751"><ele>347.0</ele><time>2026-04-18T10:53:02.001Z</time></trkpt><trkpt lat="42.1159120757441" lon="11.974034816745244"><ele>347.0</ele><time>2026-04-18T10:53:03.001Z</time></trkpt><trkpt lat="42.11585666462436" lon="11.974112581720728"><ele>347.2857142857143</ele><time>2026-04-18T10:53:04.001Z</time></trkpt><trkpt lat="42.11591326695269" lon="11.974211348755391"><ele>347.57142857142856</ele><time>2026-04-18T10:53:10.001Z</time></trkpt><trkpt lat="42.11596648403222" lon="11.974257872043523"><ele>347.85714285714283</ele><time>2026-04-18T10:53:12.001Z</time></trkpt><trkpt lat="42.11593572796987" lon="11.974338412989795"><ele>348.1428571428571</ele><time>2026-04-18T10:53:15.001Z</time></trkpt><trkpt lat="42.11588607158757" lon="11.974417773346895"><ele>348.42857142857144</ele><time>2026-04-18T10:53:19.001Z</time></trkpt><trkpt lat="42.11582437761277" lon="11.974462611153763"><ele>348.71428571428567</ele><time>2026-04-18T10:53:23.001Z</time></trkpt><trkpt lat="42.11577833569385" lon="11.97452812368965"><ele>349.0</ele><time>2026-04-18T10:53:25.001Z</time></trkpt><trkpt lat="42.1157005285525" lon="11.974586534782363"><ele>349.0</ele><time>2026-04-18T10:53:27.001Z</time></trkpt><trkpt lat="42.115676084448864" lon="11.974502620700873"><ele>349.0</ele><time>2026-04-18T10:53:30.001Z</time></trkpt></trkseg><trkseg><trkpt lat="42.116039040256425" lon="11.974279166133956"><ele>343.0</ele><time>2026-04-18T12:17:31Z</time></trkpt><trkpt lat="42.11598411059749" lon="11.974323032843566"><ele>343.0</ele><time>2026-04-18T12:17:32Z</time></trkpt><trkpt lat="42.11589989628985" lon="11.974375640294301"><ele>343.0</ele><time>2026-04-18T12:17:35Z</time></trkpt><trkpt lat="42.11583632084606" lon="11.974428766600408"><ele>343.0</ele><time>2026-04-18T12:17:37Z</time></trkpt><trkpt lat="42.11575777442157" lon="11.97447117460736"><ele>343.0</ele><time>2026-04-18T12:17:40Z</time></trkpt><trkpt lat="42.11584908307207" lon="11.97449977263138"><ele>343.0</ele><time>2026-04-18T12:18:36.998Z</time></trkpt><trkpt lat="42.11590407185998" lon="11.97441013607559"><ele>343.0</ele><time>2026-04-18T12:18:37.999Z</time></trkpt><trkpt lat="42.115950325644704" lon="11.974291836983694"><ele>343.0</ele><time>2026-04-18T12:18:39.999Z</time></trkpt><trkpt lat="42.11593372256311" lon="11.974197324329669"><ele>343.0</ele><time>2026-04-18T12:18:43.999Z</time></trkpt><trkpt lat="42.11585494449858" lon="11.974132446652648"><ele>343.0</ele><time>2026-04-18T12:18:46.999Z</time></trkpt><trkpt lat="42.115882213935926" lon="11.974014436657644"><ele>343.0</ele><time>2026-04-18T12:18:53.999Z</time></trkpt><trkpt lat="42.11594060037922" lon="11.973970092035799"><ele>343.0</ele><time>2026-04-18T12:19:24Z</time></trkpt><trkpt lat="42.11598906158006" lon="11.973892184394204"><ele>343.66666666666663</ele><time>2026-04-18T12:19:25Z</time></trkpt><trkpt lat="42.11602767220544" lon="11.973820198480018"><ele>344.3333333333333</ele><time>2026-04-18T12:19:26Z</time></trkpt><trkpt lat="42.11609335948168" lon="11.973759245396998"><ele>345.0</ele><time>2026-04-18T12:19:27Z</time></trkpt><trkpt lat="42.116138386610466" lon="11.97366061939586"><ele>345.6666666666667</ele><time>2026-04-18T12:19:28Z</time></trkpt><trkpt lat="42.116177464873665" lon="11.973562076630888"><ele>346.33333333333337</ele><time>2026-04-18T12:19:29Z</time></trkpt><trkpt lat="42.116219692252386" lon="11.973450551526161"><ele>347.0</ele><time>2026-04-18T12:19:30Z</time></trkpt><trkpt lat="42.116258994512805" lon="11.973346210899866"><ele>348.0</ele><time>2026-04-18T12:19:31Z</time></trkpt><trkpt lat="42.11629125028228" lon="11.973227985056146"><ele>349.0</ele><time>2026-04-18T12:19:32Z</time></trkpt><trkpt lat="42.116341272814935" lon="11.97313126636334"><ele>350.0</ele><time>2026-04-18T12:19:33Z</time></trkpt><trkpt lat="42.11640375580673" lon="11.97303314118909"><ele>351.0</ele><time>2026-04-18T12:19:34Z</time></trkpt><trkpt lat="42.11647617942364" lon="11.972931131678324"><ele>352.0</ele><time>2026-04-18T12:19:35Z</time></trkpt><trkpt lat="42.116560498289786" lon="11.972846450597201"><ele>351.8</ele><time>2026-04-18T12:19:36Z</time></trkpt><trkpt lat="42.11665477079845" lon="11.972765874451914"><ele>351.6</ele><time>2026-04-18T12:19:37Z</time></trkpt><trkpt lat="42.11674632073835" lon="11.97268679629154"><ele>351.40000000000003</ele><time>2026-04-18T12:19:38Z</time></trkpt><trkpt lat="42.11684189203477" lon="11.972602465366649"><ele>351.20000000000005</ele><time>2026-04-18T12:19:39Z</time></trkpt><trkpt lat="42.116938477163686" lon="11.972521696104076"><ele>351.0</ele><time>2026-04-18T12:19:40Z</time></trkpt><trkpt lat="42.11703036811933" lon="11.972441355362081"><ele>351.0</ele><time>2026-04-18T12:19:41Z</time></trkpt><trkpt lat="42.11711735832322" lon="11.972360497213076"><ele>351.0</ele><time>2026-04-18T12:19:42Z</time></trkpt><trkpt lat="42.1172173006266" lon="11.97227975669745"><ele>351.0</ele><time>2026-04-18T12:19:43Z</time></trkpt><trkpt lat="42.11731424381962" lon="11.972196332137125"><ele>351.0</ele><time>2026-04-18T12:19:44Z</time></trkpt><trkpt lat="42.117408474109915" lon="11.972114062705485"><ele>351.0</ele><time>2026-04-18T12:19:45Z</time></trkpt><trkpt lat="42.11750331389851" lon="11.972025074843712"><ele>351.75</ele><time>2026-04-18T12:19:46Z</time></trkpt><trkpt lat="42.117597018035916" lon="11.971936232032357"><ele>352.5</ele><time>2026-04-18T12:19:47Z</time></trkpt><trkpt lat="42.11769388556221" lon="11.97184238480713"><ele>353.25</ele><time>2026-04-18T12:19:48Z</time></trkpt><trkpt lat="42.11778855685709" lon="11.971747134578914"><ele>354.0</ele><time>2026-04-18T12:19:49Z</time></trkpt><trkpt lat="42.11788604889453" lon="11.971656527440953"><ele>354.0</ele><time>2026-04-18T12:19:50Z</time></trkpt><trkpt lat="42.11798623483145" lon="11.971570505121315"><ele>354.0</ele><time>2026-04-18T12:19:51Z</time></trkpt><trkpt lat="42.11808045438951" lon="11.971494357238893"><ele>354.0</ele><time>2026-04-18T12:19:52Z</time></trkpt><trkpt lat="42.11817837589081" lon="11.971433740543745"><ele>354.0</ele><time>2026-04-18T12:19:53Z</time></trkpt><trkpt lat="42.118282924349195" lon="11.971406761897546"><ele>354.0</ele><time>2026-04-18T12:19:54Z</time></trkpt><trkpt lat="42.11838436987161" lon="11.971388296582425"><ele>351.0</ele><time>2026-04-18T12:19:55Z</time></trkpt><trkpt lat="42.118475908589865" lon="11.971374403313119"><ele>348.0</ele><time>2026-04-18T12:19:56Z</time></trkpt><trkpt lat="42.11857085819284" lon="11.971352056598931"><ele>345.0</ele><time>2026-04-18T12:19:57Z</time></trkpt><trkpt lat="42.11867677916011" lon="11.971305454012063"><ele>342.0</ele><time>2026-04-18T12:19:58Z</time></trkpt><trkpt lat="42.11878414590425" lon="11.97124094285215"><ele>339.0</ele><time>2026-04-18T12:19:59Z</time></trkpt><trkpt lat="42.11889558191562" lon="11.97116671400238"><ele>339.0</ele><time>2026-04-18T12:20:00Z</time></trkpt><trkpt lat="42.11900571938663" lon="11.971076195055144"><ele>339.0</ele><time>2026-04-18T12:20:01Z</time></trkpt><trkpt lat="42.11911206261945" lon="11.97095046090794"><ele>339.0</ele><time>2026-04-18T12:20:02Z</time></trkpt><trkpt lat="42.119213631947545" lon="11.970771214274691"><ele>339.0</ele><time>2026-04-18T12:20:03Z</time></trkpt><trkpt lat="42.1193127328884" lon="11.970530044969824"><ele>339.5</ele><time>2026-04-18T12:20:04Z</time></trkpt><trkpt lat="42.11942833685181" lon="11.970268160660678"><ele>340.0</ele><time>2026-04-18T12:20:05Z</time></trkpt><trkpt lat="42.119543768332754" lon="11.96998750705076"><ele>344.0</ele><time>2026-04-18T12:20:06Z</time></trkpt><trkpt lat="42.1196930612388" lon="11.969714855960081"><ele>348.0</ele><time>2026-04-18T12:20:07Z</time></trkpt><trkpt lat="42.119851490147376" lon="11.969498819803128"><ele>348.6666666666667</ele><time>2026-04-18T12:20:08Z</time></trkpt><trkpt lat="42.12002987868701" lon="11.969304709474413"><ele>349.33333333333337</ele><time>2026-04-18T12:20:09Z</time></trkpt><trkpt lat="42.12018549594581" lon="11.969147459765948"><ele>350.0</ele><time>2026-04-18T12:20:10Z</time></trkpt><trkpt lat="42.1202864334372" lon="11.969046849828691"><ele>350.0</ele><time>2026-04-18T12:20:11Z</time></trkpt><trkpt lat="42.120384277192386" lon="11.968922354003325"><ele>350.0</ele><time>2026-04-18T12:20:12Z</time></trkpt><trkpt lat="42.120479483288385" lon="11.968836454778074"><ele>350.0</ele><time>2026-04-18T12:20:13Z</time></trkpt><trkpt lat="42.12054549223708" lon="11.968764555851413"><ele>350.0</ele><time>2026-04-18T12:20:14Z</time></trkpt><trkpt lat="42.12059722331508" lon="11.968712598334818"><ele>350.0</ele><time>2026-04-18T12:20:15Z</time></trkpt><trkpt lat="42.12066785068054" lon="11.968619316031406"><ele>350.0</ele><time>2026-04-18T12:20:17Z</time></trkpt><trkpt lat="42.12071865820835" lon="11.968563507919573"><ele>350.0</ele><time>2026-04-18T12:20:19Z</time></trkpt><trkpt lat="42.12076398553131" lon="11.968485173631423"><ele>350.0</ele><time>2026-04-18T12:20:22Z</time></trkpt><trkpt lat="42.120807577305094" lon="11.968372410413055"><ele>350.0</ele><time>2026-04-18T12:20:26Z</time></trkpt><trkpt lat="42.12082940938613" lon="11.968239733668838"><ele>350.0</ele><time>2026-04-18T12:20:29Z</time></trkpt><trkpt lat="42.120829524298905" lon="11.968131835204122"><ele>350.0</ele><time>2026-04-18T12:20:41.998Z</time></trkpt><trkpt lat="42.12083858230949" lon="11.968035676730725"><ele>349.6</ele><time>2026-04-18T12:20:42.998Z</time></trkpt><trkpt lat="42.12083433787859" lon="11.967915925167567"><ele>349.2</ele><time>2026-04-18T12:20:43.998Z</time></trkpt><trkpt lat="42.120825777016385" lon="11.967795141899082"><ele>348.79999999999995</ele><time>2026-04-18T12:20:44.998Z</time></trkpt><trkpt lat="42.120832285053496" lon="11.967667095874914"><ele>348.4</ele><time>2026-04-18T12:20:45.998Z</time></trkpt><trkpt lat="42.12083582819954" lon="11.967532359920426"><ele>348.0</ele><time>2026-04-18T12:20:46.998Z</time></trkpt><trkpt lat="42.12084176612869" lon="11.967384649464218"><ele>348.0</ele><time>2026-04-18T12:20:47.998Z</time></trkpt><trkpt lat="42.120825369962354" lon="11.967237689570158"><ele>348.0</ele><time>2026-04-18T12:20:48.998Z</time></trkpt><trkpt lat="42.12080449687611" lon="11.967085002365872"><ele>348.0</ele><time>2026-04-18T12:20:49.998Z</time></trkpt><trkpt lat="42.12077313839801" lon="11.966950462639415"><ele>348.0</ele><time>2026-04-18T12:20:50.998Z</time></trkpt><trkpt lat="42.12073463413368" lon="11.966821423046502"><ele>348.0</ele><time>2026-04-18T12:20:51.998Z</time></trkpt><trkpt lat="42.12067274964368" lon="11.966692203117137"><ele>352.75</ele><time>2026-04-18T12:20:52.999Z</time></trkpt><trkpt lat="42.12058912382809" lon="11.966570677867024"><ele>357.5</ele><time>2026-04-18T12:20:53.999Z</time></trkpt><trkpt lat="42.12051353557537" lon="11.966445726110814"><ele>362.25</ele><time>2026-04-18T12:20:54.999Z</time></trkpt><trkpt lat="42.12045285700202" lon="11.966313804590014"><ele>367.0</ele><time>2026-04-18T12:20:55.999Z</time></trkpt><trkpt lat="42.120378032550846" lon="11.966185933755803"><ele>367.0</ele><time>2026-04-18T12:20:56.999Z</time></trkpt><trkpt lat="42.12029990878292" lon="11.966052286313756"><ele>367.0</ele><time>2026-04-18T12:20:57.999Z</time></trkpt><trkpt lat="42.12022932480543" lon="11.965914931976737"><ele>367.0</ele><time>2026-04-18T12:20:58.999Z</time></trkpt><trkpt lat="42.12017265925599" lon="11.96578181738562"><ele>367.0</ele><time>2026-04-18T12:20:59.999Z</time></trkpt><trkpt lat="42.12016351494505" lon="11.965653464345715"><ele>364.0</ele><time>2026-04-18T12:21:00.999Z</time></trkpt><trkpt lat="42.120181627093196" lon="11.965514060958274"><ele>361.0</ele><time>2026-04-18T12:21:01.999Z</time></trkpt><trkpt lat="42.12021584549999" lon="11.965355264193734"><ele>358.0</ele><time>2026-04-18T12:21:02.999Z</time></trkpt><trkpt lat="42.120206329210575" lon="11.965193274369748"><ele>355.0</ele><time>2026-04-18T12:21:03.999Z</time></trkpt><trkpt lat="42.120152669032755" lon="11.965023375373072"><ele>358.3333333333333</ele><time>2026-04-18T12:21:04.999Z</time></trkpt><trkpt lat="42.120052655548264" lon="11.964836242921265"><ele>361.6666666666667</ele><time>2026-04-18T12:21:05.999Z</time></trkpt><trkpt lat="42.11992357856117" lon="11.964624824223014"><ele>365.0</ele><time>2026-04-18T12:21:06.999Z</time></trkpt><trkpt lat="42.11982226174855" lon="11.96441506887964"><ele>359.33333333333337</ele><time>2026-04-18T12:21:07.999Z</time></trkpt><trkpt lat="42.11974932763704" lon="11.964169998033947"><ele>353.6666666666667</ele><time>2026-04-18T12:21:08.999Z</time></trkpt><trkpt lat="42.11968021313166" lon="11.963946636609574"><ele>348.0</ele><time>2026-04-18T12:21:09.999Z</time></trkpt><trkpt lat="42.11960901579932" lon="11.963737345669607"><ele>348.0</ele><time>2026-04-18T12:21:10.999Z</time></trkpt><trkpt lat="42.11954876256165" lon="11.963537033890614"><ele>348.0</ele><time>2026-04-18T12:21:11.999Z</time></trkpt><trkpt lat="42.11951286097085" lon="11.963309862310382"><ele>348.0</ele><time>2026-04-18T12:21:12.999Z</time></trkpt><trkpt lat="42.11952344846717" lon="11.963087119818082"><ele>346.25</ele><time>2026-04-18T12:21:13.999Z</time></trkpt><trkpt lat="42.11956217462248" lon="11.962903964740992"><ele>344.5</ele><time>2026-04-18T12:21:14.999Z</time></trkpt><trkpt lat="42.119637152141166" lon="11.962752115232725"><ele>342.75</ele><time>2026-04-18T12:21:15.999Z</time></trkpt><trkpt lat="42.119719624406656" lon="11.962609571351571"><ele>341.0</ele><time>2026-04-18T12:21:16.999Z</time></trkpt><trkpt lat="42.119854675848266" lon="11.962521882476508"><ele>336.75</ele><time>2026-04-18T12:21:17.999Z</time></trkpt><trkpt lat="42.11999334893104" lon="11.962437212955972"><ele>332.5</ele><time>2026-04-18T12:21:18.999Z</time></trkpt><trkpt lat="42.12007988040943" lon="11.962326790266573"><ele>328.25</ele><time>2026-04-18T12:21:19.999Z</time></trkpt><trkpt lat="42.120116428616804" lon="11.96217998058565"><ele>324.0</ele><time>2026-04-18T12:21:21Z</time></trkpt><trkpt lat="42.120113318153905" lon="11.962014839846262"><ele>324.0</ele><time>2026-04-18T12:21:22Z</time></trkpt><trkpt lat="42.12006942945859" lon="11.961850009407408"><ele>324.0</ele><time>2026-04-18T12:21:23Z</time></trkpt><trkpt lat="42.12000579108826" lon="11.961707771616485"><ele>324.0</ele><time>2026-04-18T12:21:24Z</time></trkpt><trkpt lat="42.119985764662026" lon="11.96157209148044"><ele>324.0</ele><time>2026-04-18T12:21:25Z</time></trkpt><trkpt lat="42.120002113990296" lon="11.961433571888541"><ele>324.6</ele><time>2026-04-18T12:21:26Z</time></trkpt><trkpt lat="42.12004033216951" lon="11.961326606390065"><ele>325.2</ele><time>2026-04-18T12:21:27Z</time></trkpt><trkpt lat="42.12011168502955" lon="11.961262528553776"><ele>325.8</ele><time>2026-04-18T12:21:28Z</time></trkpt><trkpt lat="42.12021010469064" lon="11.961230420537175"><ele>326.40000000000003</ele><time>2026-04-18T12:21:29Z</time></trkpt><trkpt lat="42.12032640735689" lon="11.961184001822742"><ele>327.0</ele><time>2026-04-18T12:21:30Z</time></trkpt><trkpt lat="42.12044368228114" lon="11.961126404577135"><ele>327.0</ele><time>2026-04-18T12:21:31Z</time></trkpt><trkpt lat="42.12053969193604" lon="11.961055996373867"><ele>327.0</ele><time>2026-04-18T12:21:32Z</time></trkpt><trkpt lat="42.120595255311144" lon="11.960956327388429"><ele>327.0</ele><time>2026-04-18T12:21:33Z</time></trkpt><trkpt lat="42.12062392277154" lon="11.960827204740255"><ele>327.0</ele><time>2026-04-18T12:21:34Z</time></trkpt><trkpt lat="42.12061198210655" lon="11.960679532087473"><ele>327.0</ele><time>2026-04-18T12:21:35Z</time></trkpt><trkpt lat="42.12057653293832" lon="11.960534410062973"><ele>328.75</ele><time>2026-04-18T12:21:36Z</time></trkpt><trkpt lat="42.12053865995841" lon="11.960377152023286"><ele>330.5</ele><time>2026-04-18T12:21:37Z</time></trkpt><trkpt lat="42.120489144517435" lon="11.96023646756749"><ele>332.25</ele><time>2026-04-18T12:21:38Z</time></trkpt><trkpt lat="42.12048355395387" lon="11.96008337530255"><ele>334.0</ele><time>2026-04-18T12:21:39Z</time></trkpt><trkpt lat="42.120530935325526" lon="11.959917217420706"><ele>336.25</ele><time>2026-04-18T12:21:40Z</time></trkpt><trkpt lat="42.12060698207586" lon="11.959765719557065"><ele>338.5</ele><time>2026-04-18T12:21:41Z</time></trkpt><trkpt lat="42.12067108154091" lon="11.959610572843056"><ele>340.75</ele><time>2026-04-18T12:21:42Z</time></trkpt><trkpt lat="42.120702886716614" lon="11.959443875942517"><ele>343.0</ele><time>2026-04-18T12:21:43Z</time></trkpt><trkpt lat="42.12070135430798" lon="11.959287782805621"><ele>342.5</ele><time>2026-04-18T12:21:44Z</time></trkpt><trkpt lat="42.12066387018108" lon="11.959134237015233"><ele>342.0</ele><time>2026-04-18T12:21:45Z</time></trkpt><trkpt lat="42.120608796128394" lon="11.958977260494972"><ele>341.5</ele><time>2026-04-18T12:21:46Z</time></trkpt><trkpt lat="42.120520425417986" lon="11.958848968354305"><ele>341.0</ele><time>2026-04-18T12:21:47Z</time></trkpt><trkpt lat="42.120464469288386" lon="11.958706877614258"><ele>341.0</ele><time>2026-04-18T12:21:48Z</time></trkpt><trkpt lat="42.12042382394442" lon="11.958556717981422"><ele>341.0</ele><time>2026-04-18T12:21:49Z</time></trkpt><trkpt lat="42.12041368297883" lon="11.958399065126942"><ele>341.0</ele><time>2026-04-18T12:21:50Z</time></trkpt><trkpt lat="42.12041859152129" lon="11.958222319861669"><ele>341.0</ele><time>2026-04-18T12:21:51Z</time></trkpt><trkpt lat="42.12043375590709" lon="11.95803801004297"><ele>339.8</ele><time>2026-04-18T12:21:52Z</time></trkpt><trkpt lat="42.12044764893071" lon="11.95787393126455"><ele>338.6</ele><time>2026-04-18T12:21:53Z</time></trkpt><trkpt lat="42.12045493747493" lon="11.957735110735234"><ele>337.4</ele><time>2026-04-18T12:21:54Z</time></trkpt><trkpt lat="42.12046485297492" lon="11.957608767047551"><ele>336.2</ele><time>2026-04-18T12:21:55Z</time></trkpt><trkpt lat="42.120471467212134" lon="11.957514107619952"><ele>335.0</ele><time>2026-04-18T12:21:56Z</time></trkpt><trkpt lat="42.12050277402052" lon="11.95740831096676"><ele>335.0</ele><time>2026-04-18T12:21:58Z</time></trkpt><trkpt lat="42.12055355774449" lon="11.957298527531284"><ele>335.0</ele><time>2026-04-18T12:22:01Z</time></trkpt><trkpt lat="42.12060821167656" lon="11.957210205335578"><ele>335.0</ele><time>2026-04-18T12:22:02Z</time></trkpt><trkpt lat="42.120683522873264" lon="11.957114160320746"><ele>335.0</ele><time>2026-04-18T12:22:03Z</time></trkpt><trkpt lat="42.12075183244203" lon="11.957015084546253"><ele>335.0</ele><time>2026-04-18T12:22:04Z</time></trkpt><trkpt lat="42.12081008021699" lon="11.956903355722154"><ele>333.83333333333337</ele><time>2026-04-18T12:22:05Z</time></trkpt><trkpt lat="42.12086432101501" lon="11.956799529434296"><ele>332.6666666666667</ele><time>2026-04-18T12:22:06Z</time></trkpt><trkpt lat="42.12093917045652" lon="11.956726367557833"><ele>331.5</ele><time>2026-04-18T12:22:07Z</time></trkpt><trkpt lat="42.12098121808382" lon="11.956663033021393"><ele>330.3333333333333</ele><time>2026-04-18T12:22:08Z</time></trkpt><trkpt lat="42.12105113567475" lon="11.956555451875273"><ele>329.16666666666663</ele><time>2026-04-18T12:22:10Z</time></trkpt><trkpt lat="42.12112076489179" lon="11.956534362035574"><ele>328.0</ele><time>2026-04-18T12:22:11Z</time></trkpt><trkpt lat="42.12115937691344" lon="11.956456354138927"><ele>328.0</ele><time>2026-04-18T12:22:13Z</time></trkpt><trkpt lat="42.121101928811385" lon="11.956521693240646"><ele>328.0</ele><time>2026-04-18T12:22:16Z</time></trkpt><trkpt lat="42.12102226950341" lon="11.95657472648275"><ele>328.0</ele><time>2026-04-18T12:22:17Z</time></trkpt><trkpt lat="42.12096051336567" lon="11.956652871725947"><ele>328.0</ele><time>2026-04-18T12:22:18Z</time></trkpt><trkpt lat="42.12089522015453" lon="11.956746074864009"><ele>328.0</ele><time>2026-04-18T12:22:19Z</time></trkpt><trkpt lat="42.12082988739625" lon="11.956848415435724"><ele>328.0</ele><time>2026-04-18T12:22:20Z</time></trkpt><trkpt lat="42.120758765059435" lon="11.956952638273666"><ele>329.16666666666663</ele><time>2026-04-18T12:22:21.001Z</time></trkpt><trkpt lat="42.12068109493715" lon="11.957056143039841"><ele>330.3333333333333</ele><time>2026-04-18T12:22:22.001Z</time></trkpt><trkpt lat="42.120610674432584" lon="11.957159676596941"><ele>331.5</ele><time>2026-04-18T12:22:23.001Z</time></trkpt><trkpt lat="42.12056292160074" lon="11.957244362837395"><ele>332.6666666666667</ele><time>2026-04-18T12:22:24.001Z</time></trkpt><trkpt lat="42.12050302688377" lon="11.957324167155525"><ele>333.83333333333337</ele><time>2026-04-18T12:22:26.001Z</time></trkpt><trkpt lat="42.120451706021065" lon="11.957271104915618"><ele>335.0</ele><time>2026-04-18T12:22:30.001Z</time></trkpt><trkpt lat="42.12044700988346" lon="11.957168961845586"><ele>335.0</ele><time>2026-04-18T12:22:42.998Z</time></trkpt><trkpt lat="42.12049746779738" lon="11.957022519872876"><ele>335.0</ele><time>2026-04-18T12:22:44.998Z</time></trkpt><trkpt lat="42.12056779944879" lon="11.95690231507114"><ele>335.0</ele><time>2026-04-18T12:22:46.998Z</time></trkpt><trkpt lat="42.12061075671576" lon="11.956806781922804"><ele>335.0</ele><time>2026-04-18T12:22:48.999Z</time></trkpt><trkpt lat="42.12062845445874" lon="11.956705097182635"><ele>335.0</ele><time>2026-04-18T12:22:50.999Z</time></trkpt><trkpt lat="42.120627764857566" lon="11.95657822948109"><ele>335.4285714285714</ele><time>2026-04-18T12:22:58.999Z</time></trkpt><trkpt lat="42.12065761257992" lon="11.956494313922885"><ele>335.85714285714283</ele><time>2026-04-18T12:22:59.999Z</time></trkpt><trkpt lat="42.120675275748695" lon="11.956409652502119"><ele>336.2857142857143</ele><time>2026-04-18T12:23:00.999Z</time></trkpt><trkpt lat="42.12069380572573" lon="11.956323740337067"><ele>336.71428571428567</ele><time>2026-04-18T12:23:01.999Z</time></trkpt><trkpt lat="42.120699633591066" lon="11.956239121631105"><ele>337.1428571428571</ele><time>2026-04-18T12:23:02.999Z</time></trkpt><trkpt lat="42.120757555028455" lon="11.956096731564998"><ele>337.57142857142856</ele><time>2026-04-18T12:23:04.999Z</time></trkpt><trkpt lat="42.120787980407485" lon="11.956020375022506"><ele>338.0</ele><time>2026-04-18T12:23:05.999Z</time></trkpt><trkpt lat="42.12085733740515" lon="11.955974856562348"><ele>337.83333333333337</ele><time>2026-04-18T12:23:06.999Z</time></trkpt><trkpt lat="42.120921917659345" lon="11.955848835032821"><ele>337.6666666666667</ele><time>2026-04-18T12:23:08.999Z</time></trkpt><trkpt lat="42.12094049759504" lon="11.955749294477908"><ele>337.5</ele><time>2026-04-18T12:23:10Z</time></trkpt><trkpt lat="42.12093901141098" lon="11.95565457279741"><ele>337.3333333333333</ele><time>2026-04-18T12:23:11Z</time></trkpt><trkpt lat="42.12096489953748" lon="11.955573505785535"><ele>337.16666666666663</ele><time>2026-04-18T12:23:12Z</time></trkpt><trkpt lat="42.120988379040824" lon="11.955476232641054"><ele>337.0</ele><time>2026-04-18T12:23:13Z</time></trkpt><trkpt lat="42.12102276267639" lon="11.955387437410765"><ele>337.0</ele><time>2026-04-18T12:23:14Z</time></trkpt><trkpt lat="42.12106452200822" lon="11.955299275518408"><ele>337.0</ele><time>2026-04-18T12:23:15Z</time></trkpt><trkpt lat="42.121100669469755" lon="11.955186020236608"><ele>337.0</ele><time>2026-04-18T12:23:16Z</time></trkpt><trkpt lat="42.12115123272828" lon="11.955094030531502"><ele>337.0</ele><time>2026-04-18T12:23:17Z</time></trkpt><trkpt lat="42.12119765199557" lon="11.955005150552175"><ele>337.0</ele><time>2026-04-18T12:23:18Z</time></trkpt><trkpt lat="42.121236739930374" lon="11.954921646308737"><ele>337.0</ele><time>2026-04-18T12:23:19Z</time></trkpt><trkpt lat="42.12128378868033" lon="11.954832938663579"><ele>337.5</ele><time>2026-04-18T12:23:20Z</time></trkpt><trkpt lat="42.12138637590862" lon="11.954706050907177"><ele>338.0</ele><time>2026-04-18T12:23:22Z</time></trkpt><trkpt lat="42.121502337279686" lon="11.954623463256299"><ele>338.5</ele><time>2026-04-18T12:23:24Z</time></trkpt><trkpt lat="42.121569558345875" lon="11.954600453101397"><ele>339.0</ele><time>2026-04-18T12:23:25Z</time></trkpt><trkpt lat="42.12169892632916" lon="11.95462423035147"><ele>339.0</ele><time>2026-04-18T12:23:27Z</time></trkpt><trkpt lat="42.121772718689904" lon="11.954647266202691"><ele>339.0</ele><time>2026-04-18T12:23:28Z</time></trkpt><trkpt lat="42.12184597965382" lon="11.954637681276822"><ele>339.0</ele><time>2026-04-18T12:23:29Z</time></trkpt><trkpt lat="42.12191572023683" lon="11.95463408452338"><ele>339.0</ele><time>2026-04-18T12:23:30Z</time></trkpt><trkpt lat="42.122005136839675" lon="11.95464304414617"><ele>339.0</ele><time>2026-04-18T12:23:31Z</time></trkpt><trkpt lat="42.12207071666007" lon="11.954657515547728"><ele>339.0</ele><time>2026-04-18T12:23:32Z</time></trkpt><trkpt lat="42.122133402674685" lon="11.954680831115988"><ele>339.0</ele><time>2026-04-18T12:23:33Z</time></trkpt><trkpt lat="42.122206460031215" lon="11.954706347934081"><ele>339.0</ele><time>2026-04-18T12:23:34Z</time></trkpt><trkpt lat="42.12232688916569" lon="11.954718896060157"><ele>339.0</ele><time>2026-04-18T12:23:36Z</time></trkpt><trkpt lat="42.12246654976772" lon="11.954695936169928"><ele>339.0</ele><time>2026-04-18T12:23:38Z</time></trkpt><trkpt lat="42.12255723357955" lon="11.954715515300988"><ele>339.0</ele><time>2026-04-18T12:23:40Z</time></trkpt><trkpt lat="42.12261879233234" lon="11.954742971282657"><ele>339.0</ele><time>2026-04-18T12:23:41Z</time></trkpt><trkpt lat="42.12268327086147" lon="11.954776894299416"><ele>339.8333333333333</ele><time>2026-04-18T12:23:42Z</time></trkpt><trkpt lat="42.12274372193468" lon="11.954830503450538"><ele>340.6666666666667</ele><time>2026-04-18T12:23:43Z</time></trkpt><trkpt lat="42.12279661060778" lon="11.954878809681132"><ele>341.5</ele><time>2026-04-18T12:23:44Z</time></trkpt><trkpt lat="42.12284715173957" lon="11.954937564182524"><ele>342.33333333333337</ele><time>2026-04-18T12:23:45Z</time></trkpt><trkpt lat="42.12289816555404" lon="11.954989896515604"><ele>343.1666666666667</ele><time>2026-04-18T12:23:46Z</time></trkpt><trkpt lat="42.1230079845492" lon="11.955075123543951"><ele>344.0</ele><time>2026-04-18T12:23:48.001Z</time></trkpt><trkpt lat="42.12312516072964" lon="11.9551166718813"><ele>343.33333333333337</ele><time>2026-04-18T12:23:50.001Z</time></trkpt><trkpt lat="42.123199905944645" lon="11.95511670740411"><ele>342.6666666666667</ele><time>2026-04-18T12:23:51.001Z</time></trkpt><trkpt lat="42.12327978600816" lon="11.955091184287076"><ele>342.0</ele><time>2026-04-18T12:23:52.001Z</time></trkpt><trkpt lat="42.123396330870115" lon="11.955002009327817"><ele>341.3333333333333</ele><time>2026-04-18T12:23:54.001Z</time></trkpt><trkpt lat="42.1234454290447" lon="11.954921879848694"><ele>340.66666666666663</ele><time>2026-04-18T12:23:55.001Z</time></trkpt><trkpt lat="42.1234752109931" lon="11.954837723182285"><ele>340.0</ele><time>2026-04-18T12:23:56.001Z</time></trkpt><trkpt lat="42.12350759978671" lon="11.954756774790456"><ele>341.7142857142857</ele><time>2026-04-18T12:23:57.001Z</time></trkpt><trkpt lat="42.123537727487815" lon="11.954664389327332"><ele>343.4285714285714</ele><time>2026-04-18T12:23:58.001Z</time></trkpt><trkpt lat="42.12356094226184" lon="11.954584090408542"><ele>345.1428571428571</ele><time>2026-04-18T12:23:59.001Z</time></trkpt><trkpt lat="42.12357462302906" lon="11.95449377980899"><ele>346.8571428571429</ele><time>2026-04-18T12:24:00.001Z</time></trkpt><trkpt lat="42.12356591229378" lon="11.95440451008033"><ele>348.57142857142856</ele><time>2026-04-18T12:24:01.001Z</time></trkpt><trkpt lat="42.12354901292167" lon="11.954311005739848"><ele>350.2857142857143</ele><time>2026-04-18T12:24:02.001Z</time></trkpt><trkpt lat="42.12353420049451" lon="11.954208523657398"><ele>352.0</ele><time>2026-04-18T12:24:03.001Z</time></trkpt><trkpt lat="42.12352350349519" lon="11.954095496651071"><ele>353.42857142857144</ele><time>2026-04-18T12:24:04.001Z</time></trkpt><trkpt lat="42.12351307733502" lon="11.953992894657631"><ele>354.85714285714283</ele><time>2026-04-18T12:24:05.001Z</time></trkpt><trkpt lat="42.12353049775621" lon="11.953897860161112"><ele>356.2857142857143</ele><time>2026-04-18T12:24:06.001Z</time></trkpt><trkpt lat="42.12354003529557" lon="11.953796581404589"><ele>357.7142857142857</ele><time>2026-04-18T12:24:07.001Z</time></trkpt><trkpt lat="42.12354154145174" lon="11.953707932798844"><ele>359.1428571428571</ele><time>2026-04-18T12:24:08.001Z</time></trkpt><trkpt lat="42.123567706214466" lon="11.953610426840747"><ele>360.57142857142856</ele><time>2026-04-18T12:24:09.001Z</time></trkpt><trkpt lat="42.12357236400264" lon="11.953508977781773"><ele>362.0</ele><time>2026-04-18T12:24:10.001Z</time></trkpt><trkpt lat="42.123585997575546" lon="11.953412817556178"><ele>363.1666666666667</ele><time>2026-04-18T12:24:11.001Z</time></trkpt><trkpt lat="42.123601910135804" lon="11.95330888723058"><ele>364.33333333333337</ele><time>2026-04-18T12:24:12.001Z</time></trkpt><trkpt lat="42.12361965929735" lon="11.953221825153985"><ele>365.5</ele><time>2026-04-18T12:24:13.001Z</time></trkpt><trkpt lat="42.123664999239274" lon="11.953128484651568"><ele>366.6666666666667</ele><time>2026-04-18T12:24:14.001Z</time></trkpt><trkpt lat="42.12372033061039" lon="11.953041854646694"><ele>367.8333333333333</ele><time>2026-04-18T12:24:15.001Z</time></trkpt><trkpt lat="42.12375216247039" lon="11.95295434230098"><ele>369.0</ele><time>2026-04-18T12:24:16.001Z</time></trkpt><trkpt lat="42.1237722237118" lon="11.952850069005045"><ele>369.0</ele><time>2026-04-18T12:24:17.001Z</time></trkpt><trkpt lat="42.12379366786619" lon="11.952755795329713"><ele>369.0</ele><time>2026-04-18T12:24:18.001Z</time></trkpt><trkpt lat="42.123827412462056" lon="11.95265556051178"><ele>369.0</ele><time>2026-04-18T12:24:19.001Z</time></trkpt><trkpt lat="42.123841787147015" lon="11.95254553219545"><ele>369.0</ele><time>2026-04-18T12:24:20.001Z</time></trkpt><trkpt lat="42.12385641629025" lon="11.95243893107109"><ele>369.0</ele><time>2026-04-18T12:24:21.001Z</time></trkpt><trkpt lat="42.12387178778416" lon="11.95233480950973"><ele>369.0</ele><time>2026-04-18T12:24:22.001Z</time></trkpt><trkpt lat="42.12389053770567" lon="11.952220186248143"><ele>370.3333333333333</ele><time>2026-04-18T12:24:23.001Z</time></trkpt><trkpt lat="42.123918865793655" lon="11.952116004391428"><ele>371.6666666666667</ele><time>2026-04-18T12:24:24.001Z</time></trkpt><trkpt lat="42.12394470433373" lon="11.952008230329055"><ele>373.0</ele><time>2026-04-18T12:24:25.001Z</time></trkpt><trkpt lat="42.123949676341255" lon="11.951897375012036"><ele>374.33333333333337</ele><time>2026-04-18T12:24:26.001Z</time></trkpt><trkpt lat="42.12394639756034" lon="11.95177714804124"><ele>375.6666666666667</ele><time>2026-04-18T12:24:27.001Z</time></trkpt><trkpt lat="42.12393916073281" lon="11.95166479233878"><ele>377.0</ele><time>2026-04-18T12:24:28.001Z</time></trkpt><trkpt lat="42.12391133685755" lon="11.951569100611293"><ele>377.0</ele><time>2026-04-18T12:24:29.001Z</time></trkpt><trkpt lat="42.123865760858145" lon="11.951505734410699"><ele>377.0</ele><time>2026-04-18T12:24:30.001Z</time></trkpt><trkpt lat="42.12380138838149" lon="11.951443583402746"><ele>377.0</ele><time>2026-04-18T12:24:31.001Z</time></trkpt><trkpt lat="42.12373606383283" lon="11.951374638900877"><ele>377.0</ele><time>2026-04-18T12:24:32.001Z</time></trkpt><trkpt lat="42.12367884450031" lon="11.951297040649298"><ele>377.0</ele><time>2026-04-18T12:24:33.001Z</time></trkpt><trkpt lat="42.12360405864124" lon="11.951242924679631"><ele>377.0</ele><time>2026-04-18T12:24:34.001Z</time></trkpt><trkpt lat="42.12352965630282" lon="11.951221313789167"><ele>377.0</ele><time>2026-04-18T12:24:35.001Z</time></trkpt><trkpt lat="42.1234050011177" lon="11.951231907178164"><ele>377.0</ele><time>2026-04-18T12:24:37.001Z</time></trkpt><trkpt lat="42.123300193054035" lon="11.951164598587203"><ele>377.0</ele><time>2026-04-18T12:24:39.002Z</time></trkpt><trkpt lat="42.12327687000552" lon="11.951080478025233"><ele>377.0</ele><time>2026-04-18T12:24:40.002Z</time></trkpt><trkpt lat="42.12326225484526" lon="11.950975351465633"><ele>377.0</ele><time>2026-04-18T12:24:41.002Z</time></trkpt><trkpt lat="42.123264006076326" lon="11.950818496105585"><ele>376.40000000000003</ele><time>2026-04-18T12:24:42.002Z</time></trkpt><trkpt lat="42.123254575296386" lon="11.950623873665288"><ele>375.8</ele><time>2026-04-18T12:24:43.002Z</time></trkpt><trkpt lat="42.12323481227598" lon="11.950467999226722"><ele>375.2</ele><time>2026-04-18T12:24:44.002Z</time></trkpt><trkpt lat="42.123235590978375" lon="11.950355226449252"><ele>374.6</ele><time>2026-04-18T12:24:45Z</time></trkpt><trkpt lat="42.12322824553264" lon="11.950251986389928"><ele>374.0</ele><time>2026-04-18T12:24:46Z</time></trkpt><trkpt lat="42.123216006997815" lon="11.950158756123507"><ele>375.5</ele><time>2026-04-18T12:24:47Z</time></trkpt><trkpt lat="42.12315650473839" lon="11.950088312094294"><ele>377.0</ele><time>2026-04-18T12:24:48Z</time></trkpt><trkpt lat="42.123050730684454" lon="11.95009539655254"><ele>378.5</ele><time>2026-04-18T12:24:49Z</time></trkpt><trkpt lat="42.122974584439056" lon="11.950051033075272"><ele>380.0</ele><time>2026-04-18T12:24:51Z</time></trkpt><trkpt lat="42.122870098769994" lon="11.950017068285893"><ele>381.5</ele><time>2026-04-18T12:24:53Z</time></trkpt><trkpt lat="42.12286033799251" lon="11.949919447097955"><ele>383.0</ele><time>2026-04-18T12:24:54Z</time></trkpt><trkpt lat="42.12286921430241" lon="11.94979384595437"><ele>383.0</ele><time>2026-04-18T12:24:55Z</time></trkpt><trkpt lat="42.12285431834993" lon="11.949679976613576"><ele>383.0</ele><time>2026-04-18T12:24:56Z</time></trkpt><trkpt lat="42.12282798606539" lon="11.949576535575462"><ele>383.0</ele><time>2026-04-18T12:24:57Z</time></trkpt><trkpt lat="42.122769761664316" lon="11.949503399411782"><ele>383.0</ele><time>2026-04-18T12:24:58Z</time></trkpt><trkpt lat="42.12269179351554" lon="11.949461545645354"><ele>383.0</ele><time>2026-04-18T12:24:59Z</time></trkpt><trkpt lat="42.122622797797646" lon="11.949396659627174"><ele>383.0</ele><time>2026-04-18T12:25:00Z</time></trkpt><trkpt lat="42.12256146250677" lon="11.949361354947985"><ele>383.0</ele><time>2026-04-18T12:25:01Z</time></trkpt><trkpt lat="42.12247364801511" lon="11.949306571124295"><ele>383.0</ele><time>2026-04-18T12:25:03Z</time></trkpt><trkpt lat="42.12238490837483" lon="11.949200444993622"><ele>383.0</ele><time>2026-04-18T12:25:05Z</time></trkpt><trkpt lat="42.122354495047844" lon="11.949103603001348"><ele>383.0</ele><time>2026-04-18T12:25:06Z</time></trkpt><trkpt lat="42.12233133839555" lon="11.948979160403264"><ele>383.0</ele><time>2026-04-18T12:25:07Z</time></trkpt><trkpt lat="42.12230064971122" lon="11.948879890292515"><ele>384.5</ele><time>2026-04-18T12:25:08Z</time></trkpt><trkpt lat="42.12226291640249" lon="11.948773064851107"><ele>386.0</ele><time>2026-04-18T12:25:09Z</time></trkpt><trkpt lat="42.12222556652414" lon="11.94867297348666"><ele>387.5</ele><time>2026-04-18T12:25:10Z</time></trkpt><trkpt lat="42.12219041728955" lon="11.948579674814452"><ele>389.0</ele><time>2026-04-18T12:25:11Z</time></trkpt><trkpt lat="42.12215380553842" lon="11.948483220753564"><ele>390.49999999999994</ele><time>2026-04-18T12:25:12Z</time></trkpt><trkpt lat="42.12212315417386" lon="11.948405648105567"><ele>392.0</ele><time>2026-04-18T12:25:13Z</time></trkpt><trkpt lat="42.12207759860557" lon="11.948325903002246"><ele>391.99999999999994</ele><time>2026-04-18T12:25:14Z</time></trkpt><trkpt lat="42.12205554385765" lon="11.948235092781099"><ele>392.0</ele><time>2026-04-18T12:25:15Z</time></trkpt><trkpt lat="42.12202194449016" lon="11.948149547606757"><ele>392.0</ele><time>2026-04-18T12:25:16Z</time></trkpt><trkpt lat="42.121981354812654" lon="11.948069255388575"><ele>392.0</ele><time>2026-04-18T12:25:18Z</time></trkpt><trkpt lat="42.121920292261976" lon="11.947973557271839"><ele>391.99999999999994</ele><time>2026-04-18T12:25:21Z</time></trkpt><trkpt lat="42.121880927951494" lon="11.94779881220819"><ele>392.0</ele><time>2026-04-18T12:26:08.001Z</time></trkpt><trkpt lat="42.12187766937216" lon="11.947689235401835"><ele>391.99999999999994</ele><time>2026-04-18T12:26:09.001Z</time></trkpt><trkpt lat="42.12187773114374" lon="11.947572285141561"><ele>392.0</ele><time>2026-04-18T12:26:10.001Z</time></trkpt><trkpt lat="42.12190206881954" lon="11.947440165582256"><ele>392.0</ele><time>2026-04-18T12:26:11.001Z</time></trkpt><trkpt lat="42.12192344649614" lon="11.94735122019011"><ele>392.0</ele><time>2026-04-18T12:26:12.001Z</time></trkpt><trkpt lat="42.12199536931514" lon="11.947253936159894"><ele>391.99999999999994</ele><time>2026-04-18T12:26:14.002Z</time></trkpt><trkpt lat="42.122044155778354" lon="11.947184162389188"><ele>392.0</ele><time>2026-04-18T12:26:15.002Z</time></trkpt><trkpt lat="42.12209835342313" lon="11.947109957788683"><ele>391.99999999999994</ele><time>2026-04-18T12:26:16.002Z</time></trkpt><trkpt lat="42.122160969652754" lon="11.94700977298255"><ele>392.0</ele><time>2026-04-18T12:26:17.002Z</time></trkpt><trkpt lat="42.122212070776094" lon="11.946927330269643"><ele>392.0</ele><time>2026-04-18T12:26:18.002Z</time></trkpt><trkpt lat="42.122291117802995" lon="11.946833823956538"><ele>392.0</ele><time>2026-04-18T12:26:20.002Z</time></trkpt><trkpt lat="42.12233891340677" lon="11.946761513620654"><ele>391.99999999999994</ele><time>2026-04-18T12:26:21.002Z</time></trkpt><trkpt lat="42.122385352847374" lon="11.946691255038536"><ele>392.0</ele><time>2026-04-18T12:26:22.002Z</time></trkpt><trkpt lat="42.12243970643688" lon="11.946617739246939"><ele>390.0</ele><time>2026-04-18T12:26:23.002Z</time></trkpt><trkpt lat="42.12249579653018" lon="11.946541708202378"><ele>388.0</ele><time>2026-04-18T12:26:24.002Z</time></trkpt><trkpt lat="42.122564692019466" lon="11.946390334266669"><ele>386.0</ele><time>2026-04-18T12:26:26.002Z</time></trkpt><trkpt lat="42.122567839177584" lon="11.946276304243794"><ele>384.0</ele><time>2026-04-18T12:26:27.002Z</time></trkpt><trkpt lat="42.12255993239663" lon="11.946162056371262"><ele>382.0</ele><time>2026-04-18T12:26:28.002Z</time></trkpt><trkpt lat="42.122563036069984" lon="11.946033138383905"><ele>382.0</ele><time>2026-04-18T12:26:29.002Z</time></trkpt><trkpt lat="42.12256844349564" lon="11.945897110008202"><ele>382.0</ele><time>2026-04-18T12:26:30.002Z</time></trkpt><trkpt lat="42.12258695629682" lon="11.945746297215326"><ele>382.0</ele><time>2026-04-18T12:26:31.002Z</time></trkpt><trkpt lat="42.12264503352845" lon="11.945572343633032"><ele>382.0</ele><time>2026-04-18T12:26:32.002Z</time></trkpt><trkpt lat="42.12271703065605" lon="11.945404993270383"><ele>385.20000000000005</ele><time>2026-04-18T12:26:33.002Z</time></trkpt><trkpt lat="42.12276396760132" lon="11.94527136168948"><ele>388.4</ele><time>2026-04-18T12:26:34.002Z</time></trkpt><trkpt lat="42.12279669707261" lon="11.94516435176315"><ele>391.6</ele><time>2026-04-18T12:26:35.002Z</time></trkpt><trkpt lat="42.122883170186746" lon="11.945054723235428"><ele>394.79999999999995</ele><time>2026-04-18T12:26:37.002Z</time></trkpt><trkpt lat="42.122979222940245" lon="11.94503944238018"><ele>398.0</ele><time>2026-04-18T12:26:39.002Z</time></trkpt><trkpt lat="42.12306771387495" lon="11.945023094780465"><ele>396.0</ele><time>2026-04-18T12:26:40.002Z</time></trkpt><trkpt lat="42.12316798814935" lon="11.945015872165314"><ele>394.0</ele><time>2026-04-18T12:26:41.002Z</time></trkpt><trkpt lat="42.123280985021694" lon="11.945018016192455"><ele>392.0</ele><time>2026-04-18T12:26:43.002Z</time></trkpt><trkpt lat="42.12334762482347" lon="11.944900863191059"><ele>390.0</ele><time>2026-04-18T12:26:45.002Z</time></trkpt><trkpt lat="42.123315367854175" lon="11.94475398898789"><ele>388.0</ele><time>2026-04-18T12:26:47.002Z</time></trkpt><trkpt lat="42.12327344890035" lon="11.944682967769241"><ele>388.00000000000006</ele><time>2026-04-18T12:26:48.002Z</time></trkpt><trkpt lat="42.1232390593935" lon="11.944585241408632"><ele>388.0</ele><time>2026-04-18T12:26:49.002Z</time></trkpt><trkpt lat="42.12321441707887" lon="11.944464115024395"><ele>388.0</ele><time>2026-04-18T12:26:50.002Z</time></trkpt><trkpt lat="42.12319929023994" lon="11.9443521917954"><ele>388.0</ele><time>2026-04-18T12:26:51.001Z</time></trkpt><trkpt lat="42.12319191464141" lon="11.944246191966855"><ele>388.00000000000006</ele><time>2026-04-18T12:26:52.001Z</time></trkpt><trkpt lat="42.12318270166438" lon="11.944137477157861"><ele>388.0</ele><time>2026-04-18T12:26:53.001Z</time></trkpt><trkpt lat="42.12318152133681" lon="11.944026847119192"><ele>394.00000000000006</ele><time>2026-04-18T12:26:54.001Z</time></trkpt><trkpt lat="42.12316420010621" lon="11.943928707914878"><ele>400.0</ele><time>2026-04-18T12:26:55.001Z</time></trkpt><trkpt lat="42.12315379145581" lon="11.943840727962566"><ele>406.0</ele><time>2026-04-18T12:26:56.001Z</time></trkpt><trkpt lat="42.12313144252399" lon="11.94375328719833"><ele>412.0</ele><time>2026-04-18T12:26:57.001Z</time></trkpt><trkpt lat="42.12311668682022" lon="11.943612150714369"><ele>418.00000000000006</ele><time>2026-04-18T12:26:59.001Z</time></trkpt><trkpt lat="42.12316215474576" lon="11.943524867492046"><ele>424.0</ele><time>2026-04-18T12:27:01.001Z</time></trkpt><trkpt lat="42.12320519625558" lon="11.943435136365402"><ele>420.83333333333337</ele><time>2026-04-18T12:27:03.001Z</time></trkpt><trkpt lat="42.12327921201418" lon="11.943373455455317"><ele>417.6666666666667</ele><time>2026-04-18T12:27:05.001Z</time></trkpt><trkpt lat="42.123354505478645" lon="11.943335411612294"><ele>414.5</ele><time>2026-04-18T12:27:06.001Z</time></trkpt><trkpt lat="42.12342280701355" lon="11.943276680280492"><ele>411.33333333333337</ele><time>2026-04-18T12:27:07.001Z</time></trkpt><trkpt lat="42.12350688127129" lon="11.94322059276528"><ele>408.1666666666667</ele><time>2026-04-18T12:27:08.001Z</time></trkpt><trkpt lat="42.12359284036235" lon="11.94314608469164"><ele>405.0</ele><time>2026-04-18T12:27:09.001Z</time></trkpt><trkpt lat="42.123666953326726" lon="11.943084020057588"><ele>404.99999999999994</ele><time>2026-04-18T12:27:10.001Z</time></trkpt><trkpt lat="42.12374252739028" lon="11.943043854343964"><ele>405.0</ele><time>2026-04-18T12:27:11.001Z</time></trkpt><trkpt lat="42.12381888631445" lon="11.94299446164478"><ele>405.0</ele><time>2026-04-18T12:27:12.001Z</time></trkpt><trkpt lat="42.1238689891057" lon="11.942934814357065"><ele>405.0</ele><time>2026-04-18T12:27:13.001Z</time></trkpt><trkpt lat="42.12390284776107" lon="11.942849755958747"><ele>405.0</ele><time>2026-04-18T12:27:14.001Z</time></trkpt><trkpt lat="42.12392034005072" lon="11.942754729027593"><ele>404.99999999999994</ele><time>2026-04-18T12:27:15.001Z</time></trkpt><trkpt lat="42.12392008956138" lon="11.942664969534215"><ele>405.0</ele><time>2026-04-18T12:27:16.001Z</time></trkpt><trkpt lat="42.12389393579192" lon="11.942581768882025"><ele>407.6666666666667</ele><time>2026-04-18T12:27:17.001Z</time></trkpt><trkpt lat="42.123841858020036" lon="11.942494075456791"><ele>410.33333333333337</ele><time>2026-04-18T12:27:18.001Z</time></trkpt><trkpt lat="42.12377488047905" lon="11.942415712330405"><ele>413.0</ele><time>2026-04-18T12:27:19.001Z</time></trkpt><trkpt lat="42.12370535400704" lon="11.942336269620258"><ele>415.6666666666667</ele><time>2026-04-18T12:27:20.001Z</time></trkpt><trkpt lat="42.12364442353148" lon="11.942275301467664"><ele>418.33333333333337</ele><time>2026-04-18T12:27:21.001Z</time></trkpt><trkpt lat="42.123605356505415" lon="11.9421452531309"><ele>421.0</ele><time>2026-04-18T12:27:23.001Z</time></trkpt><trkpt lat="42.1236027324376" lon="11.942060367165816"><ele>421.00000000000006</ele><time>2026-04-18T12:27:24.001Z</time></trkpt><trkpt lat="42.12362604378509" lon="11.941976792617089"><ele>421.0</ele><time>2026-04-18T12:27:25.001Z</time></trkpt><trkpt lat="42.123674353946264" lon="11.941901920003973"><ele>421.0</ele><time>2026-04-18T12:27:26.001Z</time></trkpt><trkpt lat="42.12375005082204" lon="11.941824407867616"><ele>421.0</ele><time>2026-04-18T12:27:27.001Z</time></trkpt><trkpt lat="42.123811282572746" lon="11.94175240547136"><ele>421.00000000000006</ele><time>2026-04-18T12:27:28.001Z</time></trkpt><trkpt lat="42.123879850466906" lon="11.941716747141122"><ele>421.0</ele><time>2026-04-18T12:27:29.001Z</time></trkpt><trkpt lat="42.12396179412235" lon="11.941651699864568"><ele>422.00000000000006</ele><time>2026-04-18T12:27:31.001Z</time></trkpt><trkpt lat="42.123994169843684" lon="11.941568461410476"><ele>423.0</ele><time>2026-04-18T12:27:32.001Z</time></trkpt><trkpt lat="42.123957576673504" lon="11.941428843450009"><ele>424.0</ele><time>2026-04-18T12:27:33.001Z</time></trkpt><trkpt lat="42.123975210496766" lon="11.941346358333364"><ele>425.0</ele><time>2026-04-18T12:27:34.001Z</time></trkpt><trkpt lat="42.124059647202" lon="11.941232745229795"><ele>426.00000000000006</ele><time>2026-04-18T12:27:36.001Z</time></trkpt><trkpt lat="42.12411564880211" lon="11.94118397873676"><ele>427.0</ele><time>2026-04-18T12:27:37.001Z</time></trkpt><trkpt lat="42.1241741532755" lon="11.941139441366234"><ele>422.00000000000006</ele><time>2026-04-18T12:27:38.001Z</time></trkpt><trkpt lat="42.1242560493666" lon="11.941111105551114"><ele>417.0</ele><time>2026-04-18T12:27:40.001Z</time></trkpt><trkpt lat="42.12436743110089" lon="11.941123413802924"><ele>412.0</ele><time>2026-04-18T12:27:42.001Z</time></trkpt><trkpt lat="42.124433136066564" lon="11.941117480751204"><ele>407.0</ele><time>2026-04-18T12:27:43.001Z</time></trkpt><trkpt lat="42.12450306933674" lon="11.941120255001959"><ele>402.00000000000006</ele><time>2026-04-18T12:27:44.001Z</time></trkpt><trkpt lat="42.12459386514709" lon="11.941140749517613"><ele>397.0</ele><time>2026-04-18T12:27:45.001Z</time></trkpt><trkpt lat="42.12466425072642" lon="11.94116620281542"><ele>397.00000000000006</ele><time>2026-04-18T12:27:46.001Z</time></trkpt><trkpt lat="42.12473941309657" lon="11.941197689906284"><ele>397.0</ele><time>2026-04-18T12:27:47.001Z</time></trkpt><trkpt lat="42.12481254191596" lon="11.941249405191519"><ele>397.0</ele><time>2026-04-18T12:27:48.001Z</time></trkpt><trkpt lat="42.12487961898552" lon="11.941286561253225"><ele>397.0</ele><time>2026-04-18T12:27:49.001Z</time></trkpt><trkpt lat="42.12496514526422" lon="11.941306469986062"><ele>397.00000000000006</ele><time>2026-04-18T12:27:50.001Z</time></trkpt><trkpt lat="42.12503352163189" lon="11.94129812527832"><ele>397.0</ele><time>2026-04-18T12:27:51.001Z</time></trkpt><trkpt lat="42.12509316051852" lon="11.941263159137582"><ele>397.7142857142857</ele><time>2026-04-18T12:27:52.001Z</time></trkpt><trkpt lat="42.12513402709988" lon="11.941198226285735"><ele>398.42857142857144</ele><time>2026-04-18T12:27:53.001Z</time></trkpt><trkpt lat="42.12514467985799" lon="11.941109700993144"><ele>399.1428571428571</ele><time>2026-04-18T12:27:54.001Z</time></trkpt><trkpt lat="42.125161762800616" lon="11.941011540801444"><ele>399.8571428571429</ele><time>2026-04-18T12:27:55.001Z</time></trkpt><trkpt lat="42.12516345575192" lon="11.940924549305546"><ele>400.5714285714286</ele><time>2026-04-18T12:27:56.001Z</time></trkpt><trkpt lat="42.125165777186346" lon="11.940803430061058"><ele>401.2857142857143</ele><time>2026-04-18T12:27:58.001Z</time></trkpt><trkpt lat="42.12515876262307" lon="11.940693581005862"><ele>402.0</ele><time>2026-04-18T12:28:01.001Z</time></trkpt><trkpt lat="42.12516973582482" lon="11.940596890460597"><ele>402.0</ele><time>2026-04-18T12:28:03.001Z</time></trkpt><trkpt lat="42.1251671214133" lon="11.940465336461013"><ele>402.0</ele><time>2026-04-18T12:28:05.001Z</time></trkpt><trkpt lat="42.12517899815522" lon="11.94028701727913"><ele>402.0</ele><time>2026-04-18T12:28:07.001Z</time></trkpt><trkpt lat="42.12517967643214" lon="11.940193165681716"><ele>402.0</ele><time>2026-04-18T12:28:08.002Z</time></trkpt><trkpt lat="42.125232349047614" lon="11.94004142367139"><ele>402.0</ele><time>2026-04-18T12:28:10.002Z</time></trkpt><trkpt lat="42.125256277224985" lon="11.939959513982876"><ele>403.8</ele><time>2026-04-18T12:28:11.002Z</time></trkpt><trkpt lat="42.12529445883177" lon="11.939869346921624"><ele>405.6</ele><time>2026-04-18T12:28:12.002Z</time></trkpt><trkpt lat="42.125312580260236" lon="11.939785409799194"><ele>407.40000000000003</ele><time>2026-04-18T12:28:13.002Z</time></trkpt><trkpt lat="42.125288648737126" lon="11.939655918560359"><ele>409.20000000000005</ele><time>2026-04-18T12:28:15.002Z</time></trkpt><trkpt lat="42.125261098848675" lon="11.939514337295414"><ele>411.0</ele><time>2026-04-18T12:28:17.002Z</time></trkpt><trkpt lat="42.12530881292187" lon="11.93938895980593"><ele>411.0</ele><time>2026-04-18T12:28:19.002Z</time></trkpt><trkpt lat="42.12536087954432" lon="11.939298324276173"><ele>411.0</ele><time>2026-04-18T12:28:21.002Z</time></trkpt><trkpt lat="42.12543449423692" lon="11.93920538129682"><ele>411.0</ele><time>2026-04-18T12:28:23.002Z</time></trkpt><trkpt lat="42.125474519688794" lon="11.939122900021523"><ele>411.0</ele><time>2026-04-18T12:28:24.002Z</time></trkpt><trkpt lat="42.12550587597818" lon="11.938969459890627"><ele>411.0</ele><time>2026-04-18T12:28:26.002Z</time></trkpt><trkpt lat="42.12546146074667" lon="11.938851502545994"><ele>411.20000000000005</ele><time>2026-04-18T12:28:28.002Z</time></trkpt><trkpt lat="42.1253954617764" lon="11.938747995017735"><ele>411.40000000000003</ele><time>2026-04-18T12:28:30.002Z</time></trkpt><trkpt lat="42.12530143981464" lon="11.938623791770041"><ele>411.6</ele><time>2026-04-18T12:28:32.002Z</time></trkpt><trkpt lat="42.12524307912779" lon="11.93856787651413"><ele>411.8</ele><time>2026-04-18T12:28:33.002Z</time></trkpt><trkpt lat="42.12516490932182" lon="11.938525556941276"><ele>412.0</ele><time>2026-04-18T12:28:34.002Z</time></trkpt><trkpt lat="42.12511056528398" lon="11.938439013395989"><ele>411.1666666666667</ele><time>2026-04-18T12:28:35.002Z</time></trkpt><trkpt lat="42.125057354057816" lon="11.938376981917688"><ele>410.33333333333337</ele><time>2026-04-18T12:28:36.002Z</time></trkpt><trkpt lat="42.12498615284976" lon="11.938274573092498"><ele>409.5</ele><time>2026-04-18T12:28:38.002Z</time></trkpt><trkpt lat="42.12491922896623" lon="11.938232258706893"><ele>408.66666666666663</ele><time>2026-04-18T12:28:39.002Z</time></trkpt><trkpt lat="42.12489944445836" lon="11.93812158880488"><ele>407.8333333333333</ele><time>2026-04-18T12:28:40.002Z</time></trkpt><trkpt lat="42.12489777723638" lon="11.938015572280868"><ele>407.0</ele><time>2026-04-18T12:28:41.002Z</time></trkpt><trkpt lat="42.12491128639236" lon="11.937891905364758"><ele>407.0</ele><time>2026-04-18T12:28:42.002Z</time></trkpt><trkpt lat="42.12503546504998" lon="11.937820755550595"><ele>407.0</ele><time>2026-04-18T12:28:43.002Z</time></trkpt><trkpt lat="42.12513172263369" lon="11.9377490927445"><ele>407.0</ele><time>2026-04-18T12:28:44.002Z</time></trkpt><trkpt lat="42.125174971583455" lon="11.93764278419553"><ele>407.0</ele><time>2026-04-18T12:28:45.002Z</time></trkpt><trkpt lat="42.1252436169827" lon="11.937511020940413"><ele>408.5</ele><time>2026-04-18T12:28:47.002Z</time></trkpt><trkpt lat="42.125271107455966" lon="11.937398724825824"><ele>410.0</ele><time>2026-04-18T12:28:48.002Z</time></trkpt><trkpt lat="42.12532638871115" lon="11.93729677190945"><ele>411.5</ele><time>2026-04-18T12:28:49.002Z</time></trkpt><trkpt lat="42.1253710064588" lon="11.937121177932639"><ele>413.0</ele><time>2026-04-18T12:28:50.002Z</time></trkpt><trkpt lat="42.12543016439365" lon="11.936948409013663"><ele>413.0</ele><time>2026-04-18T12:28:51.002Z</time></trkpt><trkpt lat="42.12547128148618" lon="11.936844559616523"><ele>413.0</ele><time>2026-04-18T12:28:52.002Z</time></trkpt><trkpt lat="42.12549236200658" lon="11.936751958741729"><ele>413.0</ele><time>2026-04-18T12:28:53.002Z</time></trkpt><trkpt lat="42.12549069189646" lon="11.936624765849947"><ele>413.0</ele><time>2026-04-18T12:28:54.002Z</time></trkpt><trkpt lat="42.12548973556092" lon="11.936471654193074"><ele>413.0</ele><time>2026-04-18T12:28:55.002Z</time></trkpt><trkpt lat="42.12550044127408" lon="11.93633098252641"><ele>411.2857142857143</ele><time>2026-04-18T12:28:56.002Z</time></trkpt><trkpt lat="42.125522446850255" lon="11.936227549758087"><ele>409.57142857142856</ele><time>2026-04-18T12:28:57.001Z</time></trkpt><trkpt lat="42.12555309501831" lon="11.936137772566916"><ele>407.8571428571429</ele><time>2026-04-18T12:28:58.001Z</time></trkpt><trkpt lat="42.1255889555338" lon="11.936060450874407"><ele>406.1428571428571</ele><time>2026-04-18T12:28:59.001Z</time></trkpt><trkpt lat="42.125652350589284" lon="11.936016930688181"><ele>404.42857142857144</ele><time>2026-04-18T12:29:00.001Z</time></trkpt><trkpt lat="42.12572900460093" lon="11.935989278877608"><ele>402.7142857142857</ele><time>2026-04-18T12:29:01.001Z</time></trkpt><trkpt lat="42.12578380697733" lon="11.935944263592672"><ele>401.0</ele><time>2026-04-18T12:29:02.001Z</time></trkpt><trkpt lat="42.125833441657306" lon="11.935859313157467"><ele>400.99999999999994</ele><time>2026-04-18T12:29:03.001Z</time></trkpt><trkpt lat="42.12584850761216" lon="11.935750188208608"><ele>401.0</ele><time>2026-04-18T12:29:04.001Z</time></trkpt><trkpt lat="42.12586765933256" lon="11.935633756463183"><ele>401.0</ele><time>2026-04-18T12:29:05.001Z</time></trkpt><trkpt lat="42.125881385498396" lon="11.935503323715835"><ele>401.0</ele><time>2026-04-18T12:29:06.001Z</time></trkpt><trkpt lat="42.12587458012909" lon="11.935386668461453"><ele>400.99999999999994</ele><time>2026-04-18T12:29:07.001Z</time></trkpt><trkpt lat="42.12583728487477" lon="11.935284222973252"><ele>401.0</ele><time>2026-04-18T12:29:08.001Z</time></trkpt><trkpt lat="42.12580956157014" lon="11.93518202912557"><ele>401.0</ele><time>2026-04-18T12:29:09.001Z</time></trkpt><trkpt lat="42.12577595320805" lon="11.935072398277828"><ele>401.0</ele><time>2026-04-18T12:29:10.001Z</time></trkpt><trkpt lat="42.125735283639116" lon="11.93492914958761"><ele>401.0</ele><time>2026-04-18T12:29:11.001Z</time></trkpt><trkpt lat="42.12569896229448" lon="11.934782306822314"><ele>401.0</ele><time>2026-04-18T12:29:12.001Z</time></trkpt><trkpt lat="42.12565470292575" lon="11.934691995206855"><ele>401.0</ele><time>2026-04-18T12:29:13.001Z</time></trkpt><trkpt lat="42.12560643512561" lon="11.93462353817587"><ele>403.49999999999994</ele><time>2026-04-18T12:29:14.001Z</time></trkpt><trkpt lat="42.12554390323037" lon="11.934591713173814"><ele>406.0</ele><time>2026-04-18T12:29:15.001Z</time></trkpt><trkpt lat="42.12548460553636" lon="11.934554844395532"><ele>408.5</ele><time>2026-04-18T12:29:16.001Z</time></trkpt><trkpt lat="42.125420946919725" lon="11.934443300430884"><ele>411.0</ele><time>2026-04-18T12:29:18.001Z</time></trkpt><trkpt lat="42.125398613085565" lon="11.934345130063805"><ele>413.49999999999994</ele><time>2026-04-18T12:29:20.001Z</time></trkpt><trkpt lat="42.12541711991397" lon="11.934249412905093"><ele>416.0</ele><time>2026-04-18T12:29:23.001Z</time></trkpt><trkpt lat="42.125478728550256" lon="11.934153814555827"><ele>416.0</ele><time>2026-04-18T12:29:25.001Z</time></trkpt><trkpt lat="42.12553125194218" lon="11.934102105093501"><ele>416.0</ele><time>2026-04-18T12:29:26.001Z</time></trkpt><trkpt lat="42.125604566372076" lon="11.93400248145961"><ele>416.0</ele><time>2026-04-18T12:29:28.001Z</time></trkpt><trkpt lat="42.1256629257998" lon="11.933886805844104"><ele>416.0</ele><time>2026-04-18T12:29:30.001Z</time></trkpt><trkpt lat="42.12566985402416" lon="11.93376356797994"><ele>416.0</ele><time>2026-04-18T12:29:32.001Z</time></trkpt><trkpt lat="42.12561314805225" lon="11.93360813168024"><ele>416.0</ele><time>2026-04-18T12:29:34.001Z</time></trkpt><trkpt lat="42.12556454262351" lon="11.933506317021275"><ele>416.0</ele><time>2026-04-18T12:29:36.001Z</time></trkpt><trkpt lat="42.12553577631491" lon="11.933397746457155"><ele>416.0</ele><time>2026-04-18T12:29:38.001Z</time></trkpt><trkpt lat="42.125461725099974" lon="11.9332442779561"><ele>416.0</ele><time>2026-04-18T12:29:40.001Z</time></trkpt><trkpt lat="42.12541570199864" lon="11.933164993368067"><ele>416.0</ele><time>2026-04-18T12:29:41.001Z</time></trkpt><trkpt lat="42.12536756549009" lon="11.933065632559156"><ele>415.0</ele><time>2026-04-18T12:29:42.001Z</time></trkpt><trkpt lat="42.125327238242384" lon="11.93298635389109"><ele>414.0</ele><time>2026-04-18T12:29:43.001Z</time></trkpt><trkpt lat="42.125286010010385" lon="11.932828522079964"><ele>413.0</ele><time>2026-04-18T12:29:45.001Z</time></trkpt><trkpt lat="42.12527288745255" lon="11.932741936257091"><ele>412.0</ele><time>2026-04-18T12:29:46.001Z</time></trkpt><trkpt lat="42.12525518121121" lon="11.932634932711174"><ele>411.0</ele><time>2026-04-18T12:29:48.001Z</time></trkpt><trkpt lat="42.1251722901118" lon="11.93253866075508"><ele>410.0</ele><time>2026-04-18T12:29:50.001Z</time></trkpt><trkpt lat="42.12510557363816" lon="11.932470647936599"><ele>409.0</ele><time>2026-04-18T12:29:52.001Z</time></trkpt><trkpt lat="42.12504939806579" lon="11.93236148030488"><ele>408.0</ele><time>2026-04-18T12:29:55.001Z</time></trkpt><trkpt lat="42.12506033410209" lon="11.9322254433344"><ele>407.0</ele><time>2026-04-18T12:29:57.001Z</time></trkpt><trkpt lat="42.125152695117336" lon="11.932098328245083"><ele>406.0</ele><time>2026-04-18T12:29:59.001Z</time></trkpt><trkpt lat="42.125190348508845" lon="11.932029640029045"><ele>406.0</ele><time>2026-04-18T12:30:00.001Z</time></trkpt><trkpt lat="42.12525423338438" lon="11.931872113742248"><ele>406.0</ele><time>2026-04-18T12:30:02.001Z</time></trkpt><trkpt lat="42.12528210562389" lon="11.931778394739142"><ele>406.0</ele><time>2026-04-18T12:30:03.001Z</time></trkpt><trkpt lat="42.125293426407076" lon="11.931664498929498"><ele>406.0</ele><time>2026-04-18T12:30:04.001Z</time></trkpt><trkpt lat="42.125310401674966" lon="11.931551756414184"><ele>406.0</ele><time>2026-04-18T12:30:05.001Z</time></trkpt><trkpt lat="42.125332445810805" lon="11.931436703562843"><ele>406.57142857142856</ele><time>2026-04-18T12:30:06.001Z</time></trkpt><trkpt lat="42.12537264220897" lon="11.931366021864143"><ele>407.1428571428571</ele><time>2026-04-18T12:30:07.001Z</time></trkpt><trkpt lat="42.12539508976386" lon="11.931276805266695"><ele>407.7142857142857</ele><time>2026-04-18T12:30:11.001Z</time></trkpt><trkpt lat="42.12538869848311" lon="11.931145509431692"><ele>408.2857142857143</ele><time>2026-04-18T12:30:13.001Z</time></trkpt><trkpt lat="42.1253661738615" lon="11.931063433019494"><ele>408.85714285714283</ele><time>2026-04-18T12:30:14.001Z</time></trkpt><trkpt lat="42.12536090306785" lon="11.930975486649562"><ele>409.42857142857144</ele><time>2026-04-18T12:30:15.001Z</time></trkpt><trkpt lat="42.125367968113586" lon="11.930880341920812"><ele>410.0</ele><time>2026-04-18T12:30:16.001Z</time></trkpt><trkpt lat="42.125385229666946" lon="11.93078836478981"><ele>411.4</ele><time>2026-04-18T12:30:17.001Z</time></trkpt><trkpt lat="42.12544169854505" lon="11.930645089790394"><ele>412.8</ele><time>2026-04-18T12:30:18.001Z</time></trkpt><trkpt lat="42.125491794660896" lon="11.930489163210662"><ele>414.20000000000005</ele><time>2026-04-18T12:30:19.001Z</time></trkpt><trkpt lat="42.12555024561289" lon="11.9303728553033"><ele>415.6</ele><time>2026-04-18T12:30:20.002Z</time></trkpt><trkpt lat="42.12561590916999" lon="11.93028158617784"><ele>417.0</ele><time>2026-04-18T12:30:21.002Z</time></trkpt><trkpt lat="42.12566417519499" lon="11.930204007927765"><ele>417.0</ele><time>2026-04-18T12:30:22.002Z</time></trkpt><trkpt lat="42.12570398228489" lon="11.930133962587801"><ele>417.0</ele><time>2026-04-18T12:30:23.002Z</time></trkpt><trkpt lat="42.125714482701895" lon="11.930039232408356"><ele>417.0</ele><time>2026-04-18T12:30:24.002Z</time></trkpt><trkpt lat="42.12569646837547" lon="11.929925989216907"><ele>417.0</ele><time>2026-04-18T12:30:25.002Z</time></trkpt><trkpt lat="42.12568676145815" lon="11.929804599605273"><ele>417.0</ele><time>2026-04-18T12:30:26.002Z</time></trkpt><trkpt lat="42.125686193968434" lon="11.929710763674377"><ele>417.0</ele><time>2026-04-18T12:30:27.002Z</time></trkpt><trkpt lat="42.125712677056605" lon="11.929610308588595"><ele>414.8333333333333</ele><time>2026-04-18T12:30:28.002Z</time></trkpt><trkpt lat="42.12574423388165" lon="11.929499997289454"><ele>412.66666666666663</ele><time>2026-04-18T12:30:29.002Z</time></trkpt><trkpt lat="42.12575198449583" lon="11.929399726353202"><ele>410.5</ele><time>2026-04-18T12:30:30.002Z</time></trkpt><trkpt lat="42.125760084775074" lon="11.929295825504179"><ele>408.3333333333333</ele><time>2026-04-18T12:30:31.002Z</time></trkpt><trkpt lat="42.125744318025994" lon="11.929134923817607"><ele>406.16666666666663</ele><time>2026-04-18T12:30:33.002Z</time></trkpt><trkpt lat="42.12569895993455" lon="11.92904338377012"><ele>404.0</ele><time>2026-04-18T12:30:34.002Z</time></trkpt><trkpt lat="42.125643820864674" lon="11.92898093895664"><ele>409.16666666666663</ele><time>2026-04-18T12:30:35.002Z</time></trkpt><trkpt lat="42.12558507044901" lon="11.928934387941517"><ele>414.3333333333333</ele><time>2026-04-18T12:30:36.002Z</time></trkpt><trkpt lat="42.125495609810976" lon="11.928841219933254"><ele>419.5</ele><time>2026-04-18T12:30:38.002Z</time></trkpt><trkpt lat="42.12544404158987" lon="11.928758508215102"><ele>424.66666666666663</ele><time>2026-04-18T12:30:40.002Z</time></trkpt><trkpt lat="42.125432291356695" lon="11.928622930040222"><ele>429.8333333333333</ele><time>2026-04-18T12:30:42.002Z</time></trkpt><trkpt lat="42.12543309201695" lon="11.928532558858446"><ele>435.0</ele><time>2026-04-18T12:30:43.002Z</time></trkpt><trkpt lat="42.12543181838752" lon="11.928443015243074"><ele>433.6</ele><time>2026-04-18T12:30:44.002Z</time></trkpt><trkpt lat="42.12542323027077" lon="11.928352000697512"><ele>432.2</ele><time>2026-04-18T12:30:45.002Z</time></trkpt><trkpt lat="42.12541687723024" lon="11.928191424826222"><ele>430.79999999999995</ele><time>2026-04-18T12:30:47.002Z</time></trkpt><trkpt lat="42.12532694158531" lon="11.928060871236967"><ele>429.4</ele><time>2026-04-18T12:30:49.002Z</time></trkpt><trkpt lat="42.12524791388669" lon="11.928006177331234"><ele>428.0</ele><time>2026-04-18T12:30:50.002Z</time></trkpt><trkpt lat="42.12515481558209" lon="11.927966656411321"><ele>428.0</ele><time>2026-04-18T12:30:51.002Z</time></trkpt><trkpt lat="42.12507713265306" lon="11.927930832589427"><ele>427.99999999999994</ele><time>2026-04-18T12:30:52.002Z</time></trkpt><trkpt lat="42.12502791438949" lon="11.927874061120075"><ele>427.99999999999994</ele><time>2026-04-18T12:30:53.002Z</time></trkpt><trkpt lat="42.12498335913775" lon="11.92778978121366"><ele>428.0</ele><time>2026-04-18T12:30:54.002Z</time></trkpt><trkpt lat="42.124958438608" lon="11.927645933974226"><ele>428.0</ele><time>2026-04-18T12:30:56.002Z</time></trkpt><trkpt lat="42.12493253262184" lon="11.927490867699003"><ele>426.8333333333333</ele><time>2026-04-18T12:30:58.002Z</time></trkpt><trkpt lat="42.124849836277235" lon="11.927400757057"><ele>425.66666666666663</ele><time>2026-04-18T12:31:00.002Z</time></trkpt><trkpt lat="42.12476951407842" lon="11.927403918731876"><ele>424.5</ele><time>2026-04-18T12:31:01.002Z</time></trkpt><trkpt lat="42.12470140586852" lon="11.927423302409034"><ele>423.33333333333337</ele><time>2026-04-18T12:31:02.002Z</time></trkpt><trkpt lat="42.12462675795583" lon="11.927441055650867"><ele>422.1666666666667</ele><time>2026-04-18T12:31:03.001Z</time></trkpt><trkpt lat="42.124556726988224" lon="11.92746749419158"><ele>421.0</ele><time>2026-04-18T12:31:04.001Z</time></trkpt><trkpt lat="42.12443200022092" lon="11.927544936344423"><ele>423.83333333333337</ele><time>2026-04-18T12:31:06.001Z</time></trkpt><trkpt lat="42.124373392490014" lon="11.927586900721474"><ele>426.6666666666667</ele><time>2026-04-18T12:31:07.001Z</time></trkpt><trkpt lat="42.12426589642562" lon="11.927672634101619"><ele>429.5</ele><time>2026-04-18T12:31:09.001Z</time></trkpt><trkpt lat="42.124200529613255" lon="11.9277211142777"><ele>432.33333333333337</ele><time>2026-04-18T12:31:10.001Z</time></trkpt><trkpt lat="42.12414477208898" lon="11.927777553830076"><ele>435.1666666666667</ele><time>2026-04-18T12:31:11.001Z</time></trkpt><trkpt lat="42.124087975776455" lon="11.927819884962691"><ele>438.0</ele><time>2026-04-18T12:31:12.001Z</time></trkpt><trkpt lat="42.1240068532567" lon="11.92785382449224"><ele>440.75</ele><time>2026-04-18T12:31:14.001Z</time></trkpt><trkpt lat="42.12388764979648" lon="11.927826829190357"><ele>443.5</ele><time>2026-04-18T12:31:16.001Z</time></trkpt><trkpt lat="42.123775367890126" lon="11.927787038475397"><ele>446.25</ele><time>2026-04-18T12:31:18.001Z</time></trkpt><trkpt lat="42.123682226863345" lon="11.927672335399523"><ele>449.0</ele><time>2026-04-18T12:31:20.001Z</time></trkpt><trkpt lat="42.123562464995175" lon="11.927581754173536"><ele>447.4285714285714</ele><time>2026-04-18T12:31:22.001Z</time></trkpt><trkpt lat="42.12349589200648" lon="11.92755519096266"><ele>445.8571428571428</ele><time>2026-04-18T12:31:23.001Z</time></trkpt><trkpt lat="42.12343295258316" lon="11.927519409595885"><ele>444.2857142857143</ele><time>2026-04-18T12:31:24.001Z</time></trkpt><trkpt lat="42.12339874655846" lon="11.92744627595891"><ele>442.71428571428567</ele><time>2026-04-18T12:31:25.001Z</time></trkpt><trkpt lat="42.12336826059734" lon="11.927370285996137"><ele>441.1428571428571</ele><time>2026-04-18T12:31:26.001Z</time></trkpt><trkpt lat="42.123316711222714" lon="11.927227367710856"><ele>439.57142857142856</ele><time>2026-04-18T12:31:28.001Z</time></trkpt><trkpt lat="42.1233269384704" lon="11.927141567596744"><ele>438.0</ele><time>2026-04-18T12:31:29.001Z</time></trkpt><trkpt lat="42.12332942609695" lon="11.927049777847087"><ele>438.0</ele><time>2026-04-18T12:31:30.001Z</time></trkpt><trkpt lat="42.123312595318154" lon="11.92696311953471"><ele>438.0</ele><time>2026-04-18T12:31:31.001Z</time></trkpt><trkpt lat="42.12327833414" lon="11.926884665378594"><ele>438.0</ele><time>2026-04-18T12:31:32.001Z</time></trkpt><trkpt lat="42.12323584000078" lon="11.926819844435453"><ele>438.0</ele><time>2026-04-18T12:31:33.001Z</time></trkpt><trkpt lat="42.12317712222302" lon="11.926782882600826"><ele>438.0</ele><time>2026-04-18T12:31:34.001Z</time></trkpt><trkpt lat="42.123105857479054" lon="11.926760025532275"><ele>438.0</ele><time>2026-04-18T12:31:35.001Z</time></trkpt><trkpt lat="42.12303186191665" lon="11.92674193929065"><ele>438.0</ele><time>2026-04-18T12:31:36.001Z</time></trkpt><trkpt lat="42.122963997018765" lon="11.926742287254802"><ele>437.1666666666667</ele><time>2026-04-18T12:31:37.001Z</time></trkpt><trkpt lat="42.12290160747261" lon="11.926753770219992"><ele>436.33333333333337</ele><time>2026-04-18T12:31:38.001Z</time></trkpt><trkpt lat="42.12283352750619" lon="11.92677163887125"><ele>435.5</ele><time>2026-04-18T12:31:39.001Z</time></trkpt><trkpt lat="42.12275686652226" lon="11.926770730437354"><ele>434.6666666666667</ele><time>2026-04-18T12:31:40.001Z</time></trkpt><trkpt lat="42.12268783611534" lon="11.926780931180105"><ele>433.83333333333337</ele><time>2026-04-18T12:31:41.001Z</time></trkpt><trkpt lat="42.12261437724393" lon="11.926780825547985"><ele>433.0</ele><time>2026-04-18T12:31:42.001Z</time></trkpt><trkpt lat="42.12250028906805" lon="11.926684126932399"><ele>433.00000000000006</ele><time>2026-04-18T12:31:44.001Z</time></trkpt><trkpt lat="42.122419201472916" lon="11.9266030038143"><ele>433.0</ele><time>2026-04-18T12:31:46.001Z</time></trkpt><trkpt lat="42.1223156078653" lon="11.926651177232182"><ele>433.0</ele><time>2026-04-18T12:31:48.001Z</time></trkpt><trkpt lat="42.122257445323896" lon="11.926688334369596"><ele>433.0</ele><time>2026-04-18T12:31:49.001Z</time></trkpt><trkpt lat="42.122208097399344" lon="11.926742060745834"><ele>433.00000000000006</ele><time>2026-04-18T12:31:50.001Z</time></trkpt><trkpt lat="42.12215344676593" lon="11.926792615201899"><ele>433.0</ele><time>2026-04-18T12:31:51.001Z</time></trkpt><trkpt lat="42.12204239947974" lon="11.926846270535819"><ele>436.59999999999997</ele><time>2026-04-18T12:31:53.001Z</time></trkpt><trkpt lat="42.121933117751865" lon="11.926855954398029"><ele>440.19999999999993</ele><time>2026-04-18T12:31:55.001Z</time></trkpt><trkpt lat="42.121832048763004" lon="11.926944238784667"><ele>443.8</ele><time>2026-04-18T12:31:57.001Z</time></trkpt><trkpt lat="42.121761665842776" lon="11.927005463840368"><ele>447.4</ele><time>2026-04-18T12:31:58.001Z</time></trkpt><trkpt lat="42.121704586271676" lon="11.927073386643567"><ele>451.0</ele><time>2026-04-18T12:31:59.001Z</time></trkpt><trkpt lat="42.121633725318624" lon="11.92714007299085"><ele>451.00000000000006</ele><time>2026-04-18T12:32:00.001Z</time></trkpt><trkpt lat="42.12157386902275" lon="11.927228866183494"><ele>451.0</ele><time>2026-04-18T12:32:01.001Z</time></trkpt><trkpt lat="42.12151899329943" lon="11.927312445244114"><ele>451.0</ele><time>2026-04-18T12:32:02.001Z</time></trkpt><trkpt lat="42.12147077759394" lon="11.927385738790083"><ele>451.0</ele><time>2026-04-18T12:32:03.001Z</time></trkpt><trkpt lat="42.121403968291936" lon="11.92747031681404"><ele>451.00000000000006</ele><time>2026-04-18T12:32:04.001Z</time></trkpt><trkpt lat="42.12133270192433" lon="11.927528350578934"><ele>451.0</ele><time>2026-04-18T12:32:05.001Z</time></trkpt><trkpt lat="42.12126600738066" lon="11.927616089847204"><ele>451.0</ele><time>2026-04-18T12:32:06.001Z</time></trkpt><trkpt lat="42.121200049207815" lon="11.927727140327189"><ele>451.0</ele><time>2026-04-18T12:32:07.001Z</time></trkpt><trkpt lat="42.12114065082136" lon="11.927815590908443"><ele>451.0</ele><time>2026-04-18T12:32:08.001Z</time></trkpt><trkpt lat="42.12108058367708" lon="11.927893648511898"><ele>451.0</ele><time>2026-04-18T12:32:09.001Z</time></trkpt><trkpt lat="42.12100136698818" lon="11.927955417362712"><ele>451.0</ele><time>2026-04-18T12:32:10.001Z</time></trkpt><trkpt lat="42.12091372010921" lon="11.927992464046053"><ele>451.00000000000006</ele><time>2026-04-18T12:32:11.001Z</time></trkpt><trkpt lat="42.12082418357185" lon="11.928039800958262"><ele>451.0</ele><time>2026-04-18T12:32:12.001Z</time></trkpt><trkpt lat="42.12072575645241" lon="11.92807954162484"><ele>451.0</ele><time>2026-04-18T12:32:13.001Z</time></trkpt><trkpt lat="42.12063702682064" lon="11.928119918417252"><ele>451.0</ele><time>2026-04-18T12:32:14.001Z</time></trkpt><trkpt lat="42.12057943717599" lon="11.92816130887391"><ele>451.00000000000006</ele><time>2026-04-18T12:32:15.001Z</time></trkpt><trkpt lat="42.12050184128412" lon="11.928186889526518"><ele>451.0</ele><time>2026-04-18T12:32:17.001Z</time></trkpt><trkpt lat="42.12045881653762" lon="11.928045611805635"><ele>452.1666666666667</ele><time>2026-04-18T12:32:19.001Z</time></trkpt><trkpt lat="42.12047575741558" lon="11.927949461461889"><ele>453.33333333333337</ele><time>2026-04-18T12:32:20.001Z</time></trkpt><trkpt lat="42.12051514711803" lon="11.927853806756332"><ele>454.5</ele><time>2026-04-18T12:32:21.001Z</time></trkpt><trkpt lat="42.120544967211146" lon="11.927765259151494"><ele>455.66666666666663</ele><time>2026-04-18T12:32:22.001Z</time></trkpt><trkpt lat="42.120575737715555" lon="11.92769054755716"><ele>456.8333333333333</ele><time>2026-04-18T12:32:23.001Z</time></trkpt><trkpt lat="42.120627494511275" lon="11.927539237699252"><ele>458.0</ele><time>2026-04-18T12:32:25.001Z</time></trkpt><trkpt lat="42.12065502331851" lon="11.927442021772162"><ele>458.66666666666663</ele><time>2026-04-18T12:32:26.001Z</time></trkpt><trkpt lat="42.120661553504554" lon="11.927337672921736"><ele>459.3333333333333</ele><time>2026-04-18T12:32:27.001Z</time></trkpt><trkpt lat="42.12064952378506" lon="11.92722560395539"><ele>460.0</ele><time>2026-04-18T12:32:28.001Z</time></trkpt><trkpt lat="42.120629351933516" lon="11.927118830006538"><ele>460.66666666666663</ele><time>2026-04-18T12:32:29.001Z</time></trkpt><trkpt lat="42.12061009628091" lon="11.927018292324659"><ele>461.3333333333333</ele><time>2026-04-18T12:32:30.001Z</time></trkpt><trkpt lat="42.12057868706405" lon="11.926915948145181"><ele>462.0</ele><time>2026-04-18T12:32:31.001Z</time></trkpt><trkpt lat="42.1205688806859" lon="11.926822883655978"><ele>462.0</ele><time>2026-04-18T12:32:32.001Z</time></trkpt><trkpt lat="42.12055537013438" lon="11.926739263492928"><ele>462.0</ele><time>2026-04-18T12:32:33.001Z</time></trkpt><trkpt lat="42.12052102995874" lon="11.92664522864584"><ele>462.0</ele><time>2026-04-18T12:32:35.001Z</time></trkpt><trkpt lat="42.12050014775692" lon="11.926556294443941"><ele>462.0</ele><time>2026-04-18T12:32:36.001Z</time></trkpt><trkpt lat="42.12046973331144" lon="11.926454766975988"><ele>462.0</ele><time>2026-04-18T12:32:37.002Z</time></trkpt><trkpt lat="42.12043864766207" lon="11.92634726448345"><ele>462.0</ele><time>2026-04-18T12:32:38.001Z</time></trkpt><trkpt lat="42.120398345098494" lon="11.926206793523333"><ele>461.0</ele><time>2026-04-18T12:32:39.002Z</time></trkpt><trkpt lat="42.12034943940252" lon="11.92606269257588"><ele>460.00000000000006</ele><time>2026-04-18T12:32:40.002Z</time></trkpt><trkpt lat="42.12029491248725" lon="11.925929831154905"><ele>459.00000000000006</ele><time>2026-04-18T12:32:41.002Z</time></trkpt><trkpt lat="42.12025098507287" lon="11.925823012810813"><ele>458.0</ele><time>2026-04-18T12:32:42.002Z</time></trkpt><trkpt lat="42.120213735331234" lon="11.925718409179138"><ele>457.0</ele><time>2026-04-18T12:32:43.002Z</time></trkpt><trkpt lat="42.120170668226024" lon="11.925636697185384"><ele>455.8</ele><time>2026-04-18T12:32:44.002Z</time></trkpt><trkpt lat="42.12011471803179" lon="11.925490665637634"><ele>454.6</ele><time>2026-04-18T12:32:46.002Z</time></trkpt><trkpt lat="42.12006093815311" lon="11.925362748259104"><ele>453.40000000000003</ele><time>2026-04-18T12:32:48.002Z</time></trkpt><trkpt lat="42.11999475508555" lon="11.925307077246838"><ele>452.20000000000005</ele><time>2026-04-18T12:33:00.002Z</time></trkpt><trkpt lat="42.11992672869572" lon="11.925413647052572"><ele>451.0</ele><time>2026-04-18T12:34:24.001Z</time></trkpt><trkpt lat="42.119851395328276" lon="11.925542655905911"><ele>450.83333333333337</ele><time>2026-04-18T12:34:26.001Z</time></trkpt><trkpt lat="42.1198046346704" lon="11.925599819059007"><ele>450.6666666666667</ele><time>2026-04-18T12:34:27.001Z</time></trkpt><trkpt lat="42.119717388001035" lon="11.925726592532781"><ele>450.5</ele><time>2026-04-18T12:34:29.001Z</time></trkpt><trkpt lat="42.11967271192078" lon="11.925799126768393"><ele>450.33333333333337</ele><time>2026-04-18T12:34:30.001Z</time></trkpt><trkpt lat="42.11962463349799" lon="11.925876204479836"><ele>450.1666666666667</ele><time>2026-04-18T12:34:31.001Z</time></trkpt><trkpt lat="42.1195741357307" lon="11.92594922773766"><ele>450.0</ele><time>2026-04-18T12:34:32.001Z</time></trkpt><trkpt lat="42.11951861599657" lon="11.926031125874589"><ele>449.8</ele><time>2026-04-18T12:34:33.001Z</time></trkpt><trkpt lat="42.119464410245534" lon="11.926117349598645"><ele>449.6</ele><time>2026-04-18T12:34:34.001Z</time></trkpt><trkpt lat="42.1194080708829" lon="11.926212731149477"><ele>449.4</ele><time>2026-04-18T12:34:35.001Z</time></trkpt><trkpt lat="42.11934485836873" lon="11.926312353668413"><ele>449.2</ele><time>2026-04-18T12:34:36.001Z</time></trkpt><trkpt lat="42.1192792247806" lon="11.926420700885574"><ele>449.0</ele><time>2026-04-18T12:34:37.001Z</time></trkpt><trkpt lat="42.119211898207574" lon="11.926529202872233"><ele>449.0</ele><time>2026-04-18T12:34:38.001Z</time></trkpt><trkpt lat="42.119150438708544" lon="11.92662808453955"><ele>449.0</ele><time>2026-04-18T12:34:39.001Z</time></trkpt><trkpt lat="42.11908327769748" lon="11.926700548185798"><ele>449.0</ele><time>2026-04-18T12:34:40.001Z</time></trkpt><trkpt lat="42.11900181188263" lon="11.926786146492423"><ele>449.0</ele><time>2026-04-18T12:34:41.001Z</time></trkpt><trkpt lat="42.11891070401006" lon="11.926866448981333"><ele>449.0</ele><time>2026-04-18T12:34:42.001Z</time></trkpt><trkpt lat="42.11881353291474" lon="11.926951933816692"><ele>448.2</ele><time>2026-04-18T12:34:43.001Z</time></trkpt><trkpt lat="42.11870851876882" lon="11.927034514815054"><ele>447.4</ele><time>2026-04-18T12:34:44.001Z</time></trkpt><trkpt lat="42.11861814327386" lon="11.927096286318875"><ele>446.6</ele><time>2026-04-18T12:34:45.001Z</time></trkpt><trkpt lat="42.11853222132189" lon="11.927130133049493"><ele>445.8</ele><time>2026-04-18T12:34:47.001Z</time></trkpt><trkpt lat="42.11848613042106" lon="11.927047808084062"><ele>445.0</ele><time>2026-04-18T12:35:02.002Z</time></trkpt><trkpt lat="42.118432766161746" lon="11.92694371385015"><ele>445.00000000000006</ele><time>2026-04-18T12:35:04.002Z</time></trkpt><trkpt lat="42.11833117884747" lon="11.926883076339994"><ele>445.0</ele><time>2026-04-18T12:35:06.002Z</time></trkpt><trkpt lat="42.11826590484507" lon="11.926831602562693"><ele>445.0</ele><time>2026-04-18T12:35:07.002Z</time></trkpt><trkpt lat="42.118207222924816" lon="11.926764746122364"><ele>445.0</ele><time>2026-04-18T12:35:08.002Z</time></trkpt><trkpt lat="42.11814605541183" lon="11.926693626343528"><ele>445.00000000000006</ele><time>2026-04-18T12:35:09.002Z</time></trkpt><trkpt lat="42.11808443696035" lon="11.926599707063643"><ele>445.0</ele><time>2026-04-18T12:35:10.002Z</time></trkpt><trkpt lat="42.11802022598944" lon="11.926493462813616"><ele>444.33333333333337</ele><time>2026-04-18T12:35:11.002Z</time></trkpt><trkpt lat="42.117962760459136" lon="11.92638903436285"><ele>443.6666666666667</ele><time>2026-04-18T12:35:12.002Z</time></trkpt><trkpt lat="42.117920443201776" lon="11.926293392084132"><ele>443.0</ele><time>2026-04-18T12:35:13.002Z</time></trkpt><trkpt lat="42.1178801930852" lon="11.926207657020875"><ele>442.33333333333337</ele><time>2026-04-18T12:35:14.002Z</time></trkpt><trkpt lat="42.11783190317652" lon="11.926088469978048"><ele>441.6666666666667</ele><time>2026-04-18T12:35:15.001Z</time></trkpt><trkpt lat="42.11780314201516" lon="11.925969107322718"><ele>441.0</ele><time>2026-04-18T12:35:16.001Z</time></trkpt><trkpt lat="42.117788724062365" lon="11.925878703337204"><ele>439.85714285714283</ele><time>2026-04-18T12:35:17.001Z</time></trkpt><trkpt lat="42.11777256170146" lon="11.925796118198159"><ele>438.7142857142857</ele><time>2026-04-18T12:35:18.001Z</time></trkpt><trkpt lat="42.117764674589814" lon="11.925698503821916"><ele>437.57142857142856</ele><time>2026-04-18T12:35:19Z</time></trkpt><trkpt lat="42.11776449311727" lon="11.925604116266877"><ele>436.42857142857144</ele><time>2026-04-18T12:35:20Z</time></trkpt><trkpt lat="42.11776163886918" lon="11.92551539864233"><ele>435.2857142857143</ele><time>2026-04-18T12:35:21Z</time></trkpt><trkpt lat="42.117741749402974" lon="11.925424735898975"><ele>434.1428571428571</ele><time>2026-04-18T12:35:22Z</time></trkpt><trkpt lat="42.117705487722326" lon="11.925343992518174"><ele>433.0</ele><time>2026-04-18T12:35:23Z</time></trkpt><trkpt lat="42.1176518024643" lon="11.925254252722253"><ele>433.00000000000006</ele><time>2026-04-18T12:35:24Z</time></trkpt><trkpt lat="42.1175939842759" lon="11.925174360702977"><ele>433.0</ele><time>2026-04-18T12:35:25Z</time></trkpt><trkpt lat="42.117524015709655" lon="11.925109666489814"><ele>433.0</ele><time>2026-04-18T12:35:26Z</time></trkpt><trkpt lat="42.11745044090896" lon="11.925053217668756"><ele>433.0</ele><time>2026-04-18T12:35:27Z</time></trkpt><trkpt lat="42.11738191249013" lon="11.9250208601479"><ele>433.00000000000006</ele><time>2026-04-18T12:35:28Z</time></trkpt><trkpt lat="42.117313588823265" lon="11.925021965216722"><ele>433.0</ele><time>2026-04-18T12:35:29Z</time></trkpt><trkpt lat="42.11723893008218" lon="11.925054305138381"><ele>432.83333333333337</ele><time>2026-04-18T12:35:30Z</time></trkpt><trkpt lat="42.11716783525917" lon="11.925099988194"><ele>432.6666666666667</ele><time>2026-04-18T12:35:31Z</time></trkpt><trkpt lat="42.11708741973071" lon="11.925148907011492"><ele>432.5</ele><time>2026-04-18T12:35:32Z</time></trkpt><trkpt lat="42.11701072642561" lon="11.92515857672806"><ele>432.33333333333337</ele><time>2026-04-18T12:35:33Z</time></trkpt><trkpt lat="42.11694838536378" lon="11.925129569930615"><ele>432.1666666666667</ele><time>2026-04-18T12:35:34Z</time></trkpt><trkpt lat="42.116886569710374" lon="11.925068507543454"><ele>432.0</ele><time>2026-04-18T12:35:35Z</time></trkpt><trkpt lat="42.11683264180933" lon="11.924980499939691"><ele>430.0</ele><time>2026-04-18T12:35:36Z</time></trkpt><trkpt lat="42.116776102748744" lon="11.924883421458045"><ele>428.00000000000006</ele><time>2026-04-18T12:35:37Z</time></trkpt><trkpt lat="42.11670403950448" lon="11.924775022690097"><ele>426.0</ele><time>2026-04-18T12:35:38Z</time></trkpt><trkpt lat="42.116629134049425" lon="11.924683312797963"><ele>424.0</ele><time>2026-04-18T12:35:39Z</time></trkpt><trkpt lat="42.11656000253675" lon="11.92460664250412"><ele>422.0</ele><time>2026-04-18T12:35:40Z</time></trkpt><trkpt lat="42.1164774067367" lon="11.924503835442339"><ele>421.6</ele><time>2026-04-18T12:35:41Z</time></trkpt><trkpt lat="42.11642103568741" lon="11.924402799592835"><ele>421.20000000000005</ele><time>2026-04-18T12:35:42Z</time></trkpt><trkpt lat="42.1163830645795" lon="11.924281109968842"><ele>420.8</ele><time>2026-04-18T12:35:43Z</time></trkpt><trkpt lat="42.116356437833" lon="11.92413233447811"><ele>420.4</ele><time>2026-04-18T12:35:44Z</time></trkpt><trkpt lat="42.1163304488757" lon="11.92397438003065"><ele>420.0</ele><time>2026-04-18T12:35:45Z</time></trkpt><trkpt lat="42.11632241595708" lon="11.923819774009846"><ele>420.0</ele><time>2026-04-18T12:35:46Z</time></trkpt><trkpt lat="42.11633957506467" lon="11.923657573404487"><ele>420.0</ele><time>2026-04-18T12:35:47Z</time></trkpt><trkpt lat="42.11637777852151" lon="11.923516812505039"><ele>420.0</ele><time>2026-04-18T12:35:48Z</time></trkpt><trkpt lat="42.11643477477958" lon="11.923393142320345"><ele>420.0</ele><time>2026-04-18T12:35:49.001Z</time></trkpt><trkpt lat="42.11650340384261" lon="11.923268300232184"><ele>420.5</ele><time>2026-04-18T12:35:50.001Z</time></trkpt><trkpt lat="42.116572146672404" lon="11.923140061518064"><ele>421.0</ele><time>2026-04-18T12:35:51.001Z</time></trkpt><trkpt lat="42.11662763237287" lon="11.92303686873252"><ele>421.5</ele><time>2026-04-18T12:35:52.001Z</time></trkpt><trkpt lat="42.1167046574972" lon="11.922897218418115"><ele>422.0</ele><time>2026-04-18T12:35:53.001Z</time></trkpt><trkpt lat="42.11676080553924" lon="11.922757665908764"><ele>422.0</ele><time>2026-04-18T12:35:54.001Z</time></trkpt><trkpt lat="42.11677716430681" lon="11.922628424840088"><ele>422.0</ele><time>2026-04-18T12:35:55.001Z</time></trkpt><trkpt lat="42.11679466165325" lon="11.922475400958346"><ele>422.0</ele><time>2026-04-18T12:35:56.001Z</time></trkpt><trkpt lat="42.11682662526291" lon="11.922334111869619"><ele>422.0</ele><time>2026-04-18T12:35:57.001Z</time></trkpt><trkpt lat="42.116866138223195" lon="11.922206515435361"><ele>422.0</ele><time>2026-04-18T12:35:58.001Z</time></trkpt><trkpt lat="42.11689731129812" lon="11.922084549106874"><ele>425.0</ele><time>2026-04-18T12:35:59.001Z</time></trkpt><trkpt lat="42.116891968176205" lon="11.921968845337208"><ele>428.0</ele><time>2026-04-18T12:36:00.001Z</time></trkpt><trkpt lat="42.116859553091764" lon="11.921857712553908"><ele>431.0</ele><time>2026-04-18T12:36:01.001Z</time></trkpt><trkpt lat="42.116782350222756" lon="11.921730221824934"><ele>434.0</ele><time>2026-04-18T12:36:02.001Z</time></trkpt><trkpt lat="42.11667440098457" lon="11.921579840943869"><ele>434.2</ele><time>2026-04-18T12:36:03.001Z</time></trkpt><trkpt lat="42.116592015361846" lon="11.921436229422547"><ele>434.4</ele><time>2026-04-18T12:36:04.001Z</time></trkpt><trkpt lat="42.11654066796278" lon="11.921290449160516"><ele>434.6</ele><time>2026-04-18T12:36:05.001Z</time></trkpt><trkpt lat="42.11650737867398" lon="11.921158278539757"><ele>434.8</ele><time>2026-04-18T12:36:06.001Z</time></trkpt><trkpt lat="42.11648922448748" lon="11.921046864798116"><ele>435.0</ele><time>2026-04-18T12:36:07.001Z</time></trkpt><trkpt lat="42.116488840006724" lon="11.92090875006147"><ele>434.25</ele><time>2026-04-18T12:36:08.001Z</time></trkpt><trkpt lat="42.11650466894063" lon="11.920763186355634"><ele>433.5</ele><time>2026-04-18T12:36:09.001Z</time></trkpt><trkpt lat="42.11652302038766" lon="11.920604708996729"><ele>432.75</ele><time>2026-04-18T12:36:10.001Z</time></trkpt><trkpt lat="42.11653650803106" lon="11.920441493086363"><ele>432.0</ele><time>2026-04-18T12:36:11.001Z</time></trkpt><trkpt lat="42.11654904467212" lon="11.920275187204336"><ele>432.0</ele><time>2026-04-18T12:36:12.001Z</time></trkpt><trkpt lat="42.11656116361839" lon="11.920112111911104"><ele>432.0</ele><time>2026-04-18T12:36:13.001Z</time></trkpt><trkpt lat="42.11657467735503" lon="11.919948271141495"><ele>432.0</ele><time>2026-04-18T12:36:14.001Z</time></trkpt><trkpt lat="42.116592205690964" lon="11.919787233645126"><ele>432.0</ele><time>2026-04-18T12:36:15.001Z</time></trkpt><trkpt lat="42.11661335515537" lon="11.919653143322464"><ele>431.8</ele><time>2026-04-18T12:36:16.001Z</time></trkpt><trkpt lat="42.11663084770058" lon="11.91952169766668"><ele>431.6</ele><time>2026-04-18T12:36:17.001Z</time></trkpt><trkpt lat="42.11664430924833" lon="11.91937795654223"><ele>431.40000000000003</ele><time>2026-04-18T12:36:18.001Z</time></trkpt><trkpt lat="42.11664625334345" lon="11.91921928015624"><ele>431.20000000000005</ele><time>2026-04-18T12:36:19.001Z</time></trkpt><trkpt lat="42.116632388553924" lon="11.919076904007193"><ele>431.0</ele><time>2026-04-18T12:36:20.001Z</time></trkpt><trkpt lat="42.116600811551585" lon="11.918969865455832"><ele>429.6</ele><time>2026-04-18T12:36:21.001Z</time></trkpt><trkpt lat="42.1165444343858" lon="11.918870610005335"><ele>428.20000000000005</ele><time>2026-04-18T12:36:22.001Z</time></trkpt><trkpt lat="42.116462427669966" lon="11.918771980890945"><ele>426.79999999999995</ele><time>2026-04-18T12:36:23.001Z</time></trkpt><trkpt lat="42.11637530909251" lon="11.918660205585407"><ele>425.4</ele><time>2026-04-18T12:36:24.001Z</time></trkpt><trkpt lat="42.116290910686445" lon="11.918544668121259"><ele>424.0</ele><time>2026-04-18T12:36:25.001Z</time></trkpt><trkpt lat="42.11619977340719" lon="11.918420430179587"><ele>423.25</ele><time>2026-04-18T12:36:26.001Z</time></trkpt><trkpt lat="42.11610788327505" lon="11.918289755143313"><ele>422.5</ele><time>2026-04-18T12:36:27.001Z</time></trkpt><trkpt lat="42.1160169518553" lon="11.918157499162717"><ele>421.75</ele><time>2026-04-18T12:36:28.001Z</time></trkpt><trkpt lat="42.115927734108645" lon="11.918029091408286"><ele>421.0</ele><time>2026-04-18T12:36:29.001Z</time></trkpt><trkpt lat="42.11584677451537" lon="11.917899778920635"><ele>421.0</ele><time>2026-04-18T12:36:30.001Z</time></trkpt><trkpt lat="42.11577355060006" lon="11.917775558352771"><ele>421.0</ele><time>2026-04-18T12:36:31.001Z</time></trkpt><trkpt lat="42.115691198022056" lon="11.917645213617847"><ele>421.0</ele><time>2026-04-18T12:36:32.001Z</time></trkpt><trkpt lat="42.115605036141076" lon="11.917535314381473"><ele>421.0</ele><time>2026-04-18T12:36:33.001Z</time></trkpt><trkpt lat="42.115528157132694" lon="11.917438853484061"><ele>417.8</ele><time>2026-04-18T12:36:34.001Z</time></trkpt><trkpt lat="42.11546550306051" lon="11.917343164365507"><ele>414.6</ele><time>2026-04-18T12:36:35.001Z</time></trkpt><trkpt lat="42.11540039730607" lon="11.917232157021232"><ele>411.4</ele><time>2026-04-18T12:36:36.001Z</time></trkpt><trkpt lat="42.115331495058335" lon="11.917134673913942"><ele>408.2</ele><time>2026-04-18T12:36:37.001Z</time></trkpt><trkpt lat="42.11524623283073" lon="11.917022149509192"><ele>405.0</ele><time>2026-04-18T12:36:38.001Z</time></trkpt><trkpt lat="42.11516268230729" lon="11.916893575638026"><ele>405.0</ele><time>2026-04-18T12:36:39.001Z</time></trkpt><trkpt lat="42.11508243816426" lon="11.916767331356699"><ele>405.0</ele><time>2026-04-18T12:36:40.001Z</time></trkpt><trkpt lat="42.11501503445393" lon="11.916625318893248"><ele>405.0</ele><time>2026-04-18T12:36:41.001Z</time></trkpt><trkpt lat="42.11495473167542" lon="11.916466821444523"><ele>405.0</ele><time>2026-04-18T12:36:42.001Z</time></trkpt><trkpt lat="42.114900054362906" lon="11.916313970804525"><ele>403.75</ele><time>2026-04-18T12:36:43.001Z</time></trkpt><trkpt lat="42.11485271859629" lon="11.916171866945465"><ele>402.5</ele><time>2026-04-18T12:36:44.001Z</time></trkpt><trkpt lat="42.11479215418915" lon="11.916041525406836"><ele>401.25</ele><time>2026-04-18T12:36:45.001Z</time></trkpt><trkpt lat="42.11472285694626" lon="11.915892165432233"><ele>400.0</ele><time>2026-04-18T12:36:46.001Z</time></trkpt><trkpt lat="42.11465903508915" lon="11.91573754238075"><ele>400.0</ele><time>2026-04-18T12:36:47.001Z</time></trkpt><trkpt lat="42.11460936876603" lon="11.915579592526923"><ele>400.0</ele><time>2026-04-18T12:36:48.001Z</time></trkpt><trkpt lat="42.11455836667514" lon="11.915427809698372"><ele>400.0</ele><time>2026-04-18T12:36:49.001Z</time></trkpt><trkpt lat="42.11451655147107" lon="11.915300168759206"><ele>400.0</ele><time>2026-04-18T12:36:50.001Z</time></trkpt><trkpt lat="42.1144901324954" lon="11.915185789586872"><ele>400.0</ele><time>2026-04-18T12:36:51.001Z</time></trkpt><trkpt lat="42.114476741703704" lon="11.915087823710264"><ele>399.33333333333337</ele><time>2026-04-18T12:36:52.001Z</time></trkpt><trkpt lat="42.11448639839624" lon="11.914985422380209"><ele>398.6666666666667</ele><time>2026-04-18T12:36:53.001Z</time></trkpt><trkpt lat="42.114518693460276" lon="11.914893536405462"><ele>398.0</ele><time>2026-04-18T12:36:54.001Z</time></trkpt><trkpt lat="42.114533867087594" lon="11.91479375180079"><ele>397.33333333333337</ele><time>2026-04-18T12:36:55.001Z</time></trkpt><trkpt lat="42.11455059255286" lon="11.914693975665427"><ele>396.6666666666667</ele><time>2026-04-18T12:36:56.001Z</time></trkpt><trkpt lat="42.11456851228328" lon="11.914578700453516"><ele>396.0</ele><time>2026-04-18T12:36:57.001Z</time></trkpt><trkpt lat="42.11457648413189" lon="11.91445508765946"><ele>396.0</ele><time>2026-04-18T12:36:58.001Z</time></trkpt><trkpt lat="42.1145797288219" lon="11.914362829979803"><ele>396.0</ele><time>2026-04-18T12:36:59.001Z</time></trkpt><trkpt lat="42.11460539362158" lon="11.914251449786413"><ele>396.0</ele><time>2026-04-18T12:37:00.001Z</time></trkpt><trkpt lat="42.114623188484394" lon="11.914138239138792"><ele>396.0</ele><time>2026-04-18T12:37:01.001Z</time></trkpt><trkpt lat="42.11463763045255" lon="11.914037238869"><ele>396.0</ele><time>2026-04-18T12:37:02.001Z</time></trkpt><trkpt lat="42.11465264311809" lon="11.91395478177341"><ele>396.0</ele><time>2026-04-18T12:37:03.001Z</time></trkpt><trkpt lat="42.114659343247915" lon="11.913865906751095"><ele>396.0</ele><time>2026-04-18T12:37:04.001Z</time></trkpt><trkpt lat="42.11466877373757" lon="11.913759823653978"><ele>393.1666666666667</ele><time>2026-04-18T12:37:05.001Z</time></trkpt><trkpt lat="42.11468217608329" lon="11.913658501026127"><ele>390.3333333333333</ele><time>2026-04-18T12:37:06.001Z</time></trkpt><trkpt lat="42.114692656435096" lon="11.913570836851838"><ele>387.5</ele><time>2026-04-18T12:37:07.001Z</time></trkpt><trkpt lat="42.1147068262832" lon="11.913422137429464"><ele>384.66666666666663</ele><time>2026-04-18T12:37:09.002Z</time></trkpt><trkpt lat="42.11471418041078" lon="11.913336721822192"><ele>381.8333333333333</ele><time>2026-04-18T12:37:10.002Z</time></trkpt><trkpt lat="42.1147256347903" lon="11.913210459586168"><ele>379.0</ele><time>2026-04-18T12:37:11.002Z</time></trkpt><trkpt lat="42.114740172023495" lon="11.913065625394749"><ele>376.4</ele><time>2026-04-18T12:37:12.002Z</time></trkpt><trkpt lat="42.11475000695693" lon="11.91293827000974"><ele>373.79999999999995</ele><time>2026-04-18T12:37:13.002Z</time></trkpt><trkpt lat="42.114742475078" lon="11.912828167833569"><ele>371.20000000000005</ele><time>2026-04-18T12:37:14.002Z</time></trkpt><trkpt lat="42.11471890494713" lon="11.912722420655431"><ele>368.6</ele><time>2026-04-18T12:37:15.002Z</time></trkpt><trkpt lat="42.11468275054535" lon="11.912635180877878"><ele>366.0</ele><time>2026-04-18T12:37:16.002Z</time></trkpt><trkpt lat="42.11463804770868" lon="11.912488539068384"><ele>364.8333333333333</ele><time>2026-04-18T12:37:18.002Z</time></trkpt><trkpt lat="42.1146198942514" lon="11.91239372466054"><ele>363.6666666666667</ele><time>2026-04-18T12:37:19.002Z</time></trkpt><trkpt lat="42.114599572533784" lon="11.912289032430909"><ele>362.5</ele><time>2026-04-18T12:37:20.002Z</time></trkpt><trkpt lat="42.11458658300205" lon="11.912168673997293"><ele>361.33333333333337</ele><time>2026-04-18T12:37:21Z</time></trkpt><trkpt lat="42.11457679294297" lon="11.912056717179338"><ele>360.1666666666667</ele><time>2026-04-18T12:37:22Z</time></trkpt><trkpt lat="42.114572039764404" lon="11.911953056364295"><ele>359.0</ele><time>2026-04-18T12:37:23Z</time></trkpt><trkpt lat="42.11458614129669" lon="11.911790604228207"><ele>357.2</ele><time>2026-04-18T12:37:25Z</time></trkpt><trkpt lat="42.11451480302661" lon="11.911648654799327"><ele>355.4</ele><time>2026-04-18T12:37:27Z</time></trkpt><trkpt lat="42.11446265562789" lon="11.911580684495378"><ele>353.6</ele><time>2026-04-18T12:37:28Z</time></trkpt><trkpt lat="42.1144021135235" lon="11.911521018696016"><ele>351.8</ele><time>2026-04-18T12:37:29Z</time></trkpt><trkpt lat="42.11429577019923" lon="11.911508005137929"><ele>350.0</ele><time>2026-04-18T12:37:31Z</time></trkpt><trkpt lat="42.11419032234182" lon="11.911589169270178"><ele>350.0</ele><time>2026-04-18T12:37:33Z</time></trkpt><trkpt lat="42.114123932114985" lon="11.911593200447184"><ele>350.0</ele><time>2026-04-18T12:37:34Z</time></trkpt><trkpt lat="42.1140343621117" lon="11.911621268197191"><ele>350.0</ele><time>2026-04-18T12:37:35Z</time></trkpt><trkpt lat="42.113959613987504" lon="11.911626218954513"><ele>350.0</ele><time>2026-04-18T12:37:36Z</time></trkpt><trkpt lat="42.11384680188295" lon="11.911604251432086"><ele>350.0</ele><time>2026-04-18T12:37:38Z</time></trkpt><trkpt lat="42.11377979445601" lon="11.911608745805976"><ele>350.0</ele><time>2026-04-18T12:37:39Z</time></trkpt><trkpt lat="42.11371583323439" lon="11.911646522701854"><ele>349.8</ele><time>2026-04-18T12:37:40Z</time></trkpt><trkpt lat="42.113631753085365" lon="11.91168508435108"><ele>349.6</ele><time>2026-04-18T12:37:41Z</time></trkpt><trkpt lat="42.113536022565015" lon="11.911707091887797"><ele>349.4</ele><time>2026-04-18T12:37:42Z</time></trkpt><trkpt lat="42.11344504483427" lon="11.91173171384338"><ele>349.2</ele><time>2026-04-18T12:37:43Z</time></trkpt><trkpt lat="42.11335067285345" lon="11.911740052340702"><ele>349.0</ele><time>2026-04-18T12:37:44Z</time></trkpt><trkpt lat="42.1132485907919" lon="11.91172959111354"><ele>350.0</ele><time>2026-04-18T12:37:45Z</time></trkpt><trkpt lat="42.11316734382916" lon="11.911689095941787"><ele>351.0</ele><time>2026-04-18T12:37:46Z</time></trkpt><trkpt lat="42.11309323054583" lon="11.911667248050325"><ele>352.0</ele><time>2026-04-18T12:37:47Z</time></trkpt><trkpt lat="42.113027348284504" lon="11.911644725147216"><ele>353.0</ele><time>2026-04-18T12:37:48Z</time></trkpt><trkpt lat="42.11295539445209" lon="11.911611627679674"><ele>354.0</ele><time>2026-04-18T12:37:49Z</time></trkpt><trkpt lat="42.11287757192517" lon="11.911561315706606"><ele>355.0</ele><time>2026-04-18T12:37:50Z</time></trkpt><trkpt lat="42.11281606508431" lon="11.911519945579858"><ele>355.0</ele><time>2026-04-18T12:37:51Z</time></trkpt><trkpt lat="42.11274826543191" lon="11.911439382586895"><ele>355.0</ele><time>2026-04-18T12:37:53Z</time></trkpt><trkpt lat="42.11270416358973" lon="11.911362665827495"><ele>355.0</ele><time>2026-04-18T12:37:54Z</time></trkpt><trkpt lat="42.112669951515294" lon="11.911210179579468"><ele>355.0</ele><time>2026-04-18T12:37:56Z</time></trkpt><trkpt lat="42.11264139492287" lon="11.911038632087077"><ele>355.0</ele><time>2026-04-18T12:37:58Z</time></trkpt><trkpt lat="42.112578807797945" lon="11.91091859166674"><ele>353.0</ele><time>2026-04-18T12:38:00Z</time></trkpt><trkpt lat="42.11250378704966" lon="11.910844396443029"><ele>351.0</ele><time>2026-04-18T12:38:02Z</time></trkpt><trkpt lat="42.11236384651449" lon="11.910808307691656"><ele>349.0</ele><time>2026-04-18T12:38:04Z</time></trkpt><trkpt lat="42.11226990828454" lon="11.91079598400274"><ele>347.0</ele><time>2026-04-18T12:38:05Z</time></trkpt><trkpt lat="42.11216620683176" lon="11.910774790106812"><ele>345.0</ele><time>2026-04-18T12:38:06Z</time></trkpt><trkpt lat="42.11205164121432" lon="11.910769312496859"><ele>344.2</ele><time>2026-04-18T12:38:07Z</time></trkpt><trkpt lat="42.11194966124415" lon="11.910747459679127"><ele>343.4</ele><time>2026-04-18T12:38:08Z</time></trkpt><trkpt lat="42.111862773534455" lon="11.910717600617039"><ele>342.6</ele><time>2026-04-18T12:38:09Z</time></trkpt><trkpt lat="42.11177099789853" lon="11.910697667487657"><ele>341.8</ele><time>2026-04-18T12:38:10Z</time></trkpt><trkpt lat="42.111683477485904" lon="11.910735772288277"><ele>341.0</ele><time>2026-04-18T12:38:11Z</time></trkpt><trkpt lat="42.11158599396992" lon="11.910800664419382"><ele>341.8</ele><time>2026-04-18T12:38:12.001Z</time></trkpt><trkpt lat="42.111486207010884" lon="11.910889596864015"><ele>342.6</ele><time>2026-04-18T12:38:13.001Z</time></trkpt><trkpt lat="42.11139730072982" lon="11.91094251397061"><ele>343.4</ele><time>2026-04-18T12:38:14.001Z</time></trkpt><trkpt lat="42.11132170809608" lon="11.910972622698997"><ele>344.2</ele><time>2026-04-18T12:38:15.001Z</time></trkpt><trkpt lat="42.111233993761864" lon="11.911009694104811"><ele>345.0</ele><time>2026-04-18T12:38:16.001Z</time></trkpt><trkpt lat="42.11113988932267" lon="11.91105114539546"><ele>345.0</ele><time>2026-04-18T12:38:17.001Z</time></trkpt><trkpt lat="42.11104548930929" lon="11.911097363319628"><ele>345.0</ele><time>2026-04-18T12:38:18.001Z</time></trkpt><trkpt lat="42.110955872805526" lon="11.91115686443949"><ele>345.0</ele><time>2026-04-18T12:38:19.001Z</time></trkpt><trkpt lat="42.11086857418521" lon="11.911215480388824"><ele>345.0</ele><time>2026-04-18T12:38:20.001Z</time></trkpt><trkpt lat="42.110776125208886" lon="11.911250160002812"><ele>345.0</ele><time>2026-04-18T12:38:21.001Z</time></trkpt><trkpt lat="42.11069789126876" lon="11.911249367485127"><ele>342.3333333333333</ele><time>2026-04-18T12:38:22.001Z</time></trkpt><trkpt lat="42.11062752186538" lon="11.911183285767065"><ele>339.6666666666667</ele><time>2026-04-18T12:38:24.001Z</time></trkpt><trkpt lat="42.11057893131381" lon="11.911098516269957"><ele>337.0</ele><time>2026-04-18T12:39:07.001Z</time></trkpt><trkpt lat="42.110522060203245" lon="11.91102708063641"><ele>334.33333333333337</ele><time>2026-04-18T12:39:24.001Z</time></trkpt><trkpt lat="42.11045768134761" lon="11.910934482927344"><ele>331.6666666666667</ele><time>2026-04-18T12:39:26.001Z</time></trkpt><trkpt lat="42.110399526880464" lon="11.910828775029673"><ele>329.0</ele><time>2026-04-18T12:39:28Z</time></trkpt><trkpt lat="42.11034735291488" lon="11.910714413159054"><ele>328.4</ele><time>2026-04-18T12:39:30Z</time></trkpt><trkpt lat="42.110309416082565" lon="11.91059090506112"><ele>327.79999999999995</ele><time>2026-04-18T12:39:32Z</time></trkpt><trkpt lat="42.11024343780568" lon="11.910466952075874"><ele>327.20000000000005</ele><time>2026-04-18T12:39:34Z</time></trkpt><trkpt lat="42.11017392046438" lon="11.910407826210893"><ele>326.6</ele><time>2026-04-18T12:39:36Z</time></trkpt><trkpt lat="42.11010721917318" lon="11.910298413883979"><ele>326.0</ele><time>2026-04-18T12:39:38Z</time></trkpt><trkpt lat="42.11004665493357" lon="11.910172432593642"><ele>324.6</ele><time>2026-04-18T12:39:40Z</time></trkpt><trkpt lat="42.10999962797494" lon="11.91007295887202"><ele>323.20000000000005</ele><time>2026-04-18T12:39:42Z</time></trkpt><trkpt lat="42.10993919562852" lon="11.909955140586046"><ele>321.79999999999995</ele><time>2026-04-18T12:39:44Z</time></trkpt><trkpt lat="42.109903685290696" lon="11.909882752290237"><ele>320.4</ele><time>2026-04-18T12:39:45Z</time></trkpt><trkpt lat="42.10983794803482" lon="11.909749422584314"><ele>319.0</ele><time>2026-04-18T12:39:47Z</time></trkpt><trkpt lat="42.10979536364076" lon="11.909665901716204"><ele>317.5</ele><time>2026-04-18T12:39:48Z</time></trkpt><trkpt lat="42.10975309596236" lon="11.909574611342396"><ele>316.0</ele><time>2026-04-18T12:39:49Z</time></trkpt><trkpt lat="42.10970642212613" lon="11.90948221252186"><ele>314.5</ele><time>2026-04-18T12:39:50Z</time></trkpt><trkpt lat="42.10966990041554" lon="11.90940969114227"><ele>313.0</ele><time>2026-04-18T12:39:51Z</time></trkpt><trkpt lat="42.10963825662028" lon="11.909307928307562"><ele>311.5</ele><time>2026-04-18T12:39:52Z</time></trkpt><trkpt lat="42.109588723062636" lon="11.909178449046633"><ele>310.0</ele><time>2026-04-18T12:39:54Z</time></trkpt><trkpt lat="42.10955981083923" lon="11.909065927699197"><ele>309.2</ele><time>2026-04-18T12:39:56Z</time></trkpt><trkpt lat="42.109608497592426" lon="11.909012066351128"><ele>308.4</ele><time>2026-04-18T12:39:58Z</time></trkpt><trkpt lat="42.10968958152728" lon="11.909022710067255"><ele>307.6</ele><time>2026-04-18T12:40:00Z</time></trkpt><trkpt lat="42.109819243436455" lon="11.909016426375002"><ele>306.8</ele><time>2026-04-18T12:40:02Z</time></trkpt><trkpt lat="42.10995857009788" lon="11.909009587851692"><ele>306.0</ele><time>2026-04-18T12:40:04Z</time></trkpt><trkpt lat="42.110052911410406" lon="11.908950784229534"><ele>306.0</ele><time>2026-04-18T12:40:06Z</time></trkpt><trkpt lat="42.110094664079774" lon="11.908781902617623"><ele>306.0</ele><time>2026-04-18T12:40:08Z</time></trkpt><trkpt lat="42.11013695559055" lon="11.908716501934418"><ele>306.0</ele><time>2026-04-18T12:40:09Z</time></trkpt><trkpt lat="42.11022626138233" lon="11.908613305076699"><ele>306.0</ele><time>2026-04-18T12:40:11Z</time></trkpt><trkpt lat="42.11029015455079" lon="11.908520271896634"><ele>306.0</ele><time>2026-04-18T12:40:13Z</time></trkpt><trkpt lat="42.11038783330416" lon="11.908503020271727"><ele>306.0</ele><time>2026-04-18T12:40:15Z</time></trkpt><trkpt lat="42.11047136503795" lon="11.90851318495073"><ele>306.0</ele><time>2026-04-18T12:40:17.001Z</time></trkpt><trkpt lat="42.110562030632515" lon="11.908467340354274"><ele>306.0</ele><time>2026-04-18T12:40:19.001Z</time></trkpt><trkpt lat="42.11063199495805" lon="11.908330690214017"><ele>306.0</ele><time>2026-04-18T12:40:21.001Z</time></trkpt><trkpt lat="42.11067860074088" lon="11.90818269252406"><ele>306.0</ele><time>2026-04-18T12:40:23.001Z</time></trkpt><trkpt lat="42.11067713774148" lon="11.908038004152184"><ele>303.6666666666667</ele><time>2026-04-18T12:40:25.001Z</time></trkpt><trkpt lat="42.110728377227474" lon="11.907891224057012"><ele>301.3333333333333</ele><time>2026-04-18T12:40:27.001Z</time></trkpt><trkpt lat="42.110779059598784" lon="11.907808167917528"><ele>299.0</ele><time>2026-04-18T12:40:28.001Z</time></trkpt><trkpt lat="42.110806568142046" lon="11.907721885338008"><ele>296.66666666666663</ele><time>2026-04-18T12:40:29.001Z</time></trkpt><trkpt lat="42.11082209547526" lon="11.907636249496317"><ele>294.3333333333333</ele><time>2026-04-18T12:40:30.001Z</time></trkpt><trkpt lat="42.11084365776335" lon="11.907554393930354"><ele>292.0</ele><time>2026-04-18T12:40:31.001Z</time></trkpt><trkpt lat="42.11086740789609" lon="11.907473888250339"><ele>289.0</ele><time>2026-04-18T12:40:32.001Z</time></trkpt><trkpt lat="42.110895271072586" lon="11.907330138188785"><ele>286.0</ele><time>2026-04-18T12:40:34.001Z</time></trkpt><trkpt lat="42.11091824289543" lon="11.907194274422578"><ele>283.0</ele><time>2026-04-18T12:40:36.001Z</time></trkpt><trkpt lat="42.11096692040203" lon="11.907067533260392"><ele>280.0</ele><time>2026-04-18T12:40:38.001Z</time></trkpt><trkpt lat="42.111015957836095" lon="11.906981008110993"><ele>277.0</ele><time>2026-04-18T12:40:40.001Z</time></trkpt><trkpt lat="42.11104999620839" lon="11.906861865378279"><ele>274.2</ele><time>2026-04-18T12:40:42.001Z</time></trkpt><trkpt lat="42.1110654472457" lon="11.906722493081514"><ele>271.4</ele><time>2026-04-18T12:40:44.001Z</time></trkpt><trkpt lat="42.11107853869698" lon="11.906586153094766"><ele>268.6</ele><time>2026-04-18T12:40:46.001Z</time></trkpt><trkpt lat="42.11107176829191" lon="11.90646034951791"><ele>265.8</ele><time>2026-04-18T12:40:48.001Z</time></trkpt><trkpt lat="42.11108068443497" lon="11.90630756000858"><ele>263.0</ele><time>2026-04-18T12:40:50.001Z</time></trkpt><trkpt lat="42.111045978500236" lon="11.906145790711799"><ele>263.0</ele><time>2026-04-18T12:40:52.001Z</time></trkpt><trkpt lat="42.111035628516916" lon="11.906026681527162"><ele>263.0</ele><time>2026-04-18T12:40:53.001Z</time></trkpt><trkpt lat="42.11103088981386" lon="11.90593271884739"><ele>263.0</ele><time>2026-04-18T12:40:54.001Z</time></trkpt><trkpt lat="42.111029847615384" lon="11.905831988404495"><ele>263.0</ele><time>2026-04-18T12:40:55.001Z</time></trkpt><trkpt lat="42.11102612798808" lon="11.905733520090727"><ele>263.0</ele><time>2026-04-18T12:40:56.001Z</time></trkpt><trkpt lat="42.1110199997064" lon="11.905637760294388"><ele>263.0</ele><time>2026-04-18T12:40:57.001Z</time></trkpt><trkpt lat="42.111012114358104" lon="11.905535835461915"><ele>261.5</ele><time>2026-04-18T12:40:58.001Z</time></trkpt><trkpt lat="42.111003162741916" lon="11.905438692917237"><ele>260.0</ele><time>2026-04-18T12:40:59.001Z</time></trkpt><trkpt lat="42.110954813499184" lon="11.90528549877961"><ele>258.5</ele><time>2026-04-18T12:41:01.001Z</time></trkpt><trkpt lat="42.11092718497561" lon="11.905206197624187"><ele>257.0</ele><time>2026-04-18T12:41:02.001Z</time></trkpt><trkpt lat="42.11088825074103" lon="11.90513732614657"><ele>255.50000000000003</ele><time>2026-04-18T12:41:03.001Z</time></trkpt><trkpt lat="42.11080168522626" lon="11.905051260055505"><ele>254.0</ele><time>2026-04-18T12:41:05.001Z</time></trkpt><trkpt lat="42.110693271934835" lon="11.905082525518404"><ele>252.50000000000003</ele><time>2026-04-18T12:41:07.001Z</time></trkpt><trkpt lat="42.11061306923336" lon="11.905189196189333"><ele>251.0</ele><time>2026-04-18T12:41:09.001Z</time></trkpt><trkpt lat="42.11052856558204" lon="11.90532545916825"><ele>249.5</ele><time>2026-04-18T12:41:11.001Z</time></trkpt><trkpt lat="42.110483936875845" lon="11.905390046652755"><ele>248.0</ele><time>2026-04-18T12:41:12.001Z</time></trkpt><trkpt lat="42.110432616509996" lon="11.905440128995957"><ele>246.50000000000003</ele><time>2026-04-18T12:41:13.001Z</time></trkpt><trkpt lat="42.11038187966344" lon="11.905493828111327"><ele>245.0</ele><time>2026-04-18T12:41:14.001Z</time></trkpt><trkpt lat="42.11027829765174" lon="11.905552318790885"><ele>245.00000000000003</ele><time>2026-04-18T12:41:16.001Z</time></trkpt><trkpt lat="42.1101980392776" lon="11.905567068753252"><ele>245.0</ele><time>2026-04-18T12:41:18.001Z</time></trkpt><trkpt lat="42.11012631610615" lon="11.905585929793608"><ele>245.0</ele><time>2026-04-18T12:41:20.001Z</time></trkpt><trkpt lat="42.11004864607219" lon="11.905582941560478"><ele>245.0</ele><time>2026-04-18T12:41:22.001Z</time></trkpt><trkpt lat="42.109969674114666" lon="11.905498498347194"><ele>245.00000000000003</ele><time>2026-04-18T12:41:24.001Z</time></trkpt><trkpt lat="42.109900831037066" lon="11.905418589679126"><ele>245.0</ele><time>2026-04-18T12:41:26.001Z</time></trkpt><trkpt lat="42.10984252171715" lon="11.905334803240647"><ele>245.00000000000003</ele><time>2026-04-18T12:41:28.001Z</time></trkpt><trkpt lat="42.109777678375345" lon="11.905246100691198"><ele>245.0</ele><time>2026-04-18T12:41:30.001Z</time></trkpt><trkpt lat="42.109697789229564" lon="11.90517131675116"><ele>245.0</ele><time>2026-04-18T12:41:32.001Z</time></trkpt><trkpt lat="42.109597718629125" lon="11.905141003858386"><ele>245.0</ele><time>2026-04-18T12:41:34Z</time></trkpt><trkpt lat="42.10953495604104" lon="11.905115087711328"><ele>245.00000000000003</ele><time>2026-04-18T12:41:35Z</time></trkpt><trkpt lat="42.10947923008511" lon="11.90506356931719"><ele>245.0</ele><time>2026-04-18T12:41:36Z</time></trkpt><trkpt lat="42.109435656936014" lon="11.905000675544661"><ele>243.0</ele><time>2026-04-18T12:41:37Z</time></trkpt><trkpt lat="42.10935021277211" lon="11.904910766245285"><ele>241.0</ele><time>2026-04-18T12:41:39Z</time></trkpt><trkpt lat="42.1092306759026" lon="11.904850061639152"><ele>239.0</ele><time>2026-04-18T12:41:41Z</time></trkpt><trkpt lat="42.109170156803" lon="11.90482179204328"><ele>237.0</ele><time>2026-04-18T12:41:42Z</time></trkpt><trkpt lat="42.10906814853777" lon="11.904784777168665"><ele>235.0</ele><time>2026-04-18T12:41:44Z</time></trkpt><trkpt lat="42.10898797677793" lon="11.904700852507244"><ele>234.99999999999997</ele><time>2026-04-18T12:41:46Z</time></trkpt><trkpt lat="42.108919470520135" lon="11.904608918616452"><ele>235.0</ele><time>2026-04-18T12:41:48Z</time></trkpt><trkpt lat="42.108838344388644" lon="11.90449742334562"><ele>235.0</ele><time>2026-04-18T12:41:50Z</time></trkpt><trkpt lat="42.108777580218664" lon="11.904387254593104"><ele>235.0</ele><time>2026-04-18T12:41:52Z</time></trkpt><trkpt lat="42.108740512946476" lon="11.904313452496352"><ele>234.99999999999997</ele><time>2026-04-18T12:41:53Z</time></trkpt><trkpt lat="42.108701651439674" lon="11.904246160216726"><ele>235.0</ele><time>2026-04-18T12:41:54Z</time></trkpt><trkpt lat="42.10862557993841" lon="11.90413830085738"><ele>232.0</ele><time>2026-04-18T12:41:56Z</time></trkpt><trkpt lat="42.10855732158325" lon="11.9040240637705"><ele>229.0</ele><time>2026-04-18T12:41:58Z</time></trkpt><trkpt lat="42.1084744572808" lon="11.903952215078347"><ele>226.0</ele><time>2026-04-18T12:42:00Z</time></trkpt><trkpt lat="42.1084126613928" lon="11.903808834068833"><ele>223.0</ele><time>2026-04-18T12:42:02Z</time></trkpt><trkpt lat="42.10838118815083" lon="11.903733114036251"><ele>220.0</ele><time>2026-04-18T12:42:03Z</time></trkpt><trkpt lat="42.10830507877167" lon="11.903628760507445"><ele>220.16666666666666</ele><time>2026-04-18T12:42:05Z</time></trkpt><trkpt lat="42.10818389091304" lon="11.903615875090692"><ele>220.33333333333331</ele><time>2026-04-18T12:42:07Z</time></trkpt><trkpt lat="42.108119644976895" lon="11.90361881018583"><ele>220.5</ele><time>2026-04-18T12:42:08Z</time></trkpt><trkpt lat="42.1080547318166" lon="11.90362304092064"><ele>220.66666666666669</ele><time>2026-04-18T12:42:09Z</time></trkpt><trkpt lat="42.107984864215304" lon="11.903609368026077"><ele>220.83333333333334</ele><time>2026-04-18T12:42:10Z</time></trkpt><trkpt lat="42.10790507597557" lon="11.90358868129852"><ele>221.0</ele><time>2026-04-18T12:42:11Z</time></trkpt><trkpt lat="42.1078412959645" lon="11.903570885941988"><ele>221.0</ele><time>2026-04-18T12:42:12Z</time></trkpt><trkpt lat="42.10774331969882" lon="11.903617231257005"><ele>221.00000000000003</ele><time>2026-04-18T12:42:14Z</time></trkpt><trkpt lat="42.10765073131536" lon="11.90371025034297"><ele>221.00000000000003</ele><time>2026-04-18T12:42:16Z</time></trkpt><trkpt lat="42.10755897914722" lon="11.90374726280222"><ele>221.0</ele><time>2026-04-18T12:42:18Z</time></trkpt><trkpt lat="42.10747181669419" lon="11.90364814150182"><ele>221.0</ele><time>2026-04-18T12:42:20Z</time></trkpt><trkpt lat="42.107426454413556" lon="11.90350918328609"><ele>217.60000000000002</ele><time>2026-04-18T12:42:22Z</time></trkpt><trkpt lat="42.10736175368618" lon="11.90338350827785"><ele>214.20000000000002</ele><time>2026-04-18T12:42:24Z</time></trkpt><trkpt lat="42.107257311900504" lon="11.90333954303615"><ele>210.8</ele><time>2026-04-18T12:42:26Z</time></trkpt><trkpt lat="42.10719690148326" lon="11.903189234262529"><ele>207.39999999999998</ele><time>2026-04-18T12:42:28Z</time></trkpt><trkpt lat="42.107173026652426" lon="11.903088499061694"><ele>204.0</ele><time>2026-04-18T12:42:29Z</time></trkpt><trkpt lat="42.1071140473996" lon="11.902974871652868"><ele>204.0</ele><time>2026-04-18T12:42:30.001Z</time></trkpt><trkpt lat="42.10704676224303" lon="11.902892206225891"><ele>204.0</ele><time>2026-04-18T12:42:31.001Z</time></trkpt><trkpt lat="42.1069923041683" lon="11.90281901731666"><ele>204.0</ele><time>2026-04-18T12:42:32.001Z</time></trkpt><trkpt lat="42.10694712602513" lon="11.902744425771147"><ele>204.0</ele><time>2026-04-18T12:42:33.001Z</time></trkpt><trkpt lat="42.10687377017619" lon="11.902625060184985"><ele>204.0</ele><time>2026-04-18T12:42:35.001Z</time></trkpt><trkpt lat="42.106789228079144" lon="11.902513091900277"><ele>201.79999999999998</ele><time>2026-04-18T12:42:37.001Z</time></trkpt><trkpt lat="42.106734307589896" lon="11.902370899517491"><ele>199.6</ele><time>2026-04-18T12:42:39.001Z</time></trkpt><trkpt lat="42.10667550615418" lon="11.90224377834421"><ele>197.4</ele><time>2026-04-18T12:42:41.001Z</time></trkpt><trkpt lat="42.106617848023845" lon="11.902199632575087"><ele>195.2</ele><time>2026-04-18T12:42:42.001Z</time></trkpt><trkpt lat="42.10648682821567" lon="11.902171880495727"><ele>193.0</ele><time>2026-04-18T12:42:44.001Z</time></trkpt><trkpt lat="42.10641217146705" lon="11.902199108081271"><ele>191.99999999999997</ele><time>2026-04-18T12:42:45.001Z</time></trkpt><trkpt lat="42.106342855847714" lon="11.902238843882357"><ele>191.0</ele><time>2026-04-18T12:42:46.001Z</time></trkpt><trkpt lat="42.10627932857439" lon="11.902284476452902"><ele>190.0</ele><time>2026-04-18T12:42:47.001Z</time></trkpt><trkpt lat="42.10622436998513" lon="11.902339432713307"><ele>189.0</ele><time>2026-04-18T12:42:48.001Z</time></trkpt><trkpt lat="42.106137783860945" lon="11.902440966210724"><ele>188.0</ele><time>2026-04-18T12:42:50.001Z</time></trkpt><trkpt lat="42.10604630858049" lon="11.902529765849188"><ele>187.0</ele><time>2026-04-18T12:42:52.001Z</time></trkpt><trkpt lat="42.10598752878074" lon="11.902570270661236"><ele>187.0</ele><time>2026-04-18T12:42:53.001Z</time></trkpt><trkpt lat="42.105888867850865" lon="11.90261265031374"><ele>187.0</ele><time>2026-04-18T12:42:55.001Z</time></trkpt><trkpt lat="42.10577840262975" lon="11.902559972916247"><ele>187.0</ele><time>2026-04-18T12:42:57.001Z</time></trkpt><trkpt lat="42.10569301541856" lon="11.902406999773632"><ele>187.0</ele><time>2026-04-18T12:42:59.001Z</time></trkpt><trkpt lat="42.10566005880073" lon="11.902320867797956"><ele>187.0</ele><time>2026-04-18T12:43:00.001Z</time></trkpt><trkpt lat="42.10562185128737" lon="11.902252162266041"><ele>188.2</ele><time>2026-04-18T12:43:01.001Z</time></trkpt><trkpt lat="42.105577791107365" lon="11.902171739711285"><ele>189.39999999999998</ele><time>2026-04-18T12:43:02.001Z</time></trkpt><trkpt lat="42.105537905684976" lon="11.902104854196715"><ele>190.60000000000002</ele><time>2026-04-18T12:43:03.001Z</time></trkpt><trkpt lat="42.105468265420136" lon="11.901981901159372"><ele>191.8</ele><time>2026-04-18T12:43:05.001Z</time></trkpt><trkpt lat="42.105419393903105" lon="11.901849921322821"><ele>193.0</ele><time>2026-04-18T12:43:07.001Z</time></trkpt><trkpt lat="42.105346038390195" lon="11.90173597927553"><ele>190.16666666666666</ele><time>2026-04-18T12:43:09.001Z</time></trkpt><trkpt lat="42.10526976346722" lon="11.901646359963948"><ele>187.33333333333331</ele><time>2026-04-18T12:43:11.001Z</time></trkpt><trkpt lat="42.10522743186018" lon="11.901565805682122"><ele>184.5</ele><time>2026-04-18T12:43:13.001Z</time></trkpt><trkpt lat="42.10516297888771" lon="11.901476935994472"><ele>181.66666666666666</ele><time>2026-04-18T12:43:15.001Z</time></trkpt><trkpt lat="42.105100317933996" lon="11.901421085541449"><ele>178.83333333333331</ele><time>2026-04-18T12:43:17.001Z</time></trkpt><trkpt lat="42.105031293233374" lon="11.901341710527864"><ele>176.0</ele><time>2026-04-18T12:43:20.001Z</time></trkpt><trkpt lat="42.10498640161336" lon="11.901260550909342"><ele>176.0</ele><time>2026-04-18T12:43:22.001Z</time></trkpt><trkpt lat="42.10492709050995" lon="11.901194261255842"><ele>176.0</ele><time>2026-04-18T12:43:24.001Z</time></trkpt><trkpt lat="42.10486210021817" lon="11.901159517789786"><ele>176.0</ele><time>2026-04-18T12:43:26.001Z</time></trkpt><trkpt lat="42.10478951096465" lon="11.901107846535453"><ele>176.0</ele><time>2026-04-18T12:43:28.001Z</time></trkpt><trkpt lat="42.104705079578395" lon="11.901064529995706"><ele>176.0</ele><time>2026-04-18T12:43:30.001Z</time></trkpt><trkpt lat="42.10462048583103" lon="11.901005266758652"><ele>176.0</ele><time>2026-04-18T12:43:32.001Z</time></trkpt><trkpt lat="42.10454017796325" lon="11.900920290996437"><ele>172.4</ele><time>2026-04-18T12:43:34.001Z</time></trkpt><trkpt lat="42.10447079687038" lon="11.900820122601889"><ele>168.8</ele><time>2026-04-18T12:43:36.001Z</time></trkpt><trkpt lat="42.104407731718034" lon="11.90076274485226"><ele>165.20000000000002</ele><time>2026-04-18T12:43:38.001Z</time></trkpt><trkpt lat="42.10433296576089" lon="11.90078454183385"><ele>161.60000000000002</ele><time>2026-04-18T12:43:41Z</time></trkpt><trkpt lat="42.104213464696485" lon="11.900811585967821"><ele>158.0</ele><time>2026-04-18T12:44:55.001Z</time></trkpt><trkpt lat="42.104129460463504" lon="11.90082964641756"><ele>158.0</ele><time>2026-04-18T12:44:56.001Z</time></trkpt><trkpt lat="42.10406279395792" lon="11.900839785030612"><ele>158.0</ele><time>2026-04-18T12:44:57.001Z</time></trkpt><trkpt lat="42.10399833613418" lon="11.900845901230358"><ele>158.0</ele><time>2026-04-18T12:44:58.001Z</time></trkpt><trkpt lat="42.103881941282054" lon="11.900857959871566"><ele>158.0</ele><time>2026-04-18T12:45:00.001Z</time></trkpt><trkpt lat="42.10376965699733" lon="11.900927772366698"><ele>158.0</ele><time>2026-04-18T12:45:02.001Z</time></trkpt><trkpt lat="42.103666988706166" lon="11.901007089124098"><ele>158.0</ele><time>2026-04-18T12:45:04.001Z</time></trkpt><trkpt lat="42.103605792813575" lon="11.901050089624212"><ele>158.0</ele><time>2026-04-18T12:45:05.001Z</time></trkpt><trkpt lat="42.10354094329532" lon="11.901073498510147"><ele>158.0</ele><time>2026-04-18T12:45:06.001Z</time></trkpt><trkpt lat="42.10342995720334" lon="11.90101057450199"><ele>158.0</ele><time>2026-04-18T12:45:08.001Z</time></trkpt><trkpt lat="42.10334737746683" lon="11.900941808974709"><ele>158.0</ele><time>2026-04-18T12:45:10.001Z</time></trkpt><trkpt lat="42.10327996561389" lon="11.900892801320653"><ele>158.0</ele><time>2026-04-18T12:45:12.001Z</time></trkpt><trkpt lat="42.10317592568259" lon="11.900856365136809"><ele>160.8</ele><time>2026-04-18T12:45:14.001Z</time></trkpt><trkpt lat="42.1031161813205" lon="11.900723022713331"><ele>163.60000000000002</ele><time>2026-04-18T12:45:16.001Z</time></trkpt><trkpt lat="42.103092931999875" lon="11.900633475221769"><ele>166.39999999999998</ele><time>2026-04-18T12:45:17.001Z</time></trkpt><trkpt lat="42.1030739594637" lon="11.900512015393069"><ele>169.2</ele><time>2026-04-18T12:45:19.001Z</time></trkpt><trkpt lat="42.10300491200719" lon="11.90036110041573"><ele>172.0</ele><time>2026-04-18T12:45:21.001Z</time></trkpt><trkpt lat="42.102916419022115" lon="11.900227155198811"><ele>172.0</ele><time>2026-04-18T12:45:23.001Z</time></trkpt><trkpt lat="42.10289066723601" lon="11.900137248343642"><ele>172.0</ele><time>2026-04-18T12:45:24.001Z</time></trkpt><trkpt lat="42.1028673392507" lon="11.900042958571401"><ele>172.0</ele><time>2026-04-18T12:45:25.001Z</time></trkpt><trkpt lat="42.102840620267855" lon="11.899962491366376"><ele>172.0</ele><time>2026-04-18T12:45:26.001Z</time></trkpt><trkpt lat="42.10281166713154" lon="11.899885729567126"><ele>172.0</ele><time>2026-04-18T12:45:27.001Z</time></trkpt><trkpt lat="42.10276831855937" lon="11.899750511347944"><ele>172.0</ele><time>2026-04-18T12:45:29.001Z</time></trkpt><trkpt lat="42.10269650172988" lon="11.899629514588145"><ele>169.2</ele><time>2026-04-18T12:45:31.001Z</time></trkpt><trkpt lat="42.10264166106242" lon="11.89951923287973"><ele>166.39999999999998</ele><time>2026-04-18T12:45:33.001Z</time></trkpt><trkpt lat="42.102573080366184" lon="11.899395485525904"><ele>163.60000000000002</ele><time>2026-04-18T12:45:36.001Z</time></trkpt><trkpt lat="42.102492907921146" lon="11.899268285278826"><ele>160.8</ele><time>2026-04-18T12:45:38.001Z</time></trkpt><trkpt lat="42.10246447320584" lon="11.899192382586998"><ele>158.0</ele><time>2026-04-18T12:45:39.001Z</time></trkpt><trkpt lat="42.102425407993564" lon="11.899111681607137"><ele>158.5</ele><time>2026-04-18T12:45:40.001Z</time></trkpt><trkpt lat="42.10237691216075" lon="11.89903751250715"><ele>159.0</ele><time>2026-04-18T12:45:41.001Z</time></trkpt><trkpt lat="42.102328601595346" lon="11.898977625053176"><ele>159.5</ele><time>2026-04-18T12:45:42.002Z</time></trkpt><trkpt lat="42.10227825521626" lon="11.898926401087342"><ele>160.0</ele><time>2026-04-18T12:45:43.002Z</time></trkpt><trkpt lat="42.10218813368714" lon="11.89884693101255"><ele>160.5</ele><time>2026-04-18T12:45:45Z</time></trkpt><trkpt lat="42.10208342838307" lon="11.898840079132071"><ele>161.0</ele><time>2026-04-18T12:45:47Z</time></trkpt><trkpt lat="42.10202069343986" lon="11.898832586298045"><ele>161.0</ele><time>2026-04-18T12:45:48Z</time></trkpt><trkpt lat="42.101959382699405" lon="11.898807458575556"><ele>161.0</ele><time>2026-04-18T12:45:49Z</time></trkpt><trkpt lat="42.10187226555354" lon="11.898678286568066"><ele>161.0</ele><time>2026-04-18T12:45:51Z</time></trkpt><trkpt lat="42.10182582983721" lon="11.898594299836235"><ele>161.0</ele><time>2026-04-18T12:45:52Z</time></trkpt><trkpt lat="42.10177992075855" lon="11.898515114338167"><ele>161.0</ele><time>2026-04-18T12:45:53Z</time></trkpt><trkpt lat="42.10173223915172" lon="11.8984485494383"><ele>161.0</ele><time>2026-04-18T12:45:54Z</time></trkpt><trkpt lat="42.101677591041195" lon="11.898391918776182"><ele>160.14285714285714</ele><time>2026-04-18T12:45:55Z</time></trkpt><trkpt lat="42.10162532002166" lon="11.898333240579294"><ele>159.28571428571428</ele><time>2026-04-18T12:45:56Z</time></trkpt><trkpt lat="42.10156406694849" lon="11.898277723070077"><ele>158.42857142857144</ele><time>2026-04-18T12:45:57Z</time></trkpt><trkpt lat="42.10149251639827" lon="11.89823081597952"><ele>157.57142857142856</ele><time>2026-04-18T12:45:58Z</time></trkpt><trkpt lat="42.1014220797573" lon="11.898185105830818"><ele>156.71428571428572</ele><time>2026-04-18T12:45:59Z</time></trkpt><trkpt lat="42.10135515090772" lon="11.898150343585463"><ele>155.85714285714286</ele><time>2026-04-18T12:46:00Z</time></trkpt><trkpt lat="42.101286325546795" lon="11.898122512246537"><ele>155.0</ele><time>2026-04-18T12:46:01Z</time></trkpt><trkpt lat="42.10117705970949" lon="11.89807581499711"><ele>155.0</ele><time>2026-04-18T12:46:03Z</time></trkpt><trkpt lat="42.101123219187485" lon="11.898018817945811"><ele>155.0</ele><time>2026-04-18T12:46:04Z</time></trkpt><trkpt lat="42.10107762733768" lon="11.89794888469016"><ele>155.0</ele><time>2026-04-18T12:46:05Z</time></trkpt><trkpt lat="42.10102168971295" lon="11.89780901136898"><ele>155.0</ele><time>2026-04-18T12:46:07Z</time></trkpt><trkpt lat="42.10100810469487" lon="11.89772315888439"><ele>155.0</ele><time>2026-04-18T12:46:08Z</time></trkpt><trkpt lat="42.10096849270112" lon="11.897575455059677"><ele>155.0</ele><time>2026-04-18T12:46:10Z</time></trkpt><trkpt lat="42.1009321816358" lon="11.897505336243107"><ele>154.85714285714286</ele><time>2026-04-18T12:46:11Z</time></trkpt><trkpt lat="42.10089289660164" lon="11.897432448879496"><ele>154.71428571428572</ele><time>2026-04-18T12:46:12Z</time></trkpt><trkpt lat="42.10084855867534" lon="11.897357692422949"><ele>154.57142857142856</ele><time>2026-04-18T12:46:13Z</time></trkpt><trkpt lat="42.10079272097031" lon="11.89729982831316"><ele>154.42857142857144</ele><time>2026-04-18T12:46:14Z</time></trkpt><trkpt lat="42.10073333051342" lon="11.897243984285712"><ele>154.28571428571428</ele><time>2026-04-18T12:46:15Z</time></trkpt><trkpt lat="42.10066600715956" lon="11.897187459559909"><ele>154.14285714285714</ele><time>2026-04-18T12:46:16Z</time></trkpt><trkpt lat="42.10060481076383" lon="11.897123804630665"><ele>154.0</ele><time>2026-04-18T12:46:17Z</time></trkpt><trkpt lat="42.100552907208126" lon="11.89705702778316"><ele>154.0</ele><time>2026-04-18T12:46:18Z</time></trkpt><trkpt lat="42.100493170590646" lon="11.896987836203019"><ele>154.0</ele><time>2026-04-18T12:46:19Z</time></trkpt><trkpt lat="42.10042645952907" lon="11.896936069717153"><ele>154.0</ele><time>2026-04-18T12:46:20Z</time></trkpt><trkpt lat="42.100359192072524" lon="11.896885282754178"><ele>154.0</ele><time>2026-04-18T12:46:21Z</time></trkpt><trkpt lat="42.10027523734631" lon="11.896833923119202"><ele>154.0</ele><time>2026-04-18T12:46:22Z</time></trkpt><trkpt lat="42.100204864716495" lon="11.896781248688812"><ele>154.0</ele><time>2026-04-18T12:46:23Z</time></trkpt><trkpt lat="42.100140064824515" lon="11.896719959797995"><ele>153.33333333333334</ele><time>2026-04-18T12:46:24Z</time></trkpt><trkpt lat="42.10007708311057" lon="11.896660936512895"><ele>152.66666666666669</ele><time>2026-04-18T12:46:25Z</time></trkpt><trkpt lat="42.10001570271879" lon="11.896620565219962"><ele>152.0</ele><time>2026-04-18T12:46:26Z</time></trkpt><trkpt lat="42.099899358254675" lon="11.896527799773347"><ele>151.33333333333334</ele><time>2026-04-18T12:46:28.001Z</time></trkpt><trkpt lat="42.0998322839335" lon="11.896453414924661"><ele>150.66666666666666</ele><time>2026-04-18T12:46:29.001Z</time></trkpt><trkpt lat="42.09977177856628" lon="11.896380470897606"><ele>150.0</ele><time>2026-04-18T12:46:30.001Z</time></trkpt><trkpt lat="42.09971564814693" lon="11.8963085592041"><ele>150.0</ele><time>2026-04-18T12:46:31.001Z</time></trkpt><trkpt lat="42.09967258383706" lon="11.896237849420432"><ele>150.0</ele><time>2026-04-18T12:46:33.001Z</time></trkpt><trkpt lat="42.099617991662356" lon="11.89612005179431"><ele>150.0</ele><time>2026-04-18T12:46:50.001Z</time></trkpt><trkpt lat="42.099559809315494" lon="11.896042445484822"><ele>150.0</ele><time>2026-04-18T12:47:17.001Z</time></trkpt><trkpt lat="42.09950555352052" lon="11.89597688913656"><ele>150.0</ele><time>2026-04-18T12:47:18.001Z</time></trkpt><trkpt lat="42.099444924762075" lon="11.89594611535587"><ele>150.0</ele><time>2026-04-18T12:47:19.001Z</time></trkpt><trkpt lat="42.09937624638118" lon="11.895945249833275"><ele>149.99999999999997</ele><time>2026-04-18T12:47:20.001Z</time></trkpt><trkpt lat="42.09931010003016" lon="11.8959819746374"><ele>150.0</ele><time>2026-04-18T12:47:21.001Z</time></trkpt><trkpt lat="42.099251926098475" lon="11.896019113396418"><ele>150.0</ele><time>2026-04-18T12:47:22.001Z</time></trkpt><trkpt lat="42.09919195099559" lon="11.896051974542717"><ele>150.0</ele><time>2026-04-18T12:47:23.001Z</time></trkpt><trkpt lat="42.09912899868793" lon="11.896051746514322"><ele>150.0</ele><time>2026-04-18T12:47:24.001Z</time></trkpt><trkpt lat="42.09906024199159" lon="11.896041267505028"><ele>149.99999999999997</ele><time>2026-04-18T12:47:25.001Z</time></trkpt><trkpt lat="42.098994074787534" lon="11.896001889104872"><ele>150.0</ele><time>2026-04-18T12:47:26.001Z</time></trkpt><trkpt lat="42.09890751402029" lon="11.89589778629752"><ele>147.6</ele><time>2026-04-18T12:47:28.001Z</time></trkpt><trkpt lat="42.09886997964671" lon="11.895727147560482"><ele>145.2</ele><time>2026-04-18T12:47:30.001Z</time></trkpt><trkpt lat="42.09882877289929" lon="11.89562360373827"><ele>142.8</ele><time>2026-04-18T12:47:31.001Z</time></trkpt><trkpt lat="42.09879009688623" lon="11.895524961538367"><ele>140.4</ele><time>2026-04-18T12:47:32.001Z</time></trkpt><trkpt lat="42.09874805378884" lon="11.895426749587392"><ele>138.0</ele><time>2026-04-18T12:47:33.001Z</time></trkpt><trkpt lat="42.09870631011689" lon="11.89534184907322"><ele>138.0</ele><time>2026-04-18T12:47:34.001Z</time></trkpt><trkpt lat="42.098654128765126" lon="11.895245118738336"><ele>138.0</ele><time>2026-04-18T12:47:35.001Z</time></trkpt><trkpt lat="42.09858759138016" lon="11.895153242304803"><ele>138.0</ele><time>2026-04-18T12:47:36.001Z</time></trkpt><trkpt lat="42.09850339823856" lon="11.89506122502691"><ele>138.0</ele><time>2026-04-18T12:47:37.001Z</time></trkpt><trkpt lat="42.098416462708876" lon="11.894991602620422"><ele>138.0</ele><time>2026-04-18T12:47:38.001Z</time></trkpt><trkpt lat="42.09831910827974" lon="11.894962316381362"><ele>137.25</ele><time>2026-04-18T12:47:39.001Z</time></trkpt><trkpt lat="42.09820174968017" lon="11.89493555996801"><ele>136.5</ele><time>2026-04-18T12:47:40.001Z</time></trkpt><trkpt lat="42.098081265373" lon="11.894875681345322"><ele>135.75</ele><time>2026-04-18T12:47:41.001Z</time></trkpt><trkpt lat="42.0979688246548" lon="11.894810110279344"><ele>135.0</ele><time>2026-04-18T12:47:42.001Z</time></trkpt><trkpt lat="42.0978605830838" lon="11.894767497768777"><ele>135.0</ele><time>2026-04-18T12:47:43.001Z</time></trkpt><trkpt lat="42.09776581774057" lon="11.894719570370796"><ele>135.0</ele><time>2026-04-18T12:47:44.002Z</time></trkpt><trkpt lat="42.097672070693804" lon="11.894648306819192"><ele>135.0</ele><time>2026-04-18T12:47:45.002Z</time></trkpt><trkpt lat="42.097592273733405" lon="11.894588331390215"><ele>135.0</ele><time>2026-04-18T12:47:46.002Z</time></trkpt><trkpt lat="42.09749209269853" lon="11.894525631288115"><ele>135.0</ele><time>2026-04-18T12:47:48.002Z</time></trkpt><trkpt lat="42.097436726511305" lon="11.894483402648202"><ele>134.5</ele><time>2026-04-18T12:47:49.002Z</time></trkpt><trkpt lat="42.097385629508594" lon="11.89442422015825"><ele>134.0</ele><time>2026-04-18T12:47:50.002Z</time></trkpt><trkpt lat="42.09734007158897" lon="11.894355698258568"><ele>133.5</ele><time>2026-04-18T12:47:51Z</time></trkpt><trkpt lat="42.09730055919876" lon="11.894265882700214"><ele>133.0</ele><time>2026-04-18T12:47:52Z</time></trkpt><trkpt lat="42.097254445770204" lon="11.894169964215289"><ele>132.5</ele><time>2026-04-18T12:47:53Z</time></trkpt><trkpt lat="42.097200590217696" lon="11.894108205749525"><ele>132.0</ele><time>2026-04-18T12:47:54Z</time></trkpt><trkpt lat="42.09711169239964" lon="11.894004123761803"><ele>132.0</ele><time>2026-04-18T12:47:56Z</time></trkpt><trkpt lat="42.09701035192667" lon="11.89390045067018"><ele>132.0</ele><time>2026-04-18T12:47:58Z</time></trkpt><trkpt lat="42.09695421243815" lon="11.893843835299723"><ele>132.0</ele><time>2026-04-18T12:47:59Z</time></trkpt><trkpt lat="42.096920180770546" lon="11.893767864780576"><ele>132.0</ele><time>2026-04-18T12:48:00Z</time></trkpt><trkpt lat="42.09689003529368" lon="11.893674586055308"><ele>132.0</ele><time>2026-04-18T12:48:01Z</time></trkpt><trkpt lat="42.09684634721397" lon="11.893592776263436"><ele>132.0</ele><time>2026-04-18T12:48:02Z</time></trkpt><trkpt lat="42.096790529923126" lon="11.893519962226168"><ele>130.79999999999998</ele><time>2026-04-18T12:48:03Z</time></trkpt><trkpt lat="42.09669349057009" lon="11.893415619852423"><ele>129.6</ele><time>2026-04-18T12:48:05Z</time></trkpt><trkpt lat="42.09662244494133" lon="11.893301890291264"><ele>128.39999999999998</ele><time>2026-04-18T12:48:07Z</time></trkpt><trkpt lat="42.096569551576536" lon="11.89325258788501"><ele>127.19999999999999</ele><time>2026-04-18T12:48:08Z</time></trkpt><trkpt lat="42.09645216032524" lon="11.893215754704244"><ele>126.0</ele><time>2026-04-18T12:48:10Z</time></trkpt><trkpt lat="42.096363194161036" lon="11.893177256050135"><ele>128.33333333333334</ele><time>2026-04-18T12:48:13Z</time></trkpt><trkpt lat="42.096296534346656" lon="11.893164241191009"><ele>130.66666666666666</ele><time>2026-04-18T12:48:14Z</time></trkpt><trkpt lat="42.096219538487475" lon="11.893150986839826"><ele>133.0</ele><time>2026-04-18T12:48:15Z</time></trkpt><trkpt lat="42.09615393702113" lon="11.893130794487274"><ele>135.33333333333331</ele><time>2026-04-18T12:48:16Z</time></trkpt><trkpt lat="42.09608145770937" lon="11.893096485097718"><ele>137.66666666666666</ele><time>2026-04-18T12:48:17Z</time></trkpt><trkpt lat="42.0960186931974" lon="11.892970931007818"><ele>140.0</ele><time>2026-04-18T12:48:19Z</time></trkpt><trkpt lat="42.0960149877509" lon="11.892875856687157"><ele>140.0</ele><time>2026-04-18T12:48:20Z</time></trkpt><trkpt lat="42.09600803816162" lon="11.892790137295817"><ele>140.0</ele><time>2026-04-18T12:48:21Z</time></trkpt><trkpt lat="42.09594273683072" lon="11.892644943633385"><ele>140.0</ele><time>2026-04-18T12:48:23Z</time></trkpt><trkpt lat="42.09586623455459" lon="11.892536307252154"><ele>140.0</ele><time>2026-04-18T12:48:25Z</time></trkpt><trkpt lat="42.095784833374275" lon="11.892444352110003"><ele>140.0</ele><time>2026-04-18T12:48:27Z</time></trkpt><trkpt lat="42.09573820127929" lon="11.892370380658443"><ele>142.6</ele><time>2026-04-18T12:48:28Z</time></trkpt><trkpt lat="42.095678406091444" lon="11.89231551803059"><ele>145.2</ele><time>2026-04-18T12:48:29Z</time></trkpt><trkpt lat="42.0956038790271" lon="11.892296220385363"><ele>147.8</ele><time>2026-04-18T12:48:30Z</time></trkpt><trkpt lat="42.09550420088316" lon="11.892211432507263"><ele>150.4</ele><time>2026-04-18T12:48:32Z</time></trkpt><trkpt lat="42.09543993857814" lon="11.892066474275602"><ele>153.0</ele><time>2026-04-18T12:48:34Z</time></trkpt><trkpt lat="42.09539311657796" lon="11.892008869558845"><ele>153.0</ele><time>2026-04-18T12:48:35Z</time></trkpt><trkpt lat="42.09530692920291" lon="11.89188328408788"><ele>153.0</ele><time>2026-04-18T12:48:37Z</time></trkpt><trkpt lat="42.095259774556645" lon="11.891809785042806"><ele>153.0</ele><time>2026-04-18T12:48:38Z</time></trkpt><trkpt lat="42.095197983050554" lon="11.89176795417562"><ele>153.0</ele><time>2026-04-18T12:48:39Z</time></trkpt><trkpt lat="42.09507630123674" lon="11.89173802442019"><ele>153.0</ele><time>2026-04-18T12:48:41.001Z</time></trkpt><trkpt lat="42.094950073838774" lon="11.891691778643002"><ele>152.66666666666666</ele><time>2026-04-18T12:48:43.001Z</time></trkpt><trkpt lat="42.09487184224625" lon="11.891656329158081"><ele>152.33333333333334</ele><time>2026-04-18T12:48:44.001Z</time></trkpt><trkpt lat="42.09479229280102" lon="11.891633748148157"><ele>152.0</ele><time>2026-04-18T12:48:45.001Z</time></trkpt><trkpt lat="42.094695769930816" lon="11.891581827743211"><ele>151.66666666666669</ele><time>2026-04-18T12:48:47.001Z</time></trkpt><trkpt lat="42.094669282177406" lon="11.891477211942039"><ele>151.33333333333334</ele><time>2026-04-18T12:48:48.001Z</time></trkpt><trkpt lat="42.094637220153444" lon="11.891368880125981"><ele>151.0</ele><time>2026-04-18T12:48:49.001Z</time></trkpt><trkpt lat="42.09459273397843" lon="11.891277248567606"><ele>151.0</ele><time>2026-04-18T12:48:50.001Z</time></trkpt><trkpt lat="42.09451113401206" lon="11.891191671955227"><ele>151.0</ele><time>2026-04-18T12:48:52.001Z</time></trkpt><trkpt lat="42.09445110024443" lon="11.891134516623088"><ele>151.0</ele><time>2026-04-18T12:48:53.001Z</time></trkpt><trkpt lat="42.09438205376181" lon="11.891107233286489"><ele>151.0</ele><time>2026-04-18T12:48:54.001Z</time></trkpt><trkpt lat="42.09431313604894" lon="11.89109785211772"><ele>151.0</ele><time>2026-04-18T12:48:55.001Z</time></trkpt><trkpt lat="42.094249200117474" lon="11.891070801935577"><ele>151.0</ele><time>2026-04-18T12:48:56.001Z</time></trkpt><trkpt lat="42.09418222021686" lon="11.891032862787982"><ele>151.0</ele><time>2026-04-18T12:48:57.001Z</time></trkpt><trkpt lat="42.09411462161024" lon="11.890985373106723"><ele>151.0</ele><time>2026-04-18T12:48:58.001Z</time></trkpt><trkpt lat="42.09404281449578" lon="11.890914578205807"><ele>151.0</ele><time>2026-04-18T12:48:59.001Z</time></trkpt><trkpt lat="42.09398556854572" lon="11.890842602677656"><ele>151.0</ele><time>2026-04-18T12:49:00.001Z</time></trkpt><trkpt lat="42.0939378649472" lon="11.890758400070126"><ele>151.0</ele><time>2026-04-18T12:49:01.001Z</time></trkpt><trkpt lat="42.09388293402874" lon="11.890710705989239"><ele>151.0</ele><time>2026-04-18T12:49:02.001Z</time></trkpt><trkpt lat="42.0937874137311" lon="11.89061460204043"><ele>150.83333333333334</ele><time>2026-04-18T12:49:04.001Z</time></trkpt><trkpt lat="42.09370267827644" lon="11.890523284602425"><ele>150.66666666666669</ele><time>2026-04-18T12:49:06.001Z</time></trkpt><trkpt lat="42.093640239254825" lon="11.890470035545677"><ele>150.5</ele><time>2026-04-18T12:49:07.001Z</time></trkpt><trkpt lat="42.09357283558807" lon="11.890417593763248"><ele>150.33333333333334</ele><time>2026-04-18T12:49:08.001Z</time></trkpt><trkpt lat="42.09350838831388" lon="11.89036985757944"><ele>150.16666666666666</ele><time>2026-04-18T12:49:09.001Z</time></trkpt><trkpt lat="42.093450868879216" lon="11.890334335101345"><ele>150.0</ele><time>2026-04-18T12:49:10.001Z</time></trkpt><trkpt lat="42.093372470374995" lon="11.890246383884202"><ele>151.4</ele><time>2026-04-18T12:49:12.001Z</time></trkpt><trkpt lat="42.09325502435422" lon="11.890154515736539"><ele>152.8</ele><time>2026-04-18T12:49:14.001Z</time></trkpt><trkpt lat="42.09317322709002" lon="11.890109295190088"><ele>154.2</ele><time>2026-04-18T12:49:15.001Z</time></trkpt><trkpt lat="42.09309351864682" lon="11.890061969007112"><ele>155.6</ele><time>2026-04-18T12:49:16.001Z</time></trkpt><trkpt lat="42.09303282359262" lon="11.89001619063055"><ele>157.0</ele><time>2026-04-18T12:49:17.001Z</time></trkpt><trkpt lat="42.09291223549186" lon="11.889980531783777"><ele>157.0</ele><time>2026-04-18T12:49:19.001Z</time></trkpt><trkpt lat="42.092848111036545" lon="11.889995977280194"><ele>157.0</ele><time>2026-04-18T12:49:20.001Z</time></trkpt><trkpt lat="42.092725435955366" lon="11.890073522234744"><ele>157.0</ele><time>2026-04-18T12:49:22.001Z</time></trkpt><trkpt lat="42.092614543437406" lon="11.890133615633172"><ele>157.0</ele><time>2026-04-18T12:49:24.001Z</time></trkpt><trkpt lat="42.092493922130345" lon="11.890189645107903"><ele>157.0</ele><time>2026-04-18T12:49:26.001Z</time></trkpt><trkpt lat="42.09242464641006" lon="11.890177474991047"><ele>155.83333333333334</ele><time>2026-04-18T12:49:27.001Z</time></trkpt><trkpt lat="42.09235440255468" lon="11.890154453396907"><ele>154.66666666666669</ele><time>2026-04-18T12:49:28.001Z</time></trkpt><trkpt lat="42.09227816067325" lon="11.890143578867711"><ele>153.5</ele><time>2026-04-18T12:49:29.001Z</time></trkpt><trkpt lat="42.092200098850284" lon="11.890132730367403"><ele>152.33333333333334</ele><time>2026-04-18T12:49:30.001Z</time></trkpt><trkpt lat="42.09213158054826" lon="11.890100440360804"><ele>151.16666666666666</ele><time>2026-04-18T12:49:31.001Z</time></trkpt><trkpt lat="42.0920677577685" lon="11.890065228780424"><ele>150.0</ele><time>2026-04-18T12:49:32.001Z</time></trkpt><trkpt lat="42.09195112719935" lon="11.890009967292215"><ele>150.0</ele><time>2026-04-18T12:49:34.001Z</time></trkpt><trkpt lat="42.09182566896312" lon="11.889974230899359"><ele>150.0</ele><time>2026-04-18T12:49:36.001Z</time></trkpt><trkpt lat="42.09176418304355" lon="11.889902417335646"><ele>150.0</ele><time>2026-04-18T12:49:38.001Z</time></trkpt><trkpt lat="42.0918001183637" lon="11.889772346376017"><ele>150.0</ele><time>2026-04-18T12:49:40.001Z</time></trkpt><trkpt lat="42.09182444470438" lon="11.889685678002659"><ele>150.0</ele><time>2026-04-18T12:49:41.001Z</time></trkpt><trkpt lat="42.09180792331835" lon="11.889534867996218"><ele>149.99999999999997</ele><time>2026-04-18T12:49:43.001Z</time></trkpt><trkpt lat="42.0917825737982" lon="11.889455793857888"><ele>150.0</ele><time>2026-04-18T12:49:44.001Z</time></trkpt><trkpt lat="42.09175057831104" lon="11.889379548499463"><ele>150.0</ele><time>2026-04-18T12:49:45.001Z</time></trkpt><trkpt lat="42.09170930809985" lon="11.889293885292915"><ele>150.0</ele><time>2026-04-18T12:49:46.001Z</time></trkpt><trkpt lat="42.09168345942997" lon="11.88919863845887"><ele>150.0</ele><time>2026-04-18T12:49:47.001Z</time></trkpt><trkpt lat="42.09166955169806" lon="11.88909983336022"><ele>149.99999999999997</ele><time>2026-04-18T12:49:48.001Z</time></trkpt><trkpt lat="42.0916504286208" lon="11.889009719104159"><ele>150.0</ele><time>2026-04-18T12:49:49.001Z</time></trkpt><trkpt lat="42.09163151258391" lon="11.888910777158303"><ele>149.0</ele><time>2026-04-18T12:49:50.001Z</time></trkpt><trkpt lat="42.091612185285115" lon="11.888814495020995"><ele>148.0</ele><time>2026-04-18T12:49:51.001Z</time></trkpt><trkpt lat="42.09158736041992" lon="11.88872013632986"><ele>147.0</ele><time>2026-04-18T12:49:52.001Z</time></trkpt><trkpt lat="42.091553551638896" lon="11.88862355132"><ele>146.0</ele><time>2026-04-18T12:49:53.001Z</time></trkpt><trkpt lat="42.09151634143887" lon="11.888525429910018"><ele>145.0</ele><time>2026-04-18T12:49:54.001Z</time></trkpt><trkpt lat="42.09146997539149" lon="11.888434962292305"><ele>144.0</ele><time>2026-04-18T12:49:55.001Z</time></trkpt><trkpt lat="42.09140616401691" lon="11.888345798463916"><ele>146.0</ele><time>2026-04-18T12:49:56.001Z</time></trkpt><trkpt lat="42.091348665119966" lon="11.888264908125771"><ele>148.0</ele><time>2026-04-18T12:49:57Z</time></trkpt><trkpt lat="42.09128438426091" lon="11.888201550664572"><ele>150.0</ele><time>2026-04-18T12:49:58Z</time></trkpt><trkpt lat="42.091217565456496" lon="11.888152692733136"><ele>152.0</ele><time>2026-04-18T12:49:59Z</time></trkpt><trkpt lat="42.09114776202914" lon="11.888096980259611"><ele>154.0</ele><time>2026-04-18T12:50:00Z</time></trkpt><trkpt lat="42.09108048819315" lon="11.888045459982663"><ele>156.0</ele><time>2026-04-18T12:50:01Z</time></trkpt><trkpt lat="42.091011120897036" lon="11.88799704000135"><ele>156.0</ele><time>2026-04-18T12:50:02Z</time></trkpt><trkpt lat="42.09093920232234" lon="11.887978452284507"><ele>156.0</ele><time>2026-04-18T12:50:03Z</time></trkpt><trkpt lat="42.09087360319665" lon="11.887989793673"><ele>156.0</ele><time>2026-04-18T12:50:04Z</time></trkpt><trkpt lat="42.090796953874175" lon="11.888012614007193"><ele>156.0</ele><time>2026-04-18T12:50:05Z</time></trkpt><trkpt lat="42.09071594041607" lon="11.888038544005239"><ele>156.0</ele><time>2026-04-18T12:50:06Z</time></trkpt><trkpt lat="42.09064485190736" lon="11.888063933801371"><ele>156.0</ele><time>2026-04-18T12:50:07Z</time></trkpt><trkpt lat="42.09056283446916" lon="11.888081822712685"><ele>156.5</ele><time>2026-04-18T12:50:08Z</time></trkpt><trkpt lat="42.09047872661689" lon="11.888088706783078"><ele>157.0</ele><time>2026-04-18T12:50:09Z</time></trkpt><trkpt lat="42.0904028624569" lon="11.888075958357984"><ele>157.5</ele><time>2026-04-18T12:50:10Z</time></trkpt><trkpt lat="42.090320839902745" lon="11.88804190847699"><ele>158.0</ele><time>2026-04-18T12:50:11Z</time></trkpt><trkpt lat="42.09023973432026" lon="11.887992981247468"><ele>158.5</ele><time>2026-04-18T12:50:12Z</time></trkpt><trkpt lat="42.09015610701383" lon="11.887934249499747"><ele>159.0</ele><time>2026-04-18T12:50:13Z</time></trkpt><trkpt lat="42.09007941464152" lon="11.887877735313202"><ele>159.0</ele><time>2026-04-18T12:50:14Z</time></trkpt><trkpt lat="42.0899743186951" lon="11.887861733199689"><ele>159.0</ele><time>2026-04-18T12:50:16Z</time></trkpt><trkpt lat="42.089907668660324" lon="11.887852327403827"><ele>159.0</ele><time>2026-04-18T12:50:17Z</time></trkpt><trkpt lat="42.0898418539013" lon="11.887867550206987"><ele>159.0</ele><time>2026-04-18T12:50:18Z</time></trkpt><trkpt lat="42.08978201284553" lon="11.887903063941199"><ele>159.0</ele><time>2026-04-18T12:50:19Z</time></trkpt><trkpt lat="42.089719576788184" lon="11.887970621868607"><ele>159.0</ele><time>2026-04-18T12:50:21Z</time></trkpt><trkpt lat="42.08961658371115" lon="11.888035827030889"><ele>159.0</ele><time>2026-04-18T12:52:02.999Z</time></trkpt><trkpt lat="42.08957614169202" lon="11.888113617437602"><ele>159.0</ele><time>2026-04-18T12:52:03.999Z</time></trkpt><trkpt lat="42.089526731803886" lon="11.888185686456271"><ele>159.0</ele><time>2026-04-18T12:52:04.999Z</time></trkpt><trkpt lat="42.089484466370884" lon="11.888265577258663"><ele>159.0</ele><time>2026-04-18T12:52:05.999Z</time></trkpt><trkpt lat="42.08942812529767" lon="11.888362163765175"><ele>159.0</ele><time>2026-04-18T12:52:06.999Z</time></trkpt><trkpt lat="42.08934888886554" lon="11.888461974755549"><ele>159.0</ele><time>2026-04-18T12:52:07.999Z</time></trkpt><trkpt lat="42.08926324776338" lon="11.888545683993035"><ele>159.83333333333334</ele><time>2026-04-18T12:52:08.999Z</time></trkpt><trkpt lat="42.08918965386059" lon="11.888610848195167"><ele>160.66666666666666</ele><time>2026-04-18T12:52:09.999Z</time></trkpt><trkpt lat="42.08911447055176" lon="11.888668746840322"><ele>161.5</ele><time>2026-04-18T12:52:10.999Z</time></trkpt><trkpt lat="42.08903677430231" lon="11.888710650616675"><ele>162.33333333333331</ele><time>2026-04-18T12:52:11.999Z</time></trkpt><trkpt lat="42.08896466939012" lon="11.88874949050252"><ele>163.16666666666666</ele><time>2026-04-18T12:52:12.999Z</time></trkpt><trkpt lat="42.08888939050181" lon="11.888796126639553"><ele>164.0</ele><time>2026-04-18T12:52:13.999Z</time></trkpt><trkpt lat="42.0888215859323" lon="11.888828767499726"><ele>163.99999999999997</ele><time>2026-04-18T12:52:14.999Z</time></trkpt><trkpt lat="42.08874664290557" lon="11.888857355609625"><ele>164.0</ele><time>2026-04-18T12:52:15.999Z</time></trkpt><trkpt lat="42.088674685857384" lon="11.888886759735318"><ele>164.0</ele><time>2026-04-18T12:52:16.999Z</time></trkpt><trkpt lat="42.08861377933144" lon="11.888922350959653"><ele>164.0</ele><time>2026-04-18T12:52:17.999Z</time></trkpt><trkpt lat="42.088558574121976" lon="11.888979549132793"><ele>164.0</ele><time>2026-04-18T12:52:18.999Z</time></trkpt><trkpt lat="42.08851810025596" lon="11.889047804440295"><ele>163.99999999999997</ele><time>2026-04-18T12:52:19.999Z</time></trkpt><trkpt lat="42.08848886594653" lon="11.889133084551165"><ele>164.0</ele><time>2026-04-18T12:52:21Z</time></trkpt><trkpt lat="42.08841716929819" lon="11.889282583045793"><ele>164.42857142857142</ele><time>2026-04-18T12:52:23Z</time></trkpt><trkpt lat="42.08837406920903" lon="11.88936375748172"><ele>164.85714285714286</ele><time>2026-04-18T12:52:24Z</time></trkpt><trkpt lat="42.08832545584651" lon="11.88944424325692"><ele>165.28571428571428</ele><time>2026-04-18T12:52:25Z</time></trkpt><trkpt lat="42.08828563801056" lon="11.889534096361746"><ele>165.71428571428572</ele><time>2026-04-18T12:52:26Z</time></trkpt><trkpt lat="42.08826058218752" lon="11.889616413901287"><ele>166.14285714285714</ele><time>2026-04-18T12:52:27Z</time></trkpt><trkpt lat="42.0882271383808" lon="11.889694759954349"><ele>166.57142857142856</ele><time>2026-04-18T12:52:28Z</time></trkpt><trkpt lat="42.0881848986679" lon="11.889781450715555"><ele>167.0</ele><time>2026-04-18T12:52:29Z</time></trkpt><trkpt lat="42.088145373591836" lon="11.889863479863589"><ele>167.0</ele><time>2026-04-18T12:52:30Z</time></trkpt><trkpt lat="42.088105174483786" lon="11.8899513428106"><ele>167.0</ele><time>2026-04-18T12:52:31Z</time></trkpt><trkpt lat="42.08806864440525" lon="11.890023805359146"><ele>167.0</ele><time>2026-04-18T12:52:32Z</time></trkpt><trkpt lat="42.08803266842207" lon="11.890100580083214"><ele>167.0</ele><time>2026-04-18T12:52:33Z</time></trkpt><trkpt lat="42.08800630467578" lon="11.890194497368155"><ele>167.0</ele><time>2026-04-18T12:52:34Z</time></trkpt><trkpt lat="42.0879893766884" lon="11.890297249061172"><ele>167.0</ele><time>2026-04-18T12:52:35Z</time></trkpt><trkpt lat="42.08798707918676" lon="11.890386830394444"><ele>167.0</ele><time>2026-04-18T12:52:36Z</time></trkpt><trkpt lat="42.08797939006079" lon="11.890532918579796"><ele>168.8</ele><time>2026-04-18T12:52:38Z</time></trkpt><trkpt lat="42.087900214689384" lon="11.890641270609505"><ele>170.6</ele><time>2026-04-18T12:52:40Z</time></trkpt><trkpt lat="42.08784027143262" lon="11.890700007384421"><ele>172.4</ele><time>2026-04-18T12:52:41Z</time></trkpt><trkpt lat="42.08777176808919" lon="11.890758084239659"><ele>174.20000000000002</ele><time>2026-04-18T12:52:42Z</time></trkpt><trkpt lat="42.08766115852165" lon="11.890819861942475"><ele>176.0</ele><time>2026-04-18T12:52:43Z</time></trkpt><trkpt lat="42.087532989388635" lon="11.890882607905265"><ele>176.5</ele><time>2026-04-18T12:52:44Z</time></trkpt><trkpt lat="42.08743125361801" lon="11.890930621333816"><ele>177.0</ele><time>2026-04-18T12:52:45Z</time></trkpt><trkpt lat="42.08737019037407" lon="11.890973808415245"><ele>177.5</ele><time>2026-04-18T12:52:46Z</time></trkpt><trkpt lat="42.087311208958795" lon="11.891015991222309"><ele>178.0</ele><time>2026-04-18T12:52:48Z</time></trkpt><trkpt lat="42.08726714674581" lon="11.890937721721434"><ele>178.5</ele><time>2026-04-18T12:52:52Z</time></trkpt><trkpt lat="42.08716548557435" lon="11.890838854610358"><ele>179.0</ele><time>2026-04-18T12:52:54Z</time></trkpt><trkpt lat="42.08710301696453" lon="11.890788235758441"><ele>177.79999999999998</ele><time>2026-04-18T12:52:55Z</time></trkpt><trkpt lat="42.08709340047253" lon="11.890664151797381"><ele>176.6</ele><time>2026-04-18T12:52:58Z</time></trkpt><trkpt lat="42.087129291285216" lon="11.890518728842478"><ele>175.4</ele><time>2026-04-18T12:53:00Z</time></trkpt><trkpt lat="42.08717710058824" lon="11.890387117814855"><ele>174.2</ele><time>2026-04-18T12:53:02Z</time></trkpt><trkpt lat="42.08724110131368" lon="11.890296350476252"><ele>173.0</ele><time>2026-04-18T12:53:04Z</time></trkpt><trkpt lat="42.087292209546455" lon="11.890187129964188"><ele>173.0</ele><time>2026-04-18T12:53:06.001Z</time></trkpt><trkpt lat="42.08729591713662" lon="11.890101521327013"><ele>173.0</ele><time>2026-04-18T12:53:07.001Z</time></trkpt><trkpt lat="42.087274063130636" lon="11.88994578657199"><ele>173.0</ele><time>2026-04-18T12:53:09.001Z</time></trkpt><trkpt lat="42.087235250214796" lon="11.889802502800311"><ele>173.0</ele><time>2026-04-18T12:53:11.001Z</time></trkpt><trkpt lat="42.08716009997334" lon="11.889708026626773"><ele>173.0</ele><time>2026-04-18T12:53:13.001Z</time></trkpt><trkpt lat="42.08710222211977" lon="11.889656342527465"><ele>171.66666666666666</ele><time>2026-04-18T12:53:14.001Z</time></trkpt><trkpt lat="42.08703990658065" lon="11.889604693484978"><ele>170.33333333333331</ele><time>2026-04-18T12:53:15.001Z</time></trkpt><trkpt lat="42.08696669594226" lon="11.889536567009015"><ele>169.0</ele><time>2026-04-18T12:53:16.001Z</time></trkpt><trkpt lat="42.086880733451196" lon="11.889468575396405"><ele>167.66666666666666</ele><time>2026-04-18T12:53:17.001Z</time></trkpt><trkpt lat="42.08681233918077" lon="11.889412577677756"><ele>166.33333333333334</ele><time>2026-04-18T12:53:18.001Z</time></trkpt><trkpt lat="42.08674688312337" lon="11.889356083400395"><ele>165.0</ele><time>2026-04-18T12:53:19.001Z</time></trkpt><trkpt lat="42.0866715989875" lon="11.889290310715273"><ele>162.16666666666666</ele><time>2026-04-18T12:53:20.001Z</time></trkpt><trkpt lat="42.08658427530947" lon="11.889229882187477"><ele>159.33333333333334</ele><time>2026-04-18T12:53:21.001Z</time></trkpt><trkpt lat="42.086487111603034" lon="11.88918757531088"><ele>156.5</ele><time>2026-04-18T12:53:22.001Z</time></trkpt><trkpt lat="42.086399549555246" lon="11.889153929116198"><ele>153.66666666666669</ele><time>2026-04-18T12:53:23.001Z</time></trkpt><trkpt lat="42.08634137698551" lon="11.889118318606057"><ele>150.83333333333334</ele><time>2026-04-18T12:53:24.001Z</time></trkpt><trkpt lat="42.086289723228425" lon="11.8890568340627"><ele>148.0</ele><time>2026-04-18T12:53:25.001Z</time></trkpt><trkpt lat="42.086249281391225" lon="11.888980467207757"><ele>148.0</ele><time>2026-04-18T12:53:26.001Z</time></trkpt><trkpt lat="42.0862053476222" lon="11.88889318627613"><ele>148.0</ele><time>2026-04-18T12:53:27.001Z</time></trkpt><trkpt lat="42.08615684973492" lon="11.888796475740483"><ele>148.0</ele><time>2026-04-18T12:53:28.001Z</time></trkpt><trkpt lat="42.08610306662445" lon="11.888694486903978"><ele>148.0</ele><time>2026-04-18T12:53:29.001Z</time></trkpt><trkpt lat="42.08606518317657" lon="11.888607991628504"><ele>148.0</ele><time>2026-04-18T12:53:30.001Z</time></trkpt><trkpt lat="42.086024581537266" lon="11.888506303714538"><ele>148.0</ele><time>2026-04-18T12:53:31.001Z</time></trkpt><trkpt lat="42.085996670311864" lon="11.88841388073052"><ele>146.0</ele><time>2026-04-18T12:53:32.001Z</time></trkpt><trkpt lat="42.08594605689853" lon="11.888242912285074"><ele>144.0</ele><time>2026-04-18T12:53:34.001Z</time></trkpt><trkpt lat="42.085900209501276" lon="11.888161022110916"><ele>142.0</ele><time>2026-04-18T12:53:35.001Z</time></trkpt><trkpt lat="42.08585392168003" lon="11.888099025666394"><ele>140.0</ele><time>2026-04-18T12:53:36.001Z</time></trkpt><trkpt lat="42.08580272218345" lon="11.888035624879489"><ele>138.0</ele><time>2026-04-18T12:53:37.001Z</time></trkpt><trkpt lat="42.085719746248586" lon="11.88794632477221"><ele>136.25</ele><time>2026-04-18T12:53:38.001Z</time></trkpt><trkpt lat="42.085631593750286" lon="11.887851570232685"><ele>134.5</ele><time>2026-04-18T12:53:39.001Z</time></trkpt><trkpt lat="42.08555582942551" lon="11.88772493063669"><ele>132.75</ele><time>2026-04-18T12:53:40.001Z</time></trkpt><trkpt lat="42.085502776526006" lon="11.887576624058074"><ele>131.0</ele><time>2026-04-18T12:53:41.001Z</time></trkpt><trkpt lat="42.085454804991436" lon="11.887436333312891"><ele>130.0</ele><time>2026-04-18T12:53:42.001Z</time></trkpt><trkpt lat="42.08540487059531" lon="11.887296659783596"><ele>129.0</ele><time>2026-04-18T12:53:43.001Z</time></trkpt><trkpt lat="42.08535167735758" lon="11.887160989694907"><ele>128.0</ele><time>2026-04-18T12:53:44.001Z</time></trkpt><trkpt lat="42.0852977569122" lon="11.887026281691323"><ele>127.0</ele><time>2026-04-18T12:53:45.001Z</time></trkpt><trkpt lat="42.085251161352204" lon="11.886881601369305"><ele>126.0</ele><time>2026-04-18T12:53:46.001Z</time></trkpt><trkpt lat="42.085205908732235" lon="11.886726525513168"><ele>125.0</ele><time>2026-04-18T12:53:47.001Z</time></trkpt><trkpt lat="42.08517615831043" lon="11.886569315332626"><ele>124.0</ele><time>2026-04-18T12:53:48.001Z</time></trkpt><trkpt lat="42.08515055742095" lon="11.886413360542344"><ele>123.0</ele><time>2026-04-18T12:53:49.001Z</time></trkpt><trkpt lat="42.085126015114376" lon="11.886296382004963"><ele>123.0</ele><time>2026-04-18T12:53:50.001Z</time></trkpt><trkpt lat="42.08510708836282" lon="11.886194744863209"><ele>123.0</ele><time>2026-04-18T12:53:51.001Z</time></trkpt><trkpt lat="42.085083535025085" lon="11.886089080031804"><ele>123.0</ele><time>2026-04-18T12:53:52.001Z</time></trkpt><trkpt lat="42.08507953139282" lon="11.885986000661891"><ele>123.0</ele><time>2026-04-18T12:53:53.001Z</time></trkpt><trkpt lat="42.08508902208693" lon="11.88586546659654"><ele>123.0</ele><time>2026-04-18T12:53:54.001Z</time></trkpt><trkpt lat="42.085105442608" lon="11.88573879863174"><ele>123.0</ele><time>2026-04-18T12:53:55.001Z</time></trkpt><trkpt lat="42.08512177720497" lon="11.88561597315884"><ele>122.33333333333333</ele><time>2026-04-18T12:53:56.001Z</time></trkpt><trkpt lat="42.08514418763311" lon="11.88550540232387"><ele>121.66666666666666</ele><time>2026-04-18T12:53:57.001Z</time></trkpt><trkpt lat="42.08515937581014" lon="11.885407162879016"><ele>121.0</ele><time>2026-04-18T12:53:58.001Z</time></trkpt><trkpt lat="42.08517356858175" lon="11.885266131134118"><ele>120.33333333333333</ele><time>2026-04-18T12:54:00.001Z</time></trkpt><trkpt lat="42.08521793325041" lon="11.885144758645078"><ele>119.66666666666666</ele><time>2026-04-18T12:54:02.001Z</time></trkpt><trkpt lat="42.085234352110305" lon="11.88505900129216"><ele>119.0</ele><time>2026-04-18T12:54:03.001Z</time></trkpt><trkpt lat="42.085231917504935" lon="11.884965089840385"><ele>117.33333333333333</ele><time>2026-04-18T12:54:04.001Z</time></trkpt><trkpt lat="42.085231064712595" lon="11.884873940114206"><ele>115.66666666666666</ele><time>2026-04-18T12:54:05.001Z</time></trkpt><trkpt lat="42.08525927280498" lon="11.88474819909902"><ele>114.0</ele><time>2026-04-18T12:54:07.002Z</time></trkpt><trkpt lat="42.08527845826559" lon="11.88458128526665"><ele>112.33333333333334</ele><time>2026-04-18T12:54:08.999Z</time></trkpt><trkpt lat="42.08525384334043" lon="11.884499326279077"><ele>110.66666666666667</ele><time>2026-04-18T12:54:09.999Z</time></trkpt><trkpt lat="42.08520869162099" lon="11.884429800319028"><ele>109.0</ele><time>2026-04-18T12:54:10.999Z</time></trkpt><trkpt lat="42.08513619256225" lon="11.88436243721285"><ele>109.00000000000001</ele><time>2026-04-18T12:54:11.999Z</time></trkpt><trkpt lat="42.08505363758156" lon="11.884296151683834"><ele>109.0</ele><time>2026-04-18T12:54:12.999Z</time></trkpt><trkpt lat="42.08500031032963" lon="11.884211398459026"><ele>109.0</ele><time>2026-04-18T12:54:13.999Z</time></trkpt><trkpt lat="42.084948173597176" lon="11.884125259855859"><ele>109.0</ele><time>2026-04-18T12:54:14.999Z</time></trkpt><trkpt lat="42.084902660180134" lon="11.884047583383138"><ele>109.00000000000001</ele><time>2026-04-18T12:54:15.999Z</time></trkpt><trkpt lat="42.08486042352649" lon="11.88397800942462"><ele>109.0</ele><time>2026-04-18T12:54:16.999Z</time></trkpt><trkpt lat="42.084783701618925" lon="11.883894653339906"><ele>106.0</ele><time>2026-04-18T12:54:18.999Z</time></trkpt><trkpt lat="42.08467727054937" lon="11.88378321188027"><ele>103.0</ele><time>2026-04-18T12:54:20.999Z</time></trkpt><trkpt lat="42.08463000857213" lon="11.883717050354987"><ele>100.0</ele><time>2026-04-18T12:54:21.999Z</time></trkpt><trkpt lat="42.084586244423264" lon="11.883649344422757"><ele>97.0</ele><time>2026-04-18T12:54:22.999Z</time></trkpt><trkpt lat="42.084527217292624" lon="11.883532216131107"><ele>94.0</ele><time>2026-04-18T12:54:25Z</time></trkpt><trkpt lat="42.08447063147549" lon="11.883420994370047"><ele>93.33333333333333</ele><time>2026-04-18T12:54:27Z</time></trkpt><trkpt lat="42.08445049799867" lon="11.88332833331038"><ele>92.66666666666666</ele><time>2026-04-18T12:54:29Z</time></trkpt><trkpt lat="42.08445171219671" lon="11.883220240025524"><ele>92.0</ele><time>2026-04-18T12:54:32Z</time></trkpt><trkpt lat="42.08451338364728" lon="11.88319836676994"><ele>91.33333333333333</ele><time>2026-04-18T12:54:34Z</time></trkpt><trkpt lat="42.08460849688904" lon="11.883211851143521"><ele>90.66666666666667</ele><time>2026-04-18T12:54:36Z</time></trkpt><trkpt lat="42.08469774065022" lon="11.883233608761202"><ele>90.0</ele><time>2026-04-18T12:54:38Z</time></trkpt><trkpt lat="42.084717087627176" lon="11.883135999453389"><ele>90.0</ele><time>2026-04-18T12:54:42Z</time></trkpt><trkpt lat="42.08474343841517" lon="11.883039843276524"><ele>90.0</ele><time>2026-04-18T12:54:45Z</time></trkpt><trkpt lat="42.084800876198415" lon="11.88296091361707"><ele>90.0</ele><time>2026-04-18T12:54:47Z</time></trkpt><trkpt lat="42.08483719632378" lon="11.882876415332786"><ele>90.0</ele><time>2026-04-18T12:54:49Z</time></trkpt><trkpt lat="42.084801595828765" lon="11.882739758638916"><ele>90.0</ele><time>2026-04-18T12:54:51Z</time></trkpt><trkpt lat="42.084747126132235" lon="11.88264743596783"><ele>90.0</ele><time>2026-04-18T12:54:52Z</time></trkpt><trkpt lat="42.08482346128586" lon="11.882588034101847"><ele>90.0</ele><time>2026-04-18T12:54:56Z</time></trkpt><trkpt lat="42.08476077338763" lon="11.882627478712132"><ele>90.0</ele><time>2026-04-18T12:56:34Z</time></trkpt><trkpt lat="42.08463834166479" lon="11.882649729422956"><ele>90.0</ele><time>2026-04-18T12:56:36Z</time></trkpt><trkpt lat="42.08456583233858" lon="11.882655343243243"><ele>90.0</ele><time>2026-04-18T12:56:37Z</time></trkpt><trkpt lat="42.0844206612451" lon="11.882627928889654"><ele>90.0</ele><time>2026-04-18T12:56:39Z</time></trkpt><trkpt lat="42.08433364319238" lon="11.882603928701435"><ele>90.0</ele><time>2026-04-18T12:56:40Z</time></trkpt><trkpt lat="42.08422852490349" lon="11.882577933140675"><ele>90.0</ele><time>2026-04-18T12:56:42Z</time></trkpt><trkpt lat="42.08427836981013" lon="11.88265449201109"><ele>90.0</ele><time>2026-04-18T12:56:50Z</time></trkpt><trkpt lat="42.08435365352506" lon="11.882586171980288"><ele>90.0</ele><time>2026-04-18T12:56:52Z</time></trkpt><trkpt lat="42.08444783899769" lon="11.882607417082912"><ele>90.0</ele><time>2026-04-18T12:56:54Z</time></trkpt><trkpt lat="42.084525219437054" lon="11.882640189798417"><ele>90.0</ele><time>2026-04-18T12:56:55Z</time></trkpt><trkpt lat="42.0846278425851" lon="11.88265006971544"><ele>90.0</ele><time>2026-04-18T12:56:56.001Z</time></trkpt><trkpt lat="42.08475284895149" lon="11.882639919569463"><ele>90.0</ele><time>2026-04-18T12:56:57.001Z</time></trkpt><trkpt lat="42.084818241207444" lon="11.882622962196516"><ele>90.0</ele><time>2026-04-18T12:56:58.001Z</time></trkpt><trkpt lat="42.084859092158766" lon="11.882526682925807"><ele>90.0</ele><time>2026-04-18T13:05:29.001Z</time></trkpt><trkpt lat="42.08490001236156" lon="11.882446745012809"><ele>90.0</ele><time>2026-04-18T13:05:32.001Z</time></trkpt><trkpt lat="42.08494418320801" lon="11.88232947439167"><ele>90.16666666666667</ele><time>2026-04-18T13:05:34.001Z</time></trkpt><trkpt lat="42.08496944247854" lon="11.882246310086115"><ele>90.33333333333333</ele><time>2026-04-18T13:05:35.001Z</time></trkpt><trkpt lat="42.084995341784555" lon="11.882138549258991"><ele>90.5</ele><time>2026-04-18T13:05:36.001Z</time></trkpt><trkpt lat="42.08502596683592" lon="11.882026627746805"><ele>90.66666666666666</ele><time>2026-04-18T13:05:37.001Z</time></trkpt><trkpt lat="42.085060436713604" lon="11.88191612925838"><ele>90.83333333333333</ele><time>2026-04-18T13:05:38.001Z</time></trkpt><trkpt lat="42.085095037453875" lon="11.881806112813686"><ele>91.0</ele><time>2026-04-18T13:05:39.001Z</time></trkpt><trkpt lat="42.08512798078066" lon="11.88169858788696"><ele>91.19999999999999</ele><time>2026-04-18T13:05:40.001Z</time></trkpt><trkpt lat="42.08515785426939" lon="11.881596309230957"><ele>91.39999999999999</ele><time>2026-04-18T13:05:41.001Z</time></trkpt><trkpt lat="42.08517084235622" lon="11.881489706891227"><ele>91.6</ele><time>2026-04-18T13:05:42.001Z</time></trkpt><trkpt lat="42.0851676838669" lon="11.88137710202756"><ele>91.8</ele><time>2026-04-18T13:05:43.001Z</time></trkpt><trkpt lat="42.085160895430406" lon="11.881278394218983"><ele>92.0</ele><time>2026-04-18T13:05:44.001Z</time></trkpt><trkpt lat="42.085169166103555" lon="11.881097645996261"><ele>92.0</ele><time>2026-04-18T13:05:46.001Z</time></trkpt><trkpt lat="42.08517341580903" lon="11.881001873088493"><ele>92.0</ele><time>2026-04-18T13:05:47.001Z</time></trkpt><trkpt lat="42.085211168916906" lon="11.88092154395973"><ele>92.0</ele><time>2026-04-18T13:05:48.001Z</time></trkpt><trkpt lat="42.085271372356026" lon="11.880854556681735"><ele>92.0</ele><time>2026-04-18T13:05:49.001Z</time></trkpt><trkpt lat="42.085322020676834" lon="11.880774289153821"><ele>92.0</ele><time>2026-04-18T13:05:50.001Z</time></trkpt><trkpt lat="42.085357699144154" lon="11.880654509651125"><ele>92.0</ele><time>2026-04-18T13:05:51.001Z</time></trkpt><trkpt lat="42.08538520205808" lon="11.880514401876441"><ele>93.16666666666667</ele><time>2026-04-18T13:05:52.001Z</time></trkpt><trkpt lat="42.085411156509416" lon="11.880434949596038"><ele>94.33333333333334</ele><time>2026-04-18T13:05:53.001Z</time></trkpt><trkpt lat="42.085460191936455" lon="11.880380102795737"><ele>95.5</ele><time>2026-04-18T13:05:54.001Z</time></trkpt><trkpt lat="42.08554678995249" lon="11.880273825918833"><ele>96.66666666666667</ele><time>2026-04-18T13:05:56.001Z</time></trkpt><trkpt lat="42.08559889642428" lon="11.880208408260037"><ele>97.83333333333333</ele><time>2026-04-18T13:05:57.001Z</time></trkpt><trkpt lat="42.085673474515545" lon="11.88013131071639"><ele>99.0</ele><time>2026-04-18T13:05:58.001Z</time></trkpt><trkpt lat="42.08576388818492" lon="11.880034904716005"><ele>101.83333333333333</ele><time>2026-04-18T13:05:59.001Z</time></trkpt><trkpt lat="42.085825314477994" lon="11.87994890157329"><ele>104.66666666666666</ele><time>2026-04-18T13:06:00.001Z</time></trkpt><trkpt lat="42.08585754079373" lon="11.879857756365784"><ele>107.5</ele><time>2026-04-18T13:06:01.001Z</time></trkpt><trkpt lat="42.085867914356704" lon="11.879762252646104"><ele>110.33333333333333</ele><time>2026-04-18T13:06:02.001Z</time></trkpt><trkpt lat="42.08586830430673" lon="11.879649319116808"><ele>113.16666666666666</ele><time>2026-04-18T13:06:03.001Z</time></trkpt><trkpt lat="42.085862126206536" lon="11.879526410700178"><ele>116.0</ele><time>2026-04-18T13:06:04.001Z</time></trkpt><trkpt lat="42.085846747839604" lon="11.879424404804928"><ele>115.99999999999999</ele><time>2026-04-18T13:06:05.001Z</time></trkpt><trkpt lat="42.0858228671952" lon="11.879326624591782"><ele>116.0</ele><time>2026-04-18T13:06:06.001Z</time></trkpt><trkpt lat="42.08581873364504" lon="11.879231760585117"><ele>116.0</ele><time>2026-04-18T13:06:07.001Z</time></trkpt><trkpt lat="42.08582052584926" lon="11.879136204492728"><ele>116.0</ele><time>2026-04-18T13:06:08.001Z</time></trkpt><trkpt lat="42.085830474251935" lon="11.879017204973836"><ele>115.99999999999999</ele><time>2026-04-18T13:06:09.001Z</time></trkpt><trkpt lat="42.08586031668262" lon="11.87889721713192"><ele>116.0</ele><time>2026-04-18T13:06:10.001Z</time></trkpt><trkpt lat="42.08589750487452" lon="11.878783112754578"><ele>118.19999999999999</ele><time>2026-04-18T13:06:11.001Z</time></trkpt><trkpt lat="42.08593245392579" lon="11.878688353340367"><ele>120.39999999999999</ele><time>2026-04-18T13:06:12.001Z</time></trkpt><trkpt lat="42.08596618520072" lon="11.878596733903231"><ele>122.6</ele><time>2026-04-18T13:06:13.001Z</time></trkpt><trkpt lat="42.086002883665905" lon="11.878500234970389"><ele>124.8</ele><time>2026-04-18T13:06:14.001Z</time></trkpt><trkpt lat="42.086058401151604" lon="11.878319622844385"><ele>127.0</ele><time>2026-04-18T13:06:16.001Z</time></trkpt><trkpt lat="42.08610218407279" lon="11.878234877474622"><ele>128.5</ele><time>2026-04-18T13:06:17.001Z</time></trkpt><trkpt lat="42.08615382551169" lon="11.878134150391483"><ele>130.0</ele><time>2026-04-18T13:06:18.001Z</time></trkpt><trkpt lat="42.08620402438773" lon="11.878058362313537"><ele>131.5</ele><time>2026-04-18T13:06:19.001Z</time></trkpt><trkpt lat="42.08626045528466" lon="11.877977486872032"><ele>133.0</ele><time>2026-04-18T13:06:20.001Z</time></trkpt><trkpt lat="42.08631225308874" lon="11.877885550117284"><ele>134.5</ele><time>2026-04-18T13:06:21.001Z</time></trkpt><trkpt lat="42.08637557265994" lon="11.87779458289012"><ele>136.0</ele><time>2026-04-18T13:06:22.001Z</time></trkpt><trkpt lat="42.086426966254216" lon="11.877720628075574"><ele>135.99999999999997</ele><time>2026-04-18T13:06:23.001Z</time></trkpt><trkpt lat="42.08648903755486" lon="11.877671924697072"><ele>136.0</ele><time>2026-04-18T13:06:24.001Z</time></trkpt><trkpt lat="42.086551753957075" lon="11.877634266958129"><ele>136.0</ele><time>2026-04-18T13:06:25.001Z</time></trkpt><trkpt lat="42.08661805946249" lon="11.877571886051886"><ele>136.0</ele><time>2026-04-18T13:06:26.001Z</time></trkpt><trkpt lat="42.08666578936206" lon="11.87750195244558"><ele>136.0</ele><time>2026-04-18T13:06:27.001Z</time></trkpt><trkpt lat="42.086703651237585" lon="11.877418414285428"><ele>135.99999999999997</ele><time>2026-04-18T13:06:28.001Z</time></trkpt><trkpt lat="42.08675655844867" lon="11.877333791434575"><ele>136.0</ele><time>2026-04-18T13:06:29.001Z</time></trkpt><trkpt lat="42.08683118449462" lon="11.877264634393516"><ele>139.0</ele><time>2026-04-18T13:06:30.001Z</time></trkpt><trkpt lat="42.08692452450364" lon="11.87719540308048"><ele>142.0</ele><time>2026-04-18T13:06:31.001Z</time></trkpt><trkpt lat="42.08698305067705" lon="11.877111224570776"><ele>145.0</ele><time>2026-04-18T13:06:32.001Z</time></trkpt><trkpt lat="42.08701009094597" lon="11.877010212010632"><ele>148.0</ele><time>2026-04-18T13:06:33.001Z</time></trkpt><trkpt lat="42.08703644546697" lon="11.876906507955514"><ele>151.0</ele><time>2026-04-18T13:06:34.001Z</time></trkpt><trkpt lat="42.08708220183124" lon="11.8767807423323"><ele>152.8</ele><time>2026-04-18T13:06:35.001Z</time></trkpt><trkpt lat="42.087091340361795" lon="11.876676399089726"><ele>154.6</ele><time>2026-04-18T13:06:36.001Z</time></trkpt><trkpt lat="42.087097393534556" lon="11.876575802764874"><ele>156.4</ele><time>2026-04-18T13:06:37.002Z</time></trkpt><trkpt lat="42.08718421997617" lon="11.87641685300851"><ele>158.2</ele><time>2026-04-18T13:06:39.002Z</time></trkpt><trkpt lat="42.087221089130196" lon="11.876330358987197"><ele>160.0</ele><time>2026-04-18T13:06:40.002Z</time></trkpt><trkpt lat="42.087271144241925" lon="11.876248550879351"><ele>160.0</ele><time>2026-04-18T13:06:41.002Z</time></trkpt><trkpt lat="42.087329563484225" lon="11.876177811582068"><ele>160.0</ele><time>2026-04-18T13:06:42.002Z</time></trkpt><trkpt lat="42.08738545522802" lon="11.876094110352444"><ele>160.0</ele><time>2026-04-18T13:06:43.002Z</time></trkpt><trkpt lat="42.08741528640872" lon="11.876010625520458"><ele>160.0</ele><time>2026-04-18T13:06:44.002Z</time></trkpt><trkpt lat="42.08745224281681" lon="11.875920601050934"><ele>160.0</ele><time>2026-04-18T13:06:45.001Z</time></trkpt><trkpt lat="42.08751262652682" lon="11.875822535048583"><ele>160.0</ele><time>2026-04-18T13:06:46.001Z</time></trkpt><trkpt lat="42.08755821280382" lon="11.87572699860283"><ele>161.83333333333334</ele><time>2026-04-18T13:06:47.001Z</time></trkpt><trkpt lat="42.08757855510181" lon="11.875625747198534"><ele>163.66666666666669</ele><time>2026-04-18T13:06:48.001Z</time></trkpt><trkpt lat="42.08758814386746" lon="11.875526729454762"><ele>165.5</ele><time>2026-04-18T13:06:49.001Z</time></trkpt><trkpt lat="42.087605854837136" lon="11.875444660031519"><ele>167.33333333333334</ele><time>2026-04-18T13:06:50.001Z</time></trkpt><trkpt lat="42.08763919300439" lon="11.875353349604746"><ele>169.16666666666666</ele><time>2026-04-18T13:06:51.001Z</time></trkpt><trkpt lat="42.087684417271134" lon="11.875275814261025"><ele>171.0</ele><time>2026-04-18T13:06:52.001Z</time></trkpt><trkpt lat="42.087760218202895" lon="11.875212917629224"><ele>171.0</ele><time>2026-04-18T13:06:53.001Z</time></trkpt><trkpt lat="42.08788109446182" lon="11.875133987355984"><ele>171.0</ele><time>2026-04-18T13:06:54Z</time></trkpt><trkpt lat="42.08801403480573" lon="11.875017309685404"><ele>171.0</ele><time>2026-04-18T13:06:55Z</time></trkpt><trkpt lat="42.08814137547647" lon="11.874911577864678"><ele>171.0</ele><time>2026-04-18T13:06:56Z</time></trkpt><trkpt lat="42.088261367904664" lon="11.874823370120312"><ele>172.0</ele><time>2026-04-18T13:06:57Z</time></trkpt><trkpt lat="42.08835799951167" lon="11.874730988225638"><ele>173.0</ele><time>2026-04-18T13:06:58Z</time></trkpt><trkpt lat="42.08843657354856" lon="11.874636400667754"><ele>174.0</ele><time>2026-04-18T13:06:59Z</time></trkpt><trkpt lat="42.08849030044902" lon="11.874548768324846"><ele>175.0</ele><time>2026-04-18T13:07:00Z</time></trkpt><trkpt lat="42.088545270671936" lon="11.874456486921462"><ele>176.0</ele><time>2026-04-18T13:07:01Z</time></trkpt><trkpt lat="42.08859596235772" lon="11.874361232807141"><ele>179.20000000000002</ele><time>2026-04-18T13:07:02Z</time></trkpt><trkpt lat="42.088644384201025" lon="11.87423787573744"><ele>182.4</ele><time>2026-04-18T13:07:03Z</time></trkpt><trkpt lat="42.08870070192562" lon="11.874154338506589"><ele>185.6</ele><time>2026-04-18T13:07:04Z</time></trkpt><trkpt lat="42.088781033186905" lon="11.874113981505566"><ele>188.8</ele><time>2026-04-18T13:07:05Z</time></trkpt><trkpt lat="42.08889336000964" lon="11.874049351596012"><ele>192.0</ele><time>2026-04-18T13:07:06Z</time></trkpt><trkpt lat="42.08896423520114" lon="11.874010103760149"><ele>192.0</ele><time>2026-04-18T13:07:07Z</time></trkpt><trkpt lat="42.08902815878628" lon="11.873949688034447"><ele>192.0</ele><time>2026-04-18T13:07:08Z</time></trkpt><trkpt lat="42.08907975907055" lon="11.873859238912559"><ele>192.0</ele><time>2026-04-18T13:07:09Z</time></trkpt><trkpt lat="42.08910243053563" lon="11.87374628484939"><ele>192.0</ele><time>2026-04-18T13:07:10Z</time></trkpt><trkpt lat="42.089143756677906" lon="11.873611023353103"><ele>192.0</ele><time>2026-04-18T13:07:11Z</time></trkpt><trkpt lat="42.08920313052527" lon="11.87348968395016"><ele>194.75</ele><time>2026-04-18T13:07:12Z</time></trkpt><trkpt lat="42.089277170340196" lon="11.873378825909779"><ele>197.5</ele><time>2026-04-18T13:07:13Z</time></trkpt><trkpt lat="42.0893531245097" lon="11.873250610293539"><ele>200.25</ele><time>2026-04-18T13:07:14Z</time></trkpt><trkpt lat="42.089410178372454" lon="11.873118140444848"><ele>203.0</ele><time>2026-04-18T13:07:15Z</time></trkpt><trkpt lat="42.08946422302327" lon="11.872992958331329"><ele>203.0</ele><time>2026-04-18T13:07:16Z</time></trkpt><trkpt lat="42.08951221679671" lon="11.872877935581968"><ele>203.0</ele><time>2026-04-18T13:07:17Z</time></trkpt><trkpt lat="42.089565846626094" lon="11.872759242992945"><ele>203.0</ele><time>2026-04-18T13:07:18Z</time></trkpt><trkpt lat="42.08960999264069" lon="11.872660590356329"><ele>203.0</ele><time>2026-04-18T13:07:19Z</time></trkpt><trkpt lat="42.08966651352782" lon="11.872561510019915"><ele>203.0</ele><time>2026-04-18T13:07:20Z</time></trkpt><trkpt lat="42.089731032741" lon="11.87249026290542"><ele>205.66666666666669</ele><time>2026-04-18T13:07:21Z</time></trkpt><trkpt lat="42.08979414291388" lon="11.872413898895578"><ele>208.33333333333334</ele><time>2026-04-18T13:07:22Z</time></trkpt><trkpt lat="42.089854264253894" lon="11.872331445548737"><ele>211.0</ele><time>2026-04-18T13:07:23Z</time></trkpt><trkpt lat="42.08987397861775" lon="11.872246948458749"><ele>213.66666666666669</ele><time>2026-04-18T13:07:25Z</time></trkpt><trkpt lat="42.08983594433129" lon="11.872160627512644"><ele>216.33333333333334</ele><time>2026-04-18T13:07:28Z</time></trkpt><trkpt lat="42.08979339671633" lon="11.872086953163768"><ele>219.0</ele><time>2026-04-18T13:07:45.001Z</time></trkpt><trkpt lat="42.08968641635435" lon="11.872060232155176"><ele>219.0</ele><time>2026-04-18T13:07:59.001Z</time></trkpt><trkpt lat="42.08960634877085" lon="11.872043886552513"><ele>219.0</ele><time>2026-04-18T13:08:00.001Z</time></trkpt><trkpt lat="42.08952981637598" lon="11.872021293166707"><ele>219.0</ele><time>2026-04-18T13:08:01.001Z</time></trkpt><trkpt lat="42.08944005612744" lon="11.871997634730747"><ele>219.0</ele><time>2026-04-18T13:08:02.001Z</time></trkpt><trkpt lat="42.08935685926851" lon="11.871990893195596"><ele>219.0</ele><time>2026-04-18T13:08:03.001Z</time></trkpt><trkpt lat="42.089277813583216" lon="11.871971538357226"><ele>219.0</ele><time>2026-04-18T13:08:04.001Z</time></trkpt><trkpt lat="42.08919238336997" lon="11.871954016954481"><ele>219.0</ele><time>2026-04-18T13:08:05.001Z</time></trkpt><trkpt lat="42.089100219370216" lon="11.871922843186477"><ele>219.0</ele><time>2026-04-18T13:08:06.001Z</time></trkpt><trkpt lat="42.08901561326514" lon="11.871870978185976"><ele>219.0</ele><time>2026-04-18T13:08:07.001Z</time></trkpt><trkpt lat="42.088936438573676" lon="11.871847611087881"><ele>219.0</ele><time>2026-04-18T13:08:08.001Z</time></trkpt><trkpt lat="42.088859399193275" lon="11.871815190778728"><ele>219.0</ele><time>2026-04-18T13:08:09.001Z</time></trkpt><trkpt lat="42.08877893884803" lon="11.871768319837285"><ele>219.0</ele><time>2026-04-18T13:08:10.001Z</time></trkpt><trkpt lat="42.08870135404502" lon="11.8716847877695"><ele>221.5</ele><time>2026-04-18T13:08:11.001Z</time></trkpt><trkpt lat="42.0886081393054" lon="11.871619640916093"><ele>224.0</ele><time>2026-04-18T13:08:12.001Z</time></trkpt><trkpt lat="42.08849656128052" lon="11.871554848784356"><ele>226.5</ele><time>2026-04-18T13:08:13.001Z</time></trkpt><trkpt lat="42.08836566843178" lon="11.871500407095816"><ele>229.0</ele><time>2026-04-18T13:08:14.001Z</time></trkpt><trkpt lat="42.08820693414433" lon="11.871483785700828"><ele>229.5</ele><time>2026-04-18T13:08:15.001Z</time></trkpt><trkpt lat="42.088079762960916" lon="11.871455116202728"><ele>230.0</ele><time>2026-04-18T13:08:16.001Z</time></trkpt><trkpt lat="42.08794733486126" lon="11.871459183933563"><ele>230.5</ele><time>2026-04-18T13:08:17.001Z</time></trkpt><trkpt lat="42.087832016715076" lon="11.871488241259838"><ele>231.0</ele><time>2026-04-18T13:08:18.001Z</time></trkpt><trkpt lat="42.087737467466354" lon="11.87149953177986"><ele>231.0</ele><time>2026-04-18T13:08:19.001Z</time></trkpt><trkpt lat="42.08766731850062" lon="11.871484464675282"><ele>231.00000000000003</ele><time>2026-04-18T13:08:20.001Z</time></trkpt><trkpt lat="42.087547314518815" lon="11.871504483860235"><ele>231.00000000000003</ele><time>2026-04-18T13:08:22.001Z</time></trkpt><trkpt lat="42.08747563126304" lon="11.871516442080068"><ele>231.0</ele><time>2026-04-18T13:08:23.001Z</time></trkpt><trkpt lat="42.087386638933424" lon="11.871541585871853"><ele>231.0</ele><time>2026-04-18T13:08:24.001Z</time></trkpt><trkpt lat="42.08724456485862" lon="11.871529009022826"><ele>232.75</ele><time>2026-04-18T13:08:25.001Z</time></trkpt><trkpt lat="42.087089538807945" lon="11.8715513147226"><ele>234.5</ele><time>2026-04-18T13:08:26.001Z</time></trkpt><trkpt lat="42.08693809304283" lon="11.871599430614928"><ele>236.25</ele><time>2026-04-18T13:08:27.001Z</time></trkpt><trkpt lat="42.086822875876365" lon="11.871625781134762"><ele>238.0</ele><time>2026-04-18T13:08:28.001Z</time></trkpt><trkpt lat="42.08671194631042" lon="11.871598568425808"><ele>238.0</ele><time>2026-04-18T13:08:29.001Z</time></trkpt><trkpt lat="42.08661018496782" lon="11.871550550065187"><ele>238.0</ele><time>2026-04-18T13:08:30.001Z</time></trkpt><trkpt lat="42.08651070597411" lon="11.871524876574753"><ele>238.0</ele><time>2026-04-18T13:08:31.001Z</time></trkpt><trkpt lat="42.08640476174233" lon="11.871447234996483"><ele>238.0</ele><time>2026-04-18T13:08:32.001Z</time></trkpt><trkpt lat="42.08631136634643" lon="11.871405846442357"><ele>238.0</ele><time>2026-04-18T13:08:33.001Z</time></trkpt><trkpt lat="42.086227494469014" lon="11.871416010135714"><ele>237.99999999999997</ele><time>2026-04-18T13:08:34.001Z</time></trkpt><trkpt lat="42.086147478857484" lon="11.87145754616812"><ele>238.0</ele><time>2026-04-18T13:08:35.001Z</time></trkpt><trkpt lat="42.086083543116466" lon="11.871527056997477"><ele>238.0</ele><time>2026-04-18T13:08:36.001Z</time></trkpt><trkpt lat="42.08603844358217" lon="11.871597759742134"><ele>238.0</ele><time>2026-04-18T13:08:37.001Z</time></trkpt><trkpt lat="42.08598953442962" lon="11.87166615664743"><ele>237.99999999999997</ele><time>2026-04-18T13:08:38.001Z</time></trkpt><trkpt lat="42.08593054185249" lon="11.871752484145029"><ele>238.0</ele><time>2026-04-18T13:08:39.001Z</time></trkpt><trkpt lat="42.08584801372196" lon="11.87184385355546"><ele>237.2</ele><time>2026-04-18T13:08:40.001Z</time></trkpt><trkpt lat="42.0857467383217" lon="11.871921863624397"><ele>236.4</ele><time>2026-04-18T13:08:41.001Z</time></trkpt><trkpt lat="42.08566372820326" lon="11.871995998809854"><ele>235.59999999999997</ele><time>2026-04-18T13:08:42.001Z</time></trkpt><trkpt lat="42.08558526189559" lon="11.872070075453022"><ele>234.79999999999998</ele><time>2026-04-18T13:08:43.001Z</time></trkpt><trkpt lat="42.085510052648345" lon="11.87210860154722"><ele>234.0</ele><time>2026-04-18T13:08:44.001Z</time></trkpt><trkpt lat="42.08541585719176" lon="11.872153868743554"><ele>234.0</ele><time>2026-04-18T13:08:45.001Z</time></trkpt><trkpt lat="42.085316007993825" lon="11.872206527227666"><ele>233.99999999999997</ele><time>2026-04-18T13:08:46.001Z</time></trkpt><trkpt lat="42.08523398526094" lon="11.87225267152743"><ele>233.99999999999997</ele><time>2026-04-18T13:08:47.001Z</time></trkpt><trkpt lat="42.085159297013" lon="11.872298758149233"><ele>234.0</ele><time>2026-04-18T13:08:48.001Z</time></trkpt><trkpt lat="42.08507742809321" lon="11.872361072369157"><ele>234.0</ele><time>2026-04-18T13:08:49.001Z</time></trkpt><trkpt lat="42.08497560920715" lon="11.872431187677963"><ele>233.39999999999998</ele><time>2026-04-18T13:08:50.001Z</time></trkpt><trkpt lat="42.08487408675055" lon="11.872502273932703"><ele>232.79999999999998</ele><time>2026-04-18T13:08:50.999Z</time></trkpt><trkpt lat="42.084785260968246" lon="11.872590693615674"><ele>232.20000000000002</ele><time>2026-04-18T13:08:51.999Z</time></trkpt><trkpt lat="42.0846904819396" lon="11.872639911878696"><ele>231.60000000000002</ele><time>2026-04-18T13:08:52.999Z</time></trkpt><trkpt lat="42.08460366203287" lon="11.872693039731711"><ele>231.0</ele><time>2026-04-18T13:08:53.999Z</time></trkpt><trkpt lat="42.08453815284658" lon="11.872722069304107"><ele>231.0</ele><time>2026-04-18T13:08:55.999Z</time></trkpt><trkpt lat="42.08445132163816" lon="11.872693149644096"><ele>231.0</ele><time>2026-04-18T13:09:04.999Z</time></trkpt><trkpt lat="42.08437831591946" lon="11.872525561864835"><ele>231.0</ele><time>2026-04-18T13:09:05.999Z</time></trkpt><trkpt lat="42.08432502198851" lon="11.872456170867913"><ele>231.0</ele><time>2026-04-18T13:09:06.999Z</time></trkpt><trkpt lat="42.08426947566779" lon="11.87239917699513"><ele>231.0</ele><time>2026-04-18T13:09:07.999Z</time></trkpt><trkpt lat="42.08421147296357" lon="11.872354930193458"><ele>231.0</ele><time>2026-04-18T13:09:08.999Z</time></trkpt><trkpt lat="42.08415631365314" lon="11.872290101393368"><ele>231.0</ele><time>2026-04-18T13:09:10Z</time></trkpt><trkpt lat="42.084099167166556" lon="11.872202379301742"><ele>231.00000000000003</ele><time>2026-04-18T13:09:11Z</time></trkpt><trkpt lat="42.08402518952922" lon="11.872117731129709"><ele>231.00000000000003</ele><time>2026-04-18T13:09:12Z</time></trkpt><trkpt lat="42.08393814899586" lon="11.87204762586433"><ele>231.0</ele><time>2026-04-18T13:09:13Z</time></trkpt><trkpt lat="42.08385564692354" lon="11.871979932121437"><ele>231.0</ele><time>2026-04-18T13:09:14Z</time></trkpt><trkpt lat="42.083778772585944" lon="11.871917629894446"><ele>231.4</ele><time>2026-04-18T13:09:15Z</time></trkpt><trkpt lat="42.083700194948676" lon="11.871820186383584"><ele>231.8</ele><time>2026-04-18T13:09:16Z</time></trkpt><trkpt lat="42.08362306286926" lon="11.871722968521041"><ele>232.20000000000002</ele><time>2026-04-18T13:09:17Z</time></trkpt><trkpt lat="42.08354742688187" lon="11.871649522978583"><ele>232.60000000000002</ele><time>2026-04-18T13:09:18Z</time></trkpt><trkpt lat="42.08346648117252" lon="11.87157435323396"><ele>233.0</ele><time>2026-04-18T13:09:19Z</time></trkpt><trkpt lat="42.08338267312646" lon="11.871488720364942"><ele>230.0</ele><time>2026-04-18T13:09:20Z</time></trkpt><trkpt lat="42.08331386694648" lon="11.871402000712944"><ele>227.0</ele><time>2026-04-18T13:09:21Z</time></trkpt><trkpt lat="42.08320887202326" lon="11.871319165727439"><ele>224.0</ele><time>2026-04-18T13:09:23Z</time></trkpt><trkpt lat="42.08311661596814" lon="11.87120654574622"><ele>221.0</ele><time>2026-04-18T13:09:25Z</time></trkpt><trkpt lat="42.083055610184786" lon="11.871141487355882"><ele>218.0</ele><time>2026-04-18T13:09:26Z</time></trkpt><trkpt lat="42.082937579414086" lon="11.871075443103516"><ele>218.00000000000003</ele><time>2026-04-18T13:09:28Z</time></trkpt><trkpt lat="42.08281845843527" lon="11.871018709478266"><ele>218.0</ele><time>2026-04-18T13:09:30Z</time></trkpt><trkpt lat="42.0827492023541" lon="11.871003709755943"><ele>218.0</ele><time>2026-04-18T13:09:31Z</time></trkpt><trkpt lat="42.08266361982744" lon="11.87099525663868"><ele>218.0</ele><time>2026-04-18T13:09:32Z</time></trkpt><trkpt lat="42.082587065761665" lon="11.870977333288032"><ele>218.00000000000003</ele><time>2026-04-18T13:09:33Z</time></trkpt><trkpt lat="42.08252214713118" lon="11.870948502300228"><ele>218.0</ele><time>2026-04-18T13:09:34Z</time></trkpt><trkpt lat="42.08243372624994" lon="11.870897319312494"><ele>215.60000000000002</ele><time>2026-04-18T13:09:35Z</time></trkpt><trkpt lat="42.082355049963226" lon="11.870847757423677"><ele>213.20000000000002</ele><time>2026-04-18T13:09:36Z</time></trkpt><trkpt lat="42.082267598226444" lon="11.870800198201588"><ele>210.8</ele><time>2026-04-18T13:09:37Z</time></trkpt><trkpt lat="42.082179609151545" lon="11.870731689288386"><ele>208.4</ele><time>2026-04-18T13:09:38Z</time></trkpt><trkpt lat="42.08208455200916" lon="11.870687121959355"><ele>206.0</ele><time>2026-04-18T13:09:39Z</time></trkpt><trkpt lat="42.08197753823308" lon="11.870651908673134"><ele>206.0</ele><time>2026-04-18T13:09:40Z</time></trkpt><trkpt lat="42.08187789627453" lon="11.870615620306351"><ele>206.0</ele><time>2026-04-18T13:09:41Z</time></trkpt><trkpt lat="42.08178827050645" lon="11.870557367655566"><ele>206.0</ele><time>2026-04-18T13:09:42Z</time></trkpt><trkpt lat="42.0817103167244" lon="11.870507214876845"><ele>206.0</ele><time>2026-04-18T13:09:43Z</time></trkpt><trkpt lat="42.081638870678574" lon="11.87045707137965"><ele>206.0</ele><time>2026-04-18T13:09:44Z</time></trkpt><trkpt lat="42.08150910679131" lon="11.870415196607427"><ele>204.20000000000002</ele><time>2026-04-18T13:09:46Z</time></trkpt><trkpt lat="42.081434653023805" lon="11.870431922136646"><ele>202.4</ele><time>2026-04-18T13:09:47Z</time></trkpt><trkpt lat="42.08134475400983" lon="11.8704585642314"><ele>200.6</ele><time>2026-04-18T13:09:48Z</time></trkpt><trkpt lat="42.08125546222265" lon="11.870474210747055"><ele>198.8</ele><time>2026-04-18T13:09:49Z</time></trkpt><trkpt lat="42.081176983795295" lon="11.870497922845836"><ele>197.0</ele><time>2026-04-18T13:09:50Z</time></trkpt><trkpt lat="42.081071030719215" lon="11.87059163482364"><ele>197.00000000000003</ele><time>2026-04-18T13:09:52Z</time></trkpt><trkpt lat="42.08101297380005" lon="11.870650895593286"><ele>197.0</ele><time>2026-04-18T13:09:53Z</time></trkpt><trkpt lat="42.08096115730252" lon="11.870705350047226"><ele>197.0</ele><time>2026-04-18T13:09:54Z</time></trkpt><trkpt lat="42.08088479565789" lon="11.870804700294455"><ele>197.0</ele><time>2026-04-18T13:09:56Z</time></trkpt><trkpt lat="42.08083147628639" lon="11.870855354350127"><ele>197.00000000000003</ele><time>2026-04-18T13:09:57Z</time></trkpt><trkpt lat="42.080778999969056" lon="11.870951717228374"><ele>197.0</ele><time>2026-04-18T13:09:58Z</time></trkpt><trkpt lat="42.08073846624337" lon="11.871028783587843"><ele>196.39999999999998</ele><time>2026-04-18T13:09:59Z</time></trkpt><trkpt lat="42.08065027238107" lon="11.871008147655047"><ele>195.79999999999998</ele><time>2026-04-18T13:10:01Z</time></trkpt><trkpt lat="42.08060417119495" lon="11.870922685963592"><ele>195.2</ele><time>2026-04-18T13:10:02Z</time></trkpt><trkpt lat="42.080559770563504" lon="11.870780085684313"><ele>194.6</ele><time>2026-04-18T13:10:03Z</time></trkpt><trkpt lat="42.0805038138611" lon="11.870645022070759"><ele>194.0</ele><time>2026-04-18T13:10:04Z</time></trkpt><trkpt lat="42.0804197700369" lon="11.870562234219772"><ele>194.00000000000003</ele><time>2026-04-18T13:10:05Z</time></trkpt><trkpt lat="42.080329913439414" lon="11.870511932987593"><ele>194.0</ele><time>2026-04-18T13:10:06Z</time></trkpt><trkpt lat="42.08025952660963" lon="11.87050148583255"><ele>194.0</ele><time>2026-04-18T13:10:07Z</time></trkpt><trkpt lat="42.08019122877282" lon="11.870496756607151"><ele>194.0</ele><time>2026-04-18T13:10:08Z</time></trkpt><trkpt lat="42.08012126983708" lon="11.870491668006595"><ele>194.00000000000003</ele><time>2026-04-18T13:10:09Z</time></trkpt><trkpt lat="42.08000187000525" lon="11.870491303542135"><ele>194.0</ele><time>2026-04-18T13:10:11Z</time></trkpt><trkpt lat="42.079889596575825" lon="11.870454140199557"><ele>194.79999999999998</ele><time>2026-04-18T13:10:13Z</time></trkpt><trkpt lat="42.07980237245864" lon="11.870392823755989"><ele>195.6</ele><time>2026-04-18T13:10:15Z</time></trkpt><trkpt lat="42.07967781036362" lon="11.870309939651479"><ele>196.4</ele><time>2026-04-18T13:10:17Z</time></trkpt><trkpt lat="42.079609373655295" lon="11.870259997656614"><ele>197.2</ele><time>2026-04-18T13:10:18Z</time></trkpt><trkpt lat="42.07951978931767" lon="11.870160314754594"><ele>198.0</ele><time>2026-04-18T13:10:20Z</time></trkpt><trkpt lat="42.079419809984216" lon="11.870106898887268"><ele>194.0</ele><time>2026-04-18T13:10:22Z</time></trkpt><trkpt lat="42.0793637829736" lon="11.870041598375709"><ele>190.0</ele><time>2026-04-18T13:10:24Z</time></trkpt><trkpt lat="42.07936554557894" lon="11.869921212378626"><ele>186.0</ele><time>2026-04-18T13:10:26Z</time></trkpt><trkpt lat="42.079410874586905" lon="11.869794029223149"><ele>182.0</ele><time>2026-04-18T13:10:28.001Z</time></trkpt><trkpt lat="42.079496020451316" lon="11.869667528546815"><ele>178.0</ele><time>2026-04-18T13:10:30.001Z</time></trkpt><trkpt lat="42.07955627924641" lon="11.869587413526244"><ele>178.0</ele><time>2026-04-18T13:10:31.001Z</time></trkpt><trkpt lat="42.07962413419479" lon="11.86948847374349"><ele>178.0</ele><time>2026-04-18T13:10:32.001Z</time></trkpt><trkpt lat="42.079673970671465" lon="11.869394716691657"><ele>178.0</ele><time>2026-04-18T13:10:33.001Z</time></trkpt><trkpt lat="42.07971122310273" lon="11.869291871594147"><ele>178.0</ele><time>2026-04-18T13:10:34.001Z</time></trkpt><trkpt lat="42.079750369831196" lon="11.869190243937128"><ele>178.0</ele><time>2026-04-18T13:10:35.001Z</time></trkpt><trkpt lat="42.07977955030475" lon="11.869098487940807"><ele>178.0</ele><time>2026-04-18T13:10:36.001Z</time></trkpt><trkpt lat="42.07980252200727" lon="11.869014731913328"><ele>176.33333333333334</ele><time>2026-04-18T13:10:37.001Z</time></trkpt><trkpt lat="42.079817130466296" lon="11.868926773355689"><ele>174.66666666666669</ele><time>2026-04-18T13:10:38.001Z</time></trkpt><trkpt lat="42.07983715489555" lon="11.868827563629297"><ele>173.0</ele><time>2026-04-18T13:10:39.001Z</time></trkpt><trkpt lat="42.07986571563169" lon="11.868724833229768"><ele>171.33333333333334</ele><time>2026-04-18T13:10:40.001Z</time></trkpt><trkpt lat="42.07990263469417" lon="11.868619557751623"><ele>169.66666666666666</ele><time>2026-04-18T13:10:41.001Z</time></trkpt><trkpt lat="42.07993620318129" lon="11.86850357954426"><ele>168.0</ele><time>2026-04-18T13:10:42.001Z</time></trkpt><trkpt lat="42.07997066386745" lon="11.868392881882707"><ele>166.5</ele><time>2026-04-18T13:10:43.001Z</time></trkpt><trkpt lat="42.08003653405337" lon="11.868254632706767"><ele>165.0</ele><time>2026-04-18T13:10:45.001Z</time></trkpt><trkpt lat="42.08005968276623" lon="11.868173269317493"><ele>163.5</ele><time>2026-04-18T13:10:46.001Z</time></trkpt><trkpt lat="42.08009552757705" lon="11.868081174286598"><ele>162.0</ele><time>2026-04-18T13:10:47.001Z</time></trkpt><trkpt lat="42.080136617733565" lon="11.8679875498398"><ele>160.5</ele><time>2026-04-18T13:10:48.001Z</time></trkpt><trkpt lat="42.08016879211982" lon="11.86790839755111"><ele>159.0</ele><time>2026-04-18T13:10:49.001Z</time></trkpt><trkpt lat="42.080185997838285" lon="11.86781462733992"><ele>159.0</ele><time>2026-04-18T13:10:50.001Z</time></trkpt><trkpt lat="42.08017733160213" lon="11.867713617749441"><ele>159.0</ele><time>2026-04-18T13:10:51.001Z</time></trkpt><trkpt lat="42.08016475595673" lon="11.86762895804964"><ele>159.0</ele><time>2026-04-18T13:10:52.001Z</time></trkpt><trkpt lat="42.08015777696912" lon="11.867511028877109"><ele>159.0</ele><time>2026-04-18T13:10:53.001Z</time></trkpt><trkpt lat="42.08016638221521" lon="11.867410503406719"><ele>159.0</ele><time>2026-04-18T13:10:54.001Z</time></trkpt><trkpt lat="42.080170535734446" lon="11.867243884323782"><ele>159.0</ele><time>2026-04-18T13:10:56.001Z</time></trkpt><trkpt lat="42.08016992258962" lon="11.867154913452959"><ele>158.0</ele><time>2026-04-18T13:10:56.999Z</time></trkpt><trkpt lat="42.080181657918324" lon="11.867064427992817"><ele>157.0</ele><time>2026-04-18T13:10:57.999Z</time></trkpt><trkpt lat="42.08019683784963" lon="11.866975074546353"><ele>156.0</ele><time>2026-04-18T13:10:58.999Z</time></trkpt><trkpt lat="42.08021377940014" lon="11.866889886286206"><ele>155.0</ele><time>2026-04-18T13:10:59.999Z</time></trkpt><trkpt lat="42.08020081764707" lon="11.866741352623034"><ele>154.0</ele><time>2026-04-18T13:11:01.999Z</time></trkpt><trkpt lat="42.08016294139017" lon="11.86660701838883"><ele>153.0</ele><time>2026-04-18T13:11:03.999Z</time></trkpt><trkpt lat="42.080116533471326" lon="11.866539470084106"><ele>151.66666666666666</ele><time>2026-04-18T13:11:04.999Z</time></trkpt><trkpt lat="42.08006272199256" lon="11.86648174098175"><ele>150.33333333333334</ele><time>2026-04-18T13:11:05.999Z</time></trkpt><trkpt lat="42.07999691217867" lon="11.866457022955345"><ele>149.0</ele><time>2026-04-18T13:11:06.999Z</time></trkpt><trkpt lat="42.07992626906797" lon="11.866455436448941"><ele>147.66666666666669</ele><time>2026-04-18T13:11:07.999Z</time></trkpt><trkpt lat="42.07980904017929" lon="11.866472288418983"><ele>146.33333333333334</ele><time>2026-04-18T13:11:09.999Z</time></trkpt><trkpt lat="42.07971532546719" lon="11.866425904518971"><ele>145.0</ele><time>2026-04-18T13:11:11.999Z</time></trkpt><trkpt lat="42.07968809497413" lon="11.866295940074124"><ele>144.2</ele><time>2026-04-18T13:11:13.999Z</time></trkpt><trkpt lat="42.079728483163535" lon="11.866129158438092"><ele>143.4</ele><time>2026-04-18T13:11:15.999Z</time></trkpt><trkpt lat="42.07976484179246" lon="11.866038108930347"><ele>142.6</ele><time>2026-04-18T13:11:16.999Z</time></trkpt><trkpt lat="42.07981228905483" lon="11.86588518370732"><ele>141.8</ele><time>2026-04-18T13:11:18.999Z</time></trkpt><trkpt lat="42.079898923993454" lon="11.86581931820802"><ele>141.0</ele><time>2026-04-18T13:11:20.999Z</time></trkpt><trkpt lat="42.080011961442246" lon="11.865813661165827"><ele>140.0</ele><time>2026-04-18T13:11:22.999Z</time></trkpt><trkpt lat="42.08011986974286" lon="11.865816620617329"><ele>139.0</ele><time>2026-04-18T13:11:24.999Z</time></trkpt><trkpt lat="42.08018795899135" lon="11.865799252332703"><ele>138.0</ele><time>2026-04-18T13:11:25.999Z</time></trkpt><trkpt lat="42.08025600699901" lon="11.865770369945896"><ele>137.0</ele><time>2026-04-18T13:11:26.999Z</time></trkpt><trkpt lat="42.080322281012265" lon="11.865754411060658"><ele>136.0</ele><time>2026-04-18T13:11:27.999Z</time></trkpt><trkpt lat="42.08038665637482" lon="11.865746568539526"><ele>135.0</ele><time>2026-04-18T13:11:29Z</time></trkpt><trkpt lat="42.08047891065045" lon="11.865748008617034"><ele>135.0</ele><time>2026-04-18T13:11:30Z</time></trkpt><trkpt lat="42.080576978244636" lon="11.865725142759969"><ele>135.0</ele><time>2026-04-18T13:11:31Z</time></trkpt><trkpt lat="42.08065751363239" lon="11.86569554243916"><ele>135.0</ele><time>2026-04-18T13:11:32Z</time></trkpt><trkpt lat="42.08074859112887" lon="11.865655983903869"><ele>135.0</ele><time>2026-04-18T13:11:33Z</time></trkpt><trkpt lat="42.08081361147086" lon="11.865636009429604"><ele>135.0</ele><time>2026-04-18T13:11:34Z</time></trkpt><trkpt lat="42.080924849779265" lon="11.865639734213511"><ele>134.16666666666666</ele><time>2026-04-18T13:11:36Z</time></trkpt><trkpt lat="42.08099749259551" lon="11.865644633250955"><ele>133.33333333333334</ele><time>2026-04-18T13:11:37Z</time></trkpt><trkpt lat="42.081086263337106" lon="11.86562741017114"><ele>132.5</ele><time>2026-04-18T13:11:38Z</time></trkpt><trkpt lat="42.08116411382813" lon="11.86561090347132"><ele>131.66666666666669</ele><time>2026-04-18T13:11:39Z</time></trkpt><trkpt lat="42.081241832839275" lon="11.865618402273592"><ele>130.83333333333334</ele><time>2026-04-18T13:11:40Z</time></trkpt><trkpt lat="42.081316287726274" lon="11.865622004344209"><ele>130.0</ele><time>2026-04-18T13:11:41Z</time></trkpt><trkpt lat="42.08141709209826" lon="11.865589730518069"><ele>130.0</ele><time>2026-04-18T13:11:43Z</time></trkpt><trkpt lat="42.081494581403874" lon="11.865484963070001"><ele>130.0</ele><time>2026-04-18T13:11:45Z</time></trkpt><trkpt lat="42.081582472871496" lon="11.865420995678713"><ele>130.0</ele><time>2026-04-18T13:11:47Z</time></trkpt><trkpt lat="42.081644522073844" lon="11.86547025546581"><ele>130.0</ele><time>2026-04-18T13:11:49Z</time></trkpt><trkpt lat="42.08173973743035" lon="11.865550232640786"><ele>130.0</ele><time>2026-04-18T13:11:51Z</time></trkpt><trkpt lat="42.081824741245626" lon="11.865610771808177"><ele>128.8</ele><time>2026-04-18T13:11:53Z</time></trkpt><trkpt lat="42.08191954298999" lon="11.865579124181412"><ele>127.6</ele><time>2026-04-18T13:11:55Z</time></trkpt><trkpt lat="42.08202918039246" lon="11.865551706747508"><ele>126.4</ele><time>2026-04-18T13:11:57Z</time></trkpt><trkpt lat="42.08210609627215" lon="11.865591857800847"><ele>125.2</ele><time>2026-04-18T13:11:59Z</time></trkpt><trkpt lat="42.08215770212798" lon="11.865709822470707"><ele>124.0</ele><time>2026-04-18T13:12:01Z</time></trkpt><trkpt lat="42.08217482808332" lon="11.865860765687206"><ele>123.66666666666667</ele><time>2026-04-18T13:12:03Z</time></trkpt><trkpt lat="42.08216715925305" lon="11.865977486355764"><ele>123.33333333333334</ele><time>2026-04-18T13:12:05Z</time></trkpt><trkpt lat="42.0822132968567" lon="11.866063340679055"><ele>123.0</ele><time>2026-04-18T13:12:07Z</time></trkpt><trkpt lat="42.08223739692791" lon="11.86617195744832"><ele>122.66666666666666</ele><time>2026-04-18T13:12:09Z</time></trkpt><trkpt lat="42.08228564177192" lon="11.866228898431865"><ele>122.33333333333333</ele><time>2026-04-18T13:12:11Z</time></trkpt><trkpt lat="42.08239017397604" lon="11.866310780919537"><ele>122.0</ele><time>2026-04-18T13:12:13Z</time></trkpt><trkpt lat="42.08245937529995" lon="11.866324259964836"><ele>122.0</ele><time>2026-04-18T13:12:14Z</time></trkpt><trkpt lat="42.082532795707046" lon="11.866334781364689"><ele>121.99999999999999</ele><time>2026-04-18T13:12:15Z</time></trkpt><trkpt lat="42.0826446458482" lon="11.866350484077415"><ele>121.99999999999999</ele><time>2026-04-18T13:12:17Z</time></trkpt><trkpt lat="42.08274792638567" lon="11.866386516443466"><ele>122.0</ele><time>2026-04-18T13:12:19Z</time></trkpt><trkpt lat="42.08284165667823" lon="11.866373823662968"><ele>122.0</ele><time>2026-04-18T13:12:21Z</time></trkpt><trkpt lat="42.0829166408272" lon="11.86632432696265"><ele>122.0</ele><time>2026-04-18T13:12:27Z</time></trkpt><trkpt lat="42.08303195616416" lon="11.86627020122742"><ele>121.99999999999999</ele><time>2026-04-18T13:12:29.001Z</time></trkpt><trkpt lat="42.08313080771107" lon="11.866206170502673"><ele>121.99999999999999</ele><time>2026-04-18T13:12:31.001Z</time></trkpt><trkpt lat="42.08315113525415" lon="11.866102406139177"><ele>122.0</ele><time>2026-04-18T13:12:33.001Z</time></trkpt><trkpt lat="42.08318759386115" lon="11.865995133329927"><ele>122.0</ele><time>2026-04-18T13:12:35.001Z</time></trkpt><trkpt lat="42.08322753879427" lon="11.865906470882283"><ele>118.33333333333333</ele><time>2026-04-18T13:12:37.001Z</time></trkpt><trkpt lat="42.083275057189205" lon="11.86577161012186"><ele>114.66666666666666</ele><time>2026-04-18T13:12:39.001Z</time></trkpt><trkpt lat="42.08331670697827" lon="11.865694339447007"><ele>111.0</ele><time>2026-04-18T13:12:41.001Z</time></trkpt><trkpt lat="42.083380397701085" lon="11.865664288742527"><ele>107.33333333333334</ele><time>2026-04-18T13:13:15Z</time></trkpt><trkpt lat="42.083441494752876" lon="11.86572325019997"><ele>103.66666666666667</ele><time>2026-04-18T13:13:17Z</time></trkpt><trkpt lat="42.08350843865192" lon="11.865748993559993"><ele>100.0</ele><time>2026-04-18T13:13:19Z</time></trkpt><trkpt lat="42.083576655269496" lon="11.865663786819907"><ele>100.00000000000001</ele><time>2026-04-18T13:13:22Z</time></trkpt><trkpt lat="42.083593993563476" lon="11.86557364561637"><ele>100.0</ele><time>2026-04-18T13:13:24Z</time></trkpt><trkpt lat="42.08359567794117" lon="11.865451743817854"><ele>100.0</ele><time>2026-04-18T13:13:26Z</time></trkpt><trkpt lat="42.08357860116841" lon="11.86532688887329"><ele>100.0</ele><time>2026-04-18T13:13:28Z</time></trkpt><trkpt lat="42.08352760646417" lon="11.865251946940965"><ele>100.00000000000001</ele><time>2026-04-18T13:13:31Z</time></trkpt><trkpt lat="42.08346837101405" lon="11.865216745111015"><ele>100.0</ele><time>2026-04-18T13:14:29.001Z</time></trkpt><trkpt lat="42.083387365668" lon="11.86516796665473"><ele>99.50000000000001</ele><time>2026-04-18T13:14:34.001Z</time></trkpt><trkpt lat="42.08331843967093" lon="11.865095232218469"><ele>99.0</ele><time>2026-04-18T13:14:36.001Z</time></trkpt><trkpt lat="42.08322474008019" lon="11.865054367069996"><ele>98.5</ele><time>2026-04-18T13:14:39.001Z</time></trkpt><trkpt lat="42.08313408148322" lon="11.865006237259077"><ele>98.0</ele><time>2026-04-18T13:14:42.001Z</time></trkpt><trkpt lat="42.083086404586474" lon="11.86494790123843"><ele>97.50000000000001</ele><time>2026-04-18T13:14:44.001Z</time></trkpt><trkpt lat="42.083101121075636" lon="11.864841044602867"><ele>97.0</ele><time>2026-04-18T13:14:47.001Z</time></trkpt><trkpt lat="42.08311720300515" lon="11.864750146741672"><ele>97.0</ele><time>2026-04-18T13:14:49.001Z</time></trkpt><trkpt lat="42.0831031548478" lon="11.86465088779865"><ele>97.0</ele><time>2026-04-18T13:14:51.001Z</time></trkpt><trkpt lat="42.08304513869519" lon="11.86450695461418"><ele>97.0</ele><time>2026-04-18T13:14:53.001Z</time></trkpt><trkpt lat="42.08311907335823" lon="11.86443125756654"><ele>97.0</ele><time>2026-04-18T13:14:56.001Z</time></trkpt><trkpt lat="42.083185328236944" lon="11.864433301666999"><ele>97.0</ele><time>2026-04-18T13:14:57.001Z</time></trkpt><trkpt lat="42.083317271369765" lon="11.864456195825728"><ele>97.6</ele><time>2026-04-18T13:14:59.001Z</time></trkpt><trkpt lat="42.08338601738439" lon="11.864400585434392"><ele>98.19999999999999</ele><time>2026-04-18T13:15:01.001Z</time></trkpt><trkpt lat="42.08338350941703" lon="11.864286433927647"><ele>98.8</ele><time>2026-04-18T13:15:03.001Z</time></trkpt><trkpt lat="42.08332012615099" lon="11.864150362021546"><ele>99.4</ele><time>2026-04-18T13:15:05.001Z</time></trkpt><trkpt lat="42.08330092976083" lon="11.864046246178491"><ele>100.0</ele><time>2026-04-18T13:15:06.001Z</time></trkpt><trkpt lat="42.08329294240076" lon="11.863931070896504"><ele>100.0</ele><time>2026-04-18T13:15:07.001Z</time></trkpt><trkpt lat="42.083275202110016" lon="11.863810852748122"><ele>100.0</ele><time>2026-04-18T13:15:08.001Z</time></trkpt><trkpt lat="42.08326303521958" lon="11.863699511729932"><ele>100.0</ele><time>2026-04-18T13:15:09Z</time></trkpt><trkpt lat="42.083254065040414" lon="11.863561558141816"><ele>100.0</ele><time>2026-04-18T13:15:11Z</time></trkpt><trkpt lat="42.083209141073965" lon="11.863418572564674"><ele>100.0</ele><time>2026-04-18T13:16:23.001Z</time></trkpt><trkpt lat="42.0831862159006" lon="11.863292796391471"><ele>98.6</ele><time>2026-04-18T13:16:25.001Z</time></trkpt><trkpt lat="42.08319081033371" lon="11.863170620541101"><ele>97.2</ele><time>2026-04-18T13:16:27.001Z</time></trkpt><trkpt lat="42.08318671032264" lon="11.863035896157035"><ele>95.80000000000001</ele><time>2026-04-18T13:16:29.001Z</time></trkpt><trkpt lat="42.083196381402715" lon="11.862910359134409"><ele>94.4</ele><time>2026-04-18T13:16:31.001Z</time></trkpt><trkpt lat="42.08319090262321" lon="11.862763232212158"><ele>93.0</ele><time>2026-04-18T13:16:33.001Z</time></trkpt><trkpt lat="42.0831841098343" lon="11.862655129198581"><ele>94.66666666666667</ele><time>2026-04-18T13:16:35.001Z</time></trkpt><trkpt lat="42.083241692013694" lon="11.862564524240552"><ele>96.33333333333334</ele><time>2026-04-18T13:16:43.001Z</time></trkpt><trkpt lat="42.08331380483681" lon="11.862528036888067"><ele>98.0</ele><time>2026-04-18T13:16:44.001Z</time></trkpt><trkpt lat="42.08337810430117" lon="11.862485908240574"><ele>99.66666666666667</ele><time>2026-04-18T13:16:45.001Z</time></trkpt><trkpt lat="42.08344328136661" lon="11.862451543946527"><ele>101.33333333333334</ele><time>2026-04-18T13:16:46.001Z</time></trkpt><trkpt lat="42.0835227715953" lon="11.86243527514268"><ele>103.0</ele><time>2026-04-18T13:16:47.001Z</time></trkpt><trkpt lat="42.08362350067706" lon="11.862389769925837"><ele>105.2</ele><time>2026-04-18T13:16:49.001Z</time></trkpt><trkpt lat="42.08369100132724" lon="11.862252293477116"><ele>107.4</ele><time>2026-04-18T13:16:51.001Z</time></trkpt><trkpt lat="42.08377397813355" lon="11.86218612352369"><ele>109.60000000000001</ele><time>2026-04-18T13:16:53.001Z</time></trkpt><trkpt lat="42.08387811533134" lon="11.862206490881356"><ele>111.80000000000001</ele><time>2026-04-18T13:16:55.001Z</time></trkpt><trkpt lat="42.08394170504134" lon="11.86216603897136"><ele>114.0</ele><time>2026-04-18T13:16:56.001Z</time></trkpt><trkpt lat="42.08400031517982" lon="11.862102270343787"><ele>114.0</ele><time>2026-04-18T13:16:57.001Z</time></trkpt><trkpt lat="42.08404277469699" lon="11.862037265455694"><ele>114.0</ele><time>2026-04-18T13:16:58.001Z</time></trkpt><trkpt lat="42.08414233567401" lon="11.861987468051085"><ele>114.0</ele><time>2026-04-18T13:17:27Z</time></trkpt><trkpt lat="42.084246054214915" lon="11.862043975343822"><ele>114.0</ele><time>2026-04-18T13:17:29Z</time></trkpt><trkpt lat="42.0843803270556" lon="11.862096966896354"><ele>114.0</ele><time>2026-04-18T13:17:31Z</time></trkpt><trkpt lat="42.084448592132986" lon="11.862127015195137"><ele>115.28571428571428</ele><time>2026-04-18T13:17:32Z</time></trkpt><trkpt lat="42.08451383835222" lon="11.862163984293836"><ele>116.57142857142856</ele><time>2026-04-18T13:17:33Z</time></trkpt><trkpt lat="42.08458194439975" lon="11.862193206109795"><ele>117.85714285714286</ele><time>2026-04-18T13:17:34Z</time></trkpt><trkpt lat="42.08464390187915" lon="11.862235360527304"><ele>119.14285714285714</ele><time>2026-04-18T13:17:35Z</time></trkpt><trkpt lat="42.084700118009096" lon="11.86229241833001"><ele>120.42857142857143</ele><time>2026-04-18T13:17:36Z</time></trkpt><trkpt lat="42.08475274705708" lon="11.86235798471258"><ele>121.71428571428572</ele><time>2026-04-18T13:17:37Z</time></trkpt><trkpt lat="42.08481134765778" lon="11.862417019713012"><ele>123.00000000000001</ele><time>2026-04-18T13:17:38Z</time></trkpt><trkpt lat="42.08493683426722" lon="11.862413531411327"><ele>124.80000000000001</ele><time>2026-04-18T13:17:40Z</time></trkpt><trkpt lat="42.08500649525906" lon="11.86239189422143"><ele>126.60000000000001</ele><time>2026-04-18T13:17:41Z</time></trkpt><trkpt lat="42.08507435469325" lon="11.862388977013238"><ele>128.39999999999998</ele><time>2026-04-18T13:17:42Z</time></trkpt><trkpt lat="42.0851437985702" lon="11.862418883595812"><ele>130.2</ele><time>2026-04-18T13:17:43Z</time></trkpt><trkpt lat="42.08526540164415" lon="11.86247466505815"><ele>132.0</ele><time>2026-04-18T13:17:45Z</time></trkpt><trkpt lat="42.08538541134083" lon="11.862541137627781"><ele>132.0</ele><time>2026-04-18T13:17:47Z</time></trkpt><trkpt lat="42.08543471120176" lon="11.862612899967672"><ele>132.0</ele><time>2026-04-18T13:17:48Z</time></trkpt><trkpt lat="42.08547850502283" lon="11.862691088668932"><ele>132.0</ele><time>2026-04-18T13:17:49Z</time></trkpt><trkpt lat="42.085558314050935" lon="11.862795534186478"><ele>132.0</ele><time>2026-04-18T13:17:51.001Z</time></trkpt><trkpt lat="42.08569012260427" lon="11.862775625264835"><ele>132.0</ele><time>2026-04-18T13:17:53.001Z</time></trkpt><trkpt lat="42.08577026124028" lon="11.862751199297394"><ele>133.2</ele><time>2026-04-18T13:17:54.001Z</time></trkpt><trkpt lat="42.08583761949948" lon="11.86274919113285"><ele>134.39999999999998</ele><time>2026-04-18T13:17:55.001Z</time></trkpt><trkpt lat="42.08596039684953" lon="11.862752392230076"><ele>135.60000000000002</ele><time>2026-04-18T13:17:57.001Z</time></trkpt><trkpt lat="42.08603072593028" lon="11.86275774601887"><ele>136.8</ele><time>2026-04-18T13:17:58.001Z</time></trkpt><trkpt lat="42.08612982851337" lon="11.862696814811658"><ele>138.0</ele><time>2026-04-18T13:18:00.001Z</time></trkpt><trkpt lat="42.08618901468893" lon="11.862606647775092"><ele>138.66666666666666</ele><time>2026-04-18T13:18:02.001Z</time></trkpt><trkpt lat="42.08622079638563" lon="11.862512082894993"><ele>139.33333333333334</ele><time>2026-04-18T13:18:14.001Z</time></trkpt><trkpt lat="42.08622604033989" lon="11.862348585338697"><ele>140.0</ele><time>2026-04-18T13:18:16.001Z</time></trkpt><trkpt lat="42.08622219281424" lon="11.862260668899582"><ele>140.66666666666669</ele><time>2026-04-18T13:18:17.001Z</time></trkpt><trkpt lat="42.08623531014644" lon="11.862170552803171"><ele>141.33333333333334</ele><time>2026-04-18T13:18:18.001Z</time></trkpt><trkpt lat="42.086255881958394" lon="11.862077343964035"><ele>142.0</ele><time>2026-04-18T13:18:19.001Z</time></trkpt><trkpt lat="42.086270895858526" lon="11.861979705874184"><ele>142.0</ele><time>2026-04-18T13:18:20.001Z</time></trkpt><trkpt lat="42.08627489602862" lon="11.861881853124636"><ele>142.0</ele><time>2026-04-18T13:18:21.001Z</time></trkpt><trkpt lat="42.08626074685546" lon="11.861776788800125"><ele>142.0</ele><time>2026-04-18T13:18:22.001Z</time></trkpt><trkpt lat="42.08622618689014" lon="11.861650510841551"><ele>142.0</ele><time>2026-04-18T13:18:23.001Z</time></trkpt><trkpt lat="42.08617130102247" lon="11.86153268282228"><ele>142.0</ele><time>2026-04-18T13:18:24.001Z</time></trkpt><trkpt lat="42.08610527328968" lon="11.861443583108237"><ele>142.0</ele><time>2026-04-18T13:18:25.001Z</time></trkpt><trkpt lat="42.08604102127731" lon="11.861388111374458"><ele>143.5</ele><time>2026-04-18T13:18:26.001Z</time></trkpt><trkpt lat="42.085989540772275" lon="11.861326903544201"><ele>145.0</ele><time>2026-04-18T13:18:27.001Z</time></trkpt><trkpt lat="42.08594918930125" lon="11.861241211649721"><ele>146.5</ele><time>2026-04-18T13:18:28.001Z</time></trkpt><trkpt lat="42.08591126744058" lon="11.8611416525104"><ele>148.0</ele><time>2026-04-18T13:18:29.001Z</time></trkpt><trkpt lat="42.08586112090896" lon="11.861040381887552"><ele>149.5</ele><time>2026-04-18T13:18:30.001Z</time></trkpt><trkpt lat="42.085788147676844" lon="11.860942456239673"><ele>151.0</ele><time>2026-04-18T13:18:31.001Z</time></trkpt><trkpt lat="42.085711625538345" lon="11.860852020343376"><ele>152.0</ele><time>2026-04-18T13:18:32.001Z</time></trkpt><trkpt lat="42.08564460308942" lon="11.860751719664597"><ele>153.0</ele><time>2026-04-18T13:18:33.001Z</time></trkpt><trkpt lat="42.08559212007705" lon="11.860624194131644"><ele>154.0</ele><time>2026-04-18T13:18:34.001Z</time></trkpt><trkpt lat="42.085532072198006" lon="11.860509348560909"><ele>155.0</ele><time>2026-04-18T13:18:35.001Z</time></trkpt><trkpt lat="42.085460638832956" lon="11.860427216349663"><ele>156.0</ele><time>2026-04-18T13:18:36.001Z</time></trkpt><trkpt lat="42.08540248818384" lon="11.860351698014153"><ele>156.0</ele><time>2026-04-18T13:18:37.001Z</time></trkpt><trkpt lat="42.085349557809465" lon="11.860282959557683"><ele>156.0</ele><time>2026-04-18T13:18:38.001Z</time></trkpt><trkpt lat="42.085285077266164" lon="11.860256381785012"><ele>156.0</ele><time>2026-04-18T13:18:39.001Z</time></trkpt><trkpt lat="42.085207668788726" lon="11.860240677575876"><ele>156.0</ele><time>2026-04-18T13:18:40.001Z</time></trkpt><trkpt lat="42.085117448954286" lon="11.860231928738141"><ele>156.0</ele><time>2026-04-18T13:18:41.001Z</time></trkpt><trkpt lat="42.08502731894467" lon="11.860209544487306"><ele>156.0</ele><time>2026-04-18T13:18:42.001Z</time></trkpt><trkpt lat="42.08493105185008" lon="11.86018545368528"><ele>153.6</ele><time>2026-04-18T13:18:43.001Z</time></trkpt><trkpt lat="42.08483341995182" lon="11.860158314283398"><ele>151.2</ele><time>2026-04-18T13:18:44.001Z</time></trkpt><trkpt lat="42.08474344699816" lon="11.860137328616679"><ele>148.8</ele><time>2026-04-18T13:18:45.001Z</time></trkpt><trkpt lat="42.084647161833104" lon="11.860097134409548"><ele>146.4</ele><time>2026-04-18T13:18:46.001Z</time></trkpt><trkpt lat="42.084551946815694" lon="11.860076632702308"><ele>144.0</ele><time>2026-04-18T13:18:47.001Z</time></trkpt><trkpt lat="42.08448483263086" lon="11.860043401365054"><ele>148.8</ele><time>2026-04-18T13:18:48.001Z</time></trkpt><trkpt lat="42.084422047142716" lon="11.859986433439179"><ele>153.60000000000002</ele><time>2026-04-18T13:18:49.001Z</time></trkpt><trkpt lat="42.08439067651866" lon="11.859819672096789"><ele>158.4</ele><time>2026-04-18T13:18:51.001Z</time></trkpt><trkpt lat="42.084405832998016" lon="11.859718090202332"><ele>163.20000000000002</ele><time>2026-04-18T13:18:52.001Z</time></trkpt><trkpt lat="42.08438406917192" lon="11.859603967528662"><ele>168.0</ele><time>2026-04-18T13:18:53.001Z</time></trkpt><trkpt lat="42.08437126241593" lon="11.859480134950523"><ele>168.0</ele><time>2026-04-18T13:18:54.001Z</time></trkpt><trkpt lat="42.0843581901588" lon="11.859347631024011"><ele>168.0</ele><time>2026-04-18T13:18:55.001Z</time></trkpt><trkpt lat="42.08431165194419" lon="11.859231965028755"><ele>168.0</ele><time>2026-04-18T13:18:56.001Z</time></trkpt><trkpt lat="42.084255466079334" lon="11.859162262774385"><ele>168.0</ele><time>2026-04-18T13:18:57.001Z</time></trkpt><trkpt lat="42.08417902540826" lon="11.859058550944392"><ele>168.0</ele><time>2026-04-18T13:18:58.001Z</time></trkpt><trkpt lat="42.084106196643056" lon="11.858953571835457"><ele>167.16666666666666</ele><time>2026-04-18T13:18:59.001Z</time></trkpt><trkpt lat="42.08404158281816" lon="11.85887021977155"><ele>166.33333333333334</ele><time>2026-04-18T13:19:00.001Z</time></trkpt><trkpt lat="42.08397599370101" lon="11.858786873833528"><ele>165.5</ele><time>2026-04-18T13:19:01.001Z</time></trkpt><trkpt lat="42.08391856722393" lon="11.858716880342122"><ele>164.66666666666669</ele><time>2026-04-18T13:19:02.002Z</time></trkpt><trkpt lat="42.08387171155358" lon="11.85866001534395"><ele>163.83333333333334</ele><time>2026-04-18T13:19:03.002Z</time></trkpt><trkpt lat="42.08387163157972" lon="11.858525274972152"><ele>163.0</ele><time>2026-04-18T13:19:05.002Z</time></trkpt><trkpt lat="42.083899194336205" lon="11.858439083434057"><ele>164.83333333333334</ele><time>2026-04-18T13:19:06.002Z</time></trkpt><trkpt lat="42.08393921016185" lon="11.858362467832743"><ele>166.66666666666669</ele><time>2026-04-18T13:19:07.002Z</time></trkpt><trkpt lat="42.08398460053657" lon="11.858285515061025"><ele>168.5</ele><time>2026-04-18T13:19:08.002Z</time></trkpt><trkpt lat="42.08403859512437" lon="11.858193957480148"><ele>170.33333333333334</ele><time>2026-04-18T13:19:09.002Z</time></trkpt><trkpt lat="42.08409458322444" lon="11.85809817103773"><ele>172.16666666666666</ele><time>2026-04-18T13:19:10.002Z</time></trkpt><trkpt lat="42.08415318918163" lon="11.858001960758397"><ele>174.0</ele><time>2026-04-18T13:19:11.002Z</time></trkpt><trkpt lat="42.08422324765842" lon="11.85787600044443"><ele>179.2</ele><time>2026-04-18T13:19:12.002Z</time></trkpt><trkpt lat="42.08430639191538" lon="11.857726770226527"><ele>184.39999999999998</ele><time>2026-04-18T13:19:13.002Z</time></trkpt><trkpt lat="42.0843489395177" lon="11.857618854961652"><ele>189.6</ele><time>2026-04-18T13:19:14.002Z</time></trkpt><trkpt lat="42.084346470219046" lon="11.857496438307376"><ele>194.8</ele><time>2026-04-18T13:19:16.002Z</time></trkpt><trkpt lat="42.084241827407546" lon="11.857429107456348"><ele>200.0</ele><time>2026-04-18T13:19:18.002Z</time></trkpt><trkpt lat="42.08415831648112" lon="11.857417447699191"><ele>198.6</ele><time>2026-04-18T13:19:19.002Z</time></trkpt><trkpt lat="42.08408483164563" lon="11.857413805152929"><ele>197.2</ele><time>2026-04-18T13:19:20.002Z</time></trkpt><trkpt lat="42.08396114902208" lon="11.8573987161626"><ele>195.8</ele><time>2026-04-18T13:19:22Z</time></trkpt><trkpt lat="42.08389190203513" lon="11.857392021278924"><ele>194.4</ele><time>2026-04-18T13:19:23Z</time></trkpt><trkpt lat="42.08380365574911" lon="11.857376236592955"><ele>193.0</ele><time>2026-04-18T13:19:24Z</time></trkpt><trkpt lat="42.08369805193379" lon="11.857341447387414"><ele>193.0</ele><time>2026-04-18T13:19:25Z</time></trkpt><trkpt lat="42.08359519805971" lon="11.85731566314526"><ele>193.0</ele><time>2026-04-18T13:19:26Z</time></trkpt><trkpt lat="42.08349999474855" lon="11.857285081259768"><ele>193.0</ele><time>2026-04-18T13:19:27Z</time></trkpt><trkpt lat="42.08340127578042" lon="11.857216447171805"><ele>193.0</ele><time>2026-04-18T13:19:28Z</time></trkpt><trkpt lat="42.08328085150774" lon="11.857107714410567"><ele>193.0</ele><time>2026-04-18T13:19:29Z</time></trkpt><trkpt lat="42.083168331669846" lon="11.857002994148369"><ele>193.0</ele><time>2026-04-18T13:19:30Z</time></trkpt><trkpt lat="42.08305049318074" lon="11.85689766556152"><ele>193.0</ele><time>2026-04-18T13:19:31Z</time></trkpt><trkpt lat="42.082944561151" lon="11.856793087081059"><ele>193.0</ele><time>2026-04-18T13:19:32Z</time></trkpt><trkpt lat="42.08288776855393" lon="11.856704260654336"><ele>193.0</ele><time>2026-04-18T13:19:33Z</time></trkpt><trkpt lat="42.08284926364454" lon="11.856580228263253"><ele>193.0</ele><time>2026-04-18T13:19:34Z</time></trkpt><trkpt lat="42.08281685508858" lon="11.856433501018898"><ele>193.0</ele><time>2026-04-18T13:19:35Z</time></trkpt><trkpt lat="42.08277951968935" lon="11.85630370460358"><ele>193.0</ele><time>2026-04-18T13:19:36Z</time></trkpt><trkpt lat="42.082756057590274" lon="11.856188423376782"><ele>193.0</ele><time>2026-04-18T13:19:37Z</time></trkpt><trkpt lat="42.08274686577236" lon="11.856078157998647"><ele>193.0</ele><time>2026-04-18T13:19:38Z</time></trkpt><trkpt lat="42.082748575381714" lon="11.855957911611611"><ele>193.0</ele><time>2026-04-18T13:19:39Z</time></trkpt><trkpt lat="42.08277151743602" lon="11.855856310933897"><ele>193.0</ele><time>2026-04-18T13:19:40Z</time></trkpt><trkpt lat="42.0828157205713" lon="11.855744611972902"><ele>193.0</ele><time>2026-04-18T13:19:41Z</time></trkpt><trkpt lat="42.08287607237398" lon="11.85563375561178"><ele>193.0</ele><time>2026-04-18T13:19:42Z</time></trkpt><trkpt lat="42.08293568971344" lon="11.855523177929586"><ele>194.2</ele><time>2026-04-18T13:19:43Z</time></trkpt><trkpt lat="42.08298697090165" lon="11.855397606712584"><ele>195.4</ele><time>2026-04-18T13:19:44Z</time></trkpt><trkpt lat="42.0830287896489" lon="11.855264733145606"><ele>196.6</ele><time>2026-04-18T13:19:45Z</time></trkpt><trkpt lat="42.08306708036996" lon="11.855128770550367"><ele>197.79999999999998</ele><time>2026-04-18T13:19:46Z</time></trkpt><trkpt lat="42.083111475249346" lon="11.855000628442047"><ele>199.0</ele><time>2026-04-18T13:19:47Z</time></trkpt><trkpt lat="42.08313385485046" lon="11.854872043341716"><ele>200.0</ele><time>2026-04-18T13:19:48Z</time></trkpt><trkpt lat="42.08314552144104" lon="11.854743537177681"><ele>201.0</ele><time>2026-04-18T13:19:49Z</time></trkpt><trkpt lat="42.08313562614104" lon="11.85461875109449"><ele>202.0</ele><time>2026-04-18T13:19:50Z</time></trkpt><trkpt lat="42.08311956473948" lon="11.854498953423695"><ele>203.0</ele><time>2026-04-18T13:19:51Z</time></trkpt><trkpt lat="42.08312624480046" lon="11.854370851825076"><ele>204.0</ele><time>2026-04-18T13:19:52Z</time></trkpt><trkpt lat="42.083141316378025" lon="11.854243156990446"><ele>205.83333333333334</ele><time>2026-04-18T13:19:53Z</time></trkpt><trkpt lat="42.08315806025284" lon="11.854105589138518"><ele>207.66666666666669</ele><time>2026-04-18T13:19:54Z</time></trkpt><trkpt lat="42.08316943704978" lon="11.854001971275466"><ele>209.5</ele><time>2026-04-18T13:19:55Z</time></trkpt><trkpt lat="42.08318251100739" lon="11.853911916779822"><ele>211.33333333333334</ele><time>2026-04-18T13:19:56Z</time></trkpt><trkpt lat="42.08320114433931" lon="11.85382273462122"><ele>213.16666666666669</ele><time>2026-04-18T13:19:57Z</time></trkpt><trkpt lat="42.083220637459824" lon="11.853720302662643"><ele>215.0</ele><time>2026-04-18T13:19:58Z</time></trkpt><trkpt lat="42.0832570719937" lon="11.853597699497053"><ele>216.4</ele><time>2026-04-18T13:20:00Z</time></trkpt><trkpt lat="42.083273407985764" lon="11.853509065750513"><ele>217.8</ele><time>2026-04-18T13:20:02Z</time></trkpt><trkpt lat="42.0832662567199" lon="11.85342060843955"><ele>219.2</ele><time>2026-04-18T13:20:41.001Z</time></trkpt><trkpt lat="42.083242315662986" lon="11.853299876241408"><ele>220.6</ele><time>2026-04-18T13:20:49.001Z</time></trkpt><trkpt lat="42.08326068725892" lon="11.853146434645396"><ele>222.0</ele><time>2026-04-18T13:20:51.001Z</time></trkpt><trkpt lat="42.08324327458788" lon="11.852990910929416"><ele>222.0</ele><time>2026-04-18T13:20:53.001Z</time></trkpt><trkpt lat="42.08320464714326" lon="11.852913524750187"><ele>222.0</ele><time>2026-04-18T13:20:54.001Z</time></trkpt><trkpt lat="42.08316018105419" lon="11.852839781726477"><ele>222.0</ele><time>2026-04-18T13:20:55.001Z</time></trkpt><trkpt lat="42.08310934752977" lon="11.852757082958945"><ele>222.0</ele><time>2026-04-18T13:20:56.001Z</time></trkpt><trkpt lat="42.08306524000545" lon="11.852665063514976"><ele>222.0</ele><time>2026-04-18T13:20:57.001Z</time></trkpt><trkpt lat="42.08302493756251" lon="11.85257065166739"><ele>222.0</ele><time>2026-04-18T13:20:58.001Z</time></trkpt><trkpt lat="42.08298408928907" lon="11.852477768092257"><ele>221.33333333333334</ele><time>2026-04-18T13:20:59.001Z</time></trkpt><trkpt lat="42.08293435687932" lon="11.852385526076299"><ele>220.66666666666669</ele><time>2026-04-18T13:21:00.001Z</time></trkpt><trkpt lat="42.08288596224028" lon="11.852292612915086"><ele>220.0</ele><time>2026-04-18T13:21:01.001Z</time></trkpt><trkpt lat="42.082836313994726" lon="11.852206840967908"><ele>219.33333333333334</ele><time>2026-04-18T13:21:02.001Z</time></trkpt><trkpt lat="42.082781510472316" lon="11.852118377278043"><ele>218.66666666666669</ele><time>2026-04-18T13:21:03.001Z</time></trkpt><trkpt lat="42.08272778434375" lon="11.852030590360645"><ele>218.0</ele><time>2026-04-18T13:21:04.001Z</time></trkpt><trkpt lat="42.082676872083084" lon="11.851937372748624"><ele>218.0</ele><time>2026-04-18T13:21:05.001Z</time></trkpt><trkpt lat="42.08261775862318" lon="11.851809030772438"><ele>218.0</ele><time>2026-04-18T13:21:06.001Z</time></trkpt><trkpt lat="42.08253311088618" lon="11.851649262629897"><ele>218.0</ele><time>2026-04-18T13:21:07.001Z</time></trkpt><trkpt lat="42.08242002053259" lon="11.851488137606003"><ele>218.0</ele><time>2026-04-18T13:21:08.001Z</time></trkpt><trkpt lat="42.08228783591869" lon="11.851331890349277"><ele>217.4</ele><time>2026-04-18T13:21:09.001Z</time></trkpt><trkpt lat="42.082175444653735" lon="11.8512407701306"><ele>216.8</ele><time>2026-04-18T13:21:10.001Z</time></trkpt><trkpt lat="42.08208704561483" lon="11.85119070317245"><ele>216.2</ele><time>2026-04-18T13:21:11.001Z</time></trkpt><trkpt lat="42.08203000974093" lon="11.851145143175172"><ele>215.6</ele><time>2026-04-18T13:21:12.001Z</time></trkpt><trkpt lat="42.0820102333722" lon="11.851061099698903"><ele>215.0</ele><time>2026-04-18T13:21:14.001Z</time></trkpt><trkpt lat="42.08211119668814" lon="11.85101057134219"><ele>215.0</ele><time>2026-04-18T13:21:17.002Z</time></trkpt><trkpt lat="42.08220828155053" lon="11.851048395533637"><ele>215.0</ele><time>2026-04-18T13:21:18.002Z</time></trkpt><trkpt lat="42.082323420942735" lon="11.851103315552194"><ele>215.0</ele><time>2026-04-18T13:21:19.002Z</time></trkpt><trkpt lat="42.08246882108329" lon="11.851156912616034"><ele>215.0</ele><time>2026-04-18T13:21:20.002Z</time></trkpt><trkpt lat="42.08261955885375" lon="11.851212105954458"><ele>218.33333333333334</ele><time>2026-04-18T13:21:21.002Z</time></trkpt><trkpt lat="42.08282936867941" lon="11.85128157720858"><ele>221.66666666666669</ele><time>2026-04-18T13:21:22.002Z</time></trkpt><trkpt lat="42.0830162985261" lon="11.851342851077604"><ele>225.0</ele><time>2026-04-18T13:21:23.002Z</time></trkpt><trkpt lat="42.083199673867945" lon="11.85141031090091"><ele>227.66666666666669</ele><time>2026-04-18T13:21:24.002Z</time></trkpt><trkpt lat="42.0833543228889" lon="11.8514990949316"><ele>230.33333333333334</ele><time>2026-04-18T13:21:25.002Z</time></trkpt><trkpt lat="42.0834971492956" lon="11.851619079760265"><ele>233.0</ele><time>2026-04-18T13:21:26.002Z</time></trkpt><trkpt lat="42.08366373796659" lon="11.851779405364818"><ele>230.5</ele><time>2026-04-18T13:21:27Z</time></trkpt><trkpt lat="42.083851697494325" lon="11.851950759593908"><ele>228.0</ele><time>2026-04-18T13:21:28Z</time></trkpt><trkpt lat="42.08403270253611" lon="11.852130799813546"><ele>231.33333333333331</ele><time>2026-04-18T13:21:29Z</time></trkpt><trkpt lat="42.08418515541392" lon="11.852214252444476"><ele>234.66666666666666</ele><time>2026-04-18T13:21:30Z</time></trkpt><trkpt lat="42.084351122467844" lon="11.852317541350015"><ele>238.0</ele><time>2026-04-18T13:21:31Z</time></trkpt><trkpt lat="42.08454117707124" lon="11.852425241633421"><ele>238.0</ele><time>2026-04-18T13:21:32Z</time></trkpt><trkpt lat="42.08470851626476" lon="11.85253786233917"><ele>238.0</ele><time>2026-04-18T13:21:33Z</time></trkpt><trkpt lat="42.08483830480452" lon="11.852629518372396"><ele>238.0</ele><time>2026-04-18T13:21:34Z</time></trkpt><trkpt lat="42.08497619265444" lon="11.852697124246319"><ele>239.75</ele><time>2026-04-18T13:21:35Z</time></trkpt><trkpt lat="42.08510804990645" lon="11.852738332675267"><ele>241.5</ele><time>2026-04-18T13:21:36Z</time></trkpt><trkpt lat="42.08521575340277" lon="11.852778539150208"><ele>243.25</ele><time>2026-04-18T13:21:37Z</time></trkpt><trkpt lat="42.08531812277457" lon="11.852765942851946"><ele>245.0</ele><time>2026-04-18T13:21:38Z</time></trkpt><trkpt lat="42.08541469882056" lon="11.852706167456038"><ele>246.0</ele><time>2026-04-18T13:21:39Z</time></trkpt><trkpt lat="42.085495059281705" lon="11.852611096380828"><ele>247.0</ele><time>2026-04-18T13:21:40Z</time></trkpt><trkpt lat="42.08558659099397" lon="11.85256097540555"><ele>248.0</ele><time>2026-04-18T13:21:41Z</time></trkpt><trkpt lat="42.08567547363925" lon="11.852489460080703"><ele>249.0</ele><time>2026-04-18T13:21:42Z</time></trkpt><trkpt lat="42.08576337768028" lon="11.852426068963688"><ele>250.0</ele><time>2026-04-18T13:21:43Z</time></trkpt><trkpt lat="42.08585571532096" lon="11.852375595301664"><ele>251.0</ele><time>2026-04-18T13:21:44Z</time></trkpt><trkpt lat="42.085953694352185" lon="11.852329237682241"><ele>252.0</ele><time>2026-04-18T13:21:45Z</time></trkpt><trkpt lat="42.08607350030004" lon="11.852277290218634"><ele>253.0</ele><time>2026-04-18T13:21:46Z</time></trkpt><trkpt lat="42.0862327998519" lon="11.852199866745279"><ele>254.0</ele><time>2026-04-18T13:21:47Z</time></trkpt><trkpt lat="42.086398608999076" lon="11.85211732639459"><ele>254.0</ele><time>2026-04-18T13:21:48Z</time></trkpt><trkpt lat="42.08657542737553" lon="11.852021791478766"><ele>254.0</ele><time>2026-04-18T13:21:49Z</time></trkpt><trkpt lat="42.086750402014594" lon="11.851937075833305"><ele>254.0</ele><time>2026-04-18T13:21:50Z</time></trkpt><trkpt lat="42.08691826135969" lon="11.851885319239111"><ele>257.33333333333337</ele><time>2026-04-18T13:21:51Z</time></trkpt><trkpt lat="42.08707968706616" lon="11.851808965537884"><ele>260.6666666666667</ele><time>2026-04-18T13:21:52Z</time></trkpt><trkpt lat="42.08722743353881" lon="11.851718306129095"><ele>264.0</ele><time>2026-04-18T13:21:53Z</time></trkpt><trkpt lat="42.08737697738196" lon="11.851643871967354"><ele>267.75</ele><time>2026-04-18T13:21:54Z</time></trkpt><trkpt lat="42.087516762985956" lon="11.851600722742809"><ele>271.5</ele><time>2026-04-18T13:21:55Z</time></trkpt><trkpt lat="42.08764655129086" lon="11.851547620592177"><ele>275.25</ele><time>2026-04-18T13:21:56Z</time></trkpt><trkpt lat="42.087762347355756" lon="11.851511915431805"><ele>279.0</ele><time>2026-04-18T13:21:57Z</time></trkpt><trkpt lat="42.08786745571096" lon="11.851494430992599"><ele>279.0</ele><time>2026-04-18T13:21:58Z</time></trkpt><trkpt lat="42.08796731215146" lon="11.851466252548885"><ele>279.0</ele><time>2026-04-18T13:21:59Z</time></trkpt><trkpt lat="42.08806337986672" lon="11.851501945213203"><ele>279.0</ele><time>2026-04-18T13:22:00Z</time></trkpt><trkpt lat="42.08816132717424" lon="11.851532220098989"><ele>279.0</ele><time>2026-04-18T13:22:01Z</time></trkpt><trkpt lat="42.088261788541324" lon="11.851576924544016"><ele>279.0</ele><time>2026-04-18T13:22:02Z</time></trkpt><trkpt lat="42.08836687585973" lon="11.851646917121688"><ele>280.5</ele><time>2026-04-18T13:22:03Z</time></trkpt><trkpt lat="42.08845562427595" lon="11.851731506243011"><ele>282.0</ele><time>2026-04-18T13:22:04Z</time></trkpt><trkpt lat="42.08853512858557" lon="11.851823754728779"><ele>283.5</ele><time>2026-04-18T13:22:05Z</time></trkpt><trkpt lat="42.088628216226915" lon="11.851959823353937"><ele>285.0</ele><time>2026-04-18T13:22:06Z</time></trkpt><trkpt lat="42.08875188853033" lon="11.852067162018482"><ele>285.0</ele><time>2026-04-18T13:22:07Z</time></trkpt><trkpt lat="42.08886754709727" lon="11.852206592480684"><ele>285.0</ele><time>2026-04-18T13:22:08Z</time></trkpt><trkpt lat="42.08899797509555" lon="11.852308415368638"><ele>285.0</ele><time>2026-04-18T13:22:09Z</time></trkpt><trkpt lat="42.08910326767806" lon="11.852398901356231"><ele>285.0</ele><time>2026-04-18T13:22:10Z</time></trkpt><trkpt lat="42.08919175090713" lon="11.852480324160402"><ele>288.0</ele><time>2026-04-18T13:22:11Z</time></trkpt><trkpt lat="42.08926602122441" lon="11.852532200529673"><ele>291.0</ele><time>2026-04-18T13:22:12Z</time></trkpt><trkpt lat="42.08935371859342" lon="11.852523251418384"><ele>294.0</ele><time>2026-04-18T13:22:14Z</time></trkpt><trkpt lat="42.08943670424026" lon="11.852435945999753"><ele>297.0</ele><time>2026-04-18T13:22:16Z</time></trkpt><trkpt lat="42.089527294414886" lon="11.8524492942268"><ele>300.0</ele><time>2026-04-18T13:22:17Z</time></trkpt><trkpt lat="42.089643437541746" lon="11.85246063318459"><ele>300.0</ele><time>2026-04-18T13:22:18Z</time></trkpt><trkpt lat="42.08980968968511" lon="11.852475393036158"><ele>300.0</ele><time>2026-04-18T13:22:19Z</time></trkpt><trkpt lat="42.089970636508525" lon="11.852501473355034"><ele>300.0</ele><time>2026-04-18T13:22:20Z</time></trkpt><trkpt lat="42.09011422324246" lon="11.852507293864614"><ele>301.25</ele><time>2026-04-18T13:22:21.001Z</time></trkpt><trkpt lat="42.09024122654746" lon="11.852485728227572"><ele>302.5</ele><time>2026-04-18T13:22:22.001Z</time></trkpt><trkpt lat="42.090365180628524" lon="11.852437410849975"><ele>303.75</ele><time>2026-04-18T13:22:23.001Z</time></trkpt><trkpt lat="42.0904951904618" lon="11.852374311015828"><ele>305.0</ele><time>2026-04-18T13:22:24.001Z</time></trkpt><trkpt lat="42.090606012433064" lon="11.85231456976873"><ele>305.0</ele><time>2026-04-18T13:22:25.001Z</time></trkpt><trkpt lat="42.090691932909856" lon="11.852256747747548"><ele>305.0</ele><time>2026-04-18T13:22:26.001Z</time></trkpt><trkpt lat="42.09076492727501" lon="11.852190463185902"><ele>305.0</ele><time>2026-04-18T13:22:27.001Z</time></trkpt><trkpt lat="42.09084015675342" lon="11.852100258996094"><ele>305.0</ele><time>2026-04-18T13:22:28.001Z</time></trkpt><trkpt lat="42.09091300643872" lon="11.852021033600092"><ele>305.0</ele><time>2026-04-18T13:22:29.001Z</time></trkpt><trkpt lat="42.091023157126834" lon="11.851996912023631"><ele>305.33333333333337</ele><time>2026-04-18T13:22:30.001Z</time></trkpt><trkpt lat="42.09115560785927" lon="11.85191771996869"><ele>305.6666666666667</ele><time>2026-04-18T13:22:31.001Z</time></trkpt><trkpt lat="42.091315898759746" lon="11.851819576395245"><ele>306.0</ele><time>2026-04-18T13:22:32.001Z</time></trkpt><trkpt lat="42.09146542525169" lon="11.851711530008357"><ele>303.5</ele><time>2026-04-18T13:22:33.001Z</time></trkpt><trkpt lat="42.09160894787427" lon="11.851660176420207"><ele>301.0</ele><time>2026-04-18T13:22:34.001Z</time></trkpt><trkpt lat="42.09170880851145" lon="11.851590742727268"><ele>298.5</ele><time>2026-04-18T13:22:35.001Z</time></trkpt><trkpt lat="42.09179158650112" lon="11.851467310114703"><ele>296.0</ele><time>2026-04-18T13:22:36.001Z</time></trkpt><trkpt lat="42.09188375080185" lon="11.851320628453449"><ele>296.0</ele><time>2026-04-18T13:22:37.001Z</time></trkpt><trkpt lat="42.091968046290596" lon="11.851169990166321"><ele>296.0</ele><time>2026-04-18T13:22:38.001Z</time></trkpt><trkpt lat="42.09203904757931" lon="11.8510596916723"><ele>296.0</ele><time>2026-04-18T13:22:39.001Z</time></trkpt><trkpt lat="42.09206932307537" lon="11.850950199877728"><ele>296.0</ele><time>2026-04-18T13:22:40.001Z</time></trkpt><trkpt lat="42.092058375322615" lon="11.850798596461797"><ele>296.0</ele><time>2026-04-18T13:22:41.001Z</time></trkpt><trkpt lat="42.092088958654166" lon="11.850646133180852"><ele>294.6</ele><time>2026-04-18T13:22:42.001Z</time></trkpt><trkpt lat="42.09212022911319" lon="11.850548988910633"><ele>293.20000000000005</ele><time>2026-04-18T13:22:43.001Z</time></trkpt><trkpt lat="42.09219661024563" lon="11.850485635787464"><ele>291.79999999999995</ele><time>2026-04-18T13:22:44.001Z</time></trkpt><trkpt lat="42.09230032618585" lon="11.85039218616717"><ele>290.4</ele><time>2026-04-18T13:22:45.001Z</time></trkpt><trkpt lat="42.09241520709256" lon="11.85029976838183"><ele>289.0</ele><time>2026-04-18T13:22:46.001Z</time></trkpt><trkpt lat="42.092514906096774" lon="11.850247552862644"><ele>289.0</ele><time>2026-04-18T13:22:47.001Z</time></trkpt><trkpt lat="42.09261998265366" lon="11.85021336716899"><ele>289.0</ele><time>2026-04-18T13:22:48.001Z</time></trkpt><trkpt lat="42.092758438653455" lon="11.850138924411254"><ele>289.0</ele><time>2026-04-18T13:22:49.001Z</time></trkpt><trkpt lat="42.09291620282262" lon="11.850114329656012"><ele>289.0</ele><time>2026-04-18T13:22:50.001Z</time></trkpt><trkpt lat="42.093058008471985" lon="11.85008883068936"><ele>289.25</ele><time>2026-04-18T13:22:51.001Z</time></trkpt><trkpt lat="42.09319166172817" lon="11.850063442627338"><ele>289.5</ele><time>2026-04-18T13:22:52.001Z</time></trkpt><trkpt lat="42.093326182678396" lon="11.850041196013466"><ele>289.75</ele><time>2026-04-18T13:22:53.001Z</time></trkpt><trkpt lat="42.093441031644694" lon="11.850007260988013"><ele>290.0</ele><time>2026-04-18T13:22:54.001Z</time></trkpt><trkpt lat="42.0935587478086" lon="11.850009390297823"><ele>288.0</ele><time>2026-04-18T13:22:55.001Z</time></trkpt><trkpt lat="42.09366751280381" lon="11.849997397497166"><ele>286.0</ele><time>2026-04-18T13:22:56.001Z</time></trkpt><trkpt lat="42.09376867576707" lon="11.849995326494735"><ele>284.0</ele><time>2026-04-18T13:22:57.001Z</time></trkpt><trkpt lat="42.09386406898328" lon="11.84999533573803"><ele>282.0</ele><time>2026-04-18T13:22:58.001Z</time></trkpt><trkpt lat="42.093948813582934" lon="11.849986991536031"><ele>280.0</ele><time>2026-04-18T13:22:59.001Z</time></trkpt><trkpt lat="42.094013290415965" lon="11.84997094258779"><ele>280.0</ele><time>2026-04-18T13:23:00.001Z</time></trkpt><trkpt lat="42.09406980553279" lon="11.849927714415765"><ele>280.0</ele><time>2026-04-18T13:23:01.001Z</time></trkpt><trkpt lat="42.09411935353178" lon="11.849853868177822"><ele>280.0</ele><time>2026-04-18T13:23:02.001Z</time></trkpt><trkpt lat="42.094181610416136" lon="11.849764043629047"><ele>280.0</ele><time>2026-04-18T13:23:03.001Z</time></trkpt><trkpt lat="42.09422166132875" lon="11.849671390365481"><ele>280.0</ele><time>2026-04-18T13:23:04.001Z</time></trkpt><trkpt lat="42.094269904076626" lon="11.849550026894919"><ele>280.0</ele><time>2026-04-18T13:23:05.001Z</time></trkpt><trkpt lat="42.09430063628247" lon="11.849460547593175"><ele>278.0</ele><time>2026-04-18T13:23:06.001Z</time></trkpt><trkpt lat="42.09434307306744" lon="11.849296254758007"><ele>276.0</ele><time>2026-04-18T13:23:08.001Z</time></trkpt><trkpt lat="42.09433870455936" lon="11.84920548180606"><ele>274.0</ele><time>2026-04-18T13:23:09.001Z</time></trkpt><trkpt lat="42.09430260691957" lon="11.84912594482656"><ele>272.0</ele><time>2026-04-18T13:23:10.001Z</time></trkpt><trkpt lat="42.09421863385808" lon="11.849058821485631"><ele>270.0</ele><time>2026-04-18T13:23:11.001Z</time></trkpt><trkpt lat="42.09414377994071" lon="11.848954655840776"><ele>270.0</ele><time>2026-04-18T13:23:12.001Z</time></trkpt><trkpt lat="42.09406699287735" lon="11.848829636362673"><ele>270.0</ele><time>2026-04-18T13:23:13.001Z</time></trkpt><trkpt lat="42.093996239945135" lon="11.848701936452652"><ele>270.0</ele><time>2026-04-18T13:23:14.001Z</time></trkpt><trkpt lat="42.0939328207175" lon="11.848568576941938"><ele>270.0</ele><time>2026-04-18T13:23:15.001Z</time></trkpt><trkpt lat="42.09386414114534" lon="11.848437662364109"><ele>270.0</ele><time>2026-04-18T13:23:16.001Z</time></trkpt><trkpt lat="42.0938191127636" lon="11.848290968369282"><ele>270.0</ele><time>2026-04-18T13:23:17.001Z</time></trkpt><trkpt lat="42.09377203614416" lon="11.848136399940326"><ele>270.0</ele><time>2026-04-18T13:23:18.001Z</time></trkpt><trkpt lat="42.09372688433869" lon="11.84798658085232"><ele>270.0</ele><time>2026-04-18T13:23:19.001Z</time></trkpt><trkpt lat="42.09368544401868" lon="11.847840202568833"><ele>270.0</ele><time>2026-04-18T13:23:20.001Z</time></trkpt><trkpt lat="42.0936476098785" lon="11.847693583788821"><ele>270.0</ele><time>2026-04-18T13:23:21.001Z</time></trkpt><trkpt lat="42.09358522084086" lon="11.847571492877702"><ele>270.0</ele><time>2026-04-18T13:23:22.001Z</time></trkpt><trkpt lat="42.09351995191219" lon="11.847437904242334"><ele>270.0</ele><time>2026-04-18T13:23:23.001Z</time></trkpt><trkpt lat="42.09345617531283" lon="11.847285676127488"><ele>266.25</ele><time>2026-04-18T13:23:24.001Z</time></trkpt><trkpt lat="42.093391944782944" lon="11.847142524044022"><ele>262.5</ele><time>2026-04-18T13:23:25.001Z</time></trkpt><trkpt lat="42.09331863970412" lon="11.847006644566772"><ele>258.75</ele><time>2026-04-18T13:23:26.001Z</time></trkpt><trkpt lat="42.09323476185067" lon="11.846882284997516"><ele>255.0</ele><time>2026-04-18T13:23:27.001Z</time></trkpt><trkpt lat="42.09315880940099" lon="11.846788160577415"><ele>252.0</ele><time>2026-04-18T13:23:28.001Z</time></trkpt><trkpt lat="42.09308826433809" lon="11.846718547375371"><ele>249.0</ele><time>2026-04-18T13:23:29.001Z</time></trkpt><trkpt lat="42.09301971012952" lon="11.846682704944111"><ele>246.0</ele><time>2026-04-18T13:23:30.002Z</time></trkpt><trkpt lat="42.09293054375948" lon="11.846668810080278"><ele>243.0</ele><time>2026-04-18T13:23:32.002Z</time></trkpt><trkpt lat="42.0928303072453" lon="11.846674875319584"><ele>240.0</ele><time>2026-04-18T13:23:34Z</time></trkpt><trkpt lat="42.092757398142716" lon="11.846687830914696"><ele>237.0</ele><time>2026-04-18T13:23:35Z</time></trkpt><trkpt lat="42.09266998005768" lon="11.846723408979956"><ele>237.0</ele><time>2026-04-18T13:23:36Z</time></trkpt><trkpt lat="42.092581208543265" lon="11.846772595177919"><ele>237.0</ele><time>2026-04-18T13:23:37Z</time></trkpt><trkpt lat="42.09247923859917" lon="11.846836607106596"><ele>237.0</ele><time>2026-04-18T13:23:38Z</time></trkpt><trkpt lat="42.09236993187809" lon="11.846880200715953"><ele>237.0</ele><time>2026-04-18T13:23:39Z</time></trkpt><trkpt lat="42.092264947978286" lon="11.84693709912499"><ele>237.0</ele><time>2026-04-18T13:23:40Z</time></trkpt><trkpt lat="42.09212708531395" lon="11.846954469861744"><ele>236.25</ele><time>2026-04-18T13:23:41Z</time></trkpt><trkpt lat="42.092024807751244" lon="11.846965816065453"><ele>235.5</ele><time>2026-04-18T13:23:42Z</time></trkpt><trkpt lat="42.09195623930071" lon="11.846941234418221"><ele>234.75</ele><time>2026-04-18T13:23:43Z</time></trkpt><trkpt lat="42.09182887238621" lon="11.846776562051454"><ele>234.0</ele><time>2026-04-18T13:23:45Z</time></trkpt><trkpt lat="42.09170878776911" lon="11.8466034570387"><ele>235.66666666666669</ele><time>2026-04-18T13:23:46Z</time></trkpt><trkpt lat="42.09157963070172" lon="11.846402232806122"><ele>237.33333333333334</ele><time>2026-04-18T13:23:47Z</time></trkpt><trkpt lat="42.091427667192086" lon="11.846202484337732"><ele>239.0</ele><time>2026-04-18T13:23:48Z</time></trkpt><trkpt lat="42.091289381223305" lon="11.846040591593319"><ele>236.79999999999998</ele><time>2026-04-18T13:23:49Z</time></trkpt><trkpt lat="42.09118171805004" lon="11.845918224353994"><ele>234.59999999999997</ele><time>2026-04-18T13:23:50Z</time></trkpt><trkpt lat="42.09111195223458" lon="11.845823725332815"><ele>232.4</ele><time>2026-04-18T13:23:51Z</time></trkpt><trkpt lat="42.09103626719079" lon="11.845768597227519"><ele>230.2</ele><time>2026-04-18T13:23:52Z</time></trkpt><trkpt lat="42.09098911971918" lon="11.845631793875478"><ele>228.0</ele><time>2026-04-18T13:23:53Z</time></trkpt><trkpt lat="42.09094822542049" lon="11.845437468343638"><ele>228.0</ele><time>2026-04-18T13:23:54Z</time></trkpt><trkpt lat="42.09089561366777" lon="11.845223904574356"><ele>228.0</ele><time>2026-04-18T13:23:55Z</time></trkpt><trkpt lat="42.09082453509717" lon="11.84504975027393"><ele>228.0</ele><time>2026-04-18T13:23:56Z</time></trkpt><trkpt lat="42.09075890761706" lon="11.844877793598332"><ele>224.75</ele><time>2026-04-18T13:23:57Z</time></trkpt><trkpt lat="42.090714380016784" lon="11.844748058715544"><ele>221.5</ele><time>2026-04-18T13:23:58Z</time></trkpt><trkpt lat="42.090652956225945" lon="11.844636338741006"><ele>218.25</ele><time>2026-04-18T13:23:59Z</time></trkpt><trkpt lat="42.09055015757051" lon="11.844500893276907"><ele>215.0</ele><time>2026-04-18T13:24:00Z</time></trkpt><trkpt lat="42.09044294500178" lon="11.844343837044338"><ele>212.75</ele><time>2026-04-18T13:24:01Z</time></trkpt><trkpt lat="42.09038789794089" lon="11.844194201616217"><ele>210.5</ele><time>2026-04-18T13:24:02Z</time></trkpt><trkpt lat="42.09034221615076" lon="11.844040474134617"><ele>208.25</ele><time>2026-04-18T13:24:03Z</time></trkpt><trkpt lat="42.09029234258523" lon="11.84390907459594"><ele>206.0</ele><time>2026-04-18T13:24:04Z</time></trkpt><trkpt lat="42.090241363607575" lon="11.843800586867847"><ele>206.0</ele><time>2026-04-18T13:24:05Z</time></trkpt><trkpt lat="42.090176497414" lon="11.843702738741227"><ele>206.0</ele><time>2026-04-18T13:24:06Z</time></trkpt><trkpt lat="42.09010284843749" lon="11.843616797937528"><ele>206.0</ele><time>2026-04-18T13:24:07Z</time></trkpt><trkpt lat="42.09002758667436" lon="11.843546277659483"><ele>206.0</ele><time>2026-04-18T13:24:08Z</time></trkpt><trkpt lat="42.08994614738373" lon="11.843501954935533"><ele>206.0</ele><time>2026-04-18T13:24:09Z</time></trkpt><trkpt lat="42.08983877776883" lon="11.843459957799078"><ele>203.4</ele><time>2026-04-18T13:24:10Z</time></trkpt><trkpt lat="42.08972962490141" lon="11.843435628204388"><ele>200.8</ele><time>2026-04-18T13:24:11Z</time></trkpt><trkpt lat="42.089611563823404" lon="11.843439301029019"><ele>198.20000000000002</ele><time>2026-04-18T13:24:12Z</time></trkpt><trkpt lat="42.08952060040912" lon="11.843429038174273"><ele>195.60000000000002</ele><time>2026-04-18T13:24:13Z</time></trkpt><trkpt lat="42.089461458064704" lon="11.843375576994246"><ele>193.0</ele><time>2026-04-18T13:24:14Z</time></trkpt><trkpt lat="42.08941357180049" lon="11.843296507584135"><ele>193.0</ele><time>2026-04-18T13:24:15Z</time></trkpt><trkpt lat="42.089374964499015" lon="11.843177970780534"><ele>193.0</ele><time>2026-04-18T13:24:16Z</time></trkpt><trkpt lat="42.08933317164429" lon="11.843042120521142"><ele>193.0</ele><time>2026-04-18T13:24:17Z</time></trkpt><trkpt lat="42.08928344123246" lon="11.842908401115244"><ele>193.0</ele><time>2026-04-18T13:24:18Z</time></trkpt><trkpt lat="42.08922748452181" lon="11.842793129626587"><ele>193.0</ele><time>2026-04-18T13:24:19Z</time></trkpt><trkpt lat="42.08917885845096" lon="11.842684056091183"><ele>191.75</ele><time>2026-04-18T13:24:20Z</time></trkpt><trkpt lat="42.08913820834474" lon="11.842565753580512"><ele>190.5</ele><time>2026-04-18T13:24:21Z</time></trkpt><trkpt lat="42.08910788409598" lon="11.842435110821983"><ele>189.25</ele><time>2026-04-18T13:24:22Z</time></trkpt><trkpt lat="42.08908324182808" lon="11.842293098197064"><ele>188.0</ele><time>2026-04-18T13:24:23Z</time></trkpt><trkpt lat="42.08906569839261" lon="11.842100864753624"><ele>185.2</ele><time>2026-04-18T13:24:24Z</time></trkpt><trkpt lat="42.08904710258625" lon="11.841899436950492"><ele>182.4</ele><time>2026-04-18T13:24:25Z</time></trkpt><trkpt lat="42.08902604417737" lon="11.841731250828207"><ele>179.6</ele><time>2026-04-18T13:24:26Z</time></trkpt><trkpt lat="42.08900647841365" lon="11.841624094914021"><ele>176.79999999999998</ele><time>2026-04-18T13:24:27Z</time></trkpt><trkpt lat="42.08900396878473" lon="11.841519527929753"><ele>174.0</ele><time>2026-04-18T13:24:28Z</time></trkpt><trkpt lat="42.08902338252489" lon="11.84138627855586"><ele>173.5</ele><time>2026-04-18T13:24:29Z</time></trkpt><trkpt lat="42.0890659697815" lon="11.841230425302102"><ele>173.0</ele><time>2026-04-18T13:24:30.001Z</time></trkpt><trkpt lat="42.089109519371775" lon="11.841081189235666"><ele>172.5</ele><time>2026-04-18T13:24:31.001Z</time></trkpt><trkpt lat="42.08913012424883" lon="11.84092957562542"><ele>172.0</ele><time>2026-04-18T13:24:32.001Z</time></trkpt><trkpt lat="42.089130558286016" lon="11.840752544614622"><ele>172.75</ele><time>2026-04-18T13:24:33.001Z</time></trkpt><trkpt lat="42.0891314598364" lon="11.840575158260881"><ele>173.5</ele><time>2026-04-18T13:24:34.001Z</time></trkpt><trkpt lat="42.08913589359566" lon="11.840426697622148"><ele>174.25</ele><time>2026-04-18T13:24:35.001Z</time></trkpt><trkpt lat="42.08914262126461" lon="11.840257477711644"><ele>175.0</ele><time>2026-04-18T13:24:36.001Z</time></trkpt><trkpt lat="42.08916008397151" lon="11.840102814146087"><ele>175.0</ele><time>2026-04-18T13:24:37.001Z</time></trkpt><trkpt lat="42.089189142682564" lon="11.83995297094047"><ele>175.0</ele><time>2026-04-18T13:24:38.001Z</time></trkpt><trkpt lat="42.08921776811875" lon="11.839809559369641"><ele>175.0</ele><time>2026-04-18T13:24:39.001Z</time></trkpt><trkpt lat="42.089230896072266" lon="11.839659218746652"><ele>175.0</ele><time>2026-04-18T13:24:40.001Z</time></trkpt><trkpt lat="42.08922232159159" lon="11.839510221554072"><ele>175.0</ele><time>2026-04-18T13:24:41.001Z</time></trkpt><trkpt lat="42.08919582824257" lon="11.839360039801942"><ele>173.75</ele><time>2026-04-18T13:24:42.001Z</time></trkpt><trkpt lat="42.08916565361408" lon="11.839203020923268"><ele>172.5</ele><time>2026-04-18T13:24:43.001Z</time></trkpt><trkpt lat="42.08913682763782" lon="11.839039973211051"><ele>171.25</ele><time>2026-04-18T13:24:44.001Z</time></trkpt><trkpt lat="42.089123490565" lon="11.838863089195844"><ele>170.0</ele><time>2026-04-18T13:24:45.001Z</time></trkpt><trkpt lat="42.0891182491404" lon="11.83867995026305"><ele>170.0</ele><time>2026-04-18T13:24:46.001Z</time></trkpt><trkpt lat="42.08912355359638" lon="11.838496654951701"><ele>170.0</ele><time>2026-04-18T13:24:47.001Z</time></trkpt><trkpt lat="42.08913521772968" lon="11.838334269856157"><ele>170.0</ele><time>2026-04-18T13:24:48.001Z</time></trkpt><trkpt lat="42.0891420863268" lon="11.838182588731954"><ele>170.0</ele><time>2026-04-18T13:24:49.001Z</time></trkpt><trkpt lat="42.08915983836914" lon="11.83803213370828"><ele>169.75</ele><time>2026-04-18T13:24:50.001Z</time></trkpt><trkpt lat="42.08918292912854" lon="11.837872078670502"><ele>169.5</ele><time>2026-04-18T13:24:51.001Z</time></trkpt><trkpt lat="42.08915219596956" lon="11.837696033409317"><ele>169.25</ele><time>2026-04-18T13:24:52.001Z</time></trkpt><trkpt lat="42.08912382598063" lon="11.837494839466775"><ele>169.0</ele><time>2026-04-18T13:24:53.001Z</time></trkpt><trkpt lat="42.08910116129455" lon="11.83728884025276"><ele>166.25</ele><time>2026-04-18T13:24:54.001Z</time></trkpt><trkpt lat="42.089072320769766" lon="11.837093281561685"><ele>163.5</ele><time>2026-04-18T13:24:55.001Z</time></trkpt><trkpt lat="42.08905310790161" lon="11.836942798494967"><ele>160.75</ele><time>2026-04-18T13:24:56.001Z</time></trkpt><trkpt lat="42.08903514867961" lon="11.836793292755004"><ele>158.0</ele><time>2026-04-18T13:24:57.001Z</time></trkpt><trkpt lat="42.089014854426836" lon="11.836648402442378"><ele>158.0</ele><time>2026-04-18T13:24:58.001Z</time></trkpt><trkpt lat="42.088989481758816" lon="11.836529977045036"><ele>158.0</ele><time>2026-04-18T13:24:59.001Z</time></trkpt><trkpt lat="42.08893900253737" lon="11.83642796375944"><ele>158.0</ele><time>2026-04-18T13:25:00.001Z</time></trkpt><trkpt lat="42.08889150249634" lon="11.836301263242918"><ele>158.0</ele><time>2026-04-18T13:25:01.001Z</time></trkpt><trkpt lat="42.08883896036121" lon="11.836154612680534"><ele>158.0</ele><time>2026-04-18T13:25:02.001Z</time></trkpt><trkpt lat="42.08878433741543" lon="11.836013006205967"><ele>158.60000000000002</ele><time>2026-04-18T13:25:03.001Z</time></trkpt><trkpt lat="42.0887571131862" lon="11.83589434013139"><ele>159.20000000000002</ele><time>2026-04-18T13:25:04.001Z</time></trkpt><trkpt lat="42.08874372871871" lon="11.835773741245914"><ele>159.8</ele><time>2026-04-18T13:25:05.001Z</time></trkpt><trkpt lat="42.088731698666514" lon="11.835643287392486"><ele>160.4</ele><time>2026-04-18T13:25:06.001Z</time></trkpt><trkpt lat="42.088717022507986" lon="11.835512729301698"><ele>161.0</ele><time>2026-04-18T13:25:07.001Z</time></trkpt><trkpt lat="42.08868668482711" lon="11.835388298156584"><ele>161.0</ele><time>2026-04-18T13:25:08.001Z</time></trkpt><trkpt lat="42.08863416535293" lon="11.835253129361881"><ele>161.0</ele><time>2026-04-18T13:25:09.001Z</time></trkpt><trkpt lat="42.08857717612075" lon="11.83511612083586"><ele>161.0</ele><time>2026-04-18T13:25:10.001Z</time></trkpt><trkpt lat="42.08852097959685" lon="11.83497135010942"><ele>161.0</ele><time>2026-04-18T13:25:11.001Z</time></trkpt><trkpt lat="42.088457618135195" lon="11.834832691621823"><ele>160.75</ele><time>2026-04-18T13:25:12.001Z</time></trkpt><trkpt lat="42.088402374278616" lon="11.834679327733438"><ele>160.5</ele><time>2026-04-18T13:25:13.001Z</time></trkpt><trkpt lat="42.088358271160196" lon="11.83451004822395"><ele>160.25</ele><time>2026-04-18T13:25:14.001Z</time></trkpt><trkpt lat="42.08832485728552" lon="11.83433392341589"><ele>160.0</ele><time>2026-04-18T13:25:15.001Z</time></trkpt><trkpt lat="42.08829316650405" lon="11.834154618310757"><ele>156.75</ele><time>2026-04-18T13:25:16.001Z</time></trkpt><trkpt lat="42.08825763100272" lon="11.833994716841215"><ele>153.5</ele><time>2026-04-18T13:25:17.001Z</time></trkpt><trkpt lat="42.08821529736662" lon="11.833848056831881"><ele>150.25</ele><time>2026-04-18T13:25:18.001Z</time></trkpt><trkpt lat="42.08816094256588" lon="11.833693272553234"><ele>147.0</ele><time>2026-04-18T13:25:19.001Z</time></trkpt><trkpt lat="42.08809697194592" lon="11.833535121159922"><ele>147.25</ele><time>2026-04-18T13:25:20.001Z</time></trkpt><trkpt lat="42.08802838566622" lon="11.833381524401142"><ele>147.5</ele><time>2026-04-18T13:25:21.001Z</time></trkpt><trkpt lat="42.08796410088446" lon="11.833242602743397"><ele>147.75</ele><time>2026-04-18T13:25:22.001Z</time></trkpt><trkpt lat="42.08790564792935" lon="11.833115131033864"><ele>148.0</ele><time>2026-04-18T13:25:23.001Z</time></trkpt><trkpt lat="42.087841713861216" lon="11.832980186053312"><ele>148.0</ele><time>2026-04-18T13:25:24.001Z</time></trkpt><trkpt lat="42.08777099474565" lon="11.832832894303278"><ele>148.0</ele><time>2026-04-18T13:25:25.001Z</time></trkpt><trkpt lat="42.08770326193482" lon="11.83267991952359"><ele>148.0</ele><time>2026-04-18T13:25:26.001Z</time></trkpt><trkpt lat="42.087641033641454" lon="11.832539911742614"><ele>148.0</ele><time>2026-04-18T13:25:27.001Z</time></trkpt><trkpt lat="42.08758311306865" lon="11.832411040945065"><ele>147.5</ele><time>2026-04-18T13:25:28.001Z</time></trkpt><trkpt lat="42.087541259538696" lon="11.832286544007605"><ele>147.0</ele><time>2026-04-18T13:25:29.001Z</time></trkpt><trkpt lat="42.08749449883978" lon="11.832173388811455"><ele>146.5</ele><time>2026-04-18T13:25:30.001Z</time></trkpt><trkpt lat="42.08745950889764" lon="11.832061678505234"><ele>146.0</ele><time>2026-04-18T13:25:31.001Z</time></trkpt><trkpt lat="42.08743833594898" lon="11.831962652560527"><ele>145.5</ele><time>2026-04-18T13:25:32.001Z</time></trkpt><trkpt lat="42.087416638174794" lon="11.831865654765238"><ele>145.0</ele><time>2026-04-18T13:25:33.001Z</time></trkpt><trkpt lat="42.08739651132999" lon="11.831766439295533"><ele>142.83333333333334</ele><time>2026-04-18T13:25:34.002Z</time></trkpt><trkpt lat="42.08737158391236" lon="11.831676670674362"><ele>140.66666666666669</ele><time>2026-04-18T13:25:35.002Z</time></trkpt><trkpt lat="42.08736753677503" lon="11.831590102875314"><ele>138.5</ele><time>2026-04-18T13:25:36.002Z</time></trkpt><trkpt lat="42.087344087254564" lon="11.831440287037449"><ele>136.33333333333334</ele><time>2026-04-18T13:25:38.002Z</time></trkpt><trkpt lat="42.08732663696769" lon="11.831307016060046"><ele>134.16666666666666</ele><time>2026-04-18T13:25:40Z</time></trkpt><trkpt lat="42.087312974378726" lon="11.831178386934953"><ele>132.0</ele><time>2026-04-18T13:25:42Z</time></trkpt><trkpt lat="42.08730559648583" lon="11.83105163304845"><ele>132.2</ele><time>2026-04-18T13:25:44Z</time></trkpt><trkpt lat="42.08730328045448" lon="11.830907420483431"><ele>132.39999999999998</ele><time>2026-04-18T13:25:46Z</time></trkpt><trkpt lat="42.08730035080625" lon="11.830818153265346"><ele>132.60000000000002</ele><time>2026-04-18T13:25:47Z</time></trkpt><trkpt lat="42.0872790928516" lon="11.830658849495745"><ele>132.8</ele><time>2026-04-18T13:25:49Z</time></trkpt><trkpt lat="42.087241539434196" lon="11.830504761183708"><ele>133.0</ele><time>2026-04-18T13:25:51Z</time></trkpt><trkpt lat="42.08722233106047" lon="11.830419337135227"><ele>133.0</ele><time>2026-04-18T13:25:52Z</time></trkpt><trkpt lat="42.08720000481316" lon="11.83032021162565"><ele>133.0</ele><time>2026-04-18T13:25:53Z</time></trkpt><trkpt lat="42.08717574265449" lon="11.830213047464621"><ele>133.0</ele><time>2026-04-18T13:25:54Z</time></trkpt><trkpt lat="42.087151695343" lon="11.830100390776716"><ele>133.0</ele><time>2026-04-18T13:25:55Z</time></trkpt><trkpt lat="42.087128154543855" lon="11.829965545033652"><ele>133.0</ele><time>2026-04-18T13:25:56Z</time></trkpt><trkpt lat="42.087116312489925" lon="11.829832867120825"><ele>133.0</ele><time>2026-04-18T13:25:57Z</time></trkpt><trkpt lat="42.08711544566082" lon="11.829709488780223"><ele>132.75</ele><time>2026-04-18T13:25:58Z</time></trkpt><trkpt lat="42.08712746009405" lon="11.829599808485101"><ele>132.5</ele><time>2026-04-18T13:25:59Z</time></trkpt><trkpt lat="42.087149488444176" lon="11.829466535983228"><ele>132.25</ele><time>2026-04-18T13:26:00Z</time></trkpt><trkpt lat="42.08722061048559" lon="11.829317679064538"><ele>132.0</ele><time>2026-04-18T13:26:01Z</time></trkpt><trkpt lat="42.0872290549072" lon="11.8291343719317"><ele>131.0</ele><time>2026-04-18T13:26:02Z</time></trkpt><trkpt lat="42.08724713067933" lon="11.828948176722795"><ele>130.0</ele><time>2026-04-18T13:26:03Z</time></trkpt><trkpt lat="42.08725222320016" lon="11.828753568529272"><ele>129.0</ele><time>2026-04-18T13:26:04Z</time></trkpt><trkpt lat="42.08726738624055" lon="11.828579039491396"><ele>128.0</ele><time>2026-04-18T13:26:05Z</time></trkpt><trkpt lat="42.0873049001345" lon="11.82840057875288"><ele>126.25</ele><time>2026-04-18T13:26:06Z</time></trkpt><trkpt lat="42.08733292147163" lon="11.828241244579933"><ele>124.5</ele><time>2026-04-18T13:26:07Z</time></trkpt><trkpt lat="42.08736033500096" lon="11.828083714684148"><ele>122.75</ele><time>2026-04-18T13:26:08Z</time></trkpt><trkpt lat="42.08738324266402" lon="11.827940982231032"><ele>121.0</ele><time>2026-04-18T13:26:09Z</time></trkpt><trkpt lat="42.08740217271177" lon="11.82780901716847"><ele>121.0</ele><time>2026-04-18T13:26:10Z</time></trkpt><trkpt lat="42.087369556728746" lon="11.8277046997989"><ele>121.0</ele><time>2026-04-18T13:26:11Z</time></trkpt><trkpt lat="42.08731257245357" lon="11.827638618533687"><ele>121.0</ele><time>2026-04-18T13:26:12Z</time></trkpt><trkpt lat="42.08723083425254" lon="11.827586678299461"><ele>121.0</ele><time>2026-04-18T13:26:13Z</time></trkpt><trkpt lat="42.08712418307088" lon="11.827561659455302"><ele>121.0</ele><time>2026-04-18T13:26:14Z</time></trkpt><trkpt lat="42.08702040185068" lon="11.827567380145652"><ele>120.0</ele><time>2026-04-18T13:26:15Z</time></trkpt><trkpt lat="42.08693646313461" lon="11.827535613313776"><ele>119.0</ele><time>2026-04-18T13:26:16Z</time></trkpt><trkpt lat="42.086851445957784" lon="11.827470255987807"><ele>118.0</ele><time>2026-04-18T13:26:17Z</time></trkpt><trkpt lat="42.08677781555844" lon="11.827371168961106"><ele>117.0</ele><time>2026-04-18T13:26:18Z</time></trkpt><trkpt lat="42.08670212059552" lon="11.82722701650562"><ele>116.0</ele><time>2026-04-18T13:26:19Z</time></trkpt><trkpt lat="42.08666504844443" lon="11.827045330806042"><ele>116.0</ele><time>2026-04-18T13:26:20Z</time></trkpt><trkpt lat="42.08662503995876" lon="11.826854545994053"><ele>116.0</ele><time>2026-04-18T13:26:21Z</time></trkpt><trkpt lat="42.0865701529891" lon="11.82665755732037"><ele>116.0</ele><time>2026-04-18T13:26:22Z</time></trkpt><trkpt lat="42.086523961607945" lon="11.826457735297838"><ele>113.33333333333333</ele><time>2026-04-18T13:26:23Z</time></trkpt><trkpt lat="42.08642557147672" lon="11.826255113070035"><ele>110.66666666666666</ele><time>2026-04-18T13:26:24Z</time></trkpt><trkpt lat="42.08632589062909" lon="11.826061410717314"><ele>108.0</ele><time>2026-04-18T13:26:25Z</time></trkpt><trkpt lat="42.086272689613835" lon="11.825870578298968"><ele>106.33333333333334</ele><time>2026-04-18T13:26:26.001Z</time></trkpt><trkpt lat="42.08622933054344" lon="11.825662938053279"><ele>104.66666666666667</ele><time>2026-04-18T13:26:27.001Z</time></trkpt><trkpt lat="42.08618674164746" lon="11.825435281479882"><ele>103.0</ele><time>2026-04-18T13:26:28.001Z</time></trkpt><trkpt lat="42.0861385970663" lon="11.82519150536331"><ele>100.66666666666667</ele><time>2026-04-18T13:26:29.001Z</time></trkpt><trkpt lat="42.08611571345188" lon="11.824926870333554"><ele>98.33333333333334</ele><time>2026-04-18T13:26:30.001Z</time></trkpt><trkpt lat="42.08607865890761" lon="11.824651759789212"><ele>96.0</ele><time>2026-04-18T13:26:31.001Z</time></trkpt><trkpt lat="42.08602705909933" lon="11.824406039313871"><ele>93.33333333333333</ele><time>2026-04-18T13:26:32.001Z</time></trkpt><trkpt lat="42.08595396617176" lon="11.824144563003841"><ele>90.66666666666666</ele><time>2026-04-18T13:26:33.001Z</time></trkpt><trkpt lat="42.08587092692697" lon="11.823896318449108"><ele>88.0</ele><time>2026-04-18T13:26:34.001Z</time></trkpt><trkpt lat="42.08583992072301" lon="11.823675710672802"><ele>86.66666666666666</ele><time>2026-04-18T13:26:35.001Z</time></trkpt><trkpt lat="42.08581442561698" lon="11.82344607140471"><ele>85.33333333333333</ele><time>2026-04-18T13:26:36.001Z</time></trkpt><trkpt lat="42.085792126671684" lon="11.823181834812694"><ele>84.0</ele><time>2026-04-18T13:26:37.001Z</time></trkpt><trkpt lat="42.08577478696479" lon="11.82291078435912"><ele>82.33333333333333</ele><time>2026-04-18T13:26:38.001Z</time></trkpt><trkpt lat="42.085762238202676" lon="11.822621649001093"><ele>80.66666666666666</ele><time>2026-04-18T13:26:39.001Z</time></trkpt><trkpt lat="42.08573025613523" lon="11.82233327137844"><ele>79.0</ele><time>2026-04-18T13:26:40.001Z</time></trkpt><trkpt lat="42.08569591385208" lon="11.822043081989671"><ele>77.0</ele><time>2026-04-18T13:26:41.001Z</time></trkpt><trkpt lat="42.08567124571214" lon="11.821799609728396"><ele>75.0</ele><time>2026-04-18T13:26:42.001Z</time></trkpt><trkpt lat="42.08565078434888" lon="11.821565798630015"><ele>73.0</ele><time>2026-04-18T13:26:43.001Z</time></trkpt><trkpt lat="42.08563130624271" lon="11.821343223359753"><ele>73.0</ele><time>2026-04-18T13:26:44.001Z</time></trkpt><trkpt lat="42.085615394891555" lon="11.821128006279238"><ele>73.0</ele><time>2026-04-18T13:26:45.001Z</time></trkpt><trkpt lat="42.085595243545846" lon="11.820930171566797"><ele>73.0</ele><time>2026-04-18T13:26:46.001Z</time></trkpt><trkpt lat="42.0855501019075" lon="11.820748151309145"><ele>72.0</ele><time>2026-04-18T13:26:47.001Z</time></trkpt><trkpt lat="42.08551034980476" lon="11.820558052284294"><ele>71.0</ele><time>2026-04-18T13:26:48.001Z</time></trkpt><trkpt lat="42.08546534192835" lon="11.820342840784727"><ele>70.0</ele><time>2026-04-18T13:26:49.001Z</time></trkpt><trkpt lat="42.08536558444539" lon="11.820134025503464"><ele>68.33333333333333</ele><time>2026-04-18T13:26:50.001Z</time></trkpt><trkpt lat="42.085275587745414" lon="11.819914004784005"><ele>66.66666666666667</ele><time>2026-04-18T13:26:51.001Z</time></trkpt><trkpt lat="42.085210214812335" lon="11.819676620118802"><ele>65.0</ele><time>2026-04-18T13:26:52.001Z</time></trkpt><trkpt lat="42.08515161507096" lon="11.819424381631126"><ele>63.333333333333336</ele><time>2026-04-18T13:26:53.001Z</time></trkpt><trkpt lat="42.085074560773144" lon="11.819159172357615"><ele>61.66666666666667</ele><time>2026-04-18T13:26:54.001Z</time></trkpt><trkpt lat="42.08501780270557" lon="11.818893655283167"><ele>60.0</ele><time>2026-04-18T13:26:55.001Z</time></trkpt><trkpt lat="42.084968449395426" lon="11.818614482828528"><ele>57.66666666666667</ele><time>2026-04-18T13:26:56.001Z</time></trkpt><trkpt lat="42.084907623670354" lon="11.818349007106061"><ele>55.333333333333336</ele><time>2026-04-18T13:26:57.001Z</time></trkpt><trkpt lat="42.08485282352478" lon="11.818109725178822"><ele>53.0</ele><time>2026-04-18T13:26:58.001Z</time></trkpt><trkpt lat="42.08480327497033" lon="11.817894418322098"><ele>53.0</ele><time>2026-04-18T13:26:59.001Z</time></trkpt><trkpt lat="42.084757256399755" lon="11.817694892110199"><ele>53.0</ele><time>2026-04-18T13:27:00.001Z</time></trkpt><trkpt lat="42.084690705082366" lon="11.817503353819845"><ele>53.0</ele><time>2026-04-18T13:27:01.001Z</time></trkpt><trkpt lat="42.08462079079301" lon="11.81730355072363"><ele>50.66666666666667</ele><time>2026-04-18T13:27:02.001Z</time></trkpt><trkpt lat="42.08452955727153" lon="11.817105034284925"><ele>48.333333333333336</ele><time>2026-04-18T13:27:03.001Z</time></trkpt><trkpt lat="42.08443900471268" lon="11.816890802226453"><ele>46.0</ele><time>2026-04-18T13:27:04.001Z</time></trkpt><trkpt lat="42.08434265896632" lon="11.81667800932314"><ele>45.0</ele><time>2026-04-18T13:27:05.001Z</time></trkpt><trkpt lat="42.08427018594201" lon="11.816472637386553"><ele>44.0</ele><time>2026-04-18T13:27:06.001Z</time></trkpt><trkpt lat="42.0842230038473" lon="11.816261386926863"><ele>43.0</ele><time>2026-04-18T13:27:07.001Z</time></trkpt><trkpt lat="42.08417052890463" lon="11.816013449598552"><ele>42.66666666666667</ele><time>2026-04-18T13:27:08.001Z</time></trkpt><trkpt lat="42.08411340244105" lon="11.815754590395379"><ele>42.333333333333336</ele><time>2026-04-18T13:27:09.001Z</time></trkpt><trkpt lat="42.084053894666546" lon="11.815521427643542"><ele>42.0</ele><time>2026-04-18T13:27:10.001Z</time></trkpt><trkpt lat="42.084014686086306" lon="11.815317397021662"><ele>41.0</ele><time>2026-04-18T13:27:11.001Z</time></trkpt><trkpt lat="42.08400883455056" lon="11.815135762589575"><ele>40.0</ele><time>2026-04-18T13:27:12.001Z</time></trkpt><trkpt lat="42.08399205053211" lon="11.81493583495131"><ele>39.0</ele><time>2026-04-18T13:27:13.001Z</time></trkpt><trkpt lat="42.08396065934498" lon="11.814737884929153"><ele>38.0</ele><time>2026-04-18T13:27:14.001Z</time></trkpt><trkpt lat="42.083844549195945" lon="11.814550061577354"><ele>38.0</ele><time>2026-04-18T13:27:15.001Z</time></trkpt><trkpt lat="42.083768694577685" lon="11.814359638595564"><ele>38.0</ele><time>2026-04-18T13:27:16.001Z</time></trkpt><trkpt lat="42.08369376136058" lon="11.814179538257944"><ele>38.0</ele><time>2026-04-18T13:27:17.001Z</time></trkpt><trkpt lat="42.08360711194496" lon="11.813996747250814"><ele>37.0</ele><time>2026-04-18T13:27:18.001Z</time></trkpt><trkpt lat="42.08350931983106" lon="11.813796035815303"><ele>36.0</ele><time>2026-04-18T13:27:19.001Z</time></trkpt><trkpt lat="42.08341375333905" lon="11.813587617071036"><ele>35.0</ele><time>2026-04-18T13:27:20.001Z</time></trkpt><trkpt lat="42.08333160915021" lon="11.813420359800762"><ele>34.4</ele><time>2026-04-18T13:27:21.001Z</time></trkpt><trkpt lat="42.08326372064901" lon="11.813270346598694"><ele>33.8</ele><time>2026-04-18T13:27:22.001Z</time></trkpt><trkpt lat="42.08319684861578" lon="11.813133488684697"><ele>33.2</ele><time>2026-04-18T13:27:23.001Z</time></trkpt><trkpt lat="42.08314169662951" lon="11.81301497383244"><ele>32.6</ele><time>2026-04-18T13:27:24.001Z</time></trkpt><trkpt lat="42.0830950933963" lon="11.812912167086187"><ele>32.0</ele><time>2026-04-18T13:27:25.001Z</time></trkpt><trkpt lat="42.08305211770279" lon="11.812787829576697"><ele>32.0</ele><time>2026-04-18T13:27:27.002Z</time></trkpt><trkpt lat="42.082993860299354" lon="11.812696351476673"><ele>32.0</ele><time>2026-04-18T13:27:29.002Z</time></trkpt><trkpt lat="42.08291548230344" lon="11.812742322477959"><ele>32.0</ele><time>2026-04-18T13:27:31.002Z</time></trkpt><trkpt lat="42.082905132428124" lon="11.812886037325027"><ele>32.0</ele><time>2026-04-18T13:27:32.002Z</time></trkpt><trkpt lat="42.08282161037018" lon="11.812956833569723"><ele>32.0</ele><time>2026-04-18T13:27:33.002Z</time></trkpt><trkpt lat="42.08272157978762" lon="11.813064997161893"><ele>32.0</ele><time>2026-04-18T13:27:34.002Z</time></trkpt><trkpt lat="42.08256919715882" lon="11.813180664230526"><ele>32.0</ele><time>2026-04-18T13:27:35.002Z</time></trkpt><trkpt lat="42.082433733509376" lon="11.813283614938253"><ele>32.0</ele><time>2026-04-18T13:27:36.002Z</time></trkpt><trkpt lat="42.082319517737" lon="11.813377478234864"><ele>31.25</ele><time>2026-04-18T13:27:37.002Z</time></trkpt><trkpt lat="42.08220038393797" lon="11.813479739549459"><ele>30.5</ele><time>2026-04-18T13:27:38.002Z</time></trkpt><trkpt lat="42.08209395707509" lon="11.81356306119944"><ele>29.75</ele><time>2026-04-18T13:27:39.002Z</time></trkpt><trkpt lat="42.08198526204255" lon="11.81363809858219"><ele>29.0</ele><time>2026-04-18T13:27:40.002Z</time></trkpt><trkpt lat="42.08188004843846" lon="11.813725413524597"><ele>29.0</ele><time>2026-04-18T13:27:41.002Z</time></trkpt><trkpt lat="42.08178714948669" lon="11.813801648725025"><ele>29.0</ele><time>2026-04-18T13:27:42.002Z</time></trkpt><trkpt lat="42.081715285438726" lon="11.813860717411528"><ele>29.0</ele><time>2026-04-18T13:27:43.002Z</time></trkpt><trkpt lat="42.08165906564023" lon="11.813912232011559"><ele>29.0</ele><time>2026-04-18T13:27:45Z</time></trkpt><trkpt lat="42.08166392362466" lon="11.813743316907107"><ele>29.0</ele><time>2026-04-18T13:27:47Z</time></trkpt><trkpt lat="42.08169973700475" lon="11.813659260064613"><ele>29.0</ele><time>2026-04-18T13:27:48Z</time></trkpt><trkpt lat="42.08180070117313" lon="11.81361118320711"><ele>29.0</ele><time>2026-04-18T13:27:49Z</time></trkpt><trkpt lat="42.081925939297534" lon="11.813498656697174"><ele>29.0</ele><time>2026-04-18T13:27:50Z</time></trkpt><trkpt lat="42.08200809653416" lon="11.813405095367886"><ele>29.0</ele><time>2026-04-18T13:27:51Z</time></trkpt><trkpt lat="42.082063525586115" lon="11.81332574478233"><ele>29.0</ele><time>2026-04-18T13:27:52Z</time></trkpt><trkpt lat="42.082111643322264" lon="11.813223625107439"><ele>28.799999999999997</ele><time>2026-04-18T13:27:53Z</time></trkpt><trkpt lat="42.08215620833256" lon="11.813122892258317"><ele>28.599999999999998</ele><time>2026-04-18T13:27:54Z</time></trkpt><trkpt lat="42.082185925870064" lon="11.813000205951393"><ele>28.4</ele><time>2026-04-18T13:27:55Z</time></trkpt><trkpt lat="42.082160918651674" lon="11.812863095027206"><ele>28.2</ele><time>2026-04-18T13:27:56Z</time></trkpt><trkpt lat="42.08211016358333" lon="11.812738541569475"><ele>28.0</ele><time>2026-04-18T13:27:57Z</time></trkpt><trkpt lat="42.08205625009569" lon="11.81261387242519"><ele>27.0</ele><time>2026-04-18T13:27:58Z</time></trkpt><trkpt lat="42.08200268747321" lon="11.812444166475078"><ele>26.0</ele><time>2026-04-18T13:27:59Z</time></trkpt><trkpt lat="42.081939014744975" lon="11.81223862452662"><ele>25.0</ele><time>2026-04-18T13:28:00Z</time></trkpt><trkpt lat="42.08187394409025" lon="11.812032677013548"><ele>25.0</ele><time>2026-04-18T13:28:01Z</time></trkpt><trkpt lat="42.081793190238194" lon="11.811826252374445"><ele>25.0</ele><time>2026-04-18T13:28:02Z</time></trkpt><trkpt lat="42.08171414450667" lon="11.811617604194298"><ele>25.0</ele><time>2026-04-18T13:28:03Z</time></trkpt><trkpt lat="42.08164395429539" lon="11.811433689353757"><ele>24.333333333333336</ele><time>2026-04-18T13:28:04Z</time></trkpt><trkpt lat="42.08157025382498" lon="11.811246885218589"><ele>23.666666666666668</ele><time>2026-04-18T13:28:05Z</time></trkpt><trkpt lat="42.08149768474826" lon="11.811074962226604"><ele>23.0</ele><time>2026-04-18T13:28:06Z</time></trkpt><trkpt lat="42.081430507082224" lon="11.810900272302748"><ele>22.666666666666668</ele><time>2026-04-18T13:28:07Z</time></trkpt><trkpt lat="42.08135718687498" lon="11.81071162061691"><ele>22.333333333333332</ele><time>2026-04-18T13:28:08Z</time></trkpt><trkpt lat="42.081278347395234" lon="11.810525984853143"><ele>22.0</ele><time>2026-04-18T13:28:09Z</time></trkpt><trkpt lat="42.08119797951688" lon="11.810324192614635"><ele>20.75</ele><time>2026-04-18T13:28:10Z</time></trkpt><trkpt lat="42.08113664828238" lon="11.810140595609523"><ele>19.5</ele><time>2026-04-18T13:28:11Z</time></trkpt><trkpt lat="42.08108187076977" lon="11.809958696383418"><ele>18.25</ele><time>2026-04-18T13:28:12Z</time></trkpt><trkpt lat="42.08106154593766" lon="11.809781053400517"><ele>17.0</ele><time>2026-04-18T13:28:13Z</time></trkpt><trkpt lat="42.081051907618345" lon="11.809590706796815"><ele>17.0</ele><time>2026-04-18T13:28:14Z</time></trkpt><trkpt lat="42.08103588882153" lon="11.80940521556913"><ele>17.0</ele><time>2026-04-18T13:28:15Z</time></trkpt><trkpt lat="42.08104149331562" lon="11.809244105032525"><ele>17.0</ele><time>2026-04-18T13:28:16Z</time></trkpt><trkpt lat="42.081038933123374" lon="11.809115538152334"><ele>17.0</ele><time>2026-04-18T13:28:17Z</time></trkpt><trkpt lat="42.081032699975005" lon="11.80901466976249"><ele>17.0</ele><time>2026-04-18T13:28:18Z</time></trkpt><trkpt lat="42.08102744613158" lon="11.808883606208473"><ele>16.8</ele><time>2026-04-18T13:28:20Z</time></trkpt><trkpt lat="42.0810391075353" lon="11.808789004326291"><ele>16.6</ele><time>2026-04-18T13:28:23Z</time></trkpt><trkpt lat="42.08103938304541" lon="11.808603193942615"><ele>16.400000000000002</ele><time>2026-04-18T13:28:28.001Z</time></trkpt><trkpt lat="42.081042714120606" lon="11.808462450859906"><ele>16.2</ele><time>2026-04-18T13:28:29.001Z</time></trkpt><trkpt lat="42.08106296936151" lon="11.808321019012462"><ele>16.0</ele><time>2026-04-18T13:28:30.001Z</time></trkpt><trkpt lat="42.08112657744218" lon="11.808128617242446"><ele>14.666666666666666</ele><time>2026-04-18T13:28:31.001Z</time></trkpt><trkpt lat="42.081131288611765" lon="11.807905982929004"><ele>13.333333333333332</ele><time>2026-04-18T13:28:32.001Z</time></trkpt><trkpt lat="42.08115132657929" lon="11.807694665079326"><ele>12.0</ele><time>2026-04-18T13:28:33.001Z</time></trkpt><trkpt lat="42.081157545566946" lon="11.80752170800792"><ele>11.2</ele><time>2026-04-18T13:28:34.001Z</time></trkpt><trkpt lat="42.08116069519535" lon="11.80736767213471"><ele>10.399999999999999</ele><time>2026-04-18T13:28:35.001Z</time></trkpt><trkpt lat="42.081147056298235" lon="11.807229035908103"><ele>9.600000000000001</ele><time>2026-04-18T13:28:36.001Z</time></trkpt><trkpt lat="42.0811240899073" lon="11.80713610706888"><ele>8.8</ele><time>2026-04-18T13:28:37.001Z</time></trkpt><trkpt lat="42.0811294174466" lon="11.807045936828798"><ele>8.0</ele><time>2026-04-18T13:28:38.001Z</time></trkpt><trkpt lat="42.08127464591799" lon="11.806975786651773"><ele>8.0</ele><time>2026-04-18T13:28:40.001Z</time></trkpt><trkpt lat="42.08138556283471" lon="11.806933587974743"><ele>8.0</ele><time>2026-04-18T13:28:41.001Z</time></trkpt><trkpt lat="42.08148774094412" lon="11.806865818911884"><ele>8.0</ele><time>2026-04-18T13:28:42.001Z</time></trkpt><trkpt lat="42.08155886468087" lon="11.806795784649664"><ele>8.0</ele><time>2026-04-18T13:28:43.001Z</time></trkpt><trkpt lat="42.08163254875624" lon="11.806731437084407"><ele>8.0</ele><time>2026-04-18T13:28:44.001Z</time></trkpt><trkpt lat="42.08172983135786" lon="11.8066605568467"><ele>8.0</ele><time>2026-04-18T13:28:45.001Z</time></trkpt><trkpt lat="42.081860388392" lon="11.806596130424362"><ele>8.0</ele><time>2026-04-18T13:28:46.001Z</time></trkpt><trkpt lat="42.081996787303424" lon="11.806528125510079"><ele>8.0</ele><time>2026-04-18T13:28:47.001Z</time></trkpt><trkpt lat="42.08214557384106" lon="11.806443308464518"><ele>8.0</ele><time>2026-04-18T13:28:48.001Z</time></trkpt><trkpt lat="42.082308335790934" lon="11.80635551469984"><ele>9.0</ele><time>2026-04-18T13:28:49.001Z</time></trkpt><trkpt lat="42.08247276719502" lon="11.806252743214094"><ele>10.0</ele><time>2026-04-18T13:28:50.001Z</time></trkpt><trkpt lat="42.08263294448269" lon="11.806129789150944"><ele>11.0</ele><time>2026-04-18T13:28:51.001Z</time></trkpt><trkpt lat="42.08273426936327" lon="11.80603522277849"><ele>11.0</ele><time>2026-04-18T13:28:52.001Z</time></trkpt><trkpt lat="42.082801113073224" lon="11.805996434232174"><ele>11.0</ele><time>2026-04-18T13:28:53.001Z</time></trkpt><trkpt lat="42.082861908463386" lon="11.805942699915175"><ele>11.0</ele><time>2026-04-18T13:28:55.001Z</time></trkpt><trkpt lat="42.08296842542777" lon="11.805848552500333"><ele>11.0</ele><time>2026-04-18T13:29:32.002Z</time></trkpt><trkpt lat="42.083067334738516" lon="11.80574885994346"><ele>11.0</ele><time>2026-04-18T13:29:33.002Z</time></trkpt><trkpt lat="42.08318309732693" lon="11.805612239309454"><ele>11.0</ele><time>2026-04-18T13:29:34.002Z</time></trkpt><trkpt lat="42.08324862976727" lon="11.805343284631629"><ele>11.0</ele><time>2026-04-18T13:29:35.002Z</time></trkpt><trkpt lat="42.083372525046386" lon="11.805181318467685"><ele>11.0</ele><time>2026-04-18T13:29:36.002Z</time></trkpt><trkpt lat="42.08349040224588" lon="11.805013567883684"><ele>11.333333333333332</ele><time>2026-04-18T13:29:37.002Z</time></trkpt><trkpt lat="42.08360822731756" lon="11.80484648924096"><ele>11.666666666666666</ele><time>2026-04-18T13:29:38.002Z</time></trkpt><trkpt lat="42.083731289902836" lon="11.80467632110751"><ele>12.0</ele><time>2026-04-18T13:29:39.002Z</time></trkpt><trkpt lat="42.083858150523966" lon="11.80450766505996"><ele>12.0</ele><time>2026-04-18T13:29:40.002Z</time></trkpt><trkpt lat="42.08397769216439" lon="11.804343515374494"><ele>12.0</ele><time>2026-04-18T13:29:41.002Z</time></trkpt><trkpt lat="42.08410120962349" lon="11.804178016769745"><ele>12.0</ele><time>2026-04-18T13:29:42.002Z</time></trkpt><trkpt lat="42.08420990079116" lon="11.80403369953898"><ele>12.5</ele><time>2026-04-18T13:29:43.002Z</time></trkpt><trkpt lat="42.084310522707014" lon="11.803902542279657"><ele>13.0</ele><time>2026-04-18T13:29:44.002Z</time></trkpt><trkpt lat="42.08439738030607" lon="11.803768237014598"><ele>13.5</ele><time>2026-04-18T13:29:45.002Z</time></trkpt><trkpt lat="42.08451325250221" lon="11.803657004005855"><ele>14.0</ele><time>2026-04-18T13:29:46.002Z</time></trkpt><trkpt lat="42.084613303809995" lon="11.803522182787882"><ele>13.75</ele><time>2026-04-18T13:29:47.002Z</time></trkpt><trkpt lat="42.0847129534589" lon="11.803387938545978"><ele>13.5</ele><time>2026-04-18T13:29:48.002Z</time></trkpt><trkpt lat="42.08481228189522" lon="11.803249730637052"><ele>13.25</ele><time>2026-04-18T13:29:49.002Z</time></trkpt><trkpt lat="42.08491059162196" lon="11.803116056660743"><ele>13.0</ele><time>2026-04-18T13:29:50.002Z</time></trkpt><trkpt lat="42.08500209237529" lon="11.802992472327865"><ele>13.0</ele><time>2026-04-18T13:29:51Z</time></trkpt><trkpt lat="42.08509249572961" lon="11.802870369970213"><ele>13.0</ele><time>2026-04-18T13:29:52Z</time></trkpt><trkpt lat="42.08518511569065" lon="11.802745274130354"><ele>13.0</ele><time>2026-04-18T13:29:53Z</time></trkpt><trkpt lat="42.085275125805936" lon="11.802623702970331"><ele>13.0</ele><time>2026-04-18T13:29:54Z</time></trkpt><trkpt lat="42.08536421528907" lon="11.802502248965983"><ele>13.0</ele><time>2026-04-18T13:29:55Z</time></trkpt><trkpt lat="42.08545397654715" lon="11.802379685289875"><ele>13.0</ele><time>2026-04-18T13:29:56Z</time></trkpt><trkpt lat="42.085548075010834" lon="11.802251199035059"><ele>13.0</ele><time>2026-04-18T13:29:57Z</time></trkpt><trkpt lat="42.085640177666725" lon="11.802118707100155"><ele>13.0</ele><time>2026-04-18T13:29:58Z</time></trkpt><trkpt lat="42.08572603312529" lon="11.80199303803817"><ele>12.75</ele><time>2026-04-18T13:29:59Z</time></trkpt><trkpt lat="42.0858071181695" lon="11.801881323859199"><ele>12.5</ele><time>2026-04-18T13:30:00Z</time></trkpt><trkpt lat="42.08588385401439" lon="11.801776619984"><ele>12.25</ele><time>2026-04-18T13:30:01Z</time></trkpt><trkpt lat="42.08596386060475" lon="11.801663606956915"><ele>12.0</ele><time>2026-04-18T13:30:02Z</time></trkpt><trkpt lat="42.086050531523355" lon="11.801551866722091"><ele>12.0</ele><time>2026-04-18T13:30:03Z</time></trkpt><trkpt lat="42.08613219678033" lon="11.801432457119652"><ele>12.0</ele><time>2026-04-18T13:30:04Z</time></trkpt><trkpt lat="42.08619689106671" lon="11.801294594380053"><ele>12.0</ele><time>2026-04-18T13:30:05Z</time></trkpt><trkpt lat="42.08626336401024" lon="11.801157853567071"><ele>12.0</ele><time>2026-04-18T13:30:06Z</time></trkpt><trkpt lat="42.086333358010144" lon="11.80102088174627"><ele>10.75</ele><time>2026-04-18T13:30:07Z</time></trkpt><trkpt lat="42.08639366142008" lon="11.800871969430396"><ele>9.5</ele><time>2026-04-18T13:30:08Z</time></trkpt><trkpt lat="42.08645774176255" lon="11.800719887689539"><ele>8.25</ele><time>2026-04-18T13:30:09Z</time></trkpt><trkpt lat="42.086527976233825" lon="11.800567836505682"><ele>7.0</ele><time>2026-04-18T13:30:10Z</time></trkpt><trkpt lat="42.08660081703" lon="11.800420893250767"><ele>7.0</ele><time>2026-04-18T13:30:11Z</time></trkpt><trkpt lat="42.08667054083202" lon="11.800274030059159"><ele>7.0</ele><time>2026-04-18T13:30:12Z</time></trkpt><trkpt lat="42.086740433737" lon="11.800126631361112"><ele>7.0</ele><time>2026-04-18T13:30:13Z</time></trkpt><trkpt lat="42.086815268710104" lon="11.799977926566966"><ele>7.0</ele><time>2026-04-18T13:30:14Z</time></trkpt><trkpt lat="42.08688600636311" lon="11.799828443941955"><ele>7.0</ele><time>2026-04-18T13:30:15Z</time></trkpt><trkpt lat="42.086960327745835" lon="11.799685704844306"><ele>7.0</ele><time>2026-04-18T13:30:16Z</time></trkpt><trkpt lat="42.08702485418601" lon="11.799526302767987"><ele>7.0</ele><time>2026-04-18T13:30:17Z</time></trkpt><trkpt lat="42.0870931714657" lon="11.799369346195947"><ele>7.0</ele><time>2026-04-18T13:30:18Z</time></trkpt><trkpt lat="42.08716176074329" lon="11.799215240778892"><ele>6.5</ele><time>2026-04-18T13:30:19Z</time></trkpt><trkpt lat="42.08723312382123" lon="11.799064975453588"><ele>6.0</ele><time>2026-04-18T13:30:20Z</time></trkpt><trkpt lat="42.08729556427811" lon="11.798906290228906"><ele>5.5</ele><time>2026-04-18T13:30:21Z</time></trkpt><trkpt lat="42.08736423088533" lon="11.798750979673496"><ele>5.0</ele><time>2026-04-18T13:30:22Z</time></trkpt><trkpt lat="42.08743709182178" lon="11.798601358375995"><ele>6.25</ele><time>2026-04-18T13:30:23Z</time></trkpt><trkpt lat="42.08750977668818" lon="11.798456200517457"><ele>7.5</ele><time>2026-04-18T13:30:24Z</time></trkpt><trkpt lat="42.0875791634059" lon="11.798320033244416"><ele>8.75</ele><time>2026-04-18T13:30:25Z</time></trkpt><trkpt lat="42.087643029720695" lon="11.798189833837863"><ele>10.0</ele><time>2026-04-18T13:30:26Z</time></trkpt><trkpt lat="42.08770134144405" lon="11.798071048147792"><ele>10.0</ele><time>2026-04-18T13:30:27Z</time></trkpt><trkpt lat="42.087750638556734" lon="11.797962067824228"><ele>10.0</ele><time>2026-04-18T13:30:28Z</time></trkpt><trkpt lat="42.087794942608895" lon="11.797858354544255"><ele>10.0</ele><time>2026-04-18T13:30:29Z</time></trkpt><trkpt lat="42.08783876133512" lon="11.797758213276392"><ele>10.0</ele><time>2026-04-18T13:30:30Z</time></trkpt><trkpt lat="42.08788243483334" lon="11.797669968209606"><ele>10.0</ele><time>2026-04-18T13:30:31Z</time></trkpt><trkpt lat="42.08792426398467" lon="11.797585720711744"><ele>10.0</ele><time>2026-04-18T13:30:32Z</time></trkpt><trkpt lat="42.08796422095194" lon="11.797505881766595"><ele>9.4</ele><time>2026-04-18T13:30:33Z</time></trkpt><trkpt lat="42.08800188919896" lon="11.797431123508941"><ele>8.8</ele><time>2026-04-18T13:30:34.001Z</time></trkpt><trkpt lat="42.08806899463674" lon="11.79729819430939"><ele>8.2</ele><time>2026-04-18T13:30:36.001Z</time></trkpt><trkpt lat="42.0881268223629" lon="11.79718291478676"><ele>7.6</ele><time>2026-04-18T13:30:38.001Z</time></trkpt><trkpt lat="42.08818032575806" lon="11.797056165645444"><ele>7.0</ele><time>2026-04-18T13:30:40.001Z</time></trkpt><trkpt lat="42.0882188839758" lon="11.796973699224157"><ele>7.0</ele><time>2026-04-18T13:30:41.001Z</time></trkpt><trkpt lat="42.08825146003035" lon="11.796900540916353"><ele>6.999999999999999</ele><time>2026-04-18T13:30:42.001Z</time></trkpt><trkpt lat="42.088285668313766" lon="11.796817457634338"><ele>6.999999999999999</ele><time>2026-04-18T13:30:44.001Z</time></trkpt><trkpt lat="42.08818186912735" lon="11.796794388034296"><ele>7.0</ele><time>2026-04-18T13:30:47.001Z</time></trkpt><trkpt lat="42.088137520158085" lon="11.796719658878928"><ele>7.0</ele><time>2026-04-18T13:30:49.001Z</time></trkpt><trkpt lat="42.088075810018594" lon="11.79654331430795"><ele>6.6</ele><time>2026-04-18T13:30:52.001Z</time></trkpt><trkpt lat="42.088212889292265" lon="11.796457341941588"><ele>6.199999999999999</ele><time>2026-04-18T13:30:54.001Z</time></trkpt><trkpt lat="42.08825597949376" lon="11.796302447815862"><ele>5.8</ele><time>2026-04-18T13:30:56.001Z</time></trkpt><trkpt lat="42.088284839489226" lon="11.796222642608894"><ele>5.4</ele><time>2026-04-18T13:30:57.001Z</time></trkpt><trkpt lat="42.08831677774936" lon="11.796139750836465"><ele>5.0</ele><time>2026-04-18T13:30:58.001Z</time></trkpt><trkpt lat="42.088343239339935" lon="11.796059384863016"><ele>5.0</ele><time>2026-04-18T13:30:59.001Z</time></trkpt><trkpt lat="42.08830200672913" lon="11.796138509954053"><ele>5.0</ele><time>2026-04-18T13:31:12.001Z</time></trkpt><trkpt lat="42.088507254426126" lon="11.796387305019751"><ele>5.0</ele><time>2026-04-18T13:31:13.001Z</time></trkpt><trkpt lat="42.088445272411455" lon="11.796519858106677"><ele>5.0</ele><time>2026-04-18T13:31:15.001Z</time></trkpt><trkpt lat="42.08839058841046" lon="11.796636803855767"><ele>5.0</ele><time>2026-04-18T13:31:17.001Z</time></trkpt><trkpt lat="42.08834895910316" lon="11.79672583118458"><ele>5.0</ele><time>2026-04-18T13:31:19.001Z</time></trkpt><trkpt lat="42.08807840654918" lon="11.796552353351322"><ele>4.25</ele><time>2026-04-18T13:31:20.001Z</time></trkpt><trkpt lat="42.08804903647704" lon="11.796637907152993"><ele>3.5</ele><time>2026-04-18T13:32:00Z</time></trkpt><trkpt lat="42.088018091243576" lon="11.796728050588166"><ele>2.75</ele><time>2026-04-18T13:32:03Z</time></trkpt><trkpt lat="42.08822940343891" lon="11.796822668891792"><ele>2.0</ele><time>2026-04-18T13:32:08Z</time></trkpt><trkpt lat="42.088048879227635" lon="11.796725179846902"><ele>2.0</ele><time>2026-04-18T13:32:09Z</time></trkpt><trkpt lat="42.08805499869521" lon="11.796620538737283"><ele>2.0</ele><time>2026-04-18T13:32:10Z</time></trkpt><trkpt lat="42.08808353583517" lon="11.796517423225454"><ele>2.0</ele><time>2026-04-18T13:32:11Z</time></trkpt><trkpt lat="42.088096079703234" lon="11.796417234816573"><ele>2.0</ele><time>2026-04-18T13:32:12Z</time></trkpt><trkpt lat="42.088113072529524" lon="11.796288375678586"><ele>2.0</ele><time>2026-04-18T13:32:13Z</time></trkpt><trkpt lat="42.08814740184882" lon="11.796053975134642"><ele>2.25</ele><time>2026-04-18T13:32:14Z</time></trkpt><trkpt lat="42.08819931717768" lon="11.795864366337984"><ele>2.5</ele><time>2026-04-18T13:32:15Z</time></trkpt><trkpt lat="42.08827099073027" lon="11.795671050063001"><ele>2.75</ele><time>2026-04-18T13:32:16Z</time></trkpt><trkpt lat="42.088329072846506" lon="11.795525366453132"><ele>3.0</ele><time>2026-04-18T13:32:17Z</time></trkpt><trkpt lat="42.08838019925215" lon="11.795397131359055"><ele>3.0</ele><time>2026-04-18T13:32:18Z</time></trkpt><trkpt lat="42.08844446615712" lon="11.795172844910892"><ele>3.0</ele><time>2026-04-18T13:32:20Z</time></trkpt><trkpt lat="42.08851433316962" lon="11.795043243430896"><ele>3.0</ele><time>2026-04-18T13:32:21Z</time></trkpt><trkpt lat="42.088588406870144" lon="11.79490870761174"><ele>3.0</ele><time>2026-04-18T13:32:22Z</time></trkpt><trkpt lat="42.08865799263902" lon="11.794792889874344"><ele>7.0</ele><time>2026-04-18T13:32:23Z</time></trkpt><trkpt lat="42.089210075779526" lon="11.79493758849901"><ele>7.0</ele><time>2026-04-18T13:32:24Z</time></trkpt><trkpt lat="42.08925256482599" lon="11.794823902495095"><ele>6.999999999999999</ele><time>2026-04-18T13:32:25Z</time></trkpt><trkpt lat="42.08930663667404" lon="11.794706171888132"><ele>6.999999999999999</ele><time>2026-04-18T13:32:26Z</time></trkpt><trkpt lat="42.08936041797747" lon="11.794585760676544"><ele>7.0</ele><time>2026-04-18T13:32:27Z</time></trkpt><trkpt lat="42.089414065945256" lon="11.794467447625184"><ele>7.0</ele><time>2026-04-18T13:32:28Z</time></trkpt><trkpt lat="42.089461342127706" lon="11.794361916910796"><ele>6.333333333333334</ele><time>2026-04-18T13:32:29Z</time></trkpt><trkpt lat="42.08951372522604" lon="11.79425145128172"><ele>5.666666666666667</ele><time>2026-04-18T13:32:30Z</time></trkpt><trkpt lat="42.08956030711419" lon="11.79415383625367"><ele>5.0</ele><time>2026-04-18T13:32:31Z</time></trkpt><trkpt lat="42.0896053273412" lon="11.794064655243753"><ele>4.333333333333334</ele><time>2026-04-18T13:32:32Z</time></trkpt><trkpt lat="42.08965587256383" lon="11.793960562563324"><ele>3.666666666666667</ele><time>2026-04-18T13:32:34Z</time></trkpt><trkpt lat="42.08971354049207" lon="11.793882977493931"><ele>3.0</ele><time>2026-04-18T13:32:38Z</time></trkpt><trkpt lat="42.089737986537294" lon="11.793796286375862"><ele>3.0</ele><time>2026-04-18T13:32:39Z</time></trkpt><trkpt lat="42.089773039454855" lon="11.793670863167716"><ele>3.0</ele><time>2026-04-18T13:32:40Z</time></trkpt><trkpt lat="42.08981057729206" lon="11.793577013199062"><ele>3.0</ele><time>2026-04-18T13:32:41Z</time></trkpt><trkpt lat="42.089842618681885" lon="11.793470456296964"><ele>3.0</ele><time>2026-04-18T13:32:42Z</time></trkpt><trkpt lat="42.08988239981967" lon="11.793343796010626"><ele>3.0</ele><time>2026-04-18T13:32:44Z</time></trkpt><trkpt lat="42.08992141505474" lon="11.79324483385677"><ele>3.0</ele><time>2026-04-18T13:32:46Z</time></trkpt><trkpt lat="42.08996097067175" lon="11.793163067355236"><ele>3.5999999999999996</ele><time>2026-04-18T13:32:47Z</time></trkpt><trkpt lat="42.09001033835624" lon="11.793060743745986"><ele>4.199999999999999</ele><time>2026-04-18T13:32:48Z</time></trkpt><trkpt lat="42.09008587055957" lon="11.79295031113228"><ele>4.8</ele><time>2026-04-18T13:32:49.001Z</time></trkpt><trkpt lat="42.090168499774585" lon="11.792838142110721"><ele>5.3999999999999995</ele><time>2026-04-18T13:32:50.001Z</time></trkpt><trkpt lat="42.09021883743005" lon="11.792740975363648"><ele>6.0</ele><time>2026-04-18T13:32:51.001Z</time></trkpt><trkpt lat="42.090258809138795" lon="11.792654791549502"><ele>6.0</ele><time>2026-04-18T13:32:52.001Z</time></trkpt><trkpt lat="42.09029661099846" lon="11.792579147663353"><ele>6.0</ele><time>2026-04-18T13:32:53.001Z</time></trkpt><trkpt lat="42.09033651235795" lon="11.792502089141701"><ele>6.0</ele><time>2026-04-18T13:32:54.001Z</time></trkpt><trkpt lat="42.09038883417772" lon="11.792448754020521"><ele>6.0</ele><time>2026-04-18T13:32:55.001Z</time></trkpt><trkpt lat="42.09045295678913" lon="11.79241623496098"><ele>6.0</ele><time>2026-04-18T13:32:56.001Z</time></trkpt><trkpt lat="42.09052380242712" lon="11.792399820309718"><ele>6.0</ele><time>2026-04-18T13:32:57.001Z</time></trkpt><trkpt lat="42.09063684453394" lon="11.792430242434355"><ele>6.0</ele><time>2026-04-18T13:32:59.001Z</time></trkpt><trkpt lat="42.09070375210378" lon="11.792461887571191"><ele>6.0</ele><time>2026-04-18T13:33:00.001Z</time></trkpt><trkpt lat="42.09076016927816" lon="11.792526400555298"><ele>6.0</ele><time>2026-04-18T13:33:01.001Z</time></trkpt><trkpt lat="42.090838088867784" lon="11.79262490523061"><ele>6.0</ele><time>2026-04-18T13:33:03.001Z</time></trkpt><trkpt lat="42.09089146565912" lon="11.792693631924662"><ele>6.0</ele><time>2026-04-18T13:33:05.001Z</time></trkpt><trkpt lat="42.090956771674215" lon="11.792766965507111"><ele>6.0</ele><time>2026-04-18T13:33:08.001Z</time></trkpt><trkpt lat="42.09100815832265" lon="11.79282976648068"><ele>7.199999999999999</ele><time>2026-04-18T13:33:09.001Z</time></trkpt><trkpt lat="42.09108761608731" lon="11.792861726715078"><ele>8.399999999999999</ele><time>2026-04-18T13:33:10.001Z</time></trkpt><trkpt lat="42.09118324527071" lon="11.792894241930261"><ele>9.6</ele><time>2026-04-18T13:33:13.001Z</time></trkpt><trkpt lat="42.091266542268144" lon="11.792791565926846"><ele>10.799999999999999</ele><time>2026-04-18T13:33:14.001Z</time></trkpt><trkpt lat="42.091334697479645" lon="11.792729829393453"><ele>12.0</ele><time>2026-04-18T13:33:15.001Z</time></trkpt><trkpt lat="42.09140367967826" lon="11.79264888950826"><ele>12.0</ele><time>2026-04-18T13:33:16.001Z</time></trkpt><trkpt lat="42.0914953924069" lon="11.792589327805414"><ele>12.0</ele><time>2026-04-18T13:33:17.001Z</time></trkpt><trkpt lat="42.091587544030034" lon="11.792536174457322"><ele>12.0</ele><time>2026-04-18T13:33:18.001Z</time></trkpt><trkpt lat="42.091658481277705" lon="11.792464791750113"><ele>12.0</ele><time>2026-04-18T13:33:19.001Z</time></trkpt><trkpt lat="42.09174038796459" lon="11.792396283355094"><ele>12.0</ele><time>2026-04-18T13:33:20.001Z</time></trkpt><trkpt lat="42.09182115059194" lon="11.792317462069269"><ele>12.75</ele><time>2026-04-18T13:33:21.001Z</time></trkpt><trkpt lat="42.091903206645966" lon="11.792209987261264"><ele>13.5</ele><time>2026-04-18T13:33:22.001Z</time></trkpt><trkpt lat="42.09200380489555" lon="11.792121510737609"><ele>14.25</ele><time>2026-04-18T13:33:23.001Z</time></trkpt><trkpt lat="42.09211095888238" lon="11.792028950811368"><ele>15.0</ele><time>2026-04-18T13:33:24.001Z</time></trkpt><trkpt lat="42.09220080318802" lon="11.79192669140533"><ele>15.5</ele><time>2026-04-18T13:33:25.001Z</time></trkpt><trkpt lat="42.092297102853145" lon="11.79183159832824"><ele>16.0</ele><time>2026-04-18T13:33:26.001Z</time></trkpt><trkpt lat="42.09239056133546" lon="11.791752559564607"><ele>16.5</ele><time>2026-04-18T13:33:27.001Z</time></trkpt><trkpt lat="42.09248883394151" lon="11.791661190276642"><ele>17.0</ele><time>2026-04-18T13:33:28.001Z</time></trkpt><trkpt lat="42.09257827549596" lon="11.791570921196747"><ele>17.0</ele><time>2026-04-18T13:33:29.001Z</time></trkpt><trkpt lat="42.09267478284293" lon="11.791479854248491"><ele>17.0</ele><time>2026-04-18T13:33:30.001Z</time></trkpt><trkpt lat="42.0927698722001" lon="11.791389692831912"><ele>17.0</ele><time>2026-04-18T13:33:31.001Z</time></trkpt><trkpt lat="42.09286614282424" lon="11.791305985490922"><ele>17.0</ele><time>2026-04-18T13:33:32.001Z</time></trkpt><trkpt lat="42.09295860094479" lon="11.791217627479226"><ele>17.0</ele><time>2026-04-18T13:33:33.001Z</time></trkpt><trkpt lat="42.0930536327801" lon="11.791133168525635"><ele>17.0</ele><time>2026-04-18T13:33:34.001Z</time></trkpt><trkpt lat="42.09314138373192" lon="11.79106235505055"><ele>17.0</ele><time>2026-04-18T13:33:35.001Z</time></trkpt><trkpt lat="42.09322704579129" lon="11.790996508583591"><ele>17.0</ele><time>2026-04-18T13:33:36.001Z</time></trkpt><trkpt lat="42.09342129370045" lon="11.79086317938264"><ele>17.5</ele><time>2026-04-18T13:33:38.001Z</time></trkpt><trkpt lat="42.09353648030509" lon="11.790823269820832"><ele>18.0</ele><time>2026-04-18T13:33:39.001Z</time></trkpt><trkpt lat="42.09365246394668" lon="11.790762138415142"><ele>18.5</ele><time>2026-04-18T13:33:40.001Z</time></trkpt><trkpt lat="42.09377681416106" lon="11.79069659719068"><ele>19.0</ele><time>2026-04-18T13:33:41.001Z</time></trkpt><trkpt lat="42.09391344870523" lon="11.790622737486567"><ele>19.0</ele><time>2026-04-18T13:33:42.001Z</time></trkpt><trkpt lat="42.09402726716562" lon="11.790554266433933"><ele>19.0</ele><time>2026-04-18T13:33:43.001Z</time></trkpt><trkpt lat="42.094129527123314" lon="11.790485480316711"><ele>19.0</ele><time>2026-04-18T13:33:44.001Z</time></trkpt><trkpt lat="42.0942292176311" lon="11.790410731983894"><ele>19.0</ele><time>2026-04-18T13:33:45.001Z</time></trkpt><trkpt lat="42.09431982358674" lon="11.790338894223112"><ele>18.2</ele><time>2026-04-18T13:33:46.001Z</time></trkpt><trkpt lat="42.094409500565945" lon="11.79026375445868"><ele>17.4</ele><time>2026-04-18T13:33:47.001Z</time></trkpt><trkpt lat="42.0945044827637" lon="11.7901841695384"><ele>16.6</ele><time>2026-04-18T13:33:48.002Z</time></trkpt><trkpt lat="42.09459536280993" lon="11.790109824464992"><ele>15.8</ele><time>2026-04-18T13:33:49.002Z</time></trkpt><trkpt lat="42.09469082773901" lon="11.790033865744785"><ele>15.0</ele><time>2026-04-18T13:33:50.002Z</time></trkpt><trkpt lat="42.094775638215125" lon="11.78997096888534"><ele>14.166666666666666</ele><time>2026-04-18T13:33:51.002Z</time></trkpt><trkpt lat="42.09485188818584" lon="11.789929021911965"><ele>13.333333333333334</ele><time>2026-04-18T13:33:52.002Z</time></trkpt><trkpt lat="42.09491699007686" lon="11.789905235461603"><ele>12.5</ele><time>2026-04-18T13:33:53.002Z</time></trkpt><trkpt lat="42.09502824070573" lon="11.789890222684535"><ele>11.666666666666668</ele><time>2026-04-18T13:33:55.002Z</time></trkpt><trkpt lat="42.0951060103586" lon="11.789872923693448"><ele>10.833333333333334</ele><time>2026-04-18T13:33:57.002Z</time></trkpt><trkpt lat="42.095174348718324" lon="11.789856719362762"><ele>10.0</ele><time>2026-04-18T13:33:59.002Z</time></trkpt><trkpt lat="42.09526868970138" lon="11.789833889738913"><ele>10.0</ele><time>2026-04-18T13:34:01.002Z</time></trkpt><trkpt lat="42.09536542930458" lon="11.789810479647851"><ele>10.0</ele><time>2026-04-18T13:34:02.999Z</time></trkpt><trkpt lat="42.09543105855654" lon="11.78979459799304"><ele>10.0</ele><time>2026-04-18T13:34:03.999Z</time></trkpt><trkpt lat="42.09550664443543" lon="11.789755790440893"><ele>10.0</ele><time>2026-04-18T13:34:04.999Z</time></trkpt><trkpt lat="42.09556899390511" lon="11.78973907146542"><ele>10.0</ele><time>2026-04-18T13:34:05.999Z</time></trkpt><trkpt lat="42.09565039127625" lon="11.789724050878826"><ele>10.0</ele><time>2026-04-18T13:34:06.999Z</time></trkpt><trkpt lat="42.09573603009201" lon="11.789703236452212"><ele>10.0</ele><time>2026-04-18T13:34:07.999Z</time></trkpt><trkpt lat="42.09581541602689" lon="11.789702825398152"><ele>10.0</ele><time>2026-04-18T13:34:08.999Z</time></trkpt><trkpt lat="42.095894222858604" lon="11.789684018038056"><ele>10.0</ele><time>2026-04-18T13:34:09.999Z</time></trkpt><trkpt lat="42.095969166484366" lon="11.789666132687493"><ele>10.0</ele><time>2026-04-18T13:34:10.999Z</time></trkpt><trkpt lat="42.0960503920758" lon="11.789646748146287"><ele>10.0</ele><time>2026-04-18T13:34:11.999Z</time></trkpt><trkpt lat="42.096135163100435" lon="11.789626517437167"><ele>10.0</ele><time>2026-04-18T13:34:12.999Z</time></trkpt><trkpt lat="42.09622785684764" lon="11.789604378317973"><ele>10.0</ele><time>2026-04-18T13:34:13.999Z</time></trkpt><trkpt lat="42.09633443906062" lon="11.789578918955511"><ele>10.0</ele><time>2026-04-18T13:34:14.999Z</time></trkpt><trkpt lat="42.096430334748575" lon="11.789556012272527"><ele>10.0</ele><time>2026-04-18T13:34:15.999Z</time></trkpt><trkpt lat="42.09651886530413" lon="11.789534864944898"><ele>10.0</ele><time>2026-04-18T13:34:16.999Z</time></trkpt><trkpt lat="42.09660621242471" lon="11.78951441110502"><ele>10.0</ele><time>2026-04-18T13:34:17.999Z</time></trkpt><trkpt lat="42.09672543952241" lon="11.789486172610562"><ele>9.4</ele><time>2026-04-18T13:34:19.999Z</time></trkpt><trkpt lat="42.096823894058645" lon="11.789461187181644"><ele>8.8</ele><time>2026-04-18T13:34:22Z</time></trkpt><trkpt lat="42.09692225714464" lon="11.78946418022994"><ele>8.2</ele><time>2026-04-18T13:34:24Z</time></trkpt><trkpt lat="42.09704464892324" lon="11.789362658200046"><ele>7.6</ele><time>2026-04-18T13:34:26Z</time></trkpt><trkpt lat="42.097134335749715" lon="11.789316012732378"><ele>7.0</ele><time>2026-04-18T13:34:27Z</time></trkpt><trkpt lat="42.097229819626" lon="11.789267090536377"><ele>7.0</ele><time>2026-04-18T13:34:28Z</time></trkpt><trkpt lat="42.097327520437915" lon="11.78921703322532"><ele>7.0</ele><time>2026-04-18T13:34:29Z</time></trkpt><trkpt lat="42.09742888818257" lon="11.789174160345771"><ele>7.0</ele><time>2026-04-18T13:34:30Z</time></trkpt><trkpt lat="42.097542856752014" lon="11.789120750303839"><ele>7.0</ele><time>2026-04-18T13:34:31Z</time></trkpt><trkpt lat="42.09765076757009" lon="11.789050666047496"><ele>7.0</ele><time>2026-04-18T13:34:32Z</time></trkpt><trkpt lat="42.09775982093822" lon="11.789002484505339"><ele>6.999999999999999</ele><time>2026-04-18T13:34:33Z</time></trkpt><trkpt lat="42.097875111019874" lon="11.788959543263191"><ele>6.999999999999999</ele><time>2026-04-18T13:34:34Z</time></trkpt><trkpt lat="42.097977630752865" lon="11.788907356169847"><ele>7.0</ele><time>2026-04-18T13:34:35Z</time></trkpt><trkpt lat="42.09806653360052" lon="11.788863060162928"><ele>7.0</ele><time>2026-04-18T13:34:36Z</time></trkpt><trkpt lat="42.09815844759205" lon="11.788826161783229"><ele>7.0</ele><time>2026-04-18T13:34:37Z</time></trkpt><trkpt lat="42.09825678941054" lon="11.788779078884714"><ele>6.999999999999999</ele><time>2026-04-18T13:34:38Z</time></trkpt><trkpt lat="42.098356296982715" lon="11.788727034884685"><ele>6.999999999999999</ele><time>2026-04-18T13:34:39Z</time></trkpt><trkpt lat="42.09845858625109" lon="11.788678029122252"><ele>7.0</ele><time>2026-04-18T13:34:40Z</time></trkpt><trkpt lat="42.09856496846225" lon="11.78863155059907"><ele>7.0</ele><time>2026-04-18T13:34:41Z</time></trkpt><trkpt lat="42.098674094355566" lon="11.78858154041585"><ele>7.0</ele><time>2026-04-18T13:34:42Z</time></trkpt><trkpt lat="42.09878723399016" lon="11.788514826900457"><ele>7.0</ele><time>2026-04-18T13:34:43Z</time></trkpt><trkpt lat="42.098890963953785" lon="11.788418974165324"><ele>7.0</ele><time>2026-04-18T13:34:44Z</time></trkpt><trkpt lat="42.09898202176653" lon="11.78830424980056"><ele>7.0</ele><time>2026-04-18T13:34:45Z</time></trkpt><trkpt lat="42.09907078831781" lon="11.788193953456839"><ele>7.75</ele><time>2026-04-18T13:34:46Z</time></trkpt><trkpt lat="42.099163561234576" lon="11.788100331189069"><ele>8.5</ele><time>2026-04-18T13:34:47Z</time></trkpt><trkpt lat="42.09925704322692" lon="11.788000538410984"><ele>9.25</ele><time>2026-04-18T13:34:48Z</time></trkpt><trkpt lat="42.09934980549119" lon="11.787898539098052"><ele>10.0</ele><time>2026-04-18T13:34:49Z</time></trkpt><trkpt lat="42.09944329474979" lon="11.787803782101868"><ele>10.0</ele><time>2026-04-18T13:34:50Z</time></trkpt><trkpt lat="42.09953210181708" lon="11.787712346437738"><ele>10.0</ele><time>2026-04-18T13:34:51Z</time></trkpt><trkpt lat="42.09961975810965" lon="11.78763401198268"><ele>10.0</ele><time>2026-04-18T13:34:52Z</time></trkpt><trkpt lat="42.0996967776798" lon="11.787543410395038"><ele>10.0</ele><time>2026-04-18T13:34:53Z</time></trkpt><trkpt lat="42.09976340743987" lon="11.787471980564934"><ele>10.0</ele><time>2026-04-18T13:34:54Z</time></trkpt><trkpt lat="42.09982945455866" lon="11.787406331296308"><ele>10.0</ele><time>2026-04-18T13:34:55Z</time></trkpt><trkpt lat="42.09987981523492" lon="11.787340587604291"><ele>10.0</ele><time>2026-04-18T13:34:56Z</time></trkpt><trkpt lat="42.099930810425874" lon="11.787289525250603"><ele>10.0</ele><time>2026-04-18T13:34:57Z</time></trkpt><trkpt lat="42.09998688813906" lon="11.787228062803564"><ele>10.0</ele><time>2026-04-18T13:34:58Z</time></trkpt><trkpt lat="42.100051773844186" lon="11.787160136839695"><ele>10.0</ele><time>2026-04-18T13:34:59Z</time></trkpt><trkpt lat="42.10012473889832" lon="11.78708442580828"><ele>10.0</ele><time>2026-04-18T13:35:00Z</time></trkpt><trkpt lat="42.100200064177415" lon="11.787006225218125"><ele>10.0</ele><time>2026-04-18T13:35:01.001Z</time></trkpt><trkpt lat="42.10027780939622" lon="11.786931321744284"><ele>10.0</ele><time>2026-04-18T13:35:02.001Z</time></trkpt><trkpt lat="42.100362855201695" lon="11.786857661452528"><ele>10.0</ele><time>2026-04-18T13:35:03.001Z</time></trkpt><trkpt lat="42.100452786461794" lon="11.786782302872487"><ele>10.0</ele><time>2026-04-18T13:35:04.001Z</time></trkpt><trkpt lat="42.10054774456163" lon="11.786711458696342"><ele>10.0</ele><time>2026-04-18T13:35:05.001Z</time></trkpt><trkpt lat="42.10064544458233" lon="11.786646691977456"><ele>10.0</ele><time>2026-04-18T13:35:06.001Z</time></trkpt><trkpt lat="42.10074758553206" lon="11.786595927837627"><ele>10.0</ele><time>2026-04-18T13:35:07.001Z</time></trkpt><trkpt lat="42.100860493319495" lon="11.78656378858766"><ele>10.0</ele><time>2026-04-18T13:35:08.001Z</time></trkpt><trkpt lat="42.100981208325216" lon="11.786537684236169"><ele>10.0</ele><time>2026-04-18T13:35:09.001Z</time></trkpt><trkpt lat="42.101109534172586" lon="11.786515190168416"><ele>9.75</ele><time>2026-04-18T13:35:10.001Z</time></trkpt><trkpt lat="42.10124394279017" lon="11.786495152705909"><ele>9.5</ele><time>2026-04-18T13:35:11.001Z</time></trkpt><trkpt lat="42.10135670612813" lon="11.786479099597765"><ele>9.25</ele><time>2026-04-18T13:35:12.001Z</time></trkpt><trkpt lat="42.10148121033344" lon="11.78647775253307"><ele>9.0</ele><time>2026-04-18T13:35:13.001Z</time></trkpt><trkpt lat="42.10161075083496" lon="11.786483741414614"><ele>9.0</ele><time>2026-04-18T13:35:14.001Z</time></trkpt><trkpt lat="42.10174832628533" lon="11.786500437767009"><ele>9.0</ele><time>2026-04-18T13:35:15.001Z</time></trkpt><trkpt lat="42.10189362928586" lon="11.78649944660407"><ele>9.0</ele><time>2026-04-18T13:35:16.001Z</time></trkpt><trkpt lat="42.10203775856674" lon="11.786490062121771"><ele>9.0</ele><time>2026-04-18T13:35:17.001Z</time></trkpt><trkpt lat="42.1021847200841" lon="11.786492863996322"><ele>9.0</ele><time>2026-04-18T13:35:18.001Z</time></trkpt><trkpt lat="42.10233435038472" lon="11.786502084960736"><ele>9.0</ele><time>2026-04-18T13:35:19.001Z</time></trkpt><trkpt lat="42.10247908259701" lon="11.786511882669005"><ele>9.0</ele><time>2026-04-18T13:35:20.001Z</time></trkpt><trkpt lat="42.10261678034758" lon="11.786521099356703"><ele>9.0</ele><time>2026-04-18T13:35:21.001Z</time></trkpt><trkpt lat="42.10275784016927" lon="11.786528226288587"><ele>8.5</ele><time>2026-04-18T13:35:22.001Z</time></trkpt><trkpt lat="42.10289737000364" lon="11.786533431321038"><ele>8.0</ele><time>2026-04-18T13:35:23.001Z</time></trkpt><trkpt lat="42.103034449520315" lon="11.786540214769328"><ele>7.5</ele><time>2026-04-18T13:35:24.001Z</time></trkpt><trkpt lat="42.10315769053607" lon="11.786545912880872"><ele>7.0</ele><time>2026-04-18T13:35:25.001Z</time></trkpt><trkpt lat="42.103281427061496" lon="11.786542434406917"><ele>7.0</ele><time>2026-04-18T13:35:26.001Z</time></trkpt><trkpt lat="42.103408735131744" lon="11.786522025084144"><ele>7.0</ele><time>2026-04-18T13:35:27.001Z</time></trkpt><trkpt lat="42.10353160819346" lon="11.78648426576616"><ele>7.0</ele><time>2026-04-18T13:35:28.001Z</time></trkpt><trkpt lat="42.103640164684634" lon="11.786427572143213"><ele>7.0</ele><time>2026-04-18T13:35:29.001Z</time></trkpt><trkpt lat="42.10373741952977" lon="11.786366411051398"><ele>7.0</ele><time>2026-04-18T13:35:30.001Z</time></trkpt><trkpt lat="42.10382955254347" lon="11.786293430472456"><ele>6.999999999999999</ele><time>2026-04-18T13:35:31.001Z</time></trkpt><trkpt lat="42.103912477490496" lon="11.78621715870001"><ele>6.999999999999999</ele><time>2026-04-18T13:35:32.001Z</time></trkpt><trkpt lat="42.10398859532742" lon="11.786142100044103"><ele>7.0</ele><time>2026-04-18T13:35:33.001Z</time></trkpt><trkpt lat="42.10406302971295" lon="11.786070276604278"><ele>7.0</ele><time>2026-04-18T13:35:34.001Z</time></trkpt><trkpt lat="42.10412652474653" lon="11.786004076535681"><ele>6.833333333333334</ele><time>2026-04-18T13:35:35.001Z</time></trkpt><trkpt lat="42.104181259875055" lon="11.78595189995741"><ele>6.666666666666667</ele><time>2026-04-18T13:35:36.001Z</time></trkpt><trkpt lat="42.1042493393165" lon="11.785965574949365"><ele>6.5</ele><time>2026-04-18T13:35:38.001Z</time></trkpt><trkpt lat="42.10430329000108" lon="11.786021809243618"><ele>6.333333333333334</ele><time>2026-04-18T13:35:39.001Z</time></trkpt><trkpt lat="42.10424939593623" lon="11.786138946772061"><ele>6.166666666666667</ele><time>2026-04-18T13:35:40.001Z</time></trkpt><trkpt lat="42.10417868303921" lon="11.786207103329467"><ele>6.0</ele><time>2026-04-18T13:35:41.001Z</time></trkpt><trkpt lat="42.10409513389371" lon="11.78628171484017"><ele>6.199999999999999</ele><time>2026-04-18T13:35:42.001Z</time></trkpt><trkpt lat="42.104061669029555" lon="11.786369398307576"><ele>6.3999999999999995</ele><time>2026-04-18T13:35:43.001Z</time></trkpt><trkpt lat="42.10407047877023" lon="11.786472360610539"><ele>6.6</ele><time>2026-04-18T13:35:44.001Z</time></trkpt><trkpt lat="42.10409219094489" lon="11.786588673199745"><ele>6.8</ele><time>2026-04-18T13:35:45.001Z</time></trkpt><trkpt lat="42.10410853930737" lon="11.786739492047303"><ele>7.0</ele><time>2026-04-18T13:35:47.001Z</time></trkpt><trkpt lat="42.10421077225365" lon="11.786836639702324"><ele>7.199999999999999</ele><time>2026-04-18T13:35:49.001Z</time></trkpt><trkpt lat="42.10429175704757" lon="11.786775908393254"><ele>7.3999999999999995</ele><time>2026-04-18T13:35:50.001Z</time></trkpt><trkpt lat="42.10435455740151" lon="11.78669642165418"><ele>7.6000000000000005</ele><time>2026-04-18T13:35:51.001Z</time></trkpt><trkpt lat="42.10442108334332" lon="11.786612628719032"><ele>7.800000000000001</ele><time>2026-04-18T13:35:52.002Z</time></trkpt><trkpt lat="42.10449848971085" lon="11.786514732154656"><ele>8.0</ele><time>2026-04-18T13:35:53.002Z</time></trkpt><trkpt lat="42.1045721668838" lon="11.786406386939827"><ele>8.0</ele><time>2026-04-18T13:35:54.002Z</time></trkpt><trkpt lat="42.10465540426312" lon="11.78629875464008"><ele>8.0</ele><time>2026-04-18T13:35:55.002Z</time></trkpt><trkpt lat="42.10474736075974" lon="11.786175922167871"><ele>8.0</ele><time>2026-04-18T13:35:56.002Z</time></trkpt><trkpt lat="42.10484526213566" lon="11.786049725730942"><ele>8.0</ele><time>2026-04-18T13:35:57.002Z</time></trkpt><trkpt lat="42.10494968166592" lon="11.785907918854287"><ele>8.0</ele><time>2026-04-18T13:35:58.002Z</time></trkpt><trkpt lat="42.10504707271963" lon="11.785771901391362"><ele>8.0</ele><time>2026-04-18T13:35:59.002Z</time></trkpt><trkpt lat="42.10516357955157" lon="11.785645509003649"><ele>8.0</ele><time>2026-04-18T13:36:00.002Z</time></trkpt><trkpt lat="42.10527137421926" lon="11.78550062294941"><ele>8.0</ele><time>2026-04-18T13:36:01.002Z</time></trkpt><trkpt lat="42.10537823499681" lon="11.785342061331361"><ele>7.666666666666666</ele><time>2026-04-18T13:36:02.002Z</time></trkpt><trkpt lat="42.1054749926583" lon="11.78516812576035"><ele>7.333333333333334</ele><time>2026-04-18T13:36:03.002Z</time></trkpt><trkpt lat="42.10558494966501" lon="11.785005661034408"><ele>7.0</ele><time>2026-04-18T13:36:04.002Z</time></trkpt><trkpt lat="42.10569259056057" lon="11.784845690052261"><ele>7.0</ele><time>2026-04-18T13:36:05.002Z</time></trkpt><trkpt lat="42.10580085686546" lon="11.784686278393004"><ele>7.0</ele><time>2026-04-18T13:36:06.002Z</time></trkpt><trkpt lat="42.10591110049611" lon="11.784526094659762"><ele>7.0</ele><time>2026-04-18T13:36:07.002Z</time></trkpt><trkpt lat="42.106015104716164" lon="11.784365372088471"><ele>6.333333333333334</ele><time>2026-04-18T13:36:08.002Z</time></trkpt><trkpt lat="42.10611455244295" lon="11.784212098003547"><ele>5.666666666666667</ele><time>2026-04-18T13:36:09Z</time></trkpt><trkpt lat="42.10621460841086" lon="11.78405937003892"><ele>5.0</ele><time>2026-04-18T13:36:10Z</time></trkpt><trkpt lat="42.10631751676855" lon="11.783904963493425"><ele>5.0</ele><time>2026-04-18T13:36:11Z</time></trkpt><trkpt lat="42.10642032643502" lon="11.783745278773782"><ele>5.0</ele><time>2026-04-18T13:36:12Z</time></trkpt><trkpt lat="42.106530367319884" lon="11.783582045525907"><ele>5.0</ele><time>2026-04-18T13:36:13Z</time></trkpt><trkpt lat="42.106642814374375" lon="11.783416506110468"><ele>5.333333333333334</ele><time>2026-04-18T13:36:14Z</time></trkpt><trkpt lat="42.10675580410907" lon="11.783247700143045"><ele>5.666666666666667</ele><time>2026-04-18T13:36:15Z</time></trkpt><trkpt lat="42.106860618450746" lon="11.783086202912763"><ele>6.0</ele><time>2026-04-18T13:36:16Z</time></trkpt><trkpt lat="42.106969471472006" lon="11.782916719769817"><ele>6.0</ele><time>2026-04-18T13:36:17Z</time></trkpt><trkpt lat="42.10709658312392" lon="11.782762784959925"><ele>6.0</ele><time>2026-04-18T13:36:18Z</time></trkpt><trkpt lat="42.10721462731924" lon="11.782590877799954"><ele>6.0</ele><time>2026-04-18T13:36:19Z</time></trkpt><trkpt lat="42.10732671098032" lon="11.78242765057692"><ele>5.25</ele><time>2026-04-18T13:36:20Z</time></trkpt><trkpt lat="42.10742433538323" lon="11.782285480469431"><ele>4.5</ele><time>2026-04-18T13:36:21Z</time></trkpt><trkpt lat="42.107513998963036" lon="11.782155064572757"><ele>3.75</ele><time>2026-04-18T13:36:22Z</time></trkpt><trkpt lat="42.10759430459118" lon="11.782039619614325"><ele>3.0</ele><time>2026-04-18T13:36:23Z</time></trkpt><trkpt lat="42.1076570746301" lon="11.781951555838994"><ele>3.0</ele><time>2026-04-18T13:36:24Z</time></trkpt><trkpt lat="42.107704591956775" lon="11.781888315910882"><ele>3.0</ele><time>2026-04-18T13:36:25Z</time></trkpt><trkpt lat="42.107767069020795" lon="11.781854707675505"><ele>3.0</ele><time>2026-04-18T13:36:28Z</time></trkpt><trkpt lat="42.10778439141216" lon="11.781965469329727"><ele>3.0</ele><time>2026-04-18T13:36:32Z</time></trkpt><trkpt lat="42.107718588548074" lon="11.782067708296221"><ele>3.0</ele><time>2026-04-18T13:36:34Z</time></trkpt><trkpt lat="42.1076929232059" lon="11.78217235309501"><ele>3.0</ele><time>2026-04-18T13:36:37Z</time></trkpt><trkpt lat="42.10765293702121" lon="11.782254360857996"><ele>3.0</ele><time>2026-04-18T13:36:39Z</time></trkpt><trkpt lat="42.10762145340076" lon="11.782336211119492"><ele>3.0</ele><time>2026-04-18T13:36:42Z</time></trkpt><trkpt lat="42.107635396307785" lon="11.782426110417584"><ele>3.0</ele><time>2026-04-18T13:36:45Z</time></trkpt><trkpt lat="42.10770750383482" lon="11.782448007213855"><ele>3.0</ele><time>2026-04-18T13:36:47Z</time></trkpt><trkpt lat="42.107774669325444" lon="11.78237904136655"><ele>3.0</ele><time>2026-04-18T13:36:49Z</time></trkpt><trkpt lat="42.1078326171273" lon="11.782280211320007"><ele>3.0</ele><time>2026-04-18T13:36:51Z</time></trkpt><trkpt lat="42.10787400794115" lon="11.782199385318359"><ele>3.0</ele><time>2026-04-18T13:36:53.001Z</time></trkpt><trkpt lat="42.10793237553196" lon="11.782132618491064"><ele>3.0</ele><time>2026-04-18T13:36:56.001Z</time></trkpt><trkpt lat="42.10796445837468" lon="11.782042489783745"><ele>3.0</ele><time>2026-04-18T13:36:59.001Z</time></trkpt></trkseg></trk></gpx>